<?xml version="1.0" encoding="UTF-8" standalone="no" ?>
<gpx xmlns="http://www.topografix.com/GPX/1/1" xmlns:xsi="http://www.w3.org/2001/XMLSchema-instance" xsi:schemaLocation="http://www.topografix.com/GPX/1/1 http://www.topografix.com/GPX/1/1/gpx.xsd" version="1.1" creator="VisuGPX - https://www.visugpx.com">
  <metadata>
    <name>Carcassonne - ALARIC </name>
  </metadata>
  <trk>
    <name><![CDATA[Tracé actuel: 09 FEV 2020 08:46]]></name>
    <extensions>
      <line xmlns="http://www.topografix.com/GPX/gpx_style/0/2">
        <color>0000FF</color>
        <width>4</width>
      </line>
    </extensions>
    <trkseg>
      <trkpt lat="43.1845" lon="2.41493">
        <ele>154.7</ele>
        <time>2020-02-09T08:32:02Z</time>
      </trkpt>
      <trkpt lat="43.18515" lon="2.41551">
        <ele>149.8</ele>
      </trkpt>
      <trkpt lat="43.18578" lon="2.41506">
        <ele>147.6</ele>
      </trkpt>
      <trkpt lat="43.1864" lon="2.4151">
        <ele>150.4</ele>
      </trkpt>
      <trkpt lat="43.18633" lon="2.41687">
        <ele>160.68</ele>
        <time>2020-02-09T08:32:19Z</time>
      </trkpt>
      <trkpt lat="43.18633" lon="2.41693">
        <ele>160.68</ele>
        <time>2020-02-09T08:32:20Z</time>
      </trkpt>
      <trkpt lat="43.18633" lon="2.41726">
        <ele>158.75</ele>
        <time>2020-02-09T08:32:25Z</time>
      </trkpt>
      <trkpt lat="43.18637" lon="2.41755">
        <ele>158.75</ele>
        <time>2020-02-09T08:32:29Z</time>
      </trkpt>
      <trkpt lat="43.18636" lon="2.41761">
        <ele>159.24</ele>
        <time>2020-02-09T08:32:30Z</time>
      </trkpt>
      <trkpt lat="43.18635" lon="2.41774">
        <ele>159.24</ele>
        <time>2020-02-09T08:32:32Z</time>
      </trkpt>
      <trkpt lat="43.18633" lon="2.41781">
        <ele>158.75</ele>
        <time>2020-02-09T08:32:33Z</time>
      </trkpt>
      <trkpt lat="43.18632" lon="2.41788">
        <ele>158.27</ele>
        <time>2020-02-09T08:32:34Z</time>
      </trkpt>
      <trkpt lat="43.18633" lon="2.41795">
        <ele>157.79</ele>
        <time>2020-02-09T08:32:35Z</time>
      </trkpt>
      <trkpt lat="43.18634" lon="2.41802">
        <ele>156.83</ele>
        <time>2020-02-09T08:32:36Z</time>
      </trkpt>
      <trkpt lat="43.18636" lon="2.41807">
        <ele>156.35</ele>
        <time>2020-02-09T08:32:37Z</time>
      </trkpt>
      <trkpt lat="43.1864" lon="2.41811">
        <ele>155.87</ele>
        <time>2020-02-09T08:32:38Z</time>
      </trkpt>
      <trkpt lat="43.18646" lon="2.41814">
        <ele>154.91</ele>
        <time>2020-02-09T08:32:39Z</time>
      </trkpt>
      <trkpt lat="43.18652" lon="2.41816">
        <ele>154.43</ele>
        <time>2020-02-09T08:32:40Z</time>
      </trkpt>
      <trkpt lat="43.18659" lon="2.41816">
        <ele>153.47</ele>
        <time>2020-02-09T08:32:41Z</time>
      </trkpt>
      <trkpt lat="43.18665" lon="2.41816">
        <ele>153.95</ele>
        <time>2020-02-09T08:32:42Z</time>
      </trkpt>
      <trkpt lat="43.18677" lon="2.41815">
        <ele>154.43</ele>
        <time>2020-02-09T08:32:44Z</time>
      </trkpt>
      <trkpt lat="43.18682" lon="2.41816">
        <ele>153.95</ele>
        <time>2020-02-09T08:32:45Z</time>
      </trkpt>
      <trkpt lat="43.18686" lon="2.41819">
        <ele>152.99</ele>
        <time>2020-02-09T08:32:46Z</time>
      </trkpt>
      <trkpt lat="43.18689" lon="2.41824">
        <ele>152.03</ele>
        <time>2020-02-09T08:32:47Z</time>
      </trkpt>
      <trkpt lat="43.18692" lon="2.41832">
        <ele>151.06</ele>
        <time>2020-02-09T08:32:48Z</time>
      </trkpt>
      <trkpt lat="43.18694" lon="2.4184">
        <ele>151.54</ele>
        <time>2020-02-09T08:32:49Z</time>
      </trkpt>
      <trkpt lat="43.18694" lon="2.41848">
        <ele>151.06</ele>
        <time>2020-02-09T08:32:50Z</time>
      </trkpt>
      <trkpt lat="43.18695" lon="2.41855">
        <ele>151.06</ele>
        <time>2020-02-09T08:32:51Z</time>
      </trkpt>
      <trkpt lat="43.18696" lon="2.41863">
        <ele>151.54</ele>
        <time>2020-02-09T08:32:52Z</time>
      </trkpt>
      <trkpt lat="43.1871" lon="2.42002">
        <ele>150.58</ele>
        <time>2020-02-09T08:33:16Z</time>
      </trkpt>
      <trkpt lat="43.18711" lon="2.42013">
        <ele>151.54</ele>
        <time>2020-02-09T08:33:29Z</time>
      </trkpt>
      <trkpt lat="43.18715" lon="2.42016">
        <ele>153.95</ele>
        <time>2020-02-09T08:33:48Z</time>
      </trkpt>
      <trkpt lat="43.18715" lon="2.42015">
        <ele>153.95</ele>
        <time>2020-02-09T08:34:16Z</time>
      </trkpt>
      <trkpt lat="43.18715" lon="2.42018">
        <ele>153.95</ele>
        <time>2020-02-09T08:34:52Z</time>
      </trkpt>
      <trkpt lat="43.18716" lon="2.42021">
        <ele>154.43</ele>
        <time>2020-02-09T08:35:06Z</time>
      </trkpt>
      <trkpt lat="43.18717" lon="2.42022">
        <ele>154.43</ele>
        <time>2020-02-09T08:35:07Z</time>
      </trkpt>
      <trkpt lat="43.18718" lon="2.42023">
        <ele>154.43</ele>
        <time>2020-02-09T08:35:08Z</time>
      </trkpt>
      <trkpt lat="43.18719" lon="2.42025">
        <ele>153.95</ele>
        <time>2020-02-09T08:35:09Z</time>
      </trkpt>
      <trkpt lat="43.1872" lon="2.42027">
        <ele>154.43</ele>
        <time>2020-02-09T08:35:10Z</time>
      </trkpt>
      <trkpt lat="43.18723" lon="2.42044">
        <ele>156.35</ele>
        <time>2020-02-09T08:35:17Z</time>
      </trkpt>
      <trkpt lat="43.18722" lon="2.42072">
        <ele>159.24</ele>
        <time>2020-02-09T08:35:28Z</time>
      </trkpt>
      <trkpt lat="43.18721" lon="2.42078">
        <ele>160.68</ele>
        <time>2020-02-09T08:35:31Z</time>
      </trkpt>
      <trkpt lat="43.18721" lon="2.4208">
        <ele>160.2</ele>
        <time>2020-02-09T08:35:32Z</time>
      </trkpt>
      <trkpt lat="43.18722" lon="2.42097">
        <ele>162.6</ele>
        <time>2020-02-09T08:35:40Z</time>
      </trkpt>
      <trkpt lat="43.18721" lon="2.42099">
        <ele>163.56</ele>
        <time>2020-02-09T08:35:41Z</time>
      </trkpt>
      <trkpt lat="43.18719" lon="2.42102">
        <ele>164.04</ele>
        <time>2020-02-09T08:35:43Z</time>
      </trkpt>
      <trkpt lat="43.18719" lon="2.42103">
        <ele>163.56</ele>
        <time>2020-02-09T08:37:21Z</time>
      </trkpt>
      <trkpt lat="43.18717" lon="2.42103">
        <ele>163.56</ele>
        <time>2020-02-09T08:37:22Z</time>
      </trkpt>
      <trkpt lat="43.18716" lon="2.42104">
        <ele>163.56</ele>
        <time>2020-02-09T08:37:23Z</time>
      </trkpt>
      <trkpt lat="43.18627" lon="2.42154">
        <ele>159.24</ele>
        <time>2020-02-09T08:37:51Z</time>
      </trkpt>
      <trkpt lat="43.18622" lon="2.42155">
        <ele>158.75</ele>
        <time>2020-02-09T08:37:52Z</time>
      </trkpt>
      <trkpt lat="43.18616" lon="2.42158">
        <ele>158.27</ele>
        <time>2020-02-09T08:37:53Z</time>
      </trkpt>
      <trkpt lat="43.1861" lon="2.42163">
        <ele>157.31</ele>
        <time>2020-02-09T08:37:54Z</time>
      </trkpt>
      <trkpt lat="43.18604" lon="2.42168">
        <ele>157.31</ele>
        <time>2020-02-09T08:37:55Z</time>
      </trkpt>
      <trkpt lat="43.18597" lon="2.42172">
        <ele>156.35</ele>
        <time>2020-02-09T08:37:56Z</time>
      </trkpt>
      <trkpt lat="43.18592" lon="2.42177">
        <ele>157.31</ele>
        <time>2020-02-09T08:37:57Z</time>
      </trkpt>
      <trkpt lat="43.18587" lon="2.42181">
        <ele>155.87</ele>
        <time>2020-02-09T08:37:58Z</time>
      </trkpt>
      <trkpt lat="43.18582" lon="2.42186">
        <ele>155.39</ele>
        <time>2020-02-09T08:37:59Z</time>
      </trkpt>
      <trkpt lat="43.18577" lon="2.4219">
        <ele>154.43</ele>
        <time>2020-02-09T08:38:00Z</time>
      </trkpt>
      <trkpt lat="43.18571" lon="2.42193">
        <ele>154.43</ele>
        <time>2020-02-09T08:38:01Z</time>
      </trkpt>
      <trkpt lat="43.18565" lon="2.42195">
        <ele>153.47</ele>
        <time>2020-02-09T08:38:02Z</time>
      </trkpt>
      <trkpt lat="43.18558" lon="2.42196">
        <ele>152.51</ele>
        <time>2020-02-09T08:38:03Z</time>
      </trkpt>
      <trkpt lat="43.18551" lon="2.42196">
        <ele>151.06</ele>
        <time>2020-02-09T08:38:04Z</time>
      </trkpt>
      <trkpt lat="43.18543" lon="2.42193">
        <ele>151.54</ele>
        <time>2020-02-09T08:38:05Z</time>
      </trkpt>
      <trkpt lat="43.18538" lon="2.42189">
        <ele>152.03</ele>
        <time>2020-02-09T08:38:06Z</time>
      </trkpt>
      <trkpt lat="43.18535" lon="2.42186">
        <ele>152.51</ele>
        <time>2020-02-09T08:38:07Z</time>
      </trkpt>
      <trkpt lat="43.18532" lon="2.42181">
        <ele>152.99</ele>
        <time>2020-02-09T08:38:08Z</time>
      </trkpt>
      <trkpt lat="43.18531" lon="2.42179">
        <ele>153.47</ele>
        <time>2020-02-09T08:38:09Z</time>
      </trkpt>
      <trkpt lat="43.18528" lon="2.42172">
        <ele>154.91</ele>
        <time>2020-02-09T08:38:12Z</time>
      </trkpt>
      <trkpt lat="43.18516" lon="2.42151">
        <ele>156.35</ele>
        <time>2020-02-09T08:38:29Z</time>
      </trkpt>
      <trkpt lat="43.18514" lon="2.4215">
        <ele>156.35</ele>
        <time>2020-02-09T08:39:05Z</time>
      </trkpt>
      <trkpt lat="43.18513" lon="2.42156">
        <ele>158.75</ele>
        <time>2020-02-09T08:39:11Z</time>
      </trkpt>
      <trkpt lat="43.18504" lon="2.42163">
        <ele>161.16</ele>
        <time>2020-02-09T08:39:20Z</time>
      </trkpt>
      <trkpt lat="43.18496" lon="2.42174">
        <ele>164.52</ele>
        <time>2020-02-09T08:39:34Z</time>
      </trkpt>
      <trkpt lat="43.18493" lon="2.42179">
        <ele>165.96</ele>
        <time>2020-02-09T08:39:39Z</time>
      </trkpt>
      <trkpt lat="43.18492" lon="2.42181">
        <ele>165.96</ele>
        <time>2020-02-09T08:39:41Z</time>
      </trkpt>
      <trkpt lat="43.18492" lon="2.42183">
        <ele>166.45</ele>
        <time>2020-02-09T08:39:42Z</time>
      </trkpt>
      <trkpt lat="43.18492" lon="2.42185">
        <ele>166.93</ele>
        <time>2020-02-09T08:39:43Z</time>
      </trkpt>
      <trkpt lat="43.18492" lon="2.42187">
        <ele>166.93</ele>
        <time>2020-02-09T08:39:44Z</time>
      </trkpt>
      <trkpt lat="43.1849" lon="2.42196">
        <ele>169.81</ele>
        <time>2020-02-09T08:39:51Z</time>
      </trkpt>
      <trkpt lat="43.18481" lon="2.42212">
        <ele>173.17</ele>
        <time>2020-02-09T08:40:07Z</time>
      </trkpt>
      <trkpt lat="43.18481" lon="2.42228">
        <ele>173.66</ele>
        <time>2020-02-09T08:40:20Z</time>
      </trkpt>
      <trkpt lat="43.1848" lon="2.4223">
        <ele>173.66</ele>
        <time>2020-02-09T08:40:21Z</time>
      </trkpt>
      <trkpt lat="43.18479" lon="2.42233">
        <ele>174.62</ele>
        <time>2020-02-09T08:40:22Z</time>
      </trkpt>
      <trkpt lat="43.18479" lon="2.42236">
        <ele>174.14</ele>
        <time>2020-02-09T08:40:23Z</time>
      </trkpt>
      <trkpt lat="43.18477" lon="2.42239">
        <ele>174.62</ele>
        <time>2020-02-09T08:40:24Z</time>
      </trkpt>
      <trkpt lat="43.18476" lon="2.42242">
        <ele>174.14</ele>
        <time>2020-02-09T08:40:25Z</time>
      </trkpt>
      <trkpt lat="43.18475" lon="2.42244">
        <ele>175.58</ele>
        <time>2020-02-09T08:40:26Z</time>
      </trkpt>
      <trkpt lat="43.18475" lon="2.42245">
        <ele>175.58</ele>
        <time>2020-02-09T08:40:27Z</time>
      </trkpt>
      <trkpt lat="43.18471" lon="2.42258">
        <ele>178.46</ele>
        <time>2020-02-09T08:40:40Z</time>
      </trkpt>
      <trkpt lat="43.18466" lon="2.42275">
        <ele>182.31</ele>
        <time>2020-02-09T08:40:57Z</time>
      </trkpt>
      <trkpt lat="43.18465" lon="2.42284">
        <ele>182.79</ele>
        <time>2020-02-09T08:41:04Z</time>
      </trkpt>
      <trkpt lat="43.18465" lon="2.42286">
        <ele>183.27</ele>
        <time>2020-02-09T08:41:05Z</time>
      </trkpt>
      <trkpt lat="43.18466" lon="2.42287">
        <ele>183.75</ele>
        <time>2020-02-09T08:41:06Z</time>
      </trkpt>
      <trkpt lat="43.18468" lon="2.42297">
        <ele>184.23</ele>
        <time>2020-02-09T08:41:17Z</time>
      </trkpt>
      <trkpt lat="43.18469" lon="2.42299">
        <ele>184.23</ele>
        <time>2020-02-09T08:41:18Z</time>
      </trkpt>
      <trkpt lat="43.18469" lon="2.42301">
        <ele>185.19</ele>
        <time>2020-02-09T08:41:19Z</time>
      </trkpt>
      <trkpt lat="43.18469" lon="2.42304">
        <ele>184.71</ele>
        <time>2020-02-09T08:41:20Z</time>
      </trkpt>
      <trkpt lat="43.18469" lon="2.42307">
        <ele>185.67</ele>
        <time>2020-02-09T08:41:22Z</time>
      </trkpt>
      <trkpt lat="43.18469" lon="2.42308">
        <ele>185.19</ele>
        <time>2020-02-09T08:41:23Z</time>
      </trkpt>
      <trkpt lat="43.18469" lon="2.42311">
        <ele>185.19</ele>
        <time>2020-02-09T08:41:24Z</time>
      </trkpt>
      <trkpt lat="43.1847" lon="2.42312">
        <ele>185.67</ele>
        <time>2020-02-09T08:41:25Z</time>
      </trkpt>
      <trkpt lat="43.1847" lon="2.42314">
        <ele>186.63</ele>
        <time>2020-02-09T08:41:26Z</time>
      </trkpt>
      <trkpt lat="43.1847" lon="2.42316">
        <ele>186.15</ele>
        <time>2020-02-09T08:41:27Z</time>
      </trkpt>
      <trkpt lat="43.18473" lon="2.4233">
        <ele>188.56</ele>
        <time>2020-02-09T08:41:41Z</time>
      </trkpt>
      <trkpt lat="43.18472" lon="2.42341">
        <ele>190.96</ele>
        <time>2020-02-09T08:41:56Z</time>
      </trkpt>
      <trkpt lat="43.18469" lon="2.42346">
        <ele>194.32</ele>
        <time>2020-02-09T08:42:06Z</time>
      </trkpt>
      <trkpt lat="43.18465" lon="2.42356">
        <ele>197.69</ele>
        <time>2020-02-09T08:42:25Z</time>
      </trkpt>
      <trkpt lat="43.18461" lon="2.42369">
        <ele>199.61</ele>
        <time>2020-02-09T08:42:39Z</time>
      </trkpt>
      <trkpt lat="43.18458" lon="2.42375">
        <ele>200.57</ele>
        <time>2020-02-09T08:42:44Z</time>
      </trkpt>
      <trkpt lat="43.18457" lon="2.42376">
        <ele>200.09</ele>
        <time>2020-02-09T08:42:45Z</time>
      </trkpt>
      <trkpt lat="43.18456" lon="2.42377">
        <ele>201.05</ele>
        <time>2020-02-09T08:42:46Z</time>
      </trkpt>
      <trkpt lat="43.18443" lon="2.42383">
        <ele>202.98</ele>
        <time>2020-02-09T08:42:57Z</time>
      </trkpt>
      <trkpt lat="43.18433" lon="2.42404">
        <ele>204.42</ele>
        <time>2020-02-09T08:43:08Z</time>
      </trkpt>
      <trkpt lat="43.18433" lon="2.42406">
        <ele>204.42</ele>
        <time>2020-02-09T08:43:09Z</time>
      </trkpt>
      <trkpt lat="43.18432" lon="2.42407">
        <ele>204.42</ele>
        <time>2020-02-09T08:43:10Z</time>
      </trkpt>
      <trkpt lat="43.18431" lon="2.42409">
        <ele>204.42</ele>
        <time>2020-02-09T08:43:11Z</time>
      </trkpt>
      <trkpt lat="43.1843" lon="2.42411">
        <ele>204.42</ele>
        <time>2020-02-09T08:43:12Z</time>
      </trkpt>
      <trkpt lat="43.18429" lon="2.42413">
        <ele>204.42</ele>
        <time>2020-02-09T08:43:13Z</time>
      </trkpt>
      <trkpt lat="43.18428" lon="2.42416">
        <ele>204.9</ele>
        <time>2020-02-09T08:43:14Z</time>
      </trkpt>
      <trkpt lat="43.18428" lon="2.42419">
        <ele>204.42</ele>
        <time>2020-02-09T08:43:15Z</time>
      </trkpt>
      <trkpt lat="43.18427" lon="2.42422">
        <ele>204.9</ele>
        <time>2020-02-09T08:43:16Z</time>
      </trkpt>
      <trkpt lat="43.18426" lon="2.42425">
        <ele>203.94</ele>
        <time>2020-02-09T08:43:17Z</time>
      </trkpt>
      <trkpt lat="43.18423" lon="2.42432">
        <ele>204.42</ele>
        <time>2020-02-09T08:43:20Z</time>
      </trkpt>
      <trkpt lat="43.1842" lon="2.42432">
        <ele>204.42</ele>
        <time>2020-02-09T08:43:21Z</time>
      </trkpt>
      <trkpt lat="43.18418" lon="2.42432">
        <ele>204.9</ele>
        <time>2020-02-09T08:43:22Z</time>
      </trkpt>
      <trkpt lat="43.18416" lon="2.42432">
        <ele>204.9</ele>
        <time>2020-02-09T08:43:23Z</time>
      </trkpt>
      <trkpt lat="43.18414" lon="2.42432">
        <ele>204.42</ele>
        <time>2020-02-09T08:43:24Z</time>
      </trkpt>
      <trkpt lat="43.18412" lon="2.42431">
        <ele>203.94</ele>
        <time>2020-02-09T08:43:25Z</time>
      </trkpt>
      <trkpt lat="43.1841" lon="2.42431">
        <ele>203.94</ele>
        <time>2020-02-09T08:43:26Z</time>
      </trkpt>
      <trkpt lat="43.18407" lon="2.42433">
        <ele>202.98</ele>
        <time>2020-02-09T08:43:27Z</time>
      </trkpt>
      <trkpt lat="43.18405" lon="2.42435">
        <ele>202.49</ele>
        <time>2020-02-09T08:43:28Z</time>
      </trkpt>
      <trkpt lat="43.18403" lon="2.42436">
        <ele>202.01</ele>
        <time>2020-02-09T08:43:29Z</time>
      </trkpt>
      <trkpt lat="43.184" lon="2.42436">
        <ele>201.05</ele>
        <time>2020-02-09T08:43:30Z</time>
      </trkpt>
      <trkpt lat="43.18397" lon="2.42436">
        <ele>200.57</ele>
        <time>2020-02-09T08:43:31Z</time>
      </trkpt>
      <trkpt lat="43.18394" lon="2.42436">
        <ele>200.09</ele>
        <time>2020-02-09T08:43:32Z</time>
      </trkpt>
      <trkpt lat="43.1839" lon="2.42437">
        <ele>200.57</ele>
        <time>2020-02-09T08:43:33Z</time>
      </trkpt>
      <trkpt lat="43.18387" lon="2.42438">
        <ele>200.57</ele>
        <time>2020-02-09T08:43:34Z</time>
      </trkpt>
      <trkpt lat="43.18384" lon="2.42439">
        <ele>200.57</ele>
        <time>2020-02-09T08:43:35Z</time>
      </trkpt>
      <trkpt lat="43.18376" lon="2.42447">
        <ele>202.01</ele>
        <time>2020-02-09T08:43:38Z</time>
      </trkpt>
      <trkpt lat="43.18375" lon="2.42451">
        <ele>201.53</ele>
        <time>2020-02-09T08:43:39Z</time>
      </trkpt>
      <trkpt lat="43.18375" lon="2.42454">
        <ele>201.05</ele>
        <time>2020-02-09T08:43:40Z</time>
      </trkpt>
      <trkpt lat="43.18369" lon="2.42465">
        <ele>202.49</ele>
        <time>2020-02-09T08:43:45Z</time>
      </trkpt>
      <trkpt lat="43.18362" lon="2.42473">
        <ele>204.42</ele>
        <time>2020-02-09T08:43:49Z</time>
      </trkpt>
      <trkpt lat="43.18346" lon="2.42497">
        <ele>207.3</ele>
        <time>2020-02-09T08:44:01Z</time>
      </trkpt>
      <trkpt lat="43.18328" lon="2.42521">
        <ele>210.19</ele>
        <time>2020-02-09T08:44:17Z</time>
      </trkpt>
      <trkpt lat="43.18314" lon="2.42545">
        <ele>213.07</ele>
        <time>2020-02-09T08:44:32Z</time>
      </trkpt>
      <trkpt lat="43.18307" lon="2.42561">
        <ele>216.43</ele>
        <time>2020-02-09T08:44:42Z</time>
      </trkpt>
      <trkpt lat="43.18301" lon="2.42574">
        <ele>219.32</ele>
        <time>2020-02-09T08:44:53Z</time>
      </trkpt>
      <trkpt lat="43.18291" lon="2.4259">
        <ele>220.28</ele>
        <time>2020-02-09T08:45:04Z</time>
      </trkpt>
      <trkpt lat="43.1829" lon="2.42592">
        <ele>220.28</ele>
        <time>2020-02-09T08:45:05Z</time>
      </trkpt>
      <trkpt lat="43.18289" lon="2.42593">
        <ele>220.28</ele>
        <time>2020-02-09T08:45:06Z</time>
      </trkpt>
      <trkpt lat="43.18288" lon="2.42594">
        <ele>220.28</ele>
        <time>2020-02-09T08:45:07Z</time>
      </trkpt>
      <trkpt lat="43.18287" lon="2.42596">
        <ele>220.28</ele>
        <time>2020-02-09T08:45:08Z</time>
      </trkpt>
      <trkpt lat="43.18286" lon="2.42598">
        <ele>220.28</ele>
        <time>2020-02-09T08:45:09Z</time>
      </trkpt>
      <trkpt lat="43.18285" lon="2.426">
        <ele>219.8</ele>
        <time>2020-02-09T08:45:10Z</time>
      </trkpt>
      <trkpt lat="43.18285" lon="2.42603">
        <ele>220.28</ele>
        <time>2020-02-09T08:45:11Z</time>
      </trkpt>
      <trkpt lat="43.18274" lon="2.4267">
        <ele>218.84</ele>
        <time>2020-02-09T08:45:26Z</time>
      </trkpt>
      <trkpt lat="43.18253" lon="2.42744">
        <ele>218.36</ele>
        <time>2020-02-09T08:45:43Z</time>
      </trkpt>
      <trkpt lat="43.18239" lon="2.4281">
        <ele>219.8</ele>
        <time>2020-02-09T08:46:00Z</time>
      </trkpt>
      <trkpt lat="43.18239" lon="2.42817">
        <ele>220.76</ele>
        <time>2020-02-09T08:46:04Z</time>
      </trkpt>
      <trkpt lat="43.1824" lon="2.42819">
        <ele>221.24</ele>
        <time>2020-02-09T08:46:05Z</time>
      </trkpt>
      <trkpt lat="43.18273" lon="2.42822">
        <ele>223.16</ele>
        <time>2020-02-09T08:46:22Z</time>
      </trkpt>
      <trkpt lat="43.18287" lon="2.42821">
        <ele>223.16</ele>
        <time>2020-02-09T08:46:28Z</time>
      </trkpt>
      <trkpt lat="43.18289" lon="2.42823">
        <ele>223.16</ele>
        <time>2020-02-09T08:46:29Z</time>
      </trkpt>
      <trkpt lat="43.1829" lon="2.42825">
        <ele>222.68</ele>
        <time>2020-02-09T08:46:30Z</time>
      </trkpt>
      <trkpt lat="43.18291" lon="2.42827">
        <ele>222.68</ele>
        <time>2020-02-09T08:46:31Z</time>
      </trkpt>
      <trkpt lat="43.18292" lon="2.4283">
        <ele>223.16</ele>
        <time>2020-02-09T08:46:32Z</time>
      </trkpt>
      <trkpt lat="43.18292" lon="2.42832">
        <ele>223.16</ele>
        <time>2020-02-09T08:46:33Z</time>
      </trkpt>
      <trkpt lat="43.18292" lon="2.42835">
        <ele>223.16</ele>
        <time>2020-02-09T08:46:34Z</time>
      </trkpt>
      <trkpt lat="43.18292" lon="2.42837">
        <ele>223.16</ele>
        <time>2020-02-09T08:46:35Z</time>
      </trkpt>
      <trkpt lat="43.18291" lon="2.42839">
        <ele>223.64</ele>
        <time>2020-02-09T08:46:36Z</time>
      </trkpt>
      <trkpt lat="43.1829" lon="2.42841">
        <ele>222.68</ele>
        <time>2020-02-09T08:46:37Z</time>
      </trkpt>
      <trkpt lat="43.1827" lon="2.42873">
        <ele>226.05</ele>
        <time>2020-02-09T08:46:51Z</time>
      </trkpt>
      <trkpt lat="43.18234" lon="2.42925">
        <ele>226.53</ele>
        <time>2020-02-09T08:47:10Z</time>
      </trkpt>
      <trkpt lat="43.18208" lon="2.42963">
        <ele>227.01</ele>
        <time>2020-02-09T08:47:26Z</time>
      </trkpt>
      <trkpt lat="43.18207" lon="2.42965">
        <ele>227.01</ele>
        <time>2020-02-09T08:47:27Z</time>
      </trkpt>
      <trkpt lat="43.18206" lon="2.42968">
        <ele>227.01</ele>
        <time>2020-02-09T08:47:28Z</time>
      </trkpt>
      <trkpt lat="43.18184" lon="2.43016">
        <ele>227.01</ele>
        <time>2020-02-09T08:47:42Z</time>
      </trkpt>
      <trkpt lat="43.18177" lon="2.43031">
        <ele>225.57</ele>
        <time>2020-02-09T08:47:45Z</time>
      </trkpt>
      <trkpt lat="43.18172" lon="2.43042">
        <ele>226.05</ele>
        <time>2020-02-09T08:47:47Z</time>
      </trkpt>
      <trkpt lat="43.1817" lon="2.43048">
        <ele>225.09</ele>
        <time>2020-02-09T08:47:48Z</time>
      </trkpt>
      <trkpt lat="43.18154" lon="2.43098">
        <ele>224.61</ele>
        <time>2020-02-09T08:47:56Z</time>
      </trkpt>
      <trkpt lat="43.18128" lon="2.43136">
        <ele>223.64</ele>
        <time>2020-02-09T08:48:03Z</time>
      </trkpt>
      <trkpt lat="43.18124" lon="2.43141">
        <ele>223.64</ele>
        <time>2020-02-09T08:48:04Z</time>
      </trkpt>
      <trkpt lat="43.18095" lon="2.4319">
        <ele>222.2</ele>
        <time>2020-02-09T08:48:13Z</time>
      </trkpt>
      <trkpt lat="43.18084" lon="2.43204">
        <ele>222.2</ele>
        <time>2020-02-09T08:48:16Z</time>
      </trkpt>
      <trkpt lat="43.1804" lon="2.43245">
        <ele>220.28</ele>
        <time>2020-02-09T08:48:27Z</time>
      </trkpt>
      <trkpt lat="43.18038" lon="2.4325">
        <ele>220.28</ele>
        <time>2020-02-09T08:48:28Z</time>
      </trkpt>
      <trkpt lat="43.18036" lon="2.43256">
        <ele>219.8</ele>
        <time>2020-02-09T08:48:29Z</time>
      </trkpt>
      <trkpt lat="43.18032" lon="2.43268">
        <ele>219.32</ele>
        <time>2020-02-09T08:48:31Z</time>
      </trkpt>
      <trkpt lat="43.18031" lon="2.43274">
        <ele>219.8</ele>
        <time>2020-02-09T08:48:32Z</time>
      </trkpt>
      <trkpt lat="43.1804" lon="2.43316">
        <ele>219.8</ele>
        <time>2020-02-09T08:48:43Z</time>
      </trkpt>
      <trkpt lat="43.18075" lon="2.43359">
        <ele>221.24</ele>
        <time>2020-02-09T08:48:57Z</time>
      </trkpt>
      <trkpt lat="43.18077" lon="2.43362">
        <ele>220.76</ele>
        <time>2020-02-09T08:48:58Z</time>
      </trkpt>
      <trkpt lat="43.18079" lon="2.43365">
        <ele>221.24</ele>
        <time>2020-02-09T08:48:59Z</time>
      </trkpt>
      <trkpt lat="43.1808" lon="2.43369">
        <ele>221.72</ele>
        <time>2020-02-09T08:49:00Z</time>
      </trkpt>
      <trkpt lat="43.1808" lon="2.43373">
        <ele>221.24</ele>
        <time>2020-02-09T08:49:01Z</time>
      </trkpt>
      <trkpt lat="43.18079" lon="2.43378">
        <ele>221.72</ele>
        <time>2020-02-09T08:49:02Z</time>
      </trkpt>
      <trkpt lat="43.18077" lon="2.43382">
        <ele>221.24</ele>
        <time>2020-02-09T08:49:03Z</time>
      </trkpt>
      <trkpt lat="43.18076" lon="2.43387">
        <ele>220.76</ele>
        <time>2020-02-09T08:49:04Z</time>
      </trkpt>
      <trkpt lat="43.18074" lon="2.43392">
        <ele>220.28</ele>
        <time>2020-02-09T08:49:05Z</time>
      </trkpt>
      <trkpt lat="43.18072" lon="2.43397">
        <ele>219.8</ele>
        <time>2020-02-09T08:49:06Z</time>
      </trkpt>
      <trkpt lat="43.1807" lon="2.43403">
        <ele>219.8</ele>
        <time>2020-02-09T08:49:07Z</time>
      </trkpt>
      <trkpt lat="43.18068" lon="2.43409">
        <ele>219.8</ele>
        <time>2020-02-09T08:49:08Z</time>
      </trkpt>
      <trkpt lat="43.18067" lon="2.43416">
        <ele>219.32</ele>
        <time>2020-02-09T08:49:09Z</time>
      </trkpt>
      <trkpt lat="43.18066" lon="2.43423">
        <ele>218.84</ele>
        <time>2020-02-09T08:49:10Z</time>
      </trkpt>
      <trkpt lat="43.18064" lon="2.43429">
        <ele>218.36</ele>
        <time>2020-02-09T08:49:11Z</time>
      </trkpt>
      <trkpt lat="43.18061" lon="2.43435">
        <ele>217.88</ele>
        <time>2020-02-09T08:49:12Z</time>
      </trkpt>
      <trkpt lat="43.18056" lon="2.43439">
        <ele>217.88</ele>
        <time>2020-02-09T08:49:13Z</time>
      </trkpt>
      <trkpt lat="43.18051" lon="2.43443">
        <ele>217.4</ele>
        <time>2020-02-09T08:49:14Z</time>
      </trkpt>
      <trkpt lat="43.18046" lon="2.43446">
        <ele>216.91</ele>
        <time>2020-02-09T08:49:15Z</time>
      </trkpt>
      <trkpt lat="43.18041" lon="2.43449">
        <ele>216.43</ele>
        <time>2020-02-09T08:49:16Z</time>
      </trkpt>
      <trkpt lat="43.18036" lon="2.43452">
        <ele>216.91</ele>
        <time>2020-02-09T08:49:17Z</time>
      </trkpt>
      <trkpt lat="43.18033" lon="2.43456">
        <ele>216.43</ele>
        <time>2020-02-09T08:49:18Z</time>
      </trkpt>
      <trkpt lat="43.1803" lon="2.43461">
        <ele>216.91</ele>
        <time>2020-02-09T08:49:19Z</time>
      </trkpt>
      <trkpt lat="43.18027" lon="2.43465">
        <ele>215.95</ele>
        <time>2020-02-09T08:49:20Z</time>
      </trkpt>
      <trkpt lat="43.18024" lon="2.43469">
        <ele>216.91</ele>
        <time>2020-02-09T08:49:21Z</time>
      </trkpt>
      <trkpt lat="43.18018" lon="2.43479">
        <ele>215.95</ele>
        <time>2020-02-09T08:49:24Z</time>
      </trkpt>
      <trkpt lat="43.18019" lon="2.43483">
        <ele>216.43</ele>
        <time>2020-02-09T08:49:25Z</time>
      </trkpt>
      <trkpt lat="43.18021" lon="2.43486">
        <ele>215.95</ele>
        <time>2020-02-09T08:49:26Z</time>
      </trkpt>
      <trkpt lat="43.18028" lon="2.43508">
        <ele>215.95</ele>
        <time>2020-02-09T08:49:31Z</time>
      </trkpt>
      <trkpt lat="43.18028" lon="2.43513">
        <ele>216.43</ele>
        <time>2020-02-09T08:49:32Z</time>
      </trkpt>
      <trkpt lat="43.18027" lon="2.43517">
        <ele>216.43</ele>
        <time>2020-02-09T08:49:33Z</time>
      </trkpt>
      <trkpt lat="43.18026" lon="2.4352">
        <ele>217.4</ele>
        <time>2020-02-09T08:49:34Z</time>
      </trkpt>
      <trkpt lat="43.18025" lon="2.43523">
        <ele>217.4</ele>
        <time>2020-02-09T08:49:35Z</time>
      </trkpt>
      <trkpt lat="43.18023" lon="2.43525">
        <ele>218.36</ele>
        <time>2020-02-09T08:49:36Z</time>
      </trkpt>
      <trkpt lat="43.18023" lon="2.43527">
        <ele>218.36</ele>
        <time>2020-02-09T08:49:37Z</time>
      </trkpt>
      <trkpt lat="43.18022" lon="2.43529">
        <ele>218.84</ele>
        <time>2020-02-09T08:49:38Z</time>
      </trkpt>
      <trkpt lat="43.18022" lon="2.43531">
        <ele>218.84</ele>
        <time>2020-02-09T08:49:39Z</time>
      </trkpt>
      <trkpt lat="43.18021" lon="2.43533">
        <ele>219.8</ele>
        <time>2020-02-09T08:49:40Z</time>
      </trkpt>
      <trkpt lat="43.18021" lon="2.43536">
        <ele>219.32</ele>
        <time>2020-02-09T08:49:41Z</time>
      </trkpt>
      <trkpt lat="43.18022" lon="2.43539">
        <ele>218.84</ele>
        <time>2020-02-09T08:49:42Z</time>
      </trkpt>
      <trkpt lat="43.18024" lon="2.43542">
        <ele>218.84</ele>
        <time>2020-02-09T08:49:43Z</time>
      </trkpt>
      <trkpt lat="43.18026" lon="2.43544">
        <ele>219.32</ele>
        <time>2020-02-09T08:49:44Z</time>
      </trkpt>
      <trkpt lat="43.18038" lon="2.43556">
        <ele>219.8</ele>
        <time>2020-02-09T08:49:49Z</time>
      </trkpt>
      <trkpt lat="43.18038" lon="2.43559">
        <ele>219.32</ele>
        <time>2020-02-09T08:49:50Z</time>
      </trkpt>
      <trkpt lat="43.18039" lon="2.43562">
        <ele>219.8</ele>
        <time>2020-02-09T08:49:51Z</time>
      </trkpt>
      <trkpt lat="43.18039" lon="2.43564">
        <ele>220.28</ele>
        <time>2020-02-09T08:49:52Z</time>
      </trkpt>
      <trkpt lat="43.18039" lon="2.43566">
        <ele>220.76</ele>
        <time>2020-02-09T08:49:53Z</time>
      </trkpt>
      <trkpt lat="43.18038" lon="2.43569">
        <ele>221.72</ele>
        <time>2020-02-09T08:49:55Z</time>
      </trkpt>
      <trkpt lat="43.18035" lon="2.43574">
        <ele>222.2</ele>
        <time>2020-02-09T08:49:59Z</time>
      </trkpt>
      <trkpt lat="43.18028" lon="2.4358">
        <ele>224.12</ele>
        <time>2020-02-09T08:50:05Z</time>
      </trkpt>
      <trkpt lat="43.1802" lon="2.43595">
        <ele>223.64</ele>
        <time>2020-02-09T08:50:21Z</time>
      </trkpt>
      <trkpt lat="43.18019" lon="2.43601">
        <ele>222.2</ele>
        <time>2020-02-09T08:50:38Z</time>
      </trkpt>
      <trkpt lat="43.18018" lon="2.43597">
        <ele>222.68</ele>
        <time>2020-02-09T08:51:42Z</time>
      </trkpt>
      <trkpt lat="43.18018" lon="2.43598">
        <ele>222.68</ele>
        <time>2020-02-09T08:52:52Z</time>
      </trkpt>
      <trkpt lat="43.18019" lon="2.43597">
        <ele>221.72</ele>
        <time>2020-02-09T08:53:31Z</time>
      </trkpt>
      <trkpt lat="43.18017" lon="2.43599">
        <ele>222.68</ele>
        <time>2020-02-09T08:53:35Z</time>
      </trkpt>
      <trkpt lat="43.1802" lon="2.43596">
        <ele>222.2</ele>
        <time>2020-02-09T08:54:08Z</time>
      </trkpt>
      <trkpt lat="43.18018" lon="2.43599">
        <ele>222.2</ele>
        <time>2020-02-09T08:54:36Z</time>
      </trkpt>
      <trkpt lat="43.1802" lon="2.43598">
        <ele>222.2</ele>
        <time>2020-02-09T08:55:07Z</time>
      </trkpt>
      <trkpt lat="43.18019" lon="2.43598">
        <ele>222.2</ele>
        <time>2020-02-09T08:56:11Z</time>
      </trkpt>
      <trkpt lat="43.1802" lon="2.43598">
        <ele>222.68</ele>
        <time>2020-02-09T08:57:01Z</time>
      </trkpt>
      <trkpt lat="43.18019" lon="2.43599">
        <ele>223.16</ele>
        <time>2020-02-09T08:57:44Z</time>
      </trkpt>
      <trkpt lat="43.18023" lon="2.43598">
        <ele>223.64</ele>
        <time>2020-02-09T08:58:17Z</time>
      </trkpt>
      <trkpt lat="43.18055" lon="2.43604">
        <ele>220.28</ele>
        <time>2020-02-09T08:58:32Z</time>
      </trkpt>
      <trkpt lat="43.18064" lon="2.43602">
        <ele>218.36</ele>
        <time>2020-02-09T08:58:35Z</time>
      </trkpt>
      <trkpt lat="43.18068" lon="2.43605">
        <ele>217.88</ele>
        <time>2020-02-09T08:58:36Z</time>
      </trkpt>
      <trkpt lat="43.18071" lon="2.43609">
        <ele>217.88</ele>
        <time>2020-02-09T08:58:37Z</time>
      </trkpt>
      <trkpt lat="43.18083" lon="2.43617">
        <ele>216.43</ele>
        <time>2020-02-09T08:58:40Z</time>
      </trkpt>
      <trkpt lat="43.18086" lon="2.43617">
        <ele>215.47</ele>
        <time>2020-02-09T08:58:41Z</time>
      </trkpt>
      <trkpt lat="43.1809" lon="2.43617">
        <ele>214.99</ele>
        <time>2020-02-09T08:58:42Z</time>
      </trkpt>
      <trkpt lat="43.18095" lon="2.43618">
        <ele>214.51</ele>
        <time>2020-02-09T08:58:43Z</time>
      </trkpt>
      <trkpt lat="43.181" lon="2.4362">
        <ele>214.03</ele>
        <time>2020-02-09T08:58:44Z</time>
      </trkpt>
      <trkpt lat="43.18105" lon="2.4362">
        <ele>213.07</ele>
        <time>2020-02-09T08:58:45Z</time>
      </trkpt>
      <trkpt lat="43.18111" lon="2.4362">
        <ele>212.11</ele>
        <time>2020-02-09T08:58:46Z</time>
      </trkpt>
      <trkpt lat="43.18114" lon="2.43619">
        <ele>211.15</ele>
        <time>2020-02-09T08:58:47Z</time>
      </trkpt>
      <trkpt lat="43.18117" lon="2.4362">
        <ele>210.67</ele>
        <time>2020-02-09T08:58:48Z</time>
      </trkpt>
      <trkpt lat="43.1812" lon="2.43621">
        <ele>210.19</ele>
        <time>2020-02-09T08:58:49Z</time>
      </trkpt>
      <trkpt lat="43.18123" lon="2.43622">
        <ele>209.22</ele>
        <time>2020-02-09T08:58:50Z</time>
      </trkpt>
      <trkpt lat="43.18124" lon="2.43625">
        <ele>208.74</ele>
        <time>2020-02-09T08:58:51Z</time>
      </trkpt>
      <trkpt lat="43.18127" lon="2.43628">
        <ele>207.3</ele>
        <time>2020-02-09T08:58:52Z</time>
      </trkpt>
      <trkpt lat="43.1813" lon="2.43632">
        <ele>205.86</ele>
        <time>2020-02-09T08:58:53Z</time>
      </trkpt>
      <trkpt lat="43.18138" lon="2.43641">
        <ele>202.98</ele>
        <time>2020-02-09T08:58:55Z</time>
      </trkpt>
      <trkpt lat="43.18139" lon="2.43647">
        <ele>202.01</ele>
        <time>2020-02-09T08:58:56Z</time>
      </trkpt>
      <trkpt lat="43.1814" lon="2.43653">
        <ele>202.01</ele>
        <time>2020-02-09T08:58:57Z</time>
      </trkpt>
      <trkpt lat="43.18143" lon="2.43664">
        <ele>201.53</ele>
        <time>2020-02-09T08:58:59Z</time>
      </trkpt>
      <trkpt lat="43.18145" lon="2.4367">
        <ele>200.57</ele>
        <time>2020-02-09T08:59:00Z</time>
      </trkpt>
      <trkpt lat="43.18148" lon="2.43684">
        <ele>197.21</ele>
        <time>2020-02-09T08:59:03Z</time>
      </trkpt>
      <trkpt lat="43.18149" lon="2.43686">
        <ele>196.73</ele>
        <time>2020-02-09T08:59:04Z</time>
      </trkpt>
      <trkpt lat="43.18155" lon="2.437">
        <ele>193.36</ele>
        <time>2020-02-09T08:59:09Z</time>
      </trkpt>
      <trkpt lat="43.18156" lon="2.43719">
        <ele>190</ele>
        <time>2020-02-09T08:59:15Z</time>
      </trkpt>
      <trkpt lat="43.1816" lon="2.43732">
        <ele>189.04</ele>
        <time>2020-02-09T08:59:18Z</time>
      </trkpt>
      <trkpt lat="43.18167" lon="2.43746">
        <ele>185.67</ele>
        <time>2020-02-09T08:59:21Z</time>
      </trkpt>
      <trkpt lat="43.18171" lon="2.43751">
        <ele>184.71</ele>
        <time>2020-02-09T08:59:23Z</time>
      </trkpt>
      <trkpt lat="43.18173" lon="2.43755">
        <ele>184.23</ele>
        <time>2020-02-09T08:59:24Z</time>
      </trkpt>
      <trkpt lat="43.18174" lon="2.43761">
        <ele>183.75</ele>
        <time>2020-02-09T08:59:25Z</time>
      </trkpt>
      <trkpt lat="43.18175" lon="2.43767">
        <ele>182.31</ele>
        <time>2020-02-09T08:59:26Z</time>
      </trkpt>
      <trkpt lat="43.18177" lon="2.43773">
        <ele>181.35</ele>
        <time>2020-02-09T08:59:27Z</time>
      </trkpt>
      <trkpt lat="43.1818" lon="2.43779">
        <ele>180.38</ele>
        <time>2020-02-09T08:59:28Z</time>
      </trkpt>
      <trkpt lat="43.18184" lon="2.43785">
        <ele>179.9</ele>
        <time>2020-02-09T08:59:29Z</time>
      </trkpt>
      <trkpt lat="43.18186" lon="2.4379">
        <ele>179.42</ele>
        <time>2020-02-09T08:59:30Z</time>
      </trkpt>
      <trkpt lat="43.18187" lon="2.43795">
        <ele>178.94</ele>
        <time>2020-02-09T08:59:31Z</time>
      </trkpt>
      <trkpt lat="43.18187" lon="2.438">
        <ele>178.46</ele>
        <time>2020-02-09T08:59:32Z</time>
      </trkpt>
      <trkpt lat="43.18186" lon="2.43805">
        <ele>179.42</ele>
        <time>2020-02-09T08:59:33Z</time>
      </trkpt>
      <trkpt lat="43.18185" lon="2.43809">
        <ele>178.46</ele>
        <time>2020-02-09T08:59:34Z</time>
      </trkpt>
      <trkpt lat="43.18186" lon="2.43813">
        <ele>178.46</ele>
        <time>2020-02-09T08:59:35Z</time>
      </trkpt>
      <trkpt lat="43.18187" lon="2.43817">
        <ele>178.46</ele>
        <time>2020-02-09T08:59:36Z</time>
      </trkpt>
      <trkpt lat="43.18189" lon="2.43819">
        <ele>178.94</ele>
        <time>2020-02-09T08:59:37Z</time>
      </trkpt>
      <trkpt lat="43.18192" lon="2.4382">
        <ele>179.42</ele>
        <time>2020-02-09T08:59:38Z</time>
      </trkpt>
      <trkpt lat="43.18194" lon="2.4382">
        <ele>177.98</ele>
        <time>2020-02-09T08:59:39Z</time>
      </trkpt>
      <trkpt lat="43.18196" lon="2.43819">
        <ele>178.46</ele>
        <time>2020-02-09T08:59:40Z</time>
      </trkpt>
      <trkpt lat="43.18199" lon="2.43819">
        <ele>178.46</ele>
        <time>2020-02-09T08:59:41Z</time>
      </trkpt>
      <trkpt lat="43.18203" lon="2.43818">
        <ele>178.94</ele>
        <time>2020-02-09T08:59:42Z</time>
      </trkpt>
      <trkpt lat="43.18251" lon="2.43805">
        <ele>179.9</ele>
        <time>2020-02-09T08:59:56Z</time>
      </trkpt>
      <trkpt lat="43.18256" lon="2.43805">
        <ele>179.9</ele>
        <time>2020-02-09T08:59:57Z</time>
      </trkpt>
      <trkpt lat="43.18261" lon="2.43805">
        <ele>179.42</ele>
        <time>2020-02-09T08:59:58Z</time>
      </trkpt>
      <trkpt lat="43.18266" lon="2.43805">
        <ele>177.98</ele>
        <time>2020-02-09T08:59:59Z</time>
      </trkpt>
      <trkpt lat="43.1827" lon="2.43809">
        <ele>178.46</ele>
        <time>2020-02-09T09:00:00Z</time>
      </trkpt>
      <trkpt lat="43.18273" lon="2.43813">
        <ele>178.94</ele>
        <time>2020-02-09T09:00:01Z</time>
      </trkpt>
      <trkpt lat="43.18276" lon="2.43815">
        <ele>178.94</ele>
        <time>2020-02-09T09:00:02Z</time>
      </trkpt>
      <trkpt lat="43.1828" lon="2.43816">
        <ele>178.94</ele>
        <time>2020-02-09T09:00:03Z</time>
      </trkpt>
      <trkpt lat="43.18306" lon="2.43827">
        <ele>178.46</ele>
        <time>2020-02-09T09:00:10Z</time>
      </trkpt>
      <trkpt lat="43.18346" lon="2.43838">
        <ele>177.02</ele>
        <time>2020-02-09T09:00:21Z</time>
      </trkpt>
      <trkpt lat="43.18347" lon="2.43842">
        <ele>177.5</ele>
        <time>2020-02-09T09:00:22Z</time>
      </trkpt>
      <trkpt lat="43.18351" lon="2.43871">
        <ele>178.94</ele>
        <time>2020-02-09T09:00:30Z</time>
      </trkpt>
      <trkpt lat="43.1835" lon="2.43875">
        <ele>178.94</ele>
        <time>2020-02-09T09:00:31Z</time>
      </trkpt>
      <trkpt lat="43.18348" lon="2.43878">
        <ele>179.42</ele>
        <time>2020-02-09T09:00:32Z</time>
      </trkpt>
      <trkpt lat="43.18338" lon="2.43894">
        <ele>180.38</ele>
        <time>2020-02-09T09:00:38Z</time>
      </trkpt>
      <trkpt lat="43.18338" lon="2.43897">
        <ele>180.38</ele>
        <time>2020-02-09T09:00:39Z</time>
      </trkpt>
      <trkpt lat="43.18339" lon="2.439">
        <ele>180.87</ele>
        <time>2020-02-09T09:00:40Z</time>
      </trkpt>
      <trkpt lat="43.1834" lon="2.43901">
        <ele>180.87</ele>
        <time>2020-02-09T09:00:41Z</time>
      </trkpt>
      <trkpt lat="43.18342" lon="2.43903">
        <ele>180.87</ele>
        <time>2020-02-09T09:00:42Z</time>
      </trkpt>
      <trkpt lat="43.18344" lon="2.43905">
        <ele>181.35</ele>
        <time>2020-02-09T09:00:43Z</time>
      </trkpt>
      <trkpt lat="43.18346" lon="2.43907">
        <ele>180.87</ele>
        <time>2020-02-09T09:00:44Z</time>
      </trkpt>
      <trkpt lat="43.18349" lon="2.43908">
        <ele>180.87</ele>
        <time>2020-02-09T09:00:45Z</time>
      </trkpt>
      <trkpt lat="43.18379" lon="2.43932">
        <ele>179.9</ele>
        <time>2020-02-09T09:00:55Z</time>
      </trkpt>
      <trkpt lat="43.18383" lon="2.43935">
        <ele>179.9</ele>
        <time>2020-02-09T09:00:56Z</time>
      </trkpt>
      <trkpt lat="43.18386" lon="2.43937">
        <ele>179.42</ele>
        <time>2020-02-09T09:00:57Z</time>
      </trkpt>
      <trkpt lat="43.18398" lon="2.43944">
        <ele>178.94</ele>
        <time>2020-02-09T09:01:00Z</time>
      </trkpt>
      <trkpt lat="43.18402" lon="2.43949">
        <ele>179.42</ele>
        <time>2020-02-09T09:01:01Z</time>
      </trkpt>
      <trkpt lat="43.18405" lon="2.43953">
        <ele>178.46</ele>
        <time>2020-02-09T09:01:02Z</time>
      </trkpt>
      <trkpt lat="43.18414" lon="2.43961">
        <ele>177.5</ele>
        <time>2020-02-09T09:01:05Z</time>
      </trkpt>
      <trkpt lat="43.18417" lon="2.4396">
        <ele>177.98</ele>
        <time>2020-02-09T09:01:06Z</time>
      </trkpt>
      <trkpt lat="43.1842" lon="2.4396">
        <ele>178.46</ele>
        <time>2020-02-09T09:01:07Z</time>
      </trkpt>
      <trkpt lat="43.18456" lon="2.43955">
        <ele>176.06</ele>
        <time>2020-02-09T09:01:14Z</time>
      </trkpt>
      <trkpt lat="43.18478" lon="2.43952">
        <ele>177.02</ele>
        <time>2020-02-09T09:01:18Z</time>
      </trkpt>
      <trkpt lat="43.18482" lon="2.43952">
        <ele>177.98</ele>
        <time>2020-02-09T09:01:19Z</time>
      </trkpt>
      <trkpt lat="43.18486" lon="2.43953">
        <ele>177.98</ele>
        <time>2020-02-09T09:01:20Z</time>
      </trkpt>
      <trkpt lat="43.18513" lon="2.43961">
        <ele>177.5</ele>
        <time>2020-02-09T09:01:27Z</time>
      </trkpt>
      <trkpt lat="43.18523" lon="2.43966">
        <ele>177.02</ele>
        <time>2020-02-09T09:01:29Z</time>
      </trkpt>
      <trkpt lat="43.18527" lon="2.4397">
        <ele>177.02</ele>
        <time>2020-02-09T09:01:30Z</time>
      </trkpt>
      <trkpt lat="43.18536" lon="2.43978">
        <ele>176.06</ele>
        <time>2020-02-09T09:01:32Z</time>
      </trkpt>
      <trkpt lat="43.1854" lon="2.43982">
        <ele>176.06</ele>
        <time>2020-02-09T09:01:33Z</time>
      </trkpt>
      <trkpt lat="43.18544" lon="2.43986">
        <ele>176.54</ele>
        <time>2020-02-09T09:01:34Z</time>
      </trkpt>
      <trkpt lat="43.18549" lon="2.43992">
        <ele>175.58</ele>
        <time>2020-02-09T09:01:35Z</time>
      </trkpt>
      <trkpt lat="43.18554" lon="2.43998">
        <ele>174.14</ele>
        <time>2020-02-09T09:01:36Z</time>
      </trkpt>
      <trkpt lat="43.18558" lon="2.44005">
        <ele>173.17</ele>
        <time>2020-02-09T09:01:37Z</time>
      </trkpt>
      <trkpt lat="43.18562" lon="2.44013">
        <ele>173.17</ele>
        <time>2020-02-09T09:01:38Z</time>
      </trkpt>
      <trkpt lat="43.18566" lon="2.4402">
        <ele>172.21</ele>
        <time>2020-02-09T09:01:39Z</time>
      </trkpt>
      <trkpt lat="43.1857" lon="2.44026">
        <ele>170.77</ele>
        <time>2020-02-09T09:01:40Z</time>
      </trkpt>
      <trkpt lat="43.18574" lon="2.4403">
        <ele>169.81</ele>
        <time>2020-02-09T09:01:41Z</time>
      </trkpt>
      <trkpt lat="43.18577" lon="2.44033">
        <ele>169.81</ele>
        <time>2020-02-09T09:01:42Z</time>
      </trkpt>
      <trkpt lat="43.1858" lon="2.44034">
        <ele>168.37</ele>
        <time>2020-02-09T09:01:43Z</time>
      </trkpt>
      <trkpt lat="43.18582" lon="2.44035">
        <ele>168.37</ele>
        <time>2020-02-09T09:01:44Z</time>
      </trkpt>
      <trkpt lat="43.18584" lon="2.44037">
        <ele>167.89</ele>
        <time>2020-02-09T09:01:45Z</time>
      </trkpt>
      <trkpt lat="43.18585" lon="2.44039">
        <ele>167.41</ele>
        <time>2020-02-09T09:01:46Z</time>
      </trkpt>
      <trkpt lat="43.18585" lon="2.44041">
        <ele>166.93</ele>
        <time>2020-02-09T09:01:47Z</time>
      </trkpt>
      <trkpt lat="43.18584" lon="2.44044">
        <ele>167.41</ele>
        <time>2020-02-09T09:01:48Z</time>
      </trkpt>
      <trkpt lat="43.18583" lon="2.44048">
        <ele>167.89</ele>
        <time>2020-02-09T09:01:49Z</time>
      </trkpt>
      <trkpt lat="43.18582" lon="2.44052">
        <ele>168.37</ele>
        <time>2020-02-09T09:01:50Z</time>
      </trkpt>
      <trkpt lat="43.1858" lon="2.44057">
        <ele>167.41</ele>
        <time>2020-02-09T09:01:51Z</time>
      </trkpt>
      <trkpt lat="43.18579" lon="2.44064">
        <ele>167.41</ele>
        <time>2020-02-09T09:01:52Z</time>
      </trkpt>
      <trkpt lat="43.18573" lon="2.44124">
        <ele>164.04</ele>
        <time>2020-02-09T09:01:59Z</time>
      </trkpt>
      <trkpt lat="43.18567" lon="2.44195">
        <ele>162.6</ele>
        <time>2020-02-09T09:02:06Z</time>
      </trkpt>
      <trkpt lat="43.18565" lon="2.44227">
        <ele>161.16</ele>
        <time>2020-02-09T09:02:09Z</time>
      </trkpt>
      <trkpt lat="43.18564" lon="2.44283">
        <ele>157.79</ele>
        <time>2020-02-09T09:02:14Z</time>
      </trkpt>
      <trkpt lat="43.18563" lon="2.44351">
        <ele>155.39</ele>
        <time>2020-02-09T09:02:20Z</time>
      </trkpt>
      <trkpt lat="43.18558" lon="2.44413">
        <ele>153.95</ele>
        <time>2020-02-09T09:02:26Z</time>
      </trkpt>
      <trkpt lat="43.18561" lon="2.4456">
        <ele>155.87</ele>
        <time>2020-02-09T09:02:45Z</time>
      </trkpt>
      <trkpt lat="43.18556" lon="2.44721">
        <ele>153.95</ele>
        <time>2020-02-09T09:03:08Z</time>
      </trkpt>
      <trkpt lat="43.18555" lon="2.44735">
        <ele>152.99</ele>
        <time>2020-02-09T09:03:10Z</time>
      </trkpt>
      <trkpt lat="43.18554" lon="2.44739">
        <ele>153.47</ele>
        <time>2020-02-09T09:03:11Z</time>
      </trkpt>
      <trkpt lat="43.1855" lon="2.44743">
        <ele>153.47</ele>
        <time>2020-02-09T09:03:12Z</time>
      </trkpt>
      <trkpt lat="43.18546" lon="2.44744">
        <ele>152.99</ele>
        <time>2020-02-09T09:03:13Z</time>
      </trkpt>
      <trkpt lat="43.18542" lon="2.44745">
        <ele>153.47</ele>
        <time>2020-02-09T09:03:14Z</time>
      </trkpt>
      <trkpt lat="43.18538" lon="2.44747">
        <ele>153.95</ele>
        <time>2020-02-09T09:03:15Z</time>
      </trkpt>
      <trkpt lat="43.18535" lon="2.4475">
        <ele>153.95</ele>
        <time>2020-02-09T09:03:16Z</time>
      </trkpt>
      <trkpt lat="43.18533" lon="2.44755">
        <ele>153.47</ele>
        <time>2020-02-09T09:03:17Z</time>
      </trkpt>
      <trkpt lat="43.18532" lon="2.44761">
        <ele>155.39</ele>
        <time>2020-02-09T09:03:18Z</time>
      </trkpt>
      <trkpt lat="43.18531" lon="2.44767">
        <ele>154.91</ele>
        <time>2020-02-09T09:03:19Z</time>
      </trkpt>
      <trkpt lat="43.18531" lon="2.44774">
        <ele>154.91</ele>
        <time>2020-02-09T09:03:20Z</time>
      </trkpt>
      <trkpt lat="43.18531" lon="2.44795">
        <ele>154.43</ele>
        <time>2020-02-09T09:03:23Z</time>
      </trkpt>
      <trkpt lat="43.18531" lon="2.44802">
        <ele>154.43</ele>
        <time>2020-02-09T09:03:24Z</time>
      </trkpt>
      <trkpt lat="43.18537" lon="2.44866">
        <ele>151.06</ele>
        <time>2020-02-09T09:03:32Z</time>
      </trkpt>
      <trkpt lat="43.18538" lon="2.44874">
        <ele>151.06</ele>
        <time>2020-02-09T09:03:33Z</time>
      </trkpt>
      <trkpt lat="43.1854" lon="2.44884">
        <ele>150.1</ele>
        <time>2020-02-09T09:03:34Z</time>
      </trkpt>
      <trkpt lat="43.18549" lon="2.44924">
        <ele>147.7</ele>
        <time>2020-02-09T09:03:38Z</time>
      </trkpt>
      <trkpt lat="43.18552" lon="2.44932">
        <ele>147.22</ele>
        <time>2020-02-09T09:03:39Z</time>
      </trkpt>
      <trkpt lat="43.18556" lon="2.4494">
        <ele>147.7</ele>
        <time>2020-02-09T09:03:40Z</time>
      </trkpt>
      <trkpt lat="43.18561" lon="2.44946">
        <ele>147.22</ele>
        <time>2020-02-09T09:03:41Z</time>
      </trkpt>
      <trkpt lat="43.18567" lon="2.44953">
        <ele>146.74</ele>
        <time>2020-02-09T09:03:42Z</time>
      </trkpt>
      <trkpt lat="43.18571" lon="2.4496">
        <ele>145.3</ele>
        <time>2020-02-09T09:03:43Z</time>
      </trkpt>
      <trkpt lat="43.18576" lon="2.44968">
        <ele>144.82</ele>
        <time>2020-02-09T09:03:44Z</time>
      </trkpt>
      <trkpt lat="43.18579" lon="2.44978">
        <ele>144.34</ele>
        <time>2020-02-09T09:03:45Z</time>
      </trkpt>
      <trkpt lat="43.18582" lon="2.44988">
        <ele>143.37</ele>
        <time>2020-02-09T09:03:46Z</time>
      </trkpt>
      <trkpt lat="43.18585" lon="2.44999">
        <ele>141.93</ele>
        <time>2020-02-09T09:03:47Z</time>
      </trkpt>
      <trkpt lat="43.18588" lon="2.45009">
        <ele>141.93</ele>
        <time>2020-02-09T09:03:48Z</time>
      </trkpt>
      <trkpt lat="43.18593" lon="2.45029">
        <ele>140.97</ele>
        <time>2020-02-09T09:03:50Z</time>
      </trkpt>
      <trkpt lat="43.18594" lon="2.45039">
        <ele>139.53</ele>
        <time>2020-02-09T09:03:51Z</time>
      </trkpt>
      <trkpt lat="43.18594" lon="2.45068">
        <ele>138.09</ele>
        <time>2020-02-09T09:03:54Z</time>
      </trkpt>
      <trkpt lat="43.18594" lon="2.45152">
        <ele>134.72</ele>
        <time>2020-02-09T09:04:03Z</time>
      </trkpt>
      <trkpt lat="43.18586" lon="2.45238">
        <ele>131.84</ele>
        <time>2020-02-09T09:04:12Z</time>
      </trkpt>
      <trkpt lat="43.18584" lon="2.45291">
        <ele>128.47</ele>
        <time>2020-02-09T09:04:21Z</time>
      </trkpt>
      <trkpt lat="43.18581" lon="2.45343">
        <ele>127.03</ele>
        <time>2020-02-09T09:04:29Z</time>
      </trkpt>
      <trkpt lat="43.18572" lon="2.45418">
        <ele>126.07</ele>
        <time>2020-02-09T09:04:38Z</time>
      </trkpt>
      <trkpt lat="43.18573" lon="2.45426">
        <ele>124.63</ele>
        <time>2020-02-09T09:04:39Z</time>
      </trkpt>
      <trkpt lat="43.18575" lon="2.45432">
        <ele>124.63</ele>
        <time>2020-02-09T09:04:40Z</time>
      </trkpt>
      <trkpt lat="43.18577" lon="2.45437">
        <ele>124.63</ele>
        <time>2020-02-09T09:04:41Z</time>
      </trkpt>
      <trkpt lat="43.1858" lon="2.45441">
        <ele>123.67</ele>
        <time>2020-02-09T09:04:42Z</time>
      </trkpt>
      <trkpt lat="43.18582" lon="2.45443">
        <ele>123.19</ele>
        <time>2020-02-09T09:04:43Z</time>
      </trkpt>
      <trkpt lat="43.18585" lon="2.45447">
        <ele>123.19</ele>
        <time>2020-02-09T09:04:44Z</time>
      </trkpt>
      <trkpt lat="43.18586" lon="2.45452">
        <ele>122.71</ele>
        <time>2020-02-09T09:04:45Z</time>
      </trkpt>
      <trkpt lat="43.18586" lon="2.45457">
        <ele>122.71</ele>
        <time>2020-02-09T09:04:46Z</time>
      </trkpt>
      <trkpt lat="43.18585" lon="2.45463">
        <ele>122.71</ele>
        <time>2020-02-09T09:04:47Z</time>
      </trkpt>
      <trkpt lat="43.18584" lon="2.45483">
        <ele>122.71</ele>
        <time>2020-02-09T09:04:50Z</time>
      </trkpt>
      <trkpt lat="43.18585" lon="2.45489">
        <ele>122.22</ele>
        <time>2020-02-09T09:04:51Z</time>
      </trkpt>
      <trkpt lat="43.18587" lon="2.45496">
        <ele>122.22</ele>
        <time>2020-02-09T09:04:52Z</time>
      </trkpt>
      <trkpt lat="43.1859" lon="2.45501">
        <ele>122.22</ele>
        <time>2020-02-09T09:04:53Z</time>
      </trkpt>
      <trkpt lat="43.18594" lon="2.45507">
        <ele>122.22</ele>
        <time>2020-02-09T09:04:54Z</time>
      </trkpt>
      <trkpt lat="43.18605" lon="2.45525">
        <ele>120.3</ele>
        <time>2020-02-09T09:04:57Z</time>
      </trkpt>
      <trkpt lat="43.18607" lon="2.45532">
        <ele>119.82</ele>
        <time>2020-02-09T09:04:58Z</time>
      </trkpt>
      <trkpt lat="43.18608" lon="2.45539">
        <ele>118.86</ele>
        <time>2020-02-09T09:04:59Z</time>
      </trkpt>
      <trkpt lat="43.18605" lon="2.45555">
        <ele>116.46</ele>
        <time>2020-02-09T09:05:02Z</time>
      </trkpt>
      <trkpt lat="43.18602" lon="2.45557">
        <ele>116.94</ele>
        <time>2020-02-09T09:05:03Z</time>
      </trkpt>
      <trkpt lat="43.18599" lon="2.45558">
        <ele>117.42</ele>
        <time>2020-02-09T09:05:04Z</time>
      </trkpt>
      <trkpt lat="43.18595" lon="2.45558">
        <ele>116.94</ele>
        <time>2020-02-09T09:05:05Z</time>
      </trkpt>
      <trkpt lat="43.18591" lon="2.45558">
        <ele>117.42</ele>
        <time>2020-02-09T09:05:06Z</time>
      </trkpt>
      <trkpt lat="43.18586" lon="2.45558">
        <ele>116.94</ele>
        <time>2020-02-09T09:05:07Z</time>
      </trkpt>
      <trkpt lat="43.18545" lon="2.45592">
        <ele>118.86</ele>
        <time>2020-02-09T09:05:20Z</time>
      </trkpt>
      <trkpt lat="43.18542" lon="2.45597">
        <ele>118.38</ele>
        <time>2020-02-09T09:05:21Z</time>
      </trkpt>
      <trkpt lat="43.18539" lon="2.45601">
        <ele>119.34</ele>
        <time>2020-02-09T09:05:22Z</time>
      </trkpt>
      <trkpt lat="43.1847" lon="2.45673">
        <ele>118.38</ele>
        <time>2020-02-09T09:05:42Z</time>
      </trkpt>
      <trkpt lat="43.18423" lon="2.45785">
        <ele>120.3</ele>
        <time>2020-02-09T09:06:05Z</time>
      </trkpt>
      <trkpt lat="43.18411" lon="2.45808">
        <ele>119.82</ele>
        <time>2020-02-09T09:06:10Z</time>
      </trkpt>
      <trkpt lat="43.18333" lon="2.45908">
        <ele>122.22</ele>
        <time>2020-02-09T09:06:36Z</time>
      </trkpt>
      <trkpt lat="43.18324" lon="2.45916">
        <ele>122.22</ele>
        <time>2020-02-09T09:06:39Z</time>
      </trkpt>
      <trkpt lat="43.18312" lon="2.45927">
        <ele>120.3</ele>
        <time>2020-02-09T09:06:42Z</time>
      </trkpt>
      <trkpt lat="43.18302" lon="2.45937">
        <ele>120.3</ele>
        <time>2020-02-09T09:06:44Z</time>
      </trkpt>
      <trkpt lat="43.18298" lon="2.45944">
        <ele>119.34</ele>
        <time>2020-02-09T09:06:45Z</time>
      </trkpt>
      <trkpt lat="43.18294" lon="2.45952">
        <ele>118.38</ele>
        <time>2020-02-09T09:06:46Z</time>
      </trkpt>
      <trkpt lat="43.18291" lon="2.45962">
        <ele>117.9</ele>
        <time>2020-02-09T09:06:47Z</time>
      </trkpt>
      <trkpt lat="43.18287" lon="2.45971">
        <ele>117.42</ele>
        <time>2020-02-09T09:06:48Z</time>
      </trkpt>
      <trkpt lat="43.18283" lon="2.45979">
        <ele>116.94</ele>
        <time>2020-02-09T09:06:49Z</time>
      </trkpt>
      <trkpt lat="43.18278" lon="2.45989">
        <ele>116.46</ele>
        <time>2020-02-09T09:06:50Z</time>
      </trkpt>
      <trkpt lat="43.18271" lon="2.4601">
        <ele>115.98</ele>
        <time>2020-02-09T09:06:52Z</time>
      </trkpt>
      <trkpt lat="43.18269" lon="2.4602">
        <ele>115.5</ele>
        <time>2020-02-09T09:06:53Z</time>
      </trkpt>
      <trkpt lat="43.18268" lon="2.46031">
        <ele>114.53</ele>
        <time>2020-02-09T09:06:54Z</time>
      </trkpt>
      <trkpt lat="43.18267" lon="2.46069">
        <ele>110.69</ele>
        <time>2020-02-09T09:06:58Z</time>
      </trkpt>
      <trkpt lat="43.18266" lon="2.46075">
        <ele>109.73</ele>
        <time>2020-02-09T09:06:59Z</time>
      </trkpt>
      <trkpt lat="43.18264" lon="2.4608">
        <ele>109.73</ele>
        <time>2020-02-09T09:07:00Z</time>
      </trkpt>
      <trkpt lat="43.1826" lon="2.46085">
        <ele>108.77</ele>
        <time>2020-02-09T09:07:01Z</time>
      </trkpt>
      <trkpt lat="43.18256" lon="2.46089">
        <ele>108.77</ele>
        <time>2020-02-09T09:07:02Z</time>
      </trkpt>
      <trkpt lat="43.18252" lon="2.46092">
        <ele>108.77</ele>
        <time>2020-02-09T09:07:03Z</time>
      </trkpt>
      <trkpt lat="43.18247" lon="2.46096">
        <ele>108.29</ele>
        <time>2020-02-09T09:07:04Z</time>
      </trkpt>
      <trkpt lat="43.18213" lon="2.46116">
        <ele>106.84</ele>
        <time>2020-02-09T09:07:11Z</time>
      </trkpt>
      <trkpt lat="43.18209" lon="2.4612">
        <ele>105.88</ele>
        <time>2020-02-09T09:07:12Z</time>
      </trkpt>
      <trkpt lat="43.18206" lon="2.46125">
        <ele>105.4</ele>
        <time>2020-02-09T09:07:13Z</time>
      </trkpt>
      <trkpt lat="43.18203" lon="2.46132">
        <ele>105.4</ele>
        <time>2020-02-09T09:07:14Z</time>
      </trkpt>
      <trkpt lat="43.182" lon="2.46139">
        <ele>105.4</ele>
        <time>2020-02-09T09:07:15Z</time>
      </trkpt>
      <trkpt lat="43.18198" lon="2.46148">
        <ele>103.96</ele>
        <time>2020-02-09T09:07:16Z</time>
      </trkpt>
      <trkpt lat="43.18196" lon="2.46157">
        <ele>103</ele>
        <time>2020-02-09T09:07:17Z</time>
      </trkpt>
      <trkpt lat="43.18195" lon="2.46167">
        <ele>103</ele>
        <time>2020-02-09T09:07:18Z</time>
      </trkpt>
      <trkpt lat="43.18193" lon="2.46177">
        <ele>102.04</ele>
        <time>2020-02-09T09:07:19Z</time>
      </trkpt>
      <trkpt lat="43.18173" lon="2.46273">
        <ele>103</ele>
        <time>2020-02-09T09:07:33Z</time>
      </trkpt>
      <trkpt lat="43.18161" lon="2.46336">
        <ele>104.44</ele>
        <time>2020-02-09T09:07:45Z</time>
      </trkpt>
      <trkpt lat="43.1816" lon="2.46341">
        <ele>103.48</ele>
        <time>2020-02-09T09:07:46Z</time>
      </trkpt>
      <trkpt lat="43.18159" lon="2.46346">
        <ele>103.48</ele>
        <time>2020-02-09T09:07:47Z</time>
      </trkpt>
      <trkpt lat="43.18157" lon="2.46351">
        <ele>103.96</ele>
        <time>2020-02-09T09:07:48Z</time>
      </trkpt>
      <trkpt lat="43.18156" lon="2.46355">
        <ele>103.96</ele>
        <time>2020-02-09T09:07:49Z</time>
      </trkpt>
      <trkpt lat="43.1812" lon="2.46397">
        <ele>101.56</ele>
        <time>2020-02-09T09:08:04Z</time>
      </trkpt>
      <trkpt lat="43.18108" lon="2.46408">
        <ele>100.6</ele>
        <time>2020-02-09T09:08:08Z</time>
      </trkpt>
      <trkpt lat="43.18105" lon="2.4641">
        <ele>100.6</ele>
        <time>2020-02-09T09:08:09Z</time>
      </trkpt>
      <trkpt lat="43.18101" lon="2.46411">
        <ele>100.11</ele>
        <time>2020-02-09T09:08:10Z</time>
      </trkpt>
      <trkpt lat="43.18097" lon="2.46411">
        <ele>100.11</ele>
        <time>2020-02-09T09:08:11Z</time>
      </trkpt>
      <trkpt lat="43.18094" lon="2.4641">
        <ele>99.63</ele>
        <time>2020-02-09T09:08:12Z</time>
      </trkpt>
      <trkpt lat="43.18091" lon="2.46409">
        <ele>99.63</ele>
        <time>2020-02-09T09:08:13Z</time>
      </trkpt>
      <trkpt lat="43.18089" lon="2.46409">
        <ele>100.11</ele>
        <time>2020-02-09T09:08:14Z</time>
      </trkpt>
      <trkpt lat="43.18066" lon="2.46416">
        <ele>100.11</ele>
        <time>2020-02-09T09:08:27Z</time>
      </trkpt>
      <trkpt lat="43.18049" lon="2.46412">
        <ele>103</ele>
        <time>2020-02-09T09:08:47Z</time>
      </trkpt>
      <trkpt lat="43.18041" lon="2.46403">
        <ele>104.44</ele>
        <time>2020-02-09T09:08:54Z</time>
      </trkpt>
      <trkpt lat="43.18039" lon="2.46403">
        <ele>104.92</ele>
        <time>2020-02-09T09:08:55Z</time>
      </trkpt>
      <trkpt lat="43.18037" lon="2.46404">
        <ele>104.92</ele>
        <time>2020-02-09T09:08:56Z</time>
      </trkpt>
      <trkpt lat="43.18035" lon="2.46404">
        <ele>104.92</ele>
        <time>2020-02-09T09:08:57Z</time>
      </trkpt>
      <trkpt lat="43.18032" lon="2.46405">
        <ele>105.4</ele>
        <time>2020-02-09T09:08:58Z</time>
      </trkpt>
      <trkpt lat="43.1803" lon="2.46406">
        <ele>105.88</ele>
        <time>2020-02-09T09:08:59Z</time>
      </trkpt>
      <trkpt lat="43.18029" lon="2.46407">
        <ele>105.88</ele>
        <time>2020-02-09T09:09:00Z</time>
      </trkpt>
      <trkpt lat="43.18024" lon="2.46408">
        <ele>106.36</ele>
        <time>2020-02-09T09:09:03Z</time>
      </trkpt>
      <trkpt lat="43.18016" lon="2.46404">
        <ele>107.81</ele>
        <time>2020-02-09T09:09:09Z</time>
      </trkpt>
      <trkpt lat="43.18015" lon="2.46404">
        <ele>107.81</ele>
        <time>2020-02-09T09:09:10Z</time>
      </trkpt>
      <trkpt lat="43.18013" lon="2.46405">
        <ele>108.29</ele>
        <time>2020-02-09T09:09:11Z</time>
      </trkpt>
      <trkpt lat="43.18012" lon="2.46405">
        <ele>108.29</ele>
        <time>2020-02-09T09:09:12Z</time>
      </trkpt>
      <trkpt lat="43.18011" lon="2.46405">
        <ele>108.77</ele>
        <time>2020-02-09T09:09:13Z</time>
      </trkpt>
      <trkpt lat="43.18009" lon="2.46406">
        <ele>109.25</ele>
        <time>2020-02-09T09:09:14Z</time>
      </trkpt>
      <trkpt lat="43.18002" lon="2.46412">
        <ele>111.17</ele>
        <time>2020-02-09T09:09:20Z</time>
      </trkpt>
      <trkpt lat="43.18001" lon="2.46413">
        <ele>111.17</ele>
        <time>2020-02-09T09:09:21Z</time>
      </trkpt>
      <trkpt lat="43.18001" lon="2.46415">
        <ele>111.65</ele>
        <time>2020-02-09T09:09:22Z</time>
      </trkpt>
      <trkpt lat="43.18007" lon="2.46439">
        <ele>114.53</ele>
        <time>2020-02-09T09:09:35Z</time>
      </trkpt>
      <trkpt lat="43.18007" lon="2.46441">
        <ele>114.53</ele>
        <time>2020-02-09T09:09:36Z</time>
      </trkpt>
      <trkpt lat="43.18007" lon="2.46443">
        <ele>114.53</ele>
        <time>2020-02-09T09:09:37Z</time>
      </trkpt>
      <trkpt lat="43.18007" lon="2.46445">
        <ele>115.01</ele>
        <time>2020-02-09T09:09:38Z</time>
      </trkpt>
      <trkpt lat="43.18007" lon="2.46447">
        <ele>115.5</ele>
        <time>2020-02-09T09:09:39Z</time>
      </trkpt>
      <trkpt lat="43.18007" lon="2.46449">
        <ele>115.01</ele>
        <time>2020-02-09T09:09:40Z</time>
      </trkpt>
      <trkpt lat="43.18007" lon="2.46452">
        <ele>115.01</ele>
        <time>2020-02-09T09:09:41Z</time>
      </trkpt>
      <trkpt lat="43.18007" lon="2.46454">
        <ele>115.98</ele>
        <time>2020-02-09T09:09:42Z</time>
      </trkpt>
      <trkpt lat="43.18007" lon="2.4646">
        <ele>116.46</ele>
        <time>2020-02-09T09:09:45Z</time>
      </trkpt>
      <trkpt lat="43.18007" lon="2.46462">
        <ele>116.46</ele>
        <time>2020-02-09T09:09:46Z</time>
      </trkpt>
      <trkpt lat="43.18007" lon="2.46465">
        <ele>116.46</ele>
        <time>2020-02-09T09:09:47Z</time>
      </trkpt>
      <trkpt lat="43.18007" lon="2.46466">
        <ele>116.46</ele>
        <time>2020-02-09T09:09:48Z</time>
      </trkpt>
      <trkpt lat="43.18007" lon="2.46468">
        <ele>116.94</ele>
        <time>2020-02-09T09:09:49Z</time>
      </trkpt>
      <trkpt lat="43.18006" lon="2.4647">
        <ele>116.46</ele>
        <time>2020-02-09T09:09:50Z</time>
      </trkpt>
      <trkpt lat="43.18005" lon="2.46472">
        <ele>116.94</ele>
        <time>2020-02-09T09:09:51Z</time>
      </trkpt>
      <trkpt lat="43.18002" lon="2.46501">
        <ele>117.9</ele>
        <time>2020-02-09T09:10:03Z</time>
      </trkpt>
      <trkpt lat="43.18001" lon="2.46503">
        <ele>118.86</ele>
        <time>2020-02-09T09:10:04Z</time>
      </trkpt>
      <trkpt lat="43.17967" lon="2.4655">
        <ele>120.3</ele>
        <time>2020-02-09T09:10:23Z</time>
      </trkpt>
      <trkpt lat="43.17953" lon="2.4658">
        <ele>123.67</ele>
        <time>2020-02-09T09:10:38Z</time>
      </trkpt>
      <trkpt lat="43.17949" lon="2.46581">
        <ele>123.19</ele>
        <time>2020-02-09T09:10:40Z</time>
      </trkpt>
      <trkpt lat="43.17947" lon="2.46581">
        <ele>123.19</ele>
        <time>2020-02-09T09:10:41Z</time>
      </trkpt>
      <trkpt lat="43.17945" lon="2.4658">
        <ele>123.67</ele>
        <time>2020-02-09T09:10:42Z</time>
      </trkpt>
      <trkpt lat="43.17894" lon="2.46568">
        <ele>125.11</ele>
        <time>2020-02-09T09:11:02Z</time>
      </trkpt>
      <trkpt lat="43.17859" lon="2.46565">
        <ele>127.99</ele>
        <time>2020-02-09T09:11:19Z</time>
      </trkpt>
      <trkpt lat="43.17843" lon="2.46588">
        <ele>130.88</ele>
        <time>2020-02-09T09:11:32Z</time>
      </trkpt>
      <trkpt lat="43.17842" lon="2.46598">
        <ele>130.88</ele>
        <time>2020-02-09T09:11:36Z</time>
      </trkpt>
      <trkpt lat="43.17845" lon="2.46632">
        <ele>129.43</ele>
        <time>2020-02-09T09:11:45Z</time>
      </trkpt>
      <trkpt lat="43.17843" lon="2.46634">
        <ele>129.43</ele>
        <time>2020-02-09T09:11:46Z</time>
      </trkpt>
      <trkpt lat="43.17825" lon="2.46643">
        <ele>132.32</ele>
        <time>2020-02-09T09:11:56Z</time>
      </trkpt>
      <trkpt lat="43.17824" lon="2.46643">
        <ele>132.32</ele>
        <time>2020-02-09T09:11:57Z</time>
      </trkpt>
      <trkpt lat="43.17816" lon="2.46648">
        <ele>133.76</ele>
        <time>2020-02-09T09:12:04Z</time>
      </trkpt>
      <trkpt lat="43.17815" lon="2.46649">
        <ele>133.76</ele>
        <time>2020-02-09T09:12:05Z</time>
      </trkpt>
      <trkpt lat="43.17814" lon="2.46651">
        <ele>134.24</ele>
        <time>2020-02-09T09:12:06Z</time>
      </trkpt>
      <trkpt lat="43.17812" lon="2.46653">
        <ele>134.24</ele>
        <time>2020-02-09T09:12:08Z</time>
      </trkpt>
      <trkpt lat="43.17789" lon="2.46654">
        <ele>137.13</ele>
        <time>2020-02-09T09:12:23Z</time>
      </trkpt>
      <trkpt lat="43.17786" lon="2.46656">
        <ele>136.64</ele>
        <time>2020-02-09T09:12:25Z</time>
      </trkpt>
      <trkpt lat="43.17761" lon="2.46684">
        <ele>137.61</ele>
        <time>2020-02-09T09:12:39Z</time>
      </trkpt>
      <trkpt lat="43.17738" lon="2.46705">
        <ele>139.05</ele>
        <time>2020-02-09T09:12:51Z</time>
      </trkpt>
      <trkpt lat="43.17737" lon="2.46707">
        <ele>140.01</ele>
        <time>2020-02-09T09:12:52Z</time>
      </trkpt>
      <trkpt lat="43.17726" lon="2.46727">
        <ele>140.49</ele>
        <time>2020-02-09T09:13:09Z</time>
      </trkpt>
      <trkpt lat="43.17726" lon="2.46726">
        <ele>140.49</ele>
        <time>2020-02-09T09:13:27Z</time>
      </trkpt>
      <trkpt lat="43.17725" lon="2.46731">
        <ele>140.49</ele>
        <time>2020-02-09T09:13:56Z</time>
      </trkpt>
      <trkpt lat="43.17724" lon="2.46731">
        <ele>140.49</ele>
        <time>2020-02-09T09:14:01Z</time>
      </trkpt>
      <trkpt lat="43.17722" lon="2.46731">
        <ele>140.49</ele>
        <time>2020-02-09T09:14:02Z</time>
      </trkpt>
      <trkpt lat="43.17721" lon="2.46732">
        <ele>140.49</ele>
        <time>2020-02-09T09:14:03Z</time>
      </trkpt>
      <trkpt lat="43.17694" lon="2.46731">
        <ele>143.85</ele>
        <time>2020-02-09T09:14:20Z</time>
      </trkpt>
      <trkpt lat="43.17668" lon="2.46742">
        <ele>147.22</ele>
        <time>2020-02-09T09:14:37Z</time>
      </trkpt>
      <trkpt lat="43.17665" lon="2.46742">
        <ele>147.7</ele>
        <time>2020-02-09T09:14:39Z</time>
      </trkpt>
      <trkpt lat="43.17664" lon="2.46742">
        <ele>148.18</ele>
        <time>2020-02-09T09:14:40Z</time>
      </trkpt>
      <trkpt lat="43.17663" lon="2.46743">
        <ele>149.14</ele>
        <time>2020-02-09T09:14:41Z</time>
      </trkpt>
      <trkpt lat="43.17648" lon="2.46747">
        <ele>152.51</ele>
        <time>2020-02-09T09:14:53Z</time>
      </trkpt>
      <trkpt lat="43.17645" lon="2.46749">
        <ele>152.99</ele>
        <time>2020-02-09T09:14:55Z</time>
      </trkpt>
      <trkpt lat="43.17644" lon="2.46751">
        <ele>152.99</ele>
        <time>2020-02-09T09:14:56Z</time>
      </trkpt>
      <trkpt lat="43.17643" lon="2.46752">
        <ele>153.95</ele>
        <time>2020-02-09T09:14:57Z</time>
      </trkpt>
      <trkpt lat="43.17627" lon="2.46774">
        <ele>156.35</ele>
        <time>2020-02-09T09:15:17Z</time>
      </trkpt>
      <trkpt lat="43.1762" lon="2.46777">
        <ele>158.75</ele>
        <time>2020-02-09T09:15:26Z</time>
      </trkpt>
      <trkpt lat="43.17611" lon="2.46794">
        <ele>160.68</ele>
        <time>2020-02-09T09:15:42Z</time>
      </trkpt>
      <trkpt lat="43.17603" lon="2.46805">
        <ele>161.16</ele>
        <time>2020-02-09T09:15:49Z</time>
      </trkpt>
      <trkpt lat="43.17603" lon="2.46808">
        <ele>161.64</ele>
        <time>2020-02-09T09:15:50Z</time>
      </trkpt>
      <trkpt lat="43.17602" lon="2.4681">
        <ele>162.12</ele>
        <time>2020-02-09T09:15:51Z</time>
      </trkpt>
      <trkpt lat="43.17596" lon="2.4684">
        <ele>161.16</ele>
        <time>2020-02-09T09:16:02Z</time>
      </trkpt>
      <trkpt lat="43.17595" lon="2.46843">
        <ele>160.2</ele>
        <time>2020-02-09T09:16:03Z</time>
      </trkpt>
      <trkpt lat="43.17594" lon="2.46845">
        <ele>160.2</ele>
        <time>2020-02-09T09:16:04Z</time>
      </trkpt>
      <trkpt lat="43.17588" lon="2.46851">
        <ele>160.2</ele>
        <time>2020-02-09T09:16:14Z</time>
      </trkpt>
      <trkpt lat="43.17586" lon="2.46851">
        <ele>160.68</ele>
        <time>2020-02-09T09:16:15Z</time>
      </trkpt>
      <trkpt lat="43.17584" lon="2.46852">
        <ele>160.2</ele>
        <time>2020-02-09T09:16:16Z</time>
      </trkpt>
      <trkpt lat="43.17576" lon="2.46856">
        <ele>161.16</ele>
        <time>2020-02-09T09:16:22Z</time>
      </trkpt>
      <trkpt lat="43.17574" lon="2.46857">
        <ele>161.16</ele>
        <time>2020-02-09T09:16:23Z</time>
      </trkpt>
      <trkpt lat="43.17569" lon="2.46869">
        <ele>161.64</ele>
        <time>2020-02-09T09:16:30Z</time>
      </trkpt>
      <trkpt lat="43.17575" lon="2.46882">
        <ele>160.68</ele>
        <time>2020-02-09T09:16:34Z</time>
      </trkpt>
      <trkpt lat="43.17576" lon="2.46883">
        <ele>160.68</ele>
        <time>2020-02-09T09:16:35Z</time>
      </trkpt>
      <trkpt lat="43.17578" lon="2.46885">
        <ele>161.16</ele>
        <time>2020-02-09T09:16:36Z</time>
      </trkpt>
      <trkpt lat="43.17581" lon="2.46888">
        <ele>160.2</ele>
        <time>2020-02-09T09:16:38Z</time>
      </trkpt>
      <trkpt lat="43.17581" lon="2.4689">
        <ele>160.2</ele>
        <time>2020-02-09T09:16:39Z</time>
      </trkpt>
      <trkpt lat="43.17582" lon="2.46893">
        <ele>159.72</ele>
        <time>2020-02-09T09:16:40Z</time>
      </trkpt>
      <trkpt lat="43.17582" lon="2.46896">
        <ele>159.72</ele>
        <time>2020-02-09T09:16:41Z</time>
      </trkpt>
      <trkpt lat="43.17583" lon="2.46899">
        <ele>159.72</ele>
        <time>2020-02-09T09:16:42Z</time>
      </trkpt>
      <trkpt lat="43.17584" lon="2.46904">
        <ele>160.2</ele>
        <time>2020-02-09T09:16:44Z</time>
      </trkpt>
      <trkpt lat="43.17583" lon="2.46907">
        <ele>159.72</ele>
        <time>2020-02-09T09:16:45Z</time>
      </trkpt>
      <trkpt lat="43.17582" lon="2.46909">
        <ele>160.68</ele>
        <time>2020-02-09T09:16:46Z</time>
      </trkpt>
      <trkpt lat="43.17581" lon="2.46911">
        <ele>160.68</ele>
        <time>2020-02-09T09:16:47Z</time>
      </trkpt>
      <trkpt lat="43.1758" lon="2.46914">
        <ele>161.64</ele>
        <time>2020-02-09T09:16:48Z</time>
      </trkpt>
      <trkpt lat="43.17579" lon="2.46916">
        <ele>161.64</ele>
        <time>2020-02-09T09:16:49Z</time>
      </trkpt>
      <trkpt lat="43.17579" lon="2.46919">
        <ele>161.16</ele>
        <time>2020-02-09T09:16:50Z</time>
      </trkpt>
      <trkpt lat="43.17579" lon="2.46922">
        <ele>162.12</ele>
        <time>2020-02-09T09:16:51Z</time>
      </trkpt>
      <trkpt lat="43.1758" lon="2.46924">
        <ele>162.12</ele>
        <time>2020-02-09T09:16:52Z</time>
      </trkpt>
      <trkpt lat="43.17581" lon="2.46927">
        <ele>162.12</ele>
        <time>2020-02-09T09:16:53Z</time>
      </trkpt>
      <trkpt lat="43.17582" lon="2.46929">
        <ele>162.6</ele>
        <time>2020-02-09T09:16:54Z</time>
      </trkpt>
      <trkpt lat="43.17582" lon="2.46932">
        <ele>162.6</ele>
        <time>2020-02-09T09:16:55Z</time>
      </trkpt>
      <trkpt lat="43.17583" lon="2.46937">
        <ele>162.6</ele>
        <time>2020-02-09T09:16:57Z</time>
      </trkpt>
      <trkpt lat="43.17583" lon="2.46939">
        <ele>163.08</ele>
        <time>2020-02-09T09:16:58Z</time>
      </trkpt>
      <trkpt lat="43.17583" lon="2.46942">
        <ele>163.56</ele>
        <time>2020-02-09T09:16:59Z</time>
      </trkpt>
      <trkpt lat="43.17584" lon="2.46944">
        <ele>163.56</ele>
        <time>2020-02-09T09:17:00Z</time>
      </trkpt>
      <trkpt lat="43.17584" lon="2.46947">
        <ele>163.08</ele>
        <time>2020-02-09T09:17:01Z</time>
      </trkpt>
      <trkpt lat="43.17585" lon="2.46949">
        <ele>163.56</ele>
        <time>2020-02-09T09:17:02Z</time>
      </trkpt>
      <trkpt lat="43.17585" lon="2.46951">
        <ele>164.04</ele>
        <time>2020-02-09T09:17:03Z</time>
      </trkpt>
      <trkpt lat="43.17585" lon="2.46954">
        <ele>164.04</ele>
        <time>2020-02-09T09:17:04Z</time>
      </trkpt>
      <trkpt lat="43.17584" lon="2.46956">
        <ele>164.04</ele>
        <time>2020-02-09T09:17:05Z</time>
      </trkpt>
      <trkpt lat="43.17582" lon="2.46958">
        <ele>164.04</ele>
        <time>2020-02-09T09:17:06Z</time>
      </trkpt>
      <trkpt lat="43.17582" lon="2.4696">
        <ele>165</ele>
        <time>2020-02-09T09:17:07Z</time>
      </trkpt>
      <trkpt lat="43.17581" lon="2.46963">
        <ele>165.48</ele>
        <time>2020-02-09T09:17:09Z</time>
      </trkpt>
      <trkpt lat="43.17582" lon="2.46966">
        <ele>165</ele>
        <time>2020-02-09T09:17:10Z</time>
      </trkpt>
      <trkpt lat="43.17582" lon="2.46968">
        <ele>165.96</ele>
        <time>2020-02-09T09:17:11Z</time>
      </trkpt>
      <trkpt lat="43.17575" lon="2.47">
        <ele>167.89</ele>
        <time>2020-02-09T09:17:24Z</time>
      </trkpt>
      <trkpt lat="43.17561" lon="2.47016">
        <ele>169.81</ele>
        <time>2020-02-09T09:17:34Z</time>
      </trkpt>
      <trkpt lat="43.1756" lon="2.47018">
        <ele>169.81</ele>
        <time>2020-02-09T09:17:35Z</time>
      </trkpt>
      <trkpt lat="43.1756" lon="2.47022">
        <ele>170.29</ele>
        <time>2020-02-09T09:17:36Z</time>
      </trkpt>
      <trkpt lat="43.17558" lon="2.47035">
        <ele>169.33</ele>
        <time>2020-02-09T09:17:40Z</time>
      </trkpt>
      <trkpt lat="43.17557" lon="2.47037">
        <ele>169.33</ele>
        <time>2020-02-09T09:17:41Z</time>
      </trkpt>
      <trkpt lat="43.17556" lon="2.47039">
        <ele>169.81</ele>
        <time>2020-02-09T09:17:43Z</time>
      </trkpt>
      <trkpt lat="43.17554" lon="2.47039">
        <ele>169.81</ele>
        <time>2020-02-09T09:17:44Z</time>
      </trkpt>
      <trkpt lat="43.17553" lon="2.47039">
        <ele>170.77</ele>
        <time>2020-02-09T09:17:45Z</time>
      </trkpt>
      <trkpt lat="43.17542" lon="2.47034">
        <ele>173.66</ele>
        <time>2020-02-09T09:17:59Z</time>
      </trkpt>
      <trkpt lat="43.17529" lon="2.47032">
        <ele>176.54</ele>
        <time>2020-02-09T09:18:15Z</time>
      </trkpt>
      <trkpt lat="43.17528" lon="2.47033">
        <ele>176.54</ele>
        <time>2020-02-09T09:18:16Z</time>
      </trkpt>
      <trkpt lat="43.17527" lon="2.47034">
        <ele>177.02</ele>
        <time>2020-02-09T09:18:17Z</time>
      </trkpt>
      <trkpt lat="43.17518" lon="2.47043">
        <ele>178.94</ele>
        <time>2020-02-09T09:18:29Z</time>
      </trkpt>
      <trkpt lat="43.17511" lon="2.47048">
        <ele>182.31</ele>
        <time>2020-02-09T09:18:40Z</time>
      </trkpt>
      <trkpt lat="43.17506" lon="2.47054">
        <ele>184.23</ele>
        <time>2020-02-09T09:18:57Z</time>
      </trkpt>
      <trkpt lat="43.17502" lon="2.47059">
        <ele>187.59</ele>
        <time>2020-02-09T09:19:12Z</time>
      </trkpt>
      <trkpt lat="43.17495" lon="2.47064">
        <ele>188.56</ele>
        <time>2020-02-09T09:19:26Z</time>
      </trkpt>
      <trkpt lat="43.17495" lon="2.47066">
        <ele>188.56</ele>
        <time>2020-02-09T09:19:27Z</time>
      </trkpt>
      <trkpt lat="43.17493" lon="2.47063">
        <ele>189.04</ele>
        <time>2020-02-09T09:19:36Z</time>
      </trkpt>
      <trkpt lat="43.17485" lon="2.47053">
        <ele>191.92</ele>
        <time>2020-02-09T09:19:47Z</time>
      </trkpt>
      <trkpt lat="43.1748" lon="2.47053">
        <ele>192.4</ele>
        <time>2020-02-09T09:19:52Z</time>
      </trkpt>
      <trkpt lat="43.17467" lon="2.47064">
        <ele>194.8</ele>
        <time>2020-02-09T09:20:11Z</time>
      </trkpt>
      <trkpt lat="43.17457" lon="2.47076">
        <ele>197.21</ele>
        <time>2020-02-09T09:20:28Z</time>
      </trkpt>
      <trkpt lat="43.17455" lon="2.47078">
        <ele>198.17</ele>
        <time>2020-02-09T09:20:31Z</time>
      </trkpt>
      <trkpt lat="43.17436" lon="2.47088">
        <ele>197.21</ele>
        <time>2020-02-09T09:20:46Z</time>
      </trkpt>
      <trkpt lat="43.17436" lon="2.47091">
        <ele>197.21</ele>
        <time>2020-02-09T09:20:47Z</time>
      </trkpt>
      <trkpt lat="43.17436" lon="2.47094">
        <ele>196.73</ele>
        <time>2020-02-09T09:20:48Z</time>
      </trkpt>
      <trkpt lat="43.17437" lon="2.47096">
        <ele>196.25</ele>
        <time>2020-02-09T09:20:49Z</time>
      </trkpt>
      <trkpt lat="43.17437" lon="2.471">
        <ele>195.77</ele>
        <time>2020-02-09T09:20:50Z</time>
      </trkpt>
      <trkpt lat="43.17436" lon="2.47103">
        <ele>194.8</ele>
        <time>2020-02-09T09:20:51Z</time>
      </trkpt>
      <trkpt lat="43.17434" lon="2.47107">
        <ele>194.32</ele>
        <time>2020-02-09T09:20:52Z</time>
      </trkpt>
      <trkpt lat="43.17432" lon="2.4711">
        <ele>193.84</ele>
        <time>2020-02-09T09:20:53Z</time>
      </trkpt>
      <trkpt lat="43.1743" lon="2.47114">
        <ele>192.88</ele>
        <time>2020-02-09T09:20:54Z</time>
      </trkpt>
      <trkpt lat="43.17428" lon="2.47119">
        <ele>192.4</ele>
        <time>2020-02-09T09:20:55Z</time>
      </trkpt>
      <trkpt lat="43.17402" lon="2.4713">
        <ele>190</ele>
        <time>2020-02-09T09:21:03Z</time>
      </trkpt>
      <trkpt lat="43.17401" lon="2.47132">
        <ele>190</ele>
        <time>2020-02-09T09:21:04Z</time>
      </trkpt>
      <trkpt lat="43.174" lon="2.47135">
        <ele>190</ele>
        <time>2020-02-09T09:21:05Z</time>
      </trkpt>
      <trkpt lat="43.17401" lon="2.47137">
        <ele>190</ele>
        <time>2020-02-09T09:21:06Z</time>
      </trkpt>
      <trkpt lat="43.17402" lon="2.4714">
        <ele>189.04</ele>
        <time>2020-02-09T09:21:07Z</time>
      </trkpt>
      <trkpt lat="43.17404" lon="2.47143">
        <ele>189.04</ele>
        <time>2020-02-09T09:21:08Z</time>
      </trkpt>
      <trkpt lat="43.17406" lon="2.47147">
        <ele>188.56</ele>
        <time>2020-02-09T09:21:09Z</time>
      </trkpt>
      <trkpt lat="43.17408" lon="2.4715">
        <ele>188.56</ele>
        <time>2020-02-09T09:21:10Z</time>
      </trkpt>
      <trkpt lat="43.17418" lon="2.47174">
        <ele>187.59</ele>
        <time>2020-02-09T09:21:16Z</time>
      </trkpt>
      <trkpt lat="43.1742" lon="2.47179">
        <ele>187.11</ele>
        <time>2020-02-09T09:21:17Z</time>
      </trkpt>
      <trkpt lat="43.17423" lon="2.47197">
        <ele>187.11</ele>
        <time>2020-02-09T09:21:20Z</time>
      </trkpt>
      <trkpt lat="43.17423" lon="2.47204">
        <ele>186.15</ele>
        <time>2020-02-09T09:21:21Z</time>
      </trkpt>
      <trkpt lat="43.17424" lon="2.47211">
        <ele>186.15</ele>
        <time>2020-02-09T09:21:22Z</time>
      </trkpt>
      <trkpt lat="43.17425" lon="2.47218">
        <ele>185.19</ele>
        <time>2020-02-09T09:21:23Z</time>
      </trkpt>
      <trkpt lat="43.17426" lon="2.47225">
        <ele>185.67</ele>
        <time>2020-02-09T09:21:24Z</time>
      </trkpt>
      <trkpt lat="43.17434" lon="2.47276">
        <ele>182.79</ele>
        <time>2020-02-09T09:21:30Z</time>
      </trkpt>
      <trkpt lat="43.17443" lon="2.47348">
        <ele>179.42</ele>
        <time>2020-02-09T09:21:38Z</time>
      </trkpt>
      <trkpt lat="43.17465" lon="2.4745">
        <ele>176.06</ele>
        <time>2020-02-09T09:21:53Z</time>
      </trkpt>
      <trkpt lat="43.17471" lon="2.47459">
        <ele>176.06</ele>
        <time>2020-02-09T09:21:55Z</time>
      </trkpt>
      <trkpt lat="43.17474" lon="2.47462">
        <ele>175.58</ele>
        <time>2020-02-09T09:21:56Z</time>
      </trkpt>
      <trkpt lat="43.17478" lon="2.47466">
        <ele>175.1</ele>
        <time>2020-02-09T09:21:57Z</time>
      </trkpt>
      <trkpt lat="43.17483" lon="2.47476">
        <ele>175.58</ele>
        <time>2020-02-09T09:21:59Z</time>
      </trkpt>
      <trkpt lat="43.17485" lon="2.47482">
        <ele>175.1</ele>
        <time>2020-02-09T09:22:00Z</time>
      </trkpt>
      <trkpt lat="43.17499" lon="2.47519">
        <ele>175.1</ele>
        <time>2020-02-09T09:22:07Z</time>
      </trkpt>
      <trkpt lat="43.17502" lon="2.47525">
        <ele>174.14</ele>
        <time>2020-02-09T09:22:08Z</time>
      </trkpt>
      <trkpt lat="43.17513" lon="2.47558">
        <ele>171.73</ele>
        <time>2020-02-09T09:22:14Z</time>
      </trkpt>
      <trkpt lat="43.17515" lon="2.47565">
        <ele>171.25</ele>
        <time>2020-02-09T09:22:15Z</time>
      </trkpt>
      <trkpt lat="43.17519" lon="2.47579">
        <ele>170.77</ele>
        <time>2020-02-09T09:22:17Z</time>
      </trkpt>
      <trkpt lat="43.1752" lon="2.47587">
        <ele>170.29</ele>
        <time>2020-02-09T09:22:18Z</time>
      </trkpt>
      <trkpt lat="43.17521" lon="2.47596">
        <ele>169.81</ele>
        <time>2020-02-09T09:22:19Z</time>
      </trkpt>
      <trkpt lat="43.17521" lon="2.47604">
        <ele>168.85</ele>
        <time>2020-02-09T09:22:20Z</time>
      </trkpt>
      <trkpt lat="43.17522" lon="2.47611">
        <ele>169.33</ele>
        <time>2020-02-09T09:22:21Z</time>
      </trkpt>
      <trkpt lat="43.17524" lon="2.47625">
        <ele>169.33</ele>
        <time>2020-02-09T09:22:23Z</time>
      </trkpt>
      <trkpt lat="43.17526" lon="2.47632">
        <ele>169.33</ele>
        <time>2020-02-09T09:22:24Z</time>
      </trkpt>
      <trkpt lat="43.17528" lon="2.47637">
        <ele>168.85</ele>
        <time>2020-02-09T09:22:25Z</time>
      </trkpt>
      <trkpt lat="43.17533" lon="2.47654">
        <ele>168.37</ele>
        <time>2020-02-09T09:22:28Z</time>
      </trkpt>
      <trkpt lat="43.17534" lon="2.4766">
        <ele>168.37</ele>
        <time>2020-02-09T09:22:29Z</time>
      </trkpt>
      <trkpt lat="43.17534" lon="2.47666">
        <ele>168.37</ele>
        <time>2020-02-09T09:22:30Z</time>
      </trkpt>
      <trkpt lat="43.17535" lon="2.47672">
        <ele>168.37</ele>
        <time>2020-02-09T09:22:31Z</time>
      </trkpt>
      <trkpt lat="43.17536" lon="2.47677">
        <ele>168.37</ele>
        <time>2020-02-09T09:22:32Z</time>
      </trkpt>
      <trkpt lat="43.17543" lon="2.47739">
        <ele>169.33</ele>
        <time>2020-02-09T09:22:47Z</time>
      </trkpt>
      <trkpt lat="43.17542" lon="2.47764">
        <ele>167.41</ele>
        <time>2020-02-09T09:23:01Z</time>
      </trkpt>
      <trkpt lat="43.1754" lon="2.4778">
        <ele>164.04</ele>
        <time>2020-02-09T09:23:22Z</time>
      </trkpt>
      <trkpt lat="43.17537" lon="2.47795">
        <ele>162.6</ele>
        <time>2020-02-09T09:23:37Z</time>
      </trkpt>
      <trkpt lat="43.17541" lon="2.47811">
        <ele>160.68</ele>
        <time>2020-02-09T09:23:55Z</time>
      </trkpt>
      <trkpt lat="43.17546" lon="2.4782">
        <ele>161.64</ele>
        <time>2020-02-09T09:23:59Z</time>
      </trkpt>
      <trkpt lat="43.17546" lon="2.47822">
        <ele>161.64</ele>
        <time>2020-02-09T09:24:00Z</time>
      </trkpt>
      <trkpt lat="43.17546" lon="2.47825">
        <ele>161.64</ele>
        <time>2020-02-09T09:24:01Z</time>
      </trkpt>
      <trkpt lat="43.17547" lon="2.47826">
        <ele>160.68</ele>
        <time>2020-02-09T09:24:02Z</time>
      </trkpt>
      <trkpt lat="43.17547" lon="2.47828">
        <ele>161.16</ele>
        <time>2020-02-09T09:24:03Z</time>
      </trkpt>
      <trkpt lat="43.17548" lon="2.47829">
        <ele>160.2</ele>
        <time>2020-02-09T09:24:04Z</time>
      </trkpt>
      <trkpt lat="43.17548" lon="2.47831">
        <ele>159.72</ele>
        <time>2020-02-09T09:24:05Z</time>
      </trkpt>
      <trkpt lat="43.1755" lon="2.47837">
        <ele>160.2</ele>
        <time>2020-02-09T09:24:14Z</time>
      </trkpt>
      <trkpt lat="43.1755" lon="2.4784">
        <ele>159.72</ele>
        <time>2020-02-09T09:24:16Z</time>
      </trkpt>
      <trkpt lat="43.1755" lon="2.47842">
        <ele>159.24</ele>
        <time>2020-02-09T09:24:17Z</time>
      </trkpt>
      <trkpt lat="43.17551" lon="2.47844">
        <ele>159.72</ele>
        <time>2020-02-09T09:24:18Z</time>
      </trkpt>
      <trkpt lat="43.17554" lon="2.47874">
        <ele>156.83</ele>
        <time>2020-02-09T09:24:32Z</time>
      </trkpt>
      <trkpt lat="43.17555" lon="2.47906">
        <ele>154.91</ele>
        <time>2020-02-09T09:24:49Z</time>
      </trkpt>
      <trkpt lat="43.17553" lon="2.47908">
        <ele>154.43</ele>
        <time>2020-02-09T09:25:18Z</time>
      </trkpt>
      <trkpt lat="43.17553" lon="2.47906">
        <ele>154.43</ele>
        <time>2020-02-09T09:26:20Z</time>
      </trkpt>
      <trkpt lat="43.17556" lon="2.4792">
        <ele>154.43</ele>
        <time>2020-02-09T09:26:44Z</time>
      </trkpt>
      <trkpt lat="43.17555" lon="2.47936">
        <ele>152.99</ele>
        <time>2020-02-09T09:26:55Z</time>
      </trkpt>
      <trkpt lat="43.17555" lon="2.47938">
        <ele>152.99</ele>
        <time>2020-02-09T09:26:56Z</time>
      </trkpt>
      <trkpt lat="43.17555" lon="2.47939">
        <ele>152.51</ele>
        <time>2020-02-09T09:26:57Z</time>
      </trkpt>
      <trkpt lat="43.17555" lon="2.47942">
        <ele>152.51</ele>
        <time>2020-02-09T09:27:01Z</time>
      </trkpt>
      <trkpt lat="43.17559" lon="2.47951">
        <ele>153.95</ele>
        <time>2020-02-09T09:27:06Z</time>
      </trkpt>
      <trkpt lat="43.1756" lon="2.47953">
        <ele>153.47</ele>
        <time>2020-02-09T09:27:07Z</time>
      </trkpt>
      <trkpt lat="43.1756" lon="2.47957">
        <ele>153.47</ele>
        <time>2020-02-09T09:27:08Z</time>
      </trkpt>
      <trkpt lat="43.17561" lon="2.47961">
        <ele>153.47</ele>
        <time>2020-02-09T09:27:09Z</time>
      </trkpt>
      <trkpt lat="43.17562" lon="2.47964">
        <ele>153.47</ele>
        <time>2020-02-09T09:27:10Z</time>
      </trkpt>
      <trkpt lat="43.17563" lon="2.47967">
        <ele>152.99</ele>
        <time>2020-02-09T09:27:11Z</time>
      </trkpt>
      <trkpt lat="43.17563" lon="2.4797">
        <ele>152.99</ele>
        <time>2020-02-09T09:27:12Z</time>
      </trkpt>
      <trkpt lat="43.17568" lon="2.48016">
        <ele>152.51</ele>
        <time>2020-02-09T09:27:27Z</time>
      </trkpt>
      <trkpt lat="43.17574" lon="2.48017">
        <ele>153.47</ele>
        <time>2020-02-09T09:27:44Z</time>
      </trkpt>
      <trkpt lat="43.17577" lon="2.48019">
        <ele>153.47</ele>
        <time>2020-02-09T09:28:30Z</time>
      </trkpt>
      <trkpt lat="43.17578" lon="2.48021">
        <ele>153.47</ele>
        <time>2020-02-09T09:28:31Z</time>
      </trkpt>
      <trkpt lat="43.17579" lon="2.48025">
        <ele>152.99</ele>
        <time>2020-02-09T09:28:32Z</time>
      </trkpt>
      <trkpt lat="43.17577" lon="2.48037">
        <ele>152.51</ele>
        <time>2020-02-09T09:28:36Z</time>
      </trkpt>
      <trkpt lat="43.17578" lon="2.48039">
        <ele>152.03</ele>
        <time>2020-02-09T09:28:37Z</time>
      </trkpt>
      <trkpt lat="43.17579" lon="2.48044">
        <ele>152.03</ele>
        <time>2020-02-09T09:28:39Z</time>
      </trkpt>
      <trkpt lat="43.17579" lon="2.48047">
        <ele>152.03</ele>
        <time>2020-02-09T09:28:40Z</time>
      </trkpt>
      <trkpt lat="43.17579" lon="2.48049">
        <ele>151.54</ele>
        <time>2020-02-09T09:28:41Z</time>
      </trkpt>
      <trkpt lat="43.1758" lon="2.48053">
        <ele>151.54</ele>
        <time>2020-02-09T09:28:42Z</time>
      </trkpt>
      <trkpt lat="43.17579" lon="2.48056">
        <ele>151.06</ele>
        <time>2020-02-09T09:28:43Z</time>
      </trkpt>
      <trkpt lat="43.17578" lon="2.48058">
        <ele>151.06</ele>
        <time>2020-02-09T09:28:44Z</time>
      </trkpt>
      <trkpt lat="43.17577" lon="2.4806">
        <ele>151.54</ele>
        <time>2020-02-09T09:28:45Z</time>
      </trkpt>
      <trkpt lat="43.17577" lon="2.48063">
        <ele>151.54</ele>
        <time>2020-02-09T09:28:46Z</time>
      </trkpt>
      <trkpt lat="43.17575" lon="2.48067">
        <ele>151.54</ele>
        <time>2020-02-09T09:28:49Z</time>
      </trkpt>
      <trkpt lat="43.17576" lon="2.4807">
        <ele>151.54</ele>
        <time>2020-02-09T09:28:50Z</time>
      </trkpt>
      <trkpt lat="43.17576" lon="2.48072">
        <ele>151.06</ele>
        <time>2020-02-09T09:28:51Z</time>
      </trkpt>
      <trkpt lat="43.17578" lon="2.48082">
        <ele>150.58</ele>
        <time>2020-02-09T09:28:55Z</time>
      </trkpt>
      <trkpt lat="43.17576" lon="2.4809">
        <ele>151.54</ele>
        <time>2020-02-09T09:28:59Z</time>
      </trkpt>
      <trkpt lat="43.17577" lon="2.48092">
        <ele>151.54</ele>
        <time>2020-02-09T09:29:00Z</time>
      </trkpt>
      <trkpt lat="43.17578" lon="2.48096">
        <ele>152.03</ele>
        <time>2020-02-09T09:29:01Z</time>
      </trkpt>
      <trkpt lat="43.17578" lon="2.48099">
        <ele>151.54</ele>
        <time>2020-02-09T09:29:02Z</time>
      </trkpt>
      <trkpt lat="43.17578" lon="2.48102">
        <ele>151.54</ele>
        <time>2020-02-09T09:29:03Z</time>
      </trkpt>
      <trkpt lat="43.17578" lon="2.48162">
        <ele>151.06</ele>
        <time>2020-02-09T09:29:18Z</time>
      </trkpt>
      <trkpt lat="43.17578" lon="2.48165">
        <ele>151.06</ele>
        <time>2020-02-09T09:29:19Z</time>
      </trkpt>
      <trkpt lat="43.17584" lon="2.48194">
        <ele>148.66</ele>
        <time>2020-02-09T09:29:26Z</time>
      </trkpt>
      <trkpt lat="43.17589" lon="2.48232">
        <ele>146.26</ele>
        <time>2020-02-09T09:29:35Z</time>
      </trkpt>
      <trkpt lat="43.1759" lon="2.48236">
        <ele>146.26</ele>
        <time>2020-02-09T09:29:36Z</time>
      </trkpt>
      <trkpt lat="43.17591" lon="2.48239">
        <ele>145.78</ele>
        <time>2020-02-09T09:29:37Z</time>
      </trkpt>
      <trkpt lat="43.17612" lon="2.4828">
        <ele>146.26</ele>
        <time>2020-02-09T09:29:54Z</time>
      </trkpt>
      <trkpt lat="43.17612" lon="2.48281">
        <ele>147.7</ele>
        <time>2020-02-09T09:29:59Z</time>
      </trkpt>
      <trkpt lat="43.17613" lon="2.48283">
        <ele>148.18</ele>
        <time>2020-02-09T09:30:02Z</time>
      </trkpt>
      <trkpt lat="43.17614" lon="2.48286">
        <ele>147.22</ele>
        <time>2020-02-09T09:30:17Z</time>
      </trkpt>
      <trkpt lat="43.17614" lon="2.48291">
        <ele>146.74</ele>
        <time>2020-02-09T09:30:59Z</time>
      </trkpt>
      <trkpt lat="43.17616" lon="2.48288">
        <ele>148.18</ele>
        <time>2020-02-09T09:31:35Z</time>
      </trkpt>
      <trkpt lat="43.17622" lon="2.48294">
        <ele>151.54</ele>
        <time>2020-02-09T09:31:44Z</time>
      </trkpt>
      <trkpt lat="43.17628" lon="2.48296">
        <ele>154.43</ele>
        <time>2020-02-09T09:31:57Z</time>
      </trkpt>
      <trkpt lat="43.17628" lon="2.483">
        <ele>157.79</ele>
        <time>2020-02-09T09:32:11Z</time>
      </trkpt>
      <trkpt lat="43.17629" lon="2.48309">
        <ele>160.68</ele>
        <time>2020-02-09T09:32:20Z</time>
      </trkpt>
      <trkpt lat="43.17631" lon="2.48318">
        <ele>163.08</ele>
        <time>2020-02-09T09:32:31Z</time>
      </trkpt>
      <trkpt lat="43.17631" lon="2.48322">
        <ele>162.12</ele>
        <time>2020-02-09T09:32:49Z</time>
      </trkpt>
      <trkpt lat="43.1763" lon="2.48326">
        <ele>162.6</ele>
        <time>2020-02-09T09:33:04Z</time>
      </trkpt>
      <trkpt lat="43.17629" lon="2.48328">
        <ele>162.12</ele>
        <time>2020-02-09T09:33:05Z</time>
      </trkpt>
      <trkpt lat="43.1763" lon="2.48331">
        <ele>161.16</ele>
        <time>2020-02-09T09:33:06Z</time>
      </trkpt>
      <trkpt lat="43.17631" lon="2.48336">
        <ele>160.2</ele>
        <time>2020-02-09T09:33:08Z</time>
      </trkpt>
      <trkpt lat="43.17637" lon="2.48345">
        <ele>155.87</ele>
        <time>2020-02-09T09:33:22Z</time>
      </trkpt>
      <trkpt lat="43.17636" lon="2.48348">
        <ele>155.87</ele>
        <time>2020-02-09T09:33:31Z</time>
      </trkpt>
      <trkpt lat="43.17635" lon="2.4835">
        <ele>155.87</ele>
        <time>2020-02-09T09:33:32Z</time>
      </trkpt>
      <trkpt lat="43.17635" lon="2.48353">
        <ele>155.39</ele>
        <time>2020-02-09T09:33:33Z</time>
      </trkpt>
      <trkpt lat="43.17636" lon="2.48356">
        <ele>154.91</ele>
        <time>2020-02-09T09:33:34Z</time>
      </trkpt>
      <trkpt lat="43.17636" lon="2.48359">
        <ele>154.43</ele>
        <time>2020-02-09T09:33:35Z</time>
      </trkpt>
      <trkpt lat="43.17637" lon="2.48362">
        <ele>153.47</ele>
        <time>2020-02-09T09:33:36Z</time>
      </trkpt>
      <trkpt lat="43.17637" lon="2.48365">
        <ele>152.99</ele>
        <time>2020-02-09T09:33:37Z</time>
      </trkpt>
      <trkpt lat="43.17638" lon="2.48368">
        <ele>152.03</ele>
        <time>2020-02-09T09:33:38Z</time>
      </trkpt>
      <trkpt lat="43.1764" lon="2.48372">
        <ele>151.06</ele>
        <time>2020-02-09T09:33:39Z</time>
      </trkpt>
      <trkpt lat="43.1764" lon="2.48375">
        <ele>150.58</ele>
        <time>2020-02-09T09:33:40Z</time>
      </trkpt>
      <trkpt lat="43.17642" lon="2.48387">
        <ele>147.7</ele>
        <time>2020-02-09T09:33:45Z</time>
      </trkpt>
      <trkpt lat="43.17644" lon="2.48388">
        <ele>146.26</ele>
        <time>2020-02-09T09:33:47Z</time>
      </trkpt>
      <trkpt lat="43.17646" lon="2.4839">
        <ele>144.82</ele>
        <time>2020-02-09T09:33:48Z</time>
      </trkpt>
      <trkpt lat="43.17647" lon="2.48393">
        <ele>145.3</ele>
        <time>2020-02-09T09:33:49Z</time>
      </trkpt>
      <trkpt lat="43.17647" lon="2.48396">
        <ele>144.34</ele>
        <time>2020-02-09T09:33:50Z</time>
      </trkpt>
      <trkpt lat="43.17648" lon="2.48398">
        <ele>144.82</ele>
        <time>2020-02-09T09:33:51Z</time>
      </trkpt>
      <trkpt lat="43.17648" lon="2.48402">
        <ele>143.85</ele>
        <time>2020-02-09T09:33:52Z</time>
      </trkpt>
      <trkpt lat="43.17648" lon="2.48405">
        <ele>144.34</ele>
        <time>2020-02-09T09:33:53Z</time>
      </trkpt>
      <trkpt lat="43.17653" lon="2.4842">
        <ele>140.49</ele>
        <time>2020-02-09T09:33:58Z</time>
      </trkpt>
      <trkpt lat="43.17658" lon="2.48438">
        <ele>136.64</ele>
        <time>2020-02-09T09:34:03Z</time>
      </trkpt>
      <trkpt lat="43.1766" lon="2.48455">
        <ele>132.8</ele>
        <time>2020-02-09T09:34:08Z</time>
      </trkpt>
      <trkpt lat="43.17661" lon="2.48458">
        <ele>132.32</ele>
        <time>2020-02-09T09:34:09Z</time>
      </trkpt>
      <trkpt lat="43.17669" lon="2.48471">
        <ele>128.95</ele>
        <time>2020-02-09T09:34:13Z</time>
      </trkpt>
      <trkpt lat="43.17679" lon="2.48483">
        <ele>125.59</ele>
        <time>2020-02-09T09:34:17Z</time>
      </trkpt>
      <trkpt lat="43.17681" lon="2.48486">
        <ele>125.59</ele>
        <time>2020-02-09T09:34:18Z</time>
      </trkpt>
      <trkpt lat="43.17692" lon="2.48503">
        <ele>122.22</ele>
        <time>2020-02-09T09:34:23Z</time>
      </trkpt>
      <trkpt lat="43.17693" lon="2.48508">
        <ele>121.26</ele>
        <time>2020-02-09T09:34:24Z</time>
      </trkpt>
      <trkpt lat="43.17695" lon="2.48514">
        <ele>120.78</ele>
        <time>2020-02-09T09:34:25Z</time>
      </trkpt>
      <trkpt lat="43.17697" lon="2.48521">
        <ele>121.26</ele>
        <time>2020-02-09T09:34:26Z</time>
      </trkpt>
      <trkpt lat="43.17703" lon="2.48533">
        <ele>120.3</ele>
        <time>2020-02-09T09:34:28Z</time>
      </trkpt>
      <trkpt lat="43.17712" lon="2.4855">
        <ele>119.82</ele>
        <time>2020-02-09T09:34:31Z</time>
      </trkpt>
      <trkpt lat="43.17723" lon="2.48565">
        <ele>118.86</ele>
        <time>2020-02-09T09:34:34Z</time>
      </trkpt>
      <trkpt lat="43.17727" lon="2.4857">
        <ele>118.38</ele>
        <time>2020-02-09T09:34:35Z</time>
      </trkpt>
      <trkpt lat="43.17758" lon="2.48628">
        <ele>117.9</ele>
        <time>2020-02-09T09:34:47Z</time>
      </trkpt>
      <trkpt lat="43.1776" lon="2.48635">
        <ele>117.9</ele>
        <time>2020-02-09T09:34:48Z</time>
      </trkpt>
      <trkpt lat="43.17763" lon="2.48649">
        <ele>117.42</ele>
        <time>2020-02-09T09:34:50Z</time>
      </trkpt>
      <trkpt lat="43.17764" lon="2.48656">
        <ele>117.42</ele>
        <time>2020-02-09T09:34:51Z</time>
      </trkpt>
      <trkpt lat="43.17765" lon="2.48671">
        <ele>117.42</ele>
        <time>2020-02-09T09:34:53Z</time>
      </trkpt>
      <trkpt lat="43.17765" lon="2.48702">
        <ele>115.98</ele>
        <time>2020-02-09T09:34:57Z</time>
      </trkpt>
      <trkpt lat="43.1777" lon="2.48738">
        <ele>114.53</ele>
        <time>2020-02-09T09:35:01Z</time>
      </trkpt>
      <trkpt lat="43.17769" lon="2.48763">
        <ele>114.05</ele>
        <time>2020-02-09T09:35:04Z</time>
      </trkpt>
      <trkpt lat="43.17763" lon="2.488">
        <ele>116.46</ele>
        <time>2020-02-09T09:35:12Z</time>
      </trkpt>
      <trkpt lat="43.1776" lon="2.4881">
        <ele>116.46</ele>
        <time>2020-02-09T09:35:28Z</time>
      </trkpt>
      <trkpt lat="43.17763" lon="2.4881">
        <ele>117.42</ele>
        <time>2020-02-09T09:35:59Z</time>
      </trkpt>
      <trkpt lat="43.1776" lon="2.4881">
        <ele>117.42</ele>
        <time>2020-02-09T09:36:43Z</time>
      </trkpt>
      <trkpt lat="43.17759" lon="2.48809">
        <ele>116.94</ele>
        <time>2020-02-09T09:37:27Z</time>
      </trkpt>
      <trkpt lat="43.17761" lon="2.48811">
        <ele>117.42</ele>
        <time>2020-02-09T09:38:04Z</time>
      </trkpt>
      <trkpt lat="43.17762" lon="2.48809">
        <ele>116.46</ele>
        <time>2020-02-09T09:38:25Z</time>
      </trkpt>
      <trkpt lat="43.17764" lon="2.48808">
        <ele>116.46</ele>
        <time>2020-02-09T09:39:14Z</time>
      </trkpt>
      <trkpt lat="43.17762" lon="2.48816">
        <ele>116.46</ele>
        <time>2020-02-09T09:39:49Z</time>
      </trkpt>
      <trkpt lat="43.17761" lon="2.48821">
        <ele>115.98</ele>
        <time>2020-02-09T09:39:50Z</time>
      </trkpt>
      <trkpt lat="43.17762" lon="2.48877">
        <ele>115.98</ele>
        <time>2020-02-09T09:40:04Z</time>
      </trkpt>
      <trkpt lat="43.17761" lon="2.48876">
        <ele>115.98</ele>
        <time>2020-02-09T09:40:06Z</time>
      </trkpt>
      <trkpt lat="43.17758" lon="2.48877">
        <ele>115.5</ele>
        <time>2020-02-09T09:40:09Z</time>
      </trkpt>
      <trkpt lat="43.17757" lon="2.48877">
        <ele>115.98</ele>
        <time>2020-02-09T09:40:10Z</time>
      </trkpt>
      <trkpt lat="43.17746" lon="2.48883">
        <ele>119.34</ele>
        <time>2020-02-09T09:40:21Z</time>
      </trkpt>
      <trkpt lat="43.17743" lon="2.48886">
        <ele>119.82</ele>
        <time>2020-02-09T09:40:26Z</time>
      </trkpt>
      <trkpt lat="43.17728" lon="2.4893">
        <ele>121.74</ele>
        <time>2020-02-09T09:40:42Z</time>
      </trkpt>
      <trkpt lat="43.17727" lon="2.48932">
        <ele>121.74</ele>
        <time>2020-02-09T09:40:43Z</time>
      </trkpt>
      <trkpt lat="43.17733" lon="2.48984">
        <ele>123.67</ele>
        <time>2020-02-09T09:41:01Z</time>
      </trkpt>
      <trkpt lat="43.17738" lon="2.49035">
        <ele>123.19</ele>
        <time>2020-02-09T09:41:15Z</time>
      </trkpt>
      <trkpt lat="43.17741" lon="2.49085">
        <ele>120.3</ele>
        <time>2020-02-09T09:41:28Z</time>
      </trkpt>
      <trkpt lat="43.17743" lon="2.49094">
        <ele>118.38</ele>
        <time>2020-02-09T09:41:39Z</time>
      </trkpt>
      <trkpt lat="43.17749" lon="2.49099">
        <ele>116.46</ele>
        <time>2020-02-09T09:41:45Z</time>
      </trkpt>
      <trkpt lat="43.17751" lon="2.49101">
        <ele>115.01</ele>
        <time>2020-02-09T09:41:46Z</time>
      </trkpt>
      <trkpt lat="43.17754" lon="2.49101">
        <ele>114.05</ele>
        <time>2020-02-09T09:41:47Z</time>
      </trkpt>
      <trkpt lat="43.17757" lon="2.49102">
        <ele>113.57</ele>
        <time>2020-02-09T09:41:48Z</time>
      </trkpt>
      <trkpt lat="43.1776" lon="2.49104">
        <ele>112.61</ele>
        <time>2020-02-09T09:41:49Z</time>
      </trkpt>
      <trkpt lat="43.17761" lon="2.49107">
        <ele>112.13</ele>
        <time>2020-02-09T09:41:50Z</time>
      </trkpt>
      <trkpt lat="43.17762" lon="2.49111">
        <ele>112.61</ele>
        <time>2020-02-09T09:41:51Z</time>
      </trkpt>
      <trkpt lat="43.17762" lon="2.49115">
        <ele>112.13</ele>
        <time>2020-02-09T09:41:52Z</time>
      </trkpt>
      <trkpt lat="43.17762" lon="2.4912">
        <ele>112.13</ele>
        <time>2020-02-09T09:41:53Z</time>
      </trkpt>
      <trkpt lat="43.17761" lon="2.49126">
        <ele>111.17</ele>
        <time>2020-02-09T09:41:54Z</time>
      </trkpt>
      <trkpt lat="43.17759" lon="2.49131">
        <ele>110.69</ele>
        <time>2020-02-09T09:41:55Z</time>
      </trkpt>
      <trkpt lat="43.17758" lon="2.49136">
        <ele>110.21</ele>
        <time>2020-02-09T09:41:56Z</time>
      </trkpt>
      <trkpt lat="43.17756" lon="2.49141">
        <ele>109.73</ele>
        <time>2020-02-09T09:41:57Z</time>
      </trkpt>
      <trkpt lat="43.17745" lon="2.49158">
        <ele>106.84</ele>
        <time>2020-02-09T09:42:02Z</time>
      </trkpt>
      <trkpt lat="43.17743" lon="2.49163">
        <ele>106.36</ele>
        <time>2020-02-09T09:42:03Z</time>
      </trkpt>
      <trkpt lat="43.17742" lon="2.49169">
        <ele>105.88</ele>
        <time>2020-02-09T09:42:04Z</time>
      </trkpt>
      <trkpt lat="43.17743" lon="2.49176">
        <ele>105.4</ele>
        <time>2020-02-09T09:42:05Z</time>
      </trkpt>
      <trkpt lat="43.17745" lon="2.49183">
        <ele>103.96</ele>
        <time>2020-02-09T09:42:06Z</time>
      </trkpt>
      <trkpt lat="43.17748" lon="2.49188">
        <ele>103.48</ele>
        <time>2020-02-09T09:42:07Z</time>
      </trkpt>
      <trkpt lat="43.17751" lon="2.49193">
        <ele>101.56</ele>
        <time>2020-02-09T09:42:08Z</time>
      </trkpt>
      <trkpt lat="43.17753" lon="2.49197">
        <ele>100.11</ele>
        <time>2020-02-09T09:42:09Z</time>
      </trkpt>
      <trkpt lat="43.17807" lon="2.49221">
        <ele>105.4</ele>
        <time>2020-02-09T10:52:05Z</time>
      </trkpt>
      <trkpt lat="43.1781" lon="2.49221">
        <ele>105.4</ele>
        <time>2020-02-09T10:52:06Z</time>
      </trkpt>
      <trkpt lat="43.17813" lon="2.4922">
        <ele>105.4</ele>
        <time>2020-02-09T10:52:07Z</time>
      </trkpt>
      <trkpt lat="43.17817" lon="2.49219">
        <ele>105.88</ele>
        <time>2020-02-09T10:52:08Z</time>
      </trkpt>
      <trkpt lat="43.1782" lon="2.49218">
        <ele>105.88</ele>
        <time>2020-02-09T10:52:09Z</time>
      </trkpt>
      <trkpt lat="43.17824" lon="2.49217">
        <ele>105.88</ele>
        <time>2020-02-09T10:52:10Z</time>
      </trkpt>
      <trkpt lat="43.17828" lon="2.49216">
        <ele>105.88</ele>
        <time>2020-02-09T10:52:11Z</time>
      </trkpt>
      <trkpt lat="43.17849" lon="2.49209">
        <ele>105.88</ele>
        <time>2020-02-09T10:52:16Z</time>
      </trkpt>
      <trkpt lat="43.17871" lon="2.49198">
        <ele>104.92</ele>
        <time>2020-02-09T10:52:21Z</time>
      </trkpt>
      <trkpt lat="43.17881" lon="2.49195">
        <ele>104.92</ele>
        <time>2020-02-09T10:52:23Z</time>
      </trkpt>
      <trkpt lat="43.17886" lon="2.49197">
        <ele>103.96</ele>
        <time>2020-02-09T10:52:24Z</time>
      </trkpt>
      <trkpt lat="43.1789" lon="2.49201">
        <ele>104.44</ele>
        <time>2020-02-09T10:52:25Z</time>
      </trkpt>
      <trkpt lat="43.17892" lon="2.49206">
        <ele>103.96</ele>
        <time>2020-02-09T10:52:26Z</time>
      </trkpt>
      <trkpt lat="43.17893" lon="2.49212">
        <ele>103.48</ele>
        <time>2020-02-09T10:52:27Z</time>
      </trkpt>
      <trkpt lat="43.17893" lon="2.49219">
        <ele>103</ele>
        <time>2020-02-09T10:52:28Z</time>
      </trkpt>
      <trkpt lat="43.17897" lon="2.49302">
        <ele>102.04</ele>
        <time>2020-02-09T10:52:40Z</time>
      </trkpt>
      <trkpt lat="43.17897" lon="2.49315">
        <ele>101.08</ele>
        <time>2020-02-09T10:52:42Z</time>
      </trkpt>
      <trkpt lat="43.17896" lon="2.49321">
        <ele>101.56</ele>
        <time>2020-02-09T10:52:43Z</time>
      </trkpt>
      <trkpt lat="43.17893" lon="2.49327">
        <ele>101.56</ele>
        <time>2020-02-09T10:52:44Z</time>
      </trkpt>
      <trkpt lat="43.17888" lon="2.49331">
        <ele>101.08</ele>
        <time>2020-02-09T10:52:45Z</time>
      </trkpt>
      <trkpt lat="43.17882" lon="2.49332">
        <ele>101.08</ele>
        <time>2020-02-09T10:52:46Z</time>
      </trkpt>
      <trkpt lat="43.17876" lon="2.49333">
        <ele>99.63</ele>
        <time>2020-02-09T10:52:47Z</time>
      </trkpt>
      <trkpt lat="43.1787" lon="2.49334">
        <ele>99.63</ele>
        <time>2020-02-09T10:52:48Z</time>
      </trkpt>
      <trkpt lat="43.17865" lon="2.49336">
        <ele>98.67</ele>
        <time>2020-02-09T10:52:49Z</time>
      </trkpt>
      <trkpt lat="43.17859" lon="2.49339">
        <ele>98.67</ele>
        <time>2020-02-09T10:52:50Z</time>
      </trkpt>
      <trkpt lat="43.17854" lon="2.49344">
        <ele>98.67</ele>
        <time>2020-02-09T10:52:51Z</time>
      </trkpt>
      <trkpt lat="43.17848" lon="2.49349">
        <ele>98.19</ele>
        <time>2020-02-09T10:52:52Z</time>
      </trkpt>
      <trkpt lat="43.17843" lon="2.49356">
        <ele>97.71</ele>
        <time>2020-02-09T10:52:53Z</time>
      </trkpt>
      <trkpt lat="43.17828" lon="2.49373">
        <ele>95.31</ele>
        <time>2020-02-09T10:52:56Z</time>
      </trkpt>
      <trkpt lat="43.1781" lon="2.49396">
        <ele>94.35</ele>
        <time>2020-02-09T10:53:00Z</time>
      </trkpt>
      <trkpt lat="43.17806" lon="2.49404">
        <ele>94.35</ele>
        <time>2020-02-09T10:53:01Z</time>
      </trkpt>
      <trkpt lat="43.17802" lon="2.49413">
        <ele>94.35</ele>
        <time>2020-02-09T10:53:02Z</time>
      </trkpt>
      <trkpt lat="43.17788" lon="2.49453">
        <ele>90.98</ele>
        <time>2020-02-09T10:53:06Z</time>
      </trkpt>
      <trkpt lat="43.17781" lon="2.49481">
        <ele>88.58</ele>
        <time>2020-02-09T10:53:09Z</time>
      </trkpt>
      <trkpt lat="43.17777" lon="2.49485">
        <ele>88.1</ele>
        <time>2020-02-09T10:53:10Z</time>
      </trkpt>
      <trkpt lat="43.17773" lon="2.49486">
        <ele>88.1</ele>
        <time>2020-02-09T10:53:11Z</time>
      </trkpt>
      <trkpt lat="43.17769" lon="2.49483">
        <ele>88.1</ele>
        <time>2020-02-09T10:53:12Z</time>
      </trkpt>
      <trkpt lat="43.17767" lon="2.49479">
        <ele>88.1</ele>
        <time>2020-02-09T10:53:13Z</time>
      </trkpt>
      <trkpt lat="43.17765" lon="2.49475">
        <ele>89.06</ele>
        <time>2020-02-09T10:53:14Z</time>
      </trkpt>
      <trkpt lat="43.17762" lon="2.49471">
        <ele>89.54</ele>
        <time>2020-02-09T10:53:15Z</time>
      </trkpt>
      <trkpt lat="43.17715" lon="2.49457">
        <ele>92.9</ele>
        <time>2020-02-09T10:53:30Z</time>
      </trkpt>
      <trkpt lat="43.17707" lon="2.49486">
        <ele>95.79</ele>
        <time>2020-02-09T10:53:38Z</time>
      </trkpt>
      <trkpt lat="43.17707" lon="2.49521">
        <ele>99.15</ele>
        <time>2020-02-09T10:53:48Z</time>
      </trkpt>
      <trkpt lat="43.17711" lon="2.49563">
        <ele>102.52</ele>
        <time>2020-02-09T10:54:02Z</time>
      </trkpt>
      <trkpt lat="43.17695" lon="2.49641">
        <ele>103.48</ele>
        <time>2020-02-09T10:54:24Z</time>
      </trkpt>
      <trkpt lat="43.17673" lon="2.49651">
        <ele>105.4</ele>
        <time>2020-02-09T10:54:38Z</time>
      </trkpt>
      <trkpt lat="43.17657" lon="2.4966">
        <ele>108.77</ele>
        <time>2020-02-09T10:54:52Z</time>
      </trkpt>
      <trkpt lat="43.17644" lon="2.49664">
        <ele>111.17</ele>
        <time>2020-02-09T10:55:03Z</time>
      </trkpt>
      <trkpt lat="43.17643" lon="2.49665">
        <ele>111.17</ele>
        <time>2020-02-09T10:55:04Z</time>
      </trkpt>
      <trkpt lat="43.17642" lon="2.49665">
        <ele>111.65</ele>
        <time>2020-02-09T10:55:05Z</time>
      </trkpt>
      <trkpt lat="43.17641" lon="2.49666">
        <ele>112.13</ele>
        <time>2020-02-09T10:55:06Z</time>
      </trkpt>
      <trkpt lat="43.1764" lon="2.49666">
        <ele>111.65</ele>
        <time>2020-02-09T10:55:07Z</time>
      </trkpt>
      <trkpt lat="43.17639" lon="2.49667">
        <ele>112.13</ele>
        <time>2020-02-09T10:55:08Z</time>
      </trkpt>
      <trkpt lat="43.17638" lon="2.49667">
        <ele>112.13</ele>
        <time>2020-02-09T10:55:09Z</time>
      </trkpt>
      <trkpt lat="43.17632" lon="2.4967">
        <ele>113.09</ele>
        <time>2020-02-09T10:55:15Z</time>
      </trkpt>
      <trkpt lat="43.1763" lon="2.4967">
        <ele>113.57</ele>
        <time>2020-02-09T10:55:16Z</time>
      </trkpt>
      <trkpt lat="43.17629" lon="2.49671">
        <ele>114.05</ele>
        <time>2020-02-09T10:55:17Z</time>
      </trkpt>
      <trkpt lat="43.17612" lon="2.49676">
        <ele>117.42</ele>
        <time>2020-02-09T10:55:32Z</time>
      </trkpt>
      <trkpt lat="43.17606" lon="2.4968">
        <ele>118.38</ele>
        <time>2020-02-09T10:55:38Z</time>
      </trkpt>
      <trkpt lat="43.17597" lon="2.49697">
        <ele>121.26</ele>
        <time>2020-02-09T10:55:51Z</time>
      </trkpt>
      <trkpt lat="43.17596" lon="2.49725">
        <ele>124.63</ele>
        <time>2020-02-09T10:56:08Z</time>
      </trkpt>
      <trkpt lat="43.17593" lon="2.49751">
        <ele>127.51</ele>
        <time>2020-02-09T10:56:25Z</time>
      </trkpt>
      <trkpt lat="43.17593" lon="2.49801">
        <ele>129.43</ele>
        <time>2020-02-09T10:56:43Z</time>
      </trkpt>
      <trkpt lat="43.17604" lon="2.49867">
        <ele>132.8</ele>
        <time>2020-02-09T10:57:02Z</time>
      </trkpt>
      <trkpt lat="43.17609" lon="2.49889">
        <ele>131.36</ele>
        <time>2020-02-09T10:57:06Z</time>
      </trkpt>
      <trkpt lat="43.17611" lon="2.49896">
        <ele>130.88</ele>
        <time>2020-02-09T10:57:07Z</time>
      </trkpt>
      <trkpt lat="43.17619" lon="2.4992">
        <ele>130.4</ele>
        <time>2020-02-09T10:57:11Z</time>
      </trkpt>
      <trkpt lat="43.17622" lon="2.49925">
        <ele>129.92</ele>
        <time>2020-02-09T10:57:12Z</time>
      </trkpt>
      <trkpt lat="43.17626" lon="2.49929">
        <ele>130.4</ele>
        <time>2020-02-09T10:57:13Z</time>
      </trkpt>
      <trkpt lat="43.1763" lon="2.49933">
        <ele>130.88</ele>
        <time>2020-02-09T10:57:14Z</time>
      </trkpt>
      <trkpt lat="43.17634" lon="2.49937">
        <ele>130.4</ele>
        <time>2020-02-09T10:57:15Z</time>
      </trkpt>
      <trkpt lat="43.17637" lon="2.4994">
        <ele>130.4</ele>
        <time>2020-02-09T10:57:16Z</time>
      </trkpt>
      <trkpt lat="43.17644" lon="2.49948">
        <ele>129.92</ele>
        <time>2020-02-09T10:57:18Z</time>
      </trkpt>
      <trkpt lat="43.17647" lon="2.49952">
        <ele>129.92</ele>
        <time>2020-02-09T10:57:19Z</time>
      </trkpt>
      <trkpt lat="43.17688" lon="2.49999">
        <ele>133.28</ele>
        <time>2020-02-09T10:57:37Z</time>
      </trkpt>
      <trkpt lat="43.17709" lon="2.50073">
        <ele>129.92</ele>
        <time>2020-02-09T10:57:49Z</time>
      </trkpt>
      <trkpt lat="43.17734" lon="2.50173">
        <ele>126.55</ele>
        <time>2020-02-09T10:58:02Z</time>
      </trkpt>
      <trkpt lat="43.1777" lon="2.50334">
        <ele>124.15</ele>
        <time>2020-02-09T10:58:26Z</time>
      </trkpt>
      <trkpt lat="43.1777" lon="2.50342">
        <ele>124.63</ele>
        <time>2020-02-09T10:58:27Z</time>
      </trkpt>
      <trkpt lat="43.17769" lon="2.5035">
        <ele>123.67</ele>
        <time>2020-02-09T10:58:28Z</time>
      </trkpt>
      <trkpt lat="43.17769" lon="2.50358">
        <ele>123.19</ele>
        <time>2020-02-09T10:58:29Z</time>
      </trkpt>
      <trkpt lat="43.17768" lon="2.50365">
        <ele>122.71</ele>
        <time>2020-02-09T10:58:30Z</time>
      </trkpt>
      <trkpt lat="43.17755" lon="2.50453">
        <ele>123.19</ele>
        <time>2020-02-09T10:58:44Z</time>
      </trkpt>
      <trkpt lat="43.17756" lon="2.50459">
        <ele>123.19</ele>
        <time>2020-02-09T10:58:45Z</time>
      </trkpt>
      <trkpt lat="43.17758" lon="2.50465">
        <ele>123.67</ele>
        <time>2020-02-09T10:58:46Z</time>
      </trkpt>
      <trkpt lat="43.17761" lon="2.5047">
        <ele>122.71</ele>
        <time>2020-02-09T10:58:47Z</time>
      </trkpt>
      <trkpt lat="43.17764" lon="2.50474">
        <ele>122.71</ele>
        <time>2020-02-09T10:58:48Z</time>
      </trkpt>
      <trkpt lat="43.17767" lon="2.5048">
        <ele>122.22</ele>
        <time>2020-02-09T10:58:49Z</time>
      </trkpt>
      <trkpt lat="43.1777" lon="2.50486">
        <ele>123.19</ele>
        <time>2020-02-09T10:58:50Z</time>
      </trkpt>
      <trkpt lat="43.17773" lon="2.50492">
        <ele>122.22</ele>
        <time>2020-02-09T10:58:51Z</time>
      </trkpt>
      <trkpt lat="43.17776" lon="2.50499">
        <ele>121.74</ele>
        <time>2020-02-09T10:58:52Z</time>
      </trkpt>
      <trkpt lat="43.17793" lon="2.50561">
        <ele>118.38</ele>
        <time>2020-02-09T10:58:58Z</time>
      </trkpt>
      <trkpt lat="43.17797" lon="2.50583">
        <ele>116.46</ele>
        <time>2020-02-09T10:59:00Z</time>
      </trkpt>
      <trkpt lat="43.17798" lon="2.50592">
        <ele>115.01</ele>
        <time>2020-02-09T10:59:01Z</time>
      </trkpt>
      <trkpt lat="43.17801" lon="2.50598">
        <ele>115.01</ele>
        <time>2020-02-09T10:59:02Z</time>
      </trkpt>
      <trkpt lat="43.17806" lon="2.50599">
        <ele>114.05</ele>
        <time>2020-02-09T10:59:03Z</time>
      </trkpt>
      <trkpt lat="43.17811" lon="2.50598">
        <ele>114.05</ele>
        <time>2020-02-09T10:59:04Z</time>
      </trkpt>
      <trkpt lat="43.17816" lon="2.50596">
        <ele>114.05</ele>
        <time>2020-02-09T10:59:05Z</time>
      </trkpt>
      <trkpt lat="43.17821" lon="2.50595">
        <ele>115.01</ele>
        <time>2020-02-09T10:59:06Z</time>
      </trkpt>
      <trkpt lat="43.17826" lon="2.50593">
        <ele>115.01</ele>
        <time>2020-02-09T10:59:07Z</time>
      </trkpt>
      <trkpt lat="43.17835" lon="2.50591">
        <ele>116.46</ele>
        <time>2020-02-09T10:59:09Z</time>
      </trkpt>
      <trkpt lat="43.1787" lon="2.50583">
        <ele>119.34</ele>
        <time>2020-02-09T10:59:19Z</time>
      </trkpt>
      <trkpt lat="43.17903" lon="2.50647">
        <ele>122.22</ele>
        <time>2020-02-09T10:59:36Z</time>
      </trkpt>
      <trkpt lat="43.17915" lon="2.5068">
        <ele>122.22</ele>
        <time>2020-02-09T10:59:44Z</time>
      </trkpt>
      <trkpt lat="43.17949" lon="2.50771">
        <ele>125.11</ele>
        <time>2020-02-09T11:00:07Z</time>
      </trkpt>
      <trkpt lat="43.17992" lon="2.50877">
        <ele>124.63</ele>
        <time>2020-02-09T11:00:32Z</time>
      </trkpt>
      <trkpt lat="43.18018" lon="2.50941">
        <ele>121.26</ele>
        <time>2020-02-09T11:00:46Z</time>
      </trkpt>
      <trkpt lat="43.1802" lon="2.50946">
        <ele>124.63</ele>
        <time>2020-02-09T11:00:47Z</time>
      </trkpt>
      <trkpt lat="43.18064" lon="2.51063">
        <ele>121.26</ele>
        <time>2020-02-09T11:01:06Z</time>
      </trkpt>
      <trkpt lat="43.18067" lon="2.51071">
        <ele>121.26</ele>
        <time>2020-02-09T11:01:07Z</time>
      </trkpt>
      <trkpt lat="43.18086" lon="2.51133">
        <ele>117.9</ele>
        <time>2020-02-09T11:01:15Z</time>
      </trkpt>
      <trkpt lat="43.18103" lon="2.51209">
        <ele>114.05</ele>
        <time>2020-02-09T11:01:29Z</time>
      </trkpt>
      <trkpt lat="43.18102" lon="2.51209">
        <ele>114.53</ele>
        <time>2020-02-09T11:01:30Z</time>
      </trkpt>
      <trkpt lat="43.18103" lon="2.51209">
        <ele>115.5</ele>
        <time>2020-02-09T11:01:59Z</time>
      </trkpt>
      <trkpt lat="43.181" lon="2.51208">
        <ele>114.53</ele>
        <time>2020-02-09T11:02:33Z</time>
      </trkpt>
      <trkpt lat="43.181" lon="2.51211">
        <ele>114.53</ele>
        <time>2020-02-09T11:02:59Z</time>
      </trkpt>
      <trkpt lat="43.181" lon="2.51213">
        <ele>115.01</ele>
        <time>2020-02-09T11:03:00Z</time>
      </trkpt>
      <trkpt lat="43.18102" lon="2.51215">
        <ele>115.5</ele>
        <time>2020-02-09T11:03:01Z</time>
      </trkpt>
      <trkpt lat="43.18104" lon="2.51217">
        <ele>114.53</ele>
        <time>2020-02-09T11:03:02Z</time>
      </trkpt>
      <trkpt lat="43.18106" lon="2.51219">
        <ele>115.01</ele>
        <time>2020-02-09T11:03:03Z</time>
      </trkpt>
      <trkpt lat="43.1811" lon="2.51228">
        <ele>115.5</ele>
        <time>2020-02-09T11:03:05Z</time>
      </trkpt>
      <trkpt lat="43.18117" lon="2.51253">
        <ele>114.05</ele>
        <time>2020-02-09T11:03:09Z</time>
      </trkpt>
      <trkpt lat="43.1814" lon="2.51377">
        <ele>108.29</ele>
        <time>2020-02-09T11:03:24Z</time>
      </trkpt>
      <trkpt lat="43.18146" lon="2.51412">
        <ele>108.29</ele>
        <time>2020-02-09T11:03:28Z</time>
      </trkpt>
      <trkpt lat="43.18152" lon="2.51469">
        <ele>108.77</ele>
        <time>2020-02-09T11:03:36Z</time>
      </trkpt>
      <trkpt lat="43.18153" lon="2.51475">
        <ele>108.77</ele>
        <time>2020-02-09T11:03:37Z</time>
      </trkpt>
      <trkpt lat="43.18153" lon="2.5148">
        <ele>108.77</ele>
        <time>2020-02-09T11:03:38Z</time>
      </trkpt>
      <trkpt lat="43.18125" lon="2.515">
        <ele>111.17</ele>
        <time>2020-02-09T11:03:50Z</time>
      </trkpt>
      <trkpt lat="43.18074" lon="2.51504">
        <ele>114.53</ele>
        <time>2020-02-09T11:04:06Z</time>
      </trkpt>
      <trkpt lat="43.1802" lon="2.51513">
        <ele>117.9</ele>
        <time>2020-02-09T11:04:25Z</time>
      </trkpt>
      <trkpt lat="43.17977" lon="2.51535">
        <ele>121.26</ele>
        <time>2020-02-09T11:04:41Z</time>
      </trkpt>
      <trkpt lat="43.17918" lon="2.51571">
        <ele>124.15</ele>
        <time>2020-02-09T11:05:04Z</time>
      </trkpt>
      <trkpt lat="43.17859" lon="2.51604">
        <ele>127.51</ele>
        <time>2020-02-09T11:05:25Z</time>
      </trkpt>
      <trkpt lat="43.17788" lon="2.51683">
        <ele>127.03</ele>
        <time>2020-02-09T11:05:49Z</time>
      </trkpt>
      <trkpt lat="43.1775" lon="2.51733">
        <ele>124.63</ele>
        <time>2020-02-09T11:05:57Z</time>
      </trkpt>
      <trkpt lat="43.17747" lon="2.5174">
        <ele>124.15</ele>
        <time>2020-02-09T11:05:58Z</time>
      </trkpt>
      <trkpt lat="43.17744" lon="2.51748">
        <ele>124.15</ele>
        <time>2020-02-09T11:05:59Z</time>
      </trkpt>
      <trkpt lat="43.17736" lon="2.51776">
        <ele>125.11</ele>
        <time>2020-02-09T11:06:03Z</time>
      </trkpt>
      <trkpt lat="43.17731" lon="2.51801">
        <ele>125.59</ele>
        <time>2020-02-09T11:06:07Z</time>
      </trkpt>
      <trkpt lat="43.17729" lon="2.51853">
        <ele>128.47</ele>
        <time>2020-02-09T11:06:18Z</time>
      </trkpt>
      <trkpt lat="43.17732" lon="2.51896">
        <ele>131.84</ele>
        <time>2020-02-09T11:06:31Z</time>
      </trkpt>
      <trkpt lat="43.177" lon="2.51923">
        <ele>133.76</ele>
        <time>2020-02-09T11:06:48Z</time>
      </trkpt>
      <trkpt lat="43.17625" lon="2.51926">
        <ele>134.72</ele>
        <time>2020-02-09T11:07:10Z</time>
      </trkpt>
      <trkpt lat="43.17607" lon="2.51964">
        <ele>137.61</ele>
        <time>2020-02-09T11:07:22Z</time>
      </trkpt>
      <trkpt lat="43.17593" lon="2.52006">
        <ele>140.97</ele>
        <time>2020-02-09T11:07:38Z</time>
      </trkpt>
      <trkpt lat="43.17567" lon="2.52072">
        <ele>143.37</ele>
        <time>2020-02-09T11:08:02Z</time>
      </trkpt>
      <trkpt lat="43.17535" lon="2.52147">
        <ele>146.74</ele>
        <time>2020-02-09T11:08:27Z</time>
      </trkpt>
      <trkpt lat="43.17488" lon="2.52228">
        <ele>149.14</ele>
        <time>2020-02-09T11:08:53Z</time>
      </trkpt>
      <trkpt lat="43.17482" lon="2.52245">
        <ele>149.14</ele>
        <time>2020-02-09T11:08:57Z</time>
      </trkpt>
      <trkpt lat="43.17481" lon="2.5225">
        <ele>148.66</ele>
        <time>2020-02-09T11:08:58Z</time>
      </trkpt>
      <trkpt lat="43.1748" lon="2.52257">
        <ele>148.18</ele>
        <time>2020-02-09T11:08:59Z</time>
      </trkpt>
      <trkpt lat="43.17479" lon="2.52301">
        <ele>147.22</ele>
        <time>2020-02-09T11:09:05Z</time>
      </trkpt>
      <trkpt lat="43.17475" lon="2.5235">
        <ele>146.74</ele>
        <time>2020-02-09T11:09:12Z</time>
      </trkpt>
      <trkpt lat="43.17471" lon="2.52363">
        <ele>147.22</ele>
        <time>2020-02-09T11:09:14Z</time>
      </trkpt>
      <trkpt lat="43.17466" lon="2.52376">
        <ele>145.78</ele>
        <time>2020-02-09T11:09:16Z</time>
      </trkpt>
      <trkpt lat="43.17451" lon="2.5249">
        <ele>142.89</ele>
        <time>2020-02-09T11:09:30Z</time>
      </trkpt>
      <trkpt lat="43.1745" lon="2.525">
        <ele>142.41</ele>
        <time>2020-02-09T11:09:31Z</time>
      </trkpt>
      <trkpt lat="43.17449" lon="2.52517">
        <ele>139.53</ele>
        <time>2020-02-09T11:09:33Z</time>
      </trkpt>
      <trkpt lat="43.17448" lon="2.52525">
        <ele>139.53</ele>
        <time>2020-02-09T11:09:34Z</time>
      </trkpt>
      <trkpt lat="43.17446" lon="2.52532">
        <ele>138.57</ele>
        <time>2020-02-09T11:09:35Z</time>
      </trkpt>
      <trkpt lat="43.17443" lon="2.52537">
        <ele>138.57</ele>
        <time>2020-02-09T11:09:36Z</time>
      </trkpt>
      <trkpt lat="43.17442" lon="2.52544">
        <ele>137.13</ele>
        <time>2020-02-09T11:09:37Z</time>
      </trkpt>
      <trkpt lat="43.17441" lon="2.5255">
        <ele>136.64</ele>
        <time>2020-02-09T11:09:38Z</time>
      </trkpt>
      <trkpt lat="43.17443" lon="2.52557">
        <ele>135.68</ele>
        <time>2020-02-09T11:09:39Z</time>
      </trkpt>
      <trkpt lat="43.17445" lon="2.52565">
        <ele>136.16</ele>
        <time>2020-02-09T11:09:40Z</time>
      </trkpt>
      <trkpt lat="43.17448" lon="2.52572">
        <ele>134.72</ele>
        <time>2020-02-09T11:09:41Z</time>
      </trkpt>
      <trkpt lat="43.17451" lon="2.52579">
        <ele>135.68</ele>
        <time>2020-02-09T11:09:42Z</time>
      </trkpt>
      <trkpt lat="43.17455" lon="2.52587">
        <ele>134.24</ele>
        <time>2020-02-09T11:09:43Z</time>
      </trkpt>
      <trkpt lat="43.17458" lon="2.52593">
        <ele>134.24</ele>
        <time>2020-02-09T11:09:44Z</time>
      </trkpt>
      <trkpt lat="43.17474" lon="2.52621">
        <ele>132.8</ele>
        <time>2020-02-09T11:09:49Z</time>
      </trkpt>
      <trkpt lat="43.17483" lon="2.52634">
        <ele>131.84</ele>
        <time>2020-02-09T11:09:51Z</time>
      </trkpt>
      <trkpt lat="43.17492" lon="2.5265">
        <ele>130.4</ele>
        <time>2020-02-09T11:09:53Z</time>
      </trkpt>
      <trkpt lat="43.17501" lon="2.52669">
        <ele>130.4</ele>
        <time>2020-02-09T11:09:55Z</time>
      </trkpt>
      <trkpt lat="43.17516" lon="2.52707">
        <ele>128.47</ele>
        <time>2020-02-09T11:09:59Z</time>
      </trkpt>
      <trkpt lat="43.17518" lon="2.52717">
        <ele>127.03</ele>
        <time>2020-02-09T11:10:00Z</time>
      </trkpt>
      <trkpt lat="43.17517" lon="2.52727">
        <ele>126.55</ele>
        <time>2020-02-09T11:10:01Z</time>
      </trkpt>
      <trkpt lat="43.17511" lon="2.52735">
        <ele>127.99</ele>
        <time>2020-02-09T11:10:02Z</time>
      </trkpt>
      <trkpt lat="43.17505" lon="2.52742">
        <ele>126.07</ele>
        <time>2020-02-09T11:10:03Z</time>
      </trkpt>
      <trkpt lat="43.17497" lon="2.52749">
        <ele>126.55</ele>
        <time>2020-02-09T11:10:04Z</time>
      </trkpt>
      <trkpt lat="43.1748" lon="2.52767">
        <ele>125.11</ele>
        <time>2020-02-09T11:10:07Z</time>
      </trkpt>
      <trkpt lat="43.17477" lon="2.52773">
        <ele>125.11</ele>
        <time>2020-02-09T11:10:08Z</time>
      </trkpt>
      <trkpt lat="43.17475" lon="2.52778">
        <ele>125.11</ele>
        <time>2020-02-09T11:10:09Z</time>
      </trkpt>
      <trkpt lat="43.17476" lon="2.52784">
        <ele>124.63</ele>
        <time>2020-02-09T11:10:10Z</time>
      </trkpt>
      <trkpt lat="43.17478" lon="2.5279">
        <ele>124.63</ele>
        <time>2020-02-09T11:10:11Z</time>
      </trkpt>
      <trkpt lat="43.1748" lon="2.52796">
        <ele>124.15</ele>
        <time>2020-02-09T11:10:12Z</time>
      </trkpt>
      <trkpt lat="43.17484" lon="2.52814">
        <ele>123.67</ele>
        <time>2020-02-09T11:10:15Z</time>
      </trkpt>
      <trkpt lat="43.17486" lon="2.5282">
        <ele>124.15</ele>
        <time>2020-02-09T11:10:16Z</time>
      </trkpt>
      <trkpt lat="43.17488" lon="2.52824">
        <ele>123.67</ele>
        <time>2020-02-09T11:10:17Z</time>
      </trkpt>
      <trkpt lat="43.17521" lon="2.52899">
        <ele>123.19</ele>
        <time>2020-02-09T11:10:33Z</time>
      </trkpt>
      <trkpt lat="43.17538" lon="2.52966">
        <ele>125.59</ele>
        <time>2020-02-09T11:10:48Z</time>
      </trkpt>
      <trkpt lat="43.17551" lon="2.53036">
        <ele>127.51</ele>
        <time>2020-02-09T11:11:04Z</time>
      </trkpt>
      <trkpt lat="43.17563" lon="2.53121">
        <ele>129.43</ele>
        <time>2020-02-09T11:11:24Z</time>
      </trkpt>
      <trkpt lat="43.1757" lon="2.53175">
        <ele>132.8</ele>
        <time>2020-02-09T11:11:39Z</time>
      </trkpt>
      <trkpt lat="43.17565" lon="2.53245">
        <ele>133.76</ele>
        <time>2020-02-09T11:12:00Z</time>
      </trkpt>
      <trkpt lat="43.17552" lon="2.53299">
        <ele>135.68</ele>
        <time>2020-02-09T11:12:18Z</time>
      </trkpt>
      <trkpt lat="43.1755" lon="2.53311">
        <ele>136.64</ele>
        <time>2020-02-09T11:12:24Z</time>
      </trkpt>
      <trkpt lat="43.17547" lon="2.53326">
        <ele>136.16</ele>
        <time>2020-02-09T11:12:44Z</time>
      </trkpt>
      <trkpt lat="43.1754" lon="2.53329">
        <ele>136.64</ele>
        <time>2020-02-09T11:13:51Z</time>
      </trkpt>
      <trkpt lat="43.17537" lon="2.53332">
        <ele>137.13</ele>
        <time>2020-02-09T11:14:30Z</time>
      </trkpt>
      <trkpt lat="43.17542" lon="2.53334">
        <ele>136.16</ele>
        <time>2020-02-09T11:15:31Z</time>
      </trkpt>
      <trkpt lat="43.17542" lon="2.53333">
        <ele>136.64</ele>
        <time>2020-02-09T11:16:36Z</time>
      </trkpt>
      <trkpt lat="43.17539" lon="2.53328">
        <ele>137.13</ele>
        <time>2020-02-09T11:17:16Z</time>
      </trkpt>
      <trkpt lat="43.1754" lon="2.53331">
        <ele>137.61</ele>
        <time>2020-02-09T11:17:36Z</time>
      </trkpt>
      <trkpt lat="43.17542" lon="2.53336">
        <ele>138.09</ele>
        <time>2020-02-09T11:17:49Z</time>
      </trkpt>
      <trkpt lat="43.17542" lon="2.53338">
        <ele>137.61</ele>
        <time>2020-02-09T11:17:50Z</time>
      </trkpt>
      <trkpt lat="43.17532" lon="2.53356">
        <ele>139.53</ele>
        <time>2020-02-09T11:18:00Z</time>
      </trkpt>
      <trkpt lat="43.17531" lon="2.53357">
        <ele>140.01</ele>
        <time>2020-02-09T11:18:01Z</time>
      </trkpt>
      <trkpt lat="43.1753" lon="2.53358">
        <ele>139.53</ele>
        <time>2020-02-09T11:18:02Z</time>
      </trkpt>
      <trkpt lat="43.17518" lon="2.53382">
        <ele>142.41</ele>
        <time>2020-02-09T11:18:15Z</time>
      </trkpt>
      <trkpt lat="43.175" lon="2.53428">
        <ele>145.3</ele>
        <time>2020-02-09T11:18:35Z</time>
      </trkpt>
      <trkpt lat="43.17496" lon="2.5347">
        <ele>148.18</ele>
        <time>2020-02-09T11:18:51Z</time>
      </trkpt>
      <trkpt lat="43.17482" lon="2.53521">
        <ele>151.06</ele>
        <time>2020-02-09T11:19:10Z</time>
      </trkpt>
      <trkpt lat="43.17475" lon="2.53569">
        <ele>153.47</ele>
        <time>2020-02-09T11:19:29Z</time>
      </trkpt>
      <trkpt lat="43.17466" lon="2.53621">
        <ele>155.87</ele>
        <time>2020-02-09T11:19:47Z</time>
      </trkpt>
      <trkpt lat="43.17456" lon="2.5365">
        <ele>157.31</ele>
        <time>2020-02-09T11:20:00Z</time>
      </trkpt>
      <trkpt lat="43.17455" lon="2.53652">
        <ele>157.31</ele>
        <time>2020-02-09T11:20:01Z</time>
      </trkpt>
      <trkpt lat="43.17448" lon="2.53667">
        <ele>159.72</ele>
        <time>2020-02-09T11:20:11Z</time>
      </trkpt>
      <trkpt lat="43.17447" lon="2.53668">
        <ele>159.72</ele>
        <time>2020-02-09T11:20:12Z</time>
      </trkpt>
      <trkpt lat="43.17432" lon="2.53677">
        <ele>161.16</ele>
        <time>2020-02-09T11:20:21Z</time>
      </trkpt>
      <trkpt lat="43.17431" lon="2.53678">
        <ele>160.68</ele>
        <time>2020-02-09T11:20:22Z</time>
      </trkpt>
      <trkpt lat="43.17422" lon="2.53685">
        <ele>161.64</ele>
        <time>2020-02-09T11:20:28Z</time>
      </trkpt>
      <trkpt lat="43.17421" lon="2.53687">
        <ele>163.08</ele>
        <time>2020-02-09T11:20:29Z</time>
      </trkpt>
      <trkpt lat="43.17402" lon="2.5373">
        <ele>165.96</ele>
        <time>2020-02-09T11:20:50Z</time>
      </trkpt>
      <trkpt lat="43.17389" lon="2.53781">
        <ele>167.89</ele>
        <time>2020-02-09T11:21:10Z</time>
      </trkpt>
      <trkpt lat="43.17373" lon="2.53783">
        <ele>170.29</ele>
        <time>2020-02-09T11:21:20Z</time>
      </trkpt>
      <trkpt lat="43.17371" lon="2.53784">
        <ele>169.81</ele>
        <time>2020-02-09T11:21:21Z</time>
      </trkpt>
      <trkpt lat="43.1737" lon="2.53786">
        <ele>170.77</ele>
        <time>2020-02-09T11:21:22Z</time>
      </trkpt>
      <trkpt lat="43.17352" lon="2.53832">
        <ele>173.66</ele>
        <time>2020-02-09T11:21:41Z</time>
      </trkpt>
      <trkpt lat="43.17345" lon="2.53867">
        <ele>175.58</ele>
        <time>2020-02-09T11:21:53Z</time>
      </trkpt>
      <trkpt lat="43.17333" lon="2.53936">
        <ele>177.02</ele>
        <time>2020-02-09T11:22:15Z</time>
      </trkpt>
      <trkpt lat="43.17307" lon="2.54012">
        <ele>178.94</ele>
        <time>2020-02-09T11:22:40Z</time>
      </trkpt>
      <trkpt lat="43.17278" lon="2.5405">
        <ele>180.38</ele>
        <time>2020-02-09T11:22:57Z</time>
      </trkpt>
      <trkpt lat="43.17276" lon="2.54049">
        <ele>180.87</ele>
        <time>2020-02-09T11:22:58Z</time>
      </trkpt>
      <trkpt lat="43.17273" lon="2.54048">
        <ele>180.87</ele>
        <time>2020-02-09T11:22:59Z</time>
      </trkpt>
      <trkpt lat="43.17233" lon="2.54047">
        <ele>184.23</ele>
        <time>2020-02-09T11:23:17Z</time>
      </trkpt>
      <trkpt lat="43.17187" lon="2.54047">
        <ele>183.27</ele>
        <time>2020-02-09T11:23:31Z</time>
      </trkpt>
      <trkpt lat="43.17183" lon="2.54045">
        <ele>183.27</ele>
        <time>2020-02-09T11:23:32Z</time>
      </trkpt>
      <trkpt lat="43.17158" lon="2.54025">
        <ele>181.35</ele>
        <time>2020-02-09T11:23:38Z</time>
      </trkpt>
      <trkpt lat="43.17154" lon="2.54021">
        <ele>181.35</ele>
        <time>2020-02-09T11:23:39Z</time>
      </trkpt>
      <trkpt lat="43.17119" lon="2.53997">
        <ele>183.27</ele>
        <time>2020-02-09T11:23:53Z</time>
      </trkpt>
      <trkpt lat="43.17098" lon="2.54024">
        <ele>186.63</ele>
        <time>2020-02-09T11:24:07Z</time>
      </trkpt>
      <trkpt lat="43.17095" lon="2.54032">
        <ele>187.11</ele>
        <time>2020-02-09T11:24:11Z</time>
      </trkpt>
      <trkpt lat="43.17095" lon="2.54034">
        <ele>187.59</ele>
        <time>2020-02-09T11:24:12Z</time>
      </trkpt>
      <trkpt lat="43.17095" lon="2.54036">
        <ele>187.11</ele>
        <time>2020-02-09T11:24:13Z</time>
      </trkpt>
      <trkpt lat="43.17094" lon="2.54039">
        <ele>188.08</ele>
        <time>2020-02-09T11:24:14Z</time>
      </trkpt>
      <trkpt lat="43.17093" lon="2.54041">
        <ele>187.59</ele>
        <time>2020-02-09T11:24:15Z</time>
      </trkpt>
      <trkpt lat="43.17092" lon="2.54043">
        <ele>188.08</ele>
        <time>2020-02-09T11:24:16Z</time>
      </trkpt>
      <trkpt lat="43.1709" lon="2.54049">
        <ele>188.56</ele>
        <time>2020-02-09T11:24:19Z</time>
      </trkpt>
      <trkpt lat="43.1709" lon="2.54051">
        <ele>188.08</ele>
        <time>2020-02-09T11:24:20Z</time>
      </trkpt>
      <trkpt lat="43.17078" lon="2.5409">
        <ele>191.44</ele>
        <time>2020-02-09T11:24:37Z</time>
      </trkpt>
      <trkpt lat="43.17065" lon="2.54141">
        <ele>193.36</ele>
        <time>2020-02-09T11:24:56Z</time>
      </trkpt>
      <trkpt lat="43.17057" lon="2.54186">
        <ele>196.73</ele>
        <time>2020-02-09T11:25:13Z</time>
      </trkpt>
      <trkpt lat="43.17052" lon="2.54191">
        <ele>196.73</ele>
        <time>2020-02-09T11:25:16Z</time>
      </trkpt>
      <trkpt lat="43.1705" lon="2.54191">
        <ele>196.25</ele>
        <time>2020-02-09T11:25:17Z</time>
      </trkpt>
      <trkpt lat="43.17049" lon="2.54189">
        <ele>196.73</ele>
        <time>2020-02-09T11:25:18Z</time>
      </trkpt>
      <trkpt lat="43.17048" lon="2.54187">
        <ele>197.21</ele>
        <time>2020-02-09T11:25:19Z</time>
      </trkpt>
      <trkpt lat="43.17047" lon="2.54184">
        <ele>197.69</ele>
        <time>2020-02-09T11:25:20Z</time>
      </trkpt>
      <trkpt lat="43.17047" lon="2.54181">
        <ele>197.21</ele>
        <time>2020-02-09T11:25:21Z</time>
      </trkpt>
      <trkpt lat="43.17047" lon="2.54179">
        <ele>198.17</ele>
        <time>2020-02-09T11:25:22Z</time>
      </trkpt>
      <trkpt lat="43.17048" lon="2.54176">
        <ele>197.69</ele>
        <time>2020-02-09T11:25:23Z</time>
      </trkpt>
      <trkpt lat="43.17049" lon="2.54116">
        <ele>200.09</ele>
        <time>2020-02-09T11:25:43Z</time>
      </trkpt>
      <trkpt lat="43.17037" lon="2.54112">
        <ele>202.01</ele>
        <time>2020-02-09T11:25:51Z</time>
      </trkpt>
      <trkpt lat="43.17036" lon="2.54113">
        <ele>202.01</ele>
        <time>2020-02-09T11:25:52Z</time>
      </trkpt>
      <trkpt lat="43.17033" lon="2.54115">
        <ele>202.01</ele>
        <time>2020-02-09T11:25:53Z</time>
      </trkpt>
      <trkpt lat="43.17009" lon="2.5415">
        <ele>199.61</ele>
        <time>2020-02-09T11:26:08Z</time>
      </trkpt>
      <trkpt lat="43.17005" lon="2.54157">
        <ele>199.13</ele>
        <time>2020-02-09T11:26:31Z</time>
      </trkpt>
      <trkpt lat="43.17008" lon="2.54151">
        <ele>200.57</ele>
        <time>2020-02-09T11:26:51Z</time>
      </trkpt>
      <trkpt lat="43.17008" lon="2.54146">
        <ele>200.09</ele>
        <time>2020-02-09T11:27:11Z</time>
      </trkpt>
      <trkpt lat="43.17006" lon="2.54148">
        <ele>200.57</ele>
        <time>2020-02-09T11:27:34Z</time>
      </trkpt>
      <trkpt lat="43.17005" lon="2.54144">
        <ele>200.57</ele>
        <time>2020-02-09T11:27:37Z</time>
      </trkpt>
      <trkpt lat="43.17005" lon="2.54141">
        <ele>201.05</ele>
        <time>2020-02-09T11:27:39Z</time>
      </trkpt>
      <trkpt lat="43.17004" lon="2.54139">
        <ele>200.57</ele>
        <time>2020-02-09T11:27:40Z</time>
      </trkpt>
      <trkpt lat="43.17003" lon="2.54137">
        <ele>200.57</ele>
        <time>2020-02-09T11:27:41Z</time>
      </trkpt>
      <trkpt lat="43.17002" lon="2.54133">
        <ele>200.09</ele>
        <time>2020-02-09T11:27:42Z</time>
      </trkpt>
      <trkpt lat="43.17002" lon="2.5413">
        <ele>200.09</ele>
        <time>2020-02-09T11:27:43Z</time>
      </trkpt>
      <trkpt lat="43.17002" lon="2.54127">
        <ele>200.57</ele>
        <time>2020-02-09T11:27:44Z</time>
      </trkpt>
      <trkpt lat="43.17002" lon="2.54124">
        <ele>201.05</ele>
        <time>2020-02-09T11:27:45Z</time>
      </trkpt>
      <trkpt lat="43.17002" lon="2.54121">
        <ele>200.09</ele>
        <time>2020-02-09T11:27:46Z</time>
      </trkpt>
      <trkpt lat="43.16998" lon="2.54096">
        <ele>199.61</ele>
        <time>2020-02-09T11:27:53Z</time>
      </trkpt>
      <trkpt lat="43.16993" lon="2.54094">
        <ele>198.65</ele>
        <time>2020-02-09T11:27:54Z</time>
      </trkpt>
      <trkpt lat="43.16988" lon="2.54093">
        <ele>199.13</ele>
        <time>2020-02-09T11:27:55Z</time>
      </trkpt>
      <trkpt lat="43.16934" lon="2.5409">
        <ele>200.57</ele>
        <time>2020-02-09T11:28:14Z</time>
      </trkpt>
      <trkpt lat="43.16909" lon="2.54091">
        <ele>203.46</ele>
        <time>2020-02-09T11:28:29Z</time>
      </trkpt>
      <trkpt lat="43.16881" lon="2.54094">
        <ele>205.86</ele>
        <time>2020-02-09T11:28:50Z</time>
      </trkpt>
      <trkpt lat="43.16879" lon="2.54096">
        <ele>206.34</ele>
        <time>2020-02-09T11:28:52Z</time>
      </trkpt>
      <trkpt lat="43.16876" lon="2.54104">
        <ele>206.34</ele>
        <time>2020-02-09T11:28:57Z</time>
      </trkpt>
      <trkpt lat="43.16871" lon="2.5411">
        <ele>207.3</ele>
        <time>2020-02-09T11:29:02Z</time>
      </trkpt>
      <trkpt lat="43.16869" lon="2.54111">
        <ele>207.3</ele>
        <time>2020-02-09T11:29:03Z</time>
      </trkpt>
      <trkpt lat="43.16861" lon="2.5411">
        <ele>208.74</ele>
        <time>2020-02-09T11:29:09Z</time>
      </trkpt>
      <trkpt lat="43.16852" lon="2.541">
        <ele>211.63</ele>
        <time>2020-02-09T11:29:29Z</time>
      </trkpt>
      <trkpt lat="43.16852" lon="2.54103">
        <ele>211.63</ele>
        <time>2020-02-09T11:29:33Z</time>
      </trkpt>
      <trkpt lat="43.16847" lon="2.54138">
        <ele>213.55</ele>
        <time>2020-02-09T11:29:51Z</time>
      </trkpt>
      <trkpt lat="43.16841" lon="2.54154">
        <ele>214.03</ele>
        <time>2020-02-09T11:30:00Z</time>
      </trkpt>
      <trkpt lat="43.16836" lon="2.54163">
        <ele>214.99</ele>
        <time>2020-02-09T11:30:05Z</time>
      </trkpt>
      <trkpt lat="43.1683" lon="2.54178">
        <ele>215.95</ele>
        <time>2020-02-09T11:30:14Z</time>
      </trkpt>
      <trkpt lat="43.16827" lon="2.54222">
        <ele>217.4</ele>
        <time>2020-02-09T11:30:32Z</time>
      </trkpt>
      <trkpt lat="43.16825" lon="2.54231">
        <ele>217.88</ele>
        <time>2020-02-09T11:30:36Z</time>
      </trkpt>
      <trkpt lat="43.16821" lon="2.54245">
        <ele>218.84</ele>
        <time>2020-02-09T11:30:42Z</time>
      </trkpt>
      <trkpt lat="43.16799" lon="2.54295">
        <ele>218.84</ele>
        <time>2020-02-09T11:31:00Z</time>
      </trkpt>
      <trkpt lat="43.16799" lon="2.54299">
        <ele>218.84</ele>
        <time>2020-02-09T11:31:01Z</time>
      </trkpt>
      <trkpt lat="43.16791" lon="2.54351">
        <ele>220.28</ele>
        <time>2020-02-09T11:31:18Z</time>
      </trkpt>
      <trkpt lat="43.16791" lon="2.54367">
        <ele>221.72</ele>
        <time>2020-02-09T11:31:23Z</time>
      </trkpt>
      <trkpt lat="43.1679" lon="2.5437">
        <ele>221.72</ele>
        <time>2020-02-09T11:31:24Z</time>
      </trkpt>
      <trkpt lat="43.1679" lon="2.54373">
        <ele>221.72</ele>
        <time>2020-02-09T11:31:25Z</time>
      </trkpt>
      <trkpt lat="43.16784" lon="2.54394">
        <ele>222.68</ele>
        <time>2020-02-09T11:31:33Z</time>
      </trkpt>
      <trkpt lat="43.16783" lon="2.54397">
        <ele>222.2</ele>
        <time>2020-02-09T11:31:34Z</time>
      </trkpt>
      <trkpt lat="43.16782" lon="2.544">
        <ele>222.2</ele>
        <time>2020-02-09T11:31:35Z</time>
      </trkpt>
      <trkpt lat="43.16781" lon="2.54409">
        <ele>223.16</ele>
        <time>2020-02-09T11:31:39Z</time>
      </trkpt>
      <trkpt lat="43.16781" lon="2.54411">
        <ele>223.64</ele>
        <time>2020-02-09T11:31:40Z</time>
      </trkpt>
      <trkpt lat="43.16781" lon="2.54413">
        <ele>223.16</ele>
        <time>2020-02-09T11:31:41Z</time>
      </trkpt>
      <trkpt lat="43.16779" lon="2.5442">
        <ele>224.61</ele>
        <time>2020-02-09T11:31:44Z</time>
      </trkpt>
      <trkpt lat="43.16772" lon="2.54459">
        <ele>226.05</ele>
        <time>2020-02-09T11:32:02Z</time>
      </trkpt>
      <trkpt lat="43.16752" lon="2.5454">
        <ele>240.47</ele>
        <time>2020-02-09T11:33:59Z</time>
      </trkpt>
      <trkpt lat="43.16751" lon="2.54542">
        <ele>240.95</ele>
        <time>2020-02-09T11:34:00Z</time>
      </trkpt>
      <trkpt lat="43.16742" lon="2.5458">
        <ele>244.31</ele>
        <time>2020-02-09T11:34:20Z</time>
      </trkpt>
      <trkpt lat="43.16741" lon="2.54599">
        <ele>246.23</ele>
        <time>2020-02-09T11:34:31Z</time>
      </trkpt>
      <trkpt lat="43.16742" lon="2.54601">
        <ele>246.72</ele>
        <time>2020-02-09T11:34:32Z</time>
      </trkpt>
      <trkpt lat="43.16743" lon="2.54616">
        <ele>247.68</ele>
        <time>2020-02-09T11:34:45Z</time>
      </trkpt>
      <trkpt lat="43.16743" lon="2.54618">
        <ele>247.68</ele>
        <time>2020-02-09T11:34:46Z</time>
      </trkpt>
      <trkpt lat="43.16737" lon="2.54624">
        <ele>251.04</ele>
        <time>2020-02-09T11:35:02Z</time>
      </trkpt>
      <trkpt lat="43.16734" lon="2.54613">
        <ele>251.04</ele>
        <time>2020-02-09T11:35:19Z</time>
      </trkpt>
      <trkpt lat="43.16733" lon="2.54611">
        <ele>251.52</ele>
        <time>2020-02-09T11:35:20Z</time>
      </trkpt>
      <trkpt lat="43.16731" lon="2.546">
        <ele>252</ele>
        <time>2020-02-09T11:35:27Z</time>
      </trkpt>
      <trkpt lat="43.1673" lon="2.54598">
        <ele>252.48</ele>
        <time>2020-02-09T11:35:28Z</time>
      </trkpt>
      <trkpt lat="43.16729" lon="2.54587">
        <ele>253.44</ele>
        <time>2020-02-09T11:35:44Z</time>
      </trkpt>
      <trkpt lat="43.16728" lon="2.54584">
        <ele>253.93</ele>
        <time>2020-02-09T11:35:50Z</time>
      </trkpt>
      <trkpt lat="43.16728" lon="2.54582">
        <ele>254.41</ele>
        <time>2020-02-09T11:35:51Z</time>
      </trkpt>
      <trkpt lat="43.16727" lon="2.54577">
        <ele>255.37</ele>
        <time>2020-02-09T11:35:54Z</time>
      </trkpt>
      <trkpt lat="43.16727" lon="2.54575">
        <ele>255.37</ele>
        <time>2020-02-09T11:35:55Z</time>
      </trkpt>
      <trkpt lat="43.16727" lon="2.5456">
        <ele>256.33</ele>
        <time>2020-02-09T11:36:03Z</time>
      </trkpt>
      <trkpt lat="43.16726" lon="2.54533">
        <ele>258.25</ele>
        <time>2020-02-09T11:36:20Z</time>
      </trkpt>
      <trkpt lat="43.16724" lon="2.54519">
        <ele>261.62</ele>
        <time>2020-02-09T11:36:35Z</time>
      </trkpt>
      <trkpt lat="43.16722" lon="2.54519">
        <ele>263.54</ele>
        <time>2020-02-09T11:36:58Z</time>
      </trkpt>
      <trkpt lat="43.16717" lon="2.54521">
        <ele>266.42</ele>
        <time>2020-02-09T11:37:14Z</time>
      </trkpt>
      <trkpt lat="43.16715" lon="2.54509">
        <ele>269.31</ele>
        <time>2020-02-09T11:37:32Z</time>
      </trkpt>
      <trkpt lat="43.16714" lon="2.54492">
        <ele>272.19</ele>
        <time>2020-02-09T11:37:48Z</time>
      </trkpt>
      <trkpt lat="43.16711" lon="2.54492">
        <ele>274.59</ele>
        <time>2020-02-09T11:38:06Z</time>
      </trkpt>
      <trkpt lat="43.16703" lon="2.54498">
        <ele>277</ele>
        <time>2020-02-09T11:38:24Z</time>
      </trkpt>
      <trkpt lat="43.16701" lon="2.5449">
        <ele>280.36</ele>
        <time>2020-02-09T11:38:39Z</time>
      </trkpt>
      <trkpt lat="43.16693" lon="2.54473">
        <ele>283.25</ele>
        <time>2020-02-09T11:39:00Z</time>
      </trkpt>
      <trkpt lat="43.16693" lon="2.54464">
        <ele>283.25</ele>
        <time>2020-02-09T11:39:10Z</time>
      </trkpt>
      <trkpt lat="43.16692" lon="2.54463">
        <ele>282.77</ele>
        <time>2020-02-09T11:39:11Z</time>
      </trkpt>
      <trkpt lat="43.16689" lon="2.54445">
        <ele>280.84</ele>
        <time>2020-02-09T11:39:22Z</time>
      </trkpt>
      <trkpt lat="43.16686" lon="2.54439">
        <ele>281.8</ele>
        <time>2020-02-09T11:39:38Z</time>
      </trkpt>
      <trkpt lat="43.16685" lon="2.54436">
        <ele>281.8</ele>
        <time>2020-02-09T11:39:41Z</time>
      </trkpt>
      <trkpt lat="43.16683" lon="2.54427">
        <ele>284.69</ele>
        <time>2020-02-09T11:39:52Z</time>
      </trkpt>
      <trkpt lat="43.16686" lon="2.54409">
        <ele>286.61</ele>
        <time>2020-02-09T11:40:14Z</time>
      </trkpt>
      <trkpt lat="43.16686" lon="2.54407">
        <ele>286.61</ele>
        <time>2020-02-09T11:40:15Z</time>
      </trkpt>
      <trkpt lat="43.16685" lon="2.54389">
        <ele>289.97</ele>
        <time>2020-02-09T11:40:34Z</time>
      </trkpt>
      <trkpt lat="43.16683" lon="2.5437">
        <ele>293.34</ele>
        <time>2020-02-09T11:40:53Z</time>
      </trkpt>
      <trkpt lat="43.1668" lon="2.54352">
        <ele>294.78</ele>
        <time>2020-02-09T11:41:16Z</time>
      </trkpt>
      <trkpt lat="43.16678" lon="2.54338">
        <ele>298.15</ele>
        <time>2020-02-09T11:41:36Z</time>
      </trkpt>
      <trkpt lat="43.16674" lon="2.54327">
        <ele>301.03</ele>
        <time>2020-02-09T11:41:52Z</time>
      </trkpt>
      <trkpt lat="43.16668" lon="2.54314">
        <ele>303.43</ele>
        <time>2020-02-09T11:42:13Z</time>
      </trkpt>
      <trkpt lat="43.16661" lon="2.54297">
        <ele>303.91</ele>
        <time>2020-02-09T11:42:25Z</time>
      </trkpt>
      <trkpt lat="43.16659" lon="2.54297">
        <ele>305.36</ele>
        <time>2020-02-09T11:42:41Z</time>
      </trkpt>
      <trkpt lat="43.16661" lon="2.54312">
        <ele>307.76</ele>
        <time>2020-02-09T11:42:55Z</time>
      </trkpt>
      <trkpt lat="43.16657" lon="2.54332">
        <ele>309.68</ele>
        <time>2020-02-09T11:43:14Z</time>
      </trkpt>
      <trkpt lat="43.16653" lon="2.54337">
        <ele>311.6</ele>
        <time>2020-02-09T11:43:37Z</time>
      </trkpt>
      <trkpt lat="43.16651" lon="2.54336">
        <ele>312.57</ele>
        <time>2020-02-09T11:43:44Z</time>
      </trkpt>
      <trkpt lat="43.16648" lon="2.54323">
        <ele>314.97</ele>
        <time>2020-02-09T11:44:01Z</time>
      </trkpt>
      <trkpt lat="43.16642" lon="2.54315">
        <ele>317.85</ele>
        <time>2020-02-09T11:44:20Z</time>
      </trkpt>
      <trkpt lat="43.16643" lon="2.54322">
        <ele>319.3</ele>
        <time>2020-02-09T11:44:40Z</time>
      </trkpt>
      <trkpt lat="43.16641" lon="2.54325">
        <ele>319.3</ele>
        <time>2020-02-09T11:45:03Z</time>
      </trkpt>
      <trkpt lat="43.16637" lon="2.54345">
        <ele>322.18</ele>
        <time>2020-02-09T11:45:22Z</time>
      </trkpt>
      <trkpt lat="43.16632" lon="2.54359">
        <ele>325.54</ele>
        <time>2020-02-09T11:45:41Z</time>
      </trkpt>
      <trkpt lat="43.16624" lon="2.54377">
        <ele>327.95</ele>
        <time>2020-02-09T11:46:01Z</time>
      </trkpt>
      <trkpt lat="43.16612" lon="2.54396">
        <ele>330.83</ele>
        <time>2020-02-09T11:46:22Z</time>
      </trkpt>
      <trkpt lat="43.16607" lon="2.54427">
        <ele>331.79</ele>
        <time>2020-02-09T11:46:44Z</time>
      </trkpt>
      <trkpt lat="43.1661" lon="2.54448">
        <ele>332.27</ele>
        <time>2020-02-09T11:47:01Z</time>
      </trkpt>
      <trkpt lat="43.1661" lon="2.54476">
        <ele>334.68</ele>
        <time>2020-02-09T11:47:21Z</time>
      </trkpt>
      <trkpt lat="43.16609" lon="2.54507">
        <ele>334.2</ele>
        <time>2020-02-09T11:47:42Z</time>
      </trkpt>
      <trkpt lat="43.16604" lon="2.54521">
        <ele>335.16</ele>
        <time>2020-02-09T11:48:05Z</time>
      </trkpt>
      <trkpt lat="43.16596" lon="2.54536">
        <ele>335.16</ele>
        <time>2020-02-09T11:48:20Z</time>
      </trkpt>
      <trkpt lat="43.16591" lon="2.54548">
        <ele>334.2</ele>
        <time>2020-02-09T11:48:36Z</time>
      </trkpt>
      <trkpt lat="43.16589" lon="2.54553">
        <ele>334.2</ele>
        <time>2020-02-09T11:48:43Z</time>
      </trkpt>
      <trkpt lat="43.16588" lon="2.54566">
        <ele>334.68</ele>
        <time>2020-02-09T11:48:50Z</time>
      </trkpt>
      <trkpt lat="43.16588" lon="2.54569">
        <ele>334.2</ele>
        <time>2020-02-09T11:48:51Z</time>
      </trkpt>
      <trkpt lat="43.16589" lon="2.54572">
        <ele>334.2</ele>
        <time>2020-02-09T11:48:52Z</time>
      </trkpt>
      <trkpt lat="43.16589" lon="2.54575">
        <ele>333.71</ele>
        <time>2020-02-09T11:48:53Z</time>
      </trkpt>
      <trkpt lat="43.16589" lon="2.54579">
        <ele>333.71</ele>
        <time>2020-02-09T11:48:54Z</time>
      </trkpt>
      <trkpt lat="43.1659" lon="2.54584">
        <ele>333.71</ele>
        <time>2020-02-09T11:48:55Z</time>
      </trkpt>
      <trkpt lat="43.16591" lon="2.5459">
        <ele>333.23</ele>
        <time>2020-02-09T11:48:56Z</time>
      </trkpt>
      <trkpt lat="43.16591" lon="2.54595">
        <ele>333.23</ele>
        <time>2020-02-09T11:48:57Z</time>
      </trkpt>
      <trkpt lat="43.1659" lon="2.546">
        <ele>332.75</ele>
        <time>2020-02-09T11:48:58Z</time>
      </trkpt>
      <trkpt lat="43.16589" lon="2.54604">
        <ele>332.75</ele>
        <time>2020-02-09T11:48:59Z</time>
      </trkpt>
      <trkpt lat="43.16588" lon="2.54609">
        <ele>332.75</ele>
        <time>2020-02-09T11:49:00Z</time>
      </trkpt>
      <trkpt lat="43.16587" lon="2.54613">
        <ele>333.23</ele>
        <time>2020-02-09T11:49:01Z</time>
      </trkpt>
      <trkpt lat="43.16586" lon="2.54618">
        <ele>332.27</ele>
        <time>2020-02-09T11:49:02Z</time>
      </trkpt>
      <trkpt lat="43.16585" lon="2.54622">
        <ele>332.27</ele>
        <time>2020-02-09T11:49:03Z</time>
      </trkpt>
      <trkpt lat="43.16584" lon="2.54625">
        <ele>331.79</ele>
        <time>2020-02-09T11:49:04Z</time>
      </trkpt>
      <trkpt lat="43.16582" lon="2.54628">
        <ele>331.79</ele>
        <time>2020-02-09T11:49:05Z</time>
      </trkpt>
      <trkpt lat="43.1658" lon="2.5463">
        <ele>331.79</ele>
        <time>2020-02-09T11:49:06Z</time>
      </trkpt>
      <trkpt lat="43.16557" lon="2.54647">
        <ele>331.79</ele>
        <time>2020-02-09T11:49:22Z</time>
      </trkpt>
      <trkpt lat="43.16544" lon="2.54662">
        <ele>331.79</ele>
        <time>2020-02-09T11:49:33Z</time>
      </trkpt>
      <trkpt lat="43.16551" lon="2.54681">
        <ele>330.83</ele>
        <time>2020-02-09T11:49:42Z</time>
      </trkpt>
      <trkpt lat="43.16577" lon="2.54704">
        <ele>326.99</ele>
        <time>2020-02-09T11:49:52Z</time>
      </trkpt>
      <trkpt lat="43.16602" lon="2.54725">
        <ele>324.58</ele>
        <time>2020-02-09T11:50:01Z</time>
      </trkpt>
      <trkpt lat="43.16624" lon="2.54752">
        <ele>321.22</ele>
        <time>2020-02-09T11:50:10Z</time>
      </trkpt>
      <trkpt lat="43.16642" lon="2.54793">
        <ele>318.33</ele>
        <time>2020-02-09T11:50:22Z</time>
      </trkpt>
      <trkpt lat="43.16656" lon="2.54836">
        <ele>314.97</ele>
        <time>2020-02-09T11:50:36Z</time>
      </trkpt>
      <trkpt lat="43.16661" lon="2.54893">
        <ele>312.57</ele>
        <time>2020-02-09T11:50:51Z</time>
      </trkpt>
      <trkpt lat="43.16676" lon="2.54931">
        <ele>309.2</ele>
        <time>2020-02-09T11:51:00Z</time>
      </trkpt>
      <trkpt lat="43.1668" lon="2.54953">
        <ele>308.72</ele>
        <time>2020-02-09T11:51:08Z</time>
      </trkpt>
      <trkpt lat="43.16678" lon="2.54957">
        <ele>308.72</ele>
        <time>2020-02-09T11:51:10Z</time>
      </trkpt>
      <trkpt lat="43.16677" lon="2.5496">
        <ele>308.72</ele>
        <time>2020-02-09T11:51:11Z</time>
      </trkpt>
      <trkpt lat="43.16675" lon="2.54963">
        <ele>308.24</ele>
        <time>2020-02-09T11:51:12Z</time>
      </trkpt>
      <trkpt lat="43.16674" lon="2.54967">
        <ele>307.76</ele>
        <time>2020-02-09T11:51:13Z</time>
      </trkpt>
      <trkpt lat="43.16673" lon="2.5497">
        <ele>306.32</ele>
        <time>2020-02-09T11:51:14Z</time>
      </trkpt>
      <trkpt lat="43.16672" lon="2.54973">
        <ele>306.32</ele>
        <time>2020-02-09T11:51:15Z</time>
      </trkpt>
      <trkpt lat="43.1667" lon="2.54976">
        <ele>304.88</ele>
        <time>2020-02-09T11:51:16Z</time>
      </trkpt>
      <trkpt lat="43.16666" lon="2.54991">
        <ele>303.43</ele>
        <time>2020-02-09T11:51:20Z</time>
      </trkpt>
      <trkpt lat="43.16666" lon="2.54994">
        <ele>303.43</ele>
        <time>2020-02-09T11:51:21Z</time>
      </trkpt>
      <trkpt lat="43.16666" lon="2.54997">
        <ele>303.43</ele>
        <time>2020-02-09T11:51:22Z</time>
      </trkpt>
      <trkpt lat="43.16667" lon="2.54999">
        <ele>303.43</ele>
        <time>2020-02-09T11:51:23Z</time>
      </trkpt>
      <trkpt lat="43.16669" lon="2.55001">
        <ele>302.95</ele>
        <time>2020-02-09T11:51:24Z</time>
      </trkpt>
      <trkpt lat="43.16671" lon="2.55004">
        <ele>303.43</ele>
        <time>2020-02-09T11:51:25Z</time>
      </trkpt>
      <trkpt lat="43.16695" lon="2.55033">
        <ele>300.55</ele>
        <time>2020-02-09T11:51:36Z</time>
      </trkpt>
      <trkpt lat="43.16715" lon="2.5508">
        <ele>296.7</ele>
        <time>2020-02-09T11:51:47Z</time>
      </trkpt>
      <trkpt lat="43.16714" lon="2.55098">
        <ele>295.26</ele>
        <time>2020-02-09T11:51:51Z</time>
      </trkpt>
      <trkpt lat="43.16705" lon="2.55134">
        <ele>292.38</ele>
        <time>2020-02-09T11:52:00Z</time>
      </trkpt>
      <trkpt lat="43.16726" lon="2.55196">
        <ele>290.46</ele>
        <time>2020-02-09T11:52:15Z</time>
      </trkpt>
      <trkpt lat="43.16726" lon="2.5526">
        <ele>287.57</ele>
        <time>2020-02-09T11:52:30Z</time>
      </trkpt>
      <trkpt lat="43.16714" lon="2.55327">
        <ele>286.13</ele>
        <time>2020-02-09T11:52:46Z</time>
      </trkpt>
      <trkpt lat="43.16701" lon="2.55407">
        <ele>283.73</ele>
        <time>2020-02-09T11:53:03Z</time>
      </trkpt>
      <trkpt lat="43.16683" lon="2.55442">
        <ele>282.28</ele>
        <time>2020-02-09T11:53:13Z</time>
      </trkpt>
      <trkpt lat="43.16681" lon="2.55442">
        <ele>282.77</ele>
        <time>2020-02-09T11:53:14Z</time>
      </trkpt>
      <trkpt lat="43.16678" lon="2.55442">
        <ele>282.28</ele>
        <time>2020-02-09T11:53:15Z</time>
      </trkpt>
      <trkpt lat="43.16637" lon="2.55414">
        <ele>279.88</ele>
        <time>2020-02-09T11:53:32Z</time>
      </trkpt>
      <trkpt lat="43.16635" lon="2.55414">
        <ele>280.84</ele>
        <time>2020-02-09T11:53:33Z</time>
      </trkpt>
      <trkpt lat="43.16633" lon="2.55415">
        <ele>280.36</ele>
        <time>2020-02-09T11:53:34Z</time>
      </trkpt>
      <trkpt lat="43.1663" lon="2.55415">
        <ele>280.36</ele>
        <time>2020-02-09T11:53:35Z</time>
      </trkpt>
      <trkpt lat="43.16628" lon="2.55414">
        <ele>279.4</ele>
        <time>2020-02-09T11:53:36Z</time>
      </trkpt>
      <trkpt lat="43.16625" lon="2.55413">
        <ele>279.88</ele>
        <time>2020-02-09T11:53:37Z</time>
      </trkpt>
      <trkpt lat="43.16622" lon="2.55412">
        <ele>279.88</ele>
        <time>2020-02-09T11:53:38Z</time>
      </trkpt>
      <trkpt lat="43.1662" lon="2.5541">
        <ele>279.88</ele>
        <time>2020-02-09T11:53:39Z</time>
      </trkpt>
      <trkpt lat="43.16619" lon="2.55409">
        <ele>279.4</ele>
        <time>2020-02-09T11:53:40Z</time>
      </trkpt>
      <trkpt lat="43.16618" lon="2.55408">
        <ele>279.4</ele>
        <time>2020-02-09T11:53:41Z</time>
      </trkpt>
      <trkpt lat="43.16615" lon="2.55407">
        <ele>279.88</ele>
        <time>2020-02-09T11:54:02Z</time>
      </trkpt>
      <trkpt lat="43.16615" lon="2.55406">
        <ele>280.36</ele>
        <time>2020-02-09T11:54:41Z</time>
      </trkpt>
      <trkpt lat="43.16616" lon="2.55408">
        <ele>280.36</ele>
        <time>2020-02-09T11:55:17Z</time>
      </trkpt>
      <trkpt lat="43.16614" lon="2.55408">
        <ele>280.36</ele>
        <time>2020-02-09T11:55:33Z</time>
      </trkpt>
      <trkpt lat="43.16613" lon="2.5541">
        <ele>279.88</ele>
        <time>2020-02-09T11:55:34Z</time>
      </trkpt>
      <trkpt lat="43.16612" lon="2.55412">
        <ele>279.88</ele>
        <time>2020-02-09T11:55:35Z</time>
      </trkpt>
      <trkpt lat="43.16612" lon="2.55414">
        <ele>280.36</ele>
        <time>2020-02-09T11:55:36Z</time>
      </trkpt>
      <trkpt lat="43.16613" lon="2.55417">
        <ele>279.4</ele>
        <time>2020-02-09T11:55:37Z</time>
      </trkpt>
      <trkpt lat="43.16614" lon="2.55418">
        <ele>279.88</ele>
        <time>2020-02-09T11:55:38Z</time>
      </trkpt>
      <trkpt lat="43.16616" lon="2.5542">
        <ele>279.4</ele>
        <time>2020-02-09T11:55:39Z</time>
      </trkpt>
      <trkpt lat="43.16624" lon="2.55432">
        <ele>277.96</ele>
        <time>2020-02-09T11:55:44Z</time>
      </trkpt>
      <trkpt lat="43.16627" lon="2.55434">
        <ele>277.96</ele>
        <time>2020-02-09T11:55:45Z</time>
      </trkpt>
      <trkpt lat="43.16629" lon="2.55438">
        <ele>277</ele>
        <time>2020-02-09T11:55:46Z</time>
      </trkpt>
      <trkpt lat="43.16632" lon="2.55441">
        <ele>276.52</ele>
        <time>2020-02-09T11:55:47Z</time>
      </trkpt>
      <trkpt lat="43.16634" lon="2.55445">
        <ele>276.04</ele>
        <time>2020-02-09T11:55:48Z</time>
      </trkpt>
      <trkpt lat="43.16642" lon="2.55455">
        <ele>274.11</ele>
        <time>2020-02-09T11:55:51Z</time>
      </trkpt>
      <trkpt lat="43.1665" lon="2.5547">
        <ele>272.19</ele>
        <time>2020-02-09T11:55:55Z</time>
      </trkpt>
      <trkpt lat="43.16657" lon="2.5548">
        <ele>270.75</ele>
        <time>2020-02-09T11:55:57Z</time>
      </trkpt>
      <trkpt lat="43.1666" lon="2.55485">
        <ele>270.27</ele>
        <time>2020-02-09T11:55:58Z</time>
      </trkpt>
      <trkpt lat="43.16663" lon="2.5549">
        <ele>269.31</ele>
        <time>2020-02-09T11:55:59Z</time>
      </trkpt>
      <trkpt lat="43.16666" lon="2.55494">
        <ele>269.31</ele>
        <time>2020-02-09T11:56:00Z</time>
      </trkpt>
      <trkpt lat="43.16671" lon="2.55502">
        <ele>267.86</ele>
        <time>2020-02-09T11:56:02Z</time>
      </trkpt>
      <trkpt lat="43.16678" lon="2.55513">
        <ele>264.5</ele>
        <time>2020-02-09T11:56:08Z</time>
      </trkpt>
      <trkpt lat="43.16678" lon="2.55522">
        <ele>263.06</ele>
        <time>2020-02-09T11:56:24Z</time>
      </trkpt>
      <trkpt lat="43.16679" lon="2.55521">
        <ele>263.06</ele>
        <time>2020-02-09T11:56:53Z</time>
      </trkpt>
      <trkpt lat="43.16682" lon="2.55526">
        <ele>262.1</ele>
        <time>2020-02-09T11:57:24Z</time>
      </trkpt>
      <trkpt lat="43.1672" lon="2.55604">
        <ele>251.52</ele>
        <time>2020-02-09T12:02:24Z</time>
      </trkpt>
      <trkpt lat="43.16728" lon="2.55618">
        <ele>248.16</ele>
        <time>2020-02-09T12:02:28Z</time>
      </trkpt>
      <trkpt lat="43.16734" lon="2.55627">
        <ele>246.72</ele>
        <time>2020-02-09T12:02:30Z</time>
      </trkpt>
      <trkpt lat="43.16744" lon="2.55642">
        <ele>243.35</ele>
        <time>2020-02-09T12:02:34Z</time>
      </trkpt>
      <trkpt lat="43.16748" lon="2.55648">
        <ele>242.87</ele>
        <time>2020-02-09T12:02:36Z</time>
      </trkpt>
      <trkpt lat="43.16758" lon="2.55662">
        <ele>239.02</ele>
        <time>2020-02-09T12:02:40Z</time>
      </trkpt>
      <trkpt lat="43.16764" lon="2.55671">
        <ele>237.58</ele>
        <time>2020-02-09T12:02:42Z</time>
      </trkpt>
      <trkpt lat="43.16767" lon="2.55675">
        <ele>236.62</ele>
        <time>2020-02-09T12:02:43Z</time>
      </trkpt>
      <trkpt lat="43.1677" lon="2.55678">
        <ele>235.66</ele>
        <time>2020-02-09T12:02:44Z</time>
      </trkpt>
      <trkpt lat="43.16782" lon="2.5569">
        <ele>233.74</ele>
        <time>2020-02-09T12:02:48Z</time>
      </trkpt>
      <trkpt lat="43.16791" lon="2.55702">
        <ele>231.81</ele>
        <time>2020-02-09T12:02:52Z</time>
      </trkpt>
      <trkpt lat="43.16799" lon="2.55713">
        <ele>227.97</ele>
        <time>2020-02-09T12:02:56Z</time>
      </trkpt>
      <trkpt lat="43.16801" lon="2.55716">
        <ele>227.97</ele>
        <time>2020-02-09T12:02:57Z</time>
      </trkpt>
      <trkpt lat="43.16804" lon="2.55721">
        <ele>226.05</ele>
        <time>2020-02-09T12:02:59Z</time>
      </trkpt>
      <trkpt lat="43.16805" lon="2.5573">
        <ele>224.61</ele>
        <time>2020-02-09T12:03:12Z</time>
      </trkpt>
      <trkpt lat="43.16813" lon="2.5574">
        <ele>221.72</ele>
        <time>2020-02-09T12:03:22Z</time>
      </trkpt>
      <trkpt lat="43.16813" lon="2.55741">
        <ele>220.76</ele>
        <time>2020-02-09T12:03:24Z</time>
      </trkpt>
      <trkpt lat="43.16819" lon="2.55751">
        <ele>219.32</ele>
        <time>2020-02-09T12:03:35Z</time>
      </trkpt>
      <trkpt lat="43.1683" lon="2.55763">
        <ele>215.95</ele>
        <time>2020-02-09T12:03:40Z</time>
      </trkpt>
      <trkpt lat="43.16832" lon="2.55764">
        <ele>215.95</ele>
        <time>2020-02-09T12:03:41Z</time>
      </trkpt>
      <trkpt lat="43.16837" lon="2.55765">
        <ele>213.55</ele>
        <time>2020-02-09T12:03:53Z</time>
      </trkpt>
      <trkpt lat="43.16841" lon="2.55764">
        <ele>212.11</ele>
        <time>2020-02-09T12:04:01Z</time>
      </trkpt>
      <trkpt lat="43.16843" lon="2.55765">
        <ele>212.11</ele>
        <time>2020-02-09T12:04:02Z</time>
      </trkpt>
      <trkpt lat="43.16845" lon="2.55766">
        <ele>212.11</ele>
        <time>2020-02-09T12:04:03Z</time>
      </trkpt>
      <trkpt lat="43.16848" lon="2.55765">
        <ele>211.15</ele>
        <time>2020-02-09T12:04:04Z</time>
      </trkpt>
      <trkpt lat="43.16851" lon="2.55765">
        <ele>210.19</ele>
        <time>2020-02-09T12:04:05Z</time>
      </trkpt>
      <trkpt lat="43.16853" lon="2.55765">
        <ele>210.19</ele>
        <time>2020-02-09T12:04:06Z</time>
      </trkpt>
      <trkpt lat="43.16866" lon="2.55772">
        <ele>206.34</ele>
        <time>2020-02-09T12:04:13Z</time>
      </trkpt>
      <trkpt lat="43.16873" lon="2.55776">
        <ele>203.46</ele>
        <time>2020-02-09T12:04:24Z</time>
      </trkpt>
      <trkpt lat="43.16879" lon="2.55781">
        <ele>202.49</ele>
        <time>2020-02-09T12:04:34Z</time>
      </trkpt>
      <trkpt lat="43.16881" lon="2.55808">
        <ele>204.42</ele>
        <time>2020-02-09T12:04:49Z</time>
      </trkpt>
      <trkpt lat="43.16873" lon="2.55865">
        <ele>206.82</ele>
        <time>2020-02-09T12:05:09Z</time>
      </trkpt>
      <trkpt lat="43.16853" lon="2.55916">
        <ele>209.7</ele>
        <time>2020-02-09T12:05:31Z</time>
      </trkpt>
      <trkpt lat="43.16827" lon="2.55954">
        <ele>213.07</ele>
        <time>2020-02-09T12:05:49Z</time>
      </trkpt>
      <trkpt lat="43.16844" lon="2.5601">
        <ele>215.95</ele>
        <time>2020-02-09T12:06:08Z</time>
      </trkpt>
      <trkpt lat="43.16852" lon="2.56068">
        <ele>219.8</ele>
        <time>2020-02-09T12:06:27Z</time>
      </trkpt>
      <trkpt lat="43.16833" lon="2.56124">
        <ele>222.2</ele>
        <time>2020-02-09T12:06:46Z</time>
      </trkpt>
      <trkpt lat="43.16787" lon="2.56132">
        <ele>225.09</ele>
        <time>2020-02-09T12:07:07Z</time>
      </trkpt>
      <trkpt lat="43.16778" lon="2.56128">
        <ele>226.05</ele>
        <time>2020-02-09T12:07:11Z</time>
      </trkpt>
      <trkpt lat="43.16734" lon="2.56106">
        <ele>228.45</ele>
        <time>2020-02-09T12:07:31Z</time>
      </trkpt>
      <trkpt lat="43.1669" lon="2.56097">
        <ele>231.33</ele>
        <time>2020-02-09T12:07:52Z</time>
      </trkpt>
      <trkpt lat="43.16646" lon="2.56061">
        <ele>234.7</ele>
        <time>2020-02-09T12:08:16Z</time>
      </trkpt>
      <trkpt lat="43.16607" lon="2.5603">
        <ele>238.06</ele>
        <time>2020-02-09T12:08:36Z</time>
      </trkpt>
      <trkpt lat="43.16567" lon="2.56002">
        <ele>240.95</ele>
        <time>2020-02-09T12:08:57Z</time>
      </trkpt>
      <trkpt lat="43.16534" lon="2.55961">
        <ele>244.31</ele>
        <time>2020-02-09T12:09:18Z</time>
      </trkpt>
      <trkpt lat="43.16501" lon="2.55922">
        <ele>246.72</ele>
        <time>2020-02-09T12:09:39Z</time>
      </trkpt>
      <trkpt lat="43.16467" lon="2.5593">
        <ele>250.08</ele>
        <time>2020-02-09T12:09:54Z</time>
      </trkpt>
      <trkpt lat="43.16426" lon="2.55941">
        <ele>252</ele>
        <time>2020-02-09T12:10:14Z</time>
      </trkpt>
      <trkpt lat="43.16387" lon="2.55967">
        <ele>254.89</ele>
        <time>2020-02-09T12:10:34Z</time>
      </trkpt>
      <trkpt lat="43.16354" lon="2.56003">
        <ele>258.25</ele>
        <time>2020-02-09T12:10:54Z</time>
      </trkpt>
      <trkpt lat="43.16311" lon="2.56015">
        <ele>261.14</ele>
        <time>2020-02-09T12:11:13Z</time>
      </trkpt>
      <trkpt lat="43.16269" lon="2.5602">
        <ele>264.02</ele>
        <time>2020-02-09T12:11:31Z</time>
      </trkpt>
      <trkpt lat="43.16233" lon="2.56052">
        <ele>266.9</ele>
        <time>2020-02-09T12:11:51Z</time>
      </trkpt>
      <trkpt lat="43.162" lon="2.56075">
        <ele>270.27</ele>
        <time>2020-02-09T12:12:08Z</time>
      </trkpt>
      <trkpt lat="43.16167" lon="2.56097">
        <ele>273.15</ele>
        <time>2020-02-09T12:12:25Z</time>
      </trkpt>
      <trkpt lat="43.16168" lon="2.56152">
        <ele>277</ele>
        <time>2020-02-09T12:12:46Z</time>
      </trkpt>
      <trkpt lat="43.16195" lon="2.56152">
        <ele>279.88</ele>
        <time>2020-02-09T12:13:02Z</time>
      </trkpt>
      <trkpt lat="43.16215" lon="2.56159">
        <ele>282.28</ele>
        <time>2020-02-09T12:13:15Z</time>
      </trkpt>
      <trkpt lat="43.16216" lon="2.56161">
        <ele>282.28</ele>
        <time>2020-02-09T12:13:16Z</time>
      </trkpt>
      <trkpt lat="43.16216" lon="2.56163">
        <ele>282.77</ele>
        <time>2020-02-09T12:13:17Z</time>
      </trkpt>
      <trkpt lat="43.16216" lon="2.56165">
        <ele>282.28</ele>
        <time>2020-02-09T12:13:18Z</time>
      </trkpt>
      <trkpt lat="43.16216" lon="2.56167">
        <ele>283.25</ele>
        <time>2020-02-09T12:13:19Z</time>
      </trkpt>
      <trkpt lat="43.1621" lon="2.56177">
        <ele>284.21</ele>
        <time>2020-02-09T12:13:25Z</time>
      </trkpt>
      <trkpt lat="43.16208" lon="2.56178">
        <ele>284.69</ele>
        <time>2020-02-09T12:13:26Z</time>
      </trkpt>
      <trkpt lat="43.16207" lon="2.56179">
        <ele>284.69</ele>
        <time>2020-02-09T12:13:27Z</time>
      </trkpt>
      <trkpt lat="43.16205" lon="2.5618">
        <ele>284.69</ele>
        <time>2020-02-09T12:13:28Z</time>
      </trkpt>
      <trkpt lat="43.16204" lon="2.56181">
        <ele>285.17</ele>
        <time>2020-02-09T12:13:29Z</time>
      </trkpt>
      <trkpt lat="43.16202" lon="2.56181">
        <ele>285.17</ele>
        <time>2020-02-09T12:13:30Z</time>
      </trkpt>
      <trkpt lat="43.16169" lon="2.56195">
        <ele>288.53</ele>
        <time>2020-02-09T12:13:52Z</time>
      </trkpt>
      <trkpt lat="43.16139" lon="2.56205">
        <ele>291.42</ele>
        <time>2020-02-09T12:14:12Z</time>
      </trkpt>
      <trkpt lat="43.16116" lon="2.56208">
        <ele>294.78</ele>
        <time>2020-02-09T12:14:26Z</time>
      </trkpt>
      <trkpt lat="43.16066" lon="2.5621">
        <ele>296.22</ele>
        <time>2020-02-09T12:14:51Z</time>
      </trkpt>
      <trkpt lat="43.1603" lon="2.5623">
        <ele>299.59</ele>
        <time>2020-02-09T12:15:10Z</time>
      </trkpt>
      <trkpt lat="43.16" lon="2.56242">
        <ele>302.95</ele>
        <time>2020-02-09T12:15:28Z</time>
      </trkpt>
      <trkpt lat="43.15967" lon="2.56206">
        <ele>305.84</ele>
        <time>2020-02-09T12:15:53Z</time>
      </trkpt>
      <trkpt lat="43.1594" lon="2.5622">
        <ele>309.2</ele>
        <time>2020-02-09T12:16:12Z</time>
      </trkpt>
      <trkpt lat="43.1592" lon="2.56272">
        <ele>311.6</ele>
        <time>2020-02-09T12:16:36Z</time>
      </trkpt>
      <trkpt lat="43.15904" lon="2.56311">
        <ele>314.97</ele>
        <time>2020-02-09T12:16:54Z</time>
      </trkpt>
      <trkpt lat="43.1588" lon="2.56363">
        <ele>317.85</ele>
        <time>2020-02-09T12:17:19Z</time>
      </trkpt>
      <trkpt lat="43.1586" lon="2.56416">
        <ele>320.26</ele>
        <time>2020-02-09T12:17:45Z</time>
      </trkpt>
      <trkpt lat="43.15844" lon="2.5645">
        <ele>323.62</ele>
        <time>2020-02-09T12:18:02Z</time>
      </trkpt>
      <trkpt lat="43.15814" lon="2.56497">
        <ele>325.54</ele>
        <time>2020-02-09T12:18:28Z</time>
      </trkpt>
      <trkpt lat="43.1578" lon="2.56539">
        <ele>326.99</ele>
        <time>2020-02-09T12:18:51Z</time>
      </trkpt>
      <trkpt lat="43.15777" lon="2.56545">
        <ele>326.5</ele>
        <time>2020-02-09T12:18:53Z</time>
      </trkpt>
      <trkpt lat="43.15777" lon="2.56549">
        <ele>325.54</ele>
        <time>2020-02-09T12:18:54Z</time>
      </trkpt>
      <trkpt lat="43.1577" lon="2.56564">
        <ele>317.85</ele>
        <time>2020-02-09T12:54:23Z</time>
      </trkpt>
      <trkpt lat="43.15768" lon="2.56565">
        <ele>318.33</ele>
        <time>2020-02-09T12:54:24Z</time>
      </trkpt>
      <trkpt lat="43.15766" lon="2.56566">
        <ele>318.81</ele>
        <time>2020-02-09T12:54:25Z</time>
      </trkpt>
      <trkpt lat="43.15764" lon="2.56568">
        <ele>318.81</ele>
        <time>2020-02-09T12:54:26Z</time>
      </trkpt>
      <trkpt lat="43.15763" lon="2.56571">
        <ele>318.81</ele>
        <time>2020-02-09T12:54:27Z</time>
      </trkpt>
      <trkpt lat="43.15762" lon="2.56574">
        <ele>318.81</ele>
        <time>2020-02-09T12:54:28Z</time>
      </trkpt>
      <trkpt lat="43.15761" lon="2.56577">
        <ele>318.33</ele>
        <time>2020-02-09T12:54:29Z</time>
      </trkpt>
      <trkpt lat="43.15761" lon="2.5658">
        <ele>317.37</ele>
        <time>2020-02-09T12:54:30Z</time>
      </trkpt>
      <trkpt lat="43.15761" lon="2.56583">
        <ele>318.33</ele>
        <time>2020-02-09T12:54:31Z</time>
      </trkpt>
      <trkpt lat="43.15762" lon="2.56586">
        <ele>318.33</ele>
        <time>2020-02-09T12:54:32Z</time>
      </trkpt>
      <trkpt lat="43.15763" lon="2.56589">
        <ele>318.81</ele>
        <time>2020-02-09T12:54:33Z</time>
      </trkpt>
      <trkpt lat="43.15764" lon="2.56592">
        <ele>318.33</ele>
        <time>2020-02-09T12:54:34Z</time>
      </trkpt>
      <trkpt lat="43.15767" lon="2.56599">
        <ele>319.78</ele>
        <time>2020-02-09T12:54:37Z</time>
      </trkpt>
      <trkpt lat="43.15778" lon="2.56625">
        <ele>322.66</ele>
        <time>2020-02-09T12:54:48Z</time>
      </trkpt>
      <trkpt lat="43.15785" lon="2.56642">
        <ele>322.18</ele>
        <time>2020-02-09T12:54:55Z</time>
      </trkpt>
      <trkpt lat="43.15799" lon="2.56658">
        <ele>325.06</ele>
        <time>2020-02-09T12:55:04Z</time>
      </trkpt>
      <trkpt lat="43.15822" lon="2.56683">
        <ele>328.43</ele>
        <time>2020-02-09T12:55:23Z</time>
      </trkpt>
      <trkpt lat="43.15822" lon="2.56685">
        <ele>327.95</ele>
        <time>2020-02-09T12:55:24Z</time>
      </trkpt>
      <trkpt lat="43.15823" lon="2.56687">
        <ele>328.43</ele>
        <time>2020-02-09T12:55:25Z</time>
      </trkpt>
      <trkpt lat="43.15824" lon="2.5669">
        <ele>328.43</ele>
        <time>2020-02-09T12:55:26Z</time>
      </trkpt>
      <trkpt lat="43.15825" lon="2.56692">
        <ele>328.91</ele>
        <time>2020-02-09T12:55:27Z</time>
      </trkpt>
      <trkpt lat="43.15826" lon="2.56695">
        <ele>328.91</ele>
        <time>2020-02-09T12:55:28Z</time>
      </trkpt>
      <trkpt lat="43.15826" lon="2.56697">
        <ele>328.91</ele>
        <time>2020-02-09T12:55:29Z</time>
      </trkpt>
      <trkpt lat="43.15827" lon="2.56699">
        <ele>328.91</ele>
        <time>2020-02-09T12:55:30Z</time>
      </trkpt>
      <trkpt lat="43.15839" lon="2.56739">
        <ele>330.35</ele>
        <time>2020-02-09T12:55:52Z</time>
      </trkpt>
      <trkpt lat="43.15839" lon="2.56741">
        <ele>329.39</ele>
        <time>2020-02-09T12:56:10Z</time>
      </trkpt>
      <trkpt lat="43.15836" lon="2.56741">
        <ele>330.83</ele>
        <time>2020-02-09T12:56:48Z</time>
      </trkpt>
      <trkpt lat="43.1584" lon="2.5674">
        <ele>330.35</ele>
        <time>2020-02-09T12:57:20Z</time>
      </trkpt>
      <trkpt lat="43.15839" lon="2.56742">
        <ele>330.35</ele>
        <time>2020-02-09T12:57:46Z</time>
      </trkpt>
      <trkpt lat="43.15838" lon="2.5674">
        <ele>330.83</ele>
        <time>2020-02-09T12:58:44Z</time>
      </trkpt>
      <trkpt lat="43.1584" lon="2.56742">
        <ele>331.79</ele>
        <time>2020-02-09T12:59:31Z</time>
      </trkpt>
      <trkpt lat="43.15839" lon="2.56742">
        <ele>332.75</ele>
        <time>2020-02-09T13:00:48Z</time>
      </trkpt>
      <trkpt lat="43.15852" lon="2.56782">
        <ele>333.71</ele>
        <time>2020-02-09T13:01:07Z</time>
      </trkpt>
      <trkpt lat="43.15866" lon="2.56829">
        <ele>332.75</ele>
        <time>2020-02-09T13:01:19Z</time>
      </trkpt>
      <trkpt lat="43.15865" lon="2.56833">
        <ele>332.75</ele>
        <time>2020-02-09T13:01:20Z</time>
      </trkpt>
      <trkpt lat="43.15863" lon="2.56837">
        <ele>333.23</ele>
        <time>2020-02-09T13:01:21Z</time>
      </trkpt>
      <trkpt lat="43.15861" lon="2.56842">
        <ele>332.27</ele>
        <time>2020-02-09T13:01:22Z</time>
      </trkpt>
      <trkpt lat="43.15859" lon="2.56846">
        <ele>331.31</ele>
        <time>2020-02-09T13:01:23Z</time>
      </trkpt>
      <trkpt lat="43.15857" lon="2.56851">
        <ele>330.83</ele>
        <time>2020-02-09T13:01:24Z</time>
      </trkpt>
      <trkpt lat="43.15856" lon="2.56855">
        <ele>329.87</ele>
        <time>2020-02-09T13:01:25Z</time>
      </trkpt>
      <trkpt lat="43.15854" lon="2.56859">
        <ele>330.35</ele>
        <time>2020-02-09T13:01:26Z</time>
      </trkpt>
      <trkpt lat="43.15852" lon="2.56863">
        <ele>328.91</ele>
        <time>2020-02-09T13:01:27Z</time>
      </trkpt>
      <trkpt lat="43.1585" lon="2.56868">
        <ele>329.87</ele>
        <time>2020-02-09T13:01:28Z</time>
      </trkpt>
      <trkpt lat="43.15849" lon="2.56873">
        <ele>330.35</ele>
        <time>2020-02-09T13:01:29Z</time>
      </trkpt>
      <trkpt lat="43.15848" lon="2.56878">
        <ele>329.87</ele>
        <time>2020-02-09T13:01:30Z</time>
      </trkpt>
      <trkpt lat="43.15845" lon="2.56882">
        <ele>329.87</ele>
        <time>2020-02-09T13:01:31Z</time>
      </trkpt>
      <trkpt lat="43.15842" lon="2.56885">
        <ele>328.43</ele>
        <time>2020-02-09T13:01:32Z</time>
      </trkpt>
      <trkpt lat="43.15838" lon="2.56887">
        <ele>327.95</ele>
        <time>2020-02-09T13:01:33Z</time>
      </trkpt>
      <trkpt lat="43.15834" lon="2.56888">
        <ele>327.95</ele>
        <time>2020-02-09T13:01:34Z</time>
      </trkpt>
      <trkpt lat="43.1583" lon="2.56888">
        <ele>327.47</ele>
        <time>2020-02-09T13:01:35Z</time>
      </trkpt>
      <trkpt lat="43.15817" lon="2.56897">
        <ele>326.5</ele>
        <time>2020-02-09T13:01:39Z</time>
      </trkpt>
      <trkpt lat="43.15816" lon="2.56902">
        <ele>326.02</ele>
        <time>2020-02-09T13:01:40Z</time>
      </trkpt>
      <trkpt lat="43.15817" lon="2.56928">
        <ele>324.1</ele>
        <time>2020-02-09T13:01:45Z</time>
      </trkpt>
      <trkpt lat="43.1582" lon="2.56938">
        <ele>324.1</ele>
        <time>2020-02-09T13:01:47Z</time>
      </trkpt>
      <trkpt lat="43.15821" lon="2.56944">
        <ele>323.14</ele>
        <time>2020-02-09T13:01:48Z</time>
      </trkpt>
      <trkpt lat="43.15822" lon="2.5695">
        <ele>322.66</ele>
        <time>2020-02-09T13:01:49Z</time>
      </trkpt>
      <trkpt lat="43.15823" lon="2.56957">
        <ele>322.66</ele>
        <time>2020-02-09T13:01:50Z</time>
      </trkpt>
      <trkpt lat="43.15825" lon="2.56963">
        <ele>321.7</ele>
        <time>2020-02-09T13:01:51Z</time>
      </trkpt>
      <trkpt lat="43.15825" lon="2.56968">
        <ele>321.22</ele>
        <time>2020-02-09T13:01:52Z</time>
      </trkpt>
      <trkpt lat="43.15826" lon="2.56974">
        <ele>320.74</ele>
        <time>2020-02-09T13:01:53Z</time>
      </trkpt>
      <trkpt lat="43.15827" lon="2.5698">
        <ele>320.26</ele>
        <time>2020-02-09T13:01:54Z</time>
      </trkpt>
      <trkpt lat="43.15827" lon="2.56986">
        <ele>320.26</ele>
        <time>2020-02-09T13:01:55Z</time>
      </trkpt>
      <trkpt lat="43.15827" lon="2.56991">
        <ele>319.3</ele>
        <time>2020-02-09T13:01:56Z</time>
      </trkpt>
      <trkpt lat="43.15827" lon="2.56996">
        <ele>318.33</ele>
        <time>2020-02-09T13:01:57Z</time>
      </trkpt>
      <trkpt lat="43.15826" lon="2.57">
        <ele>316.89</ele>
        <time>2020-02-09T13:01:58Z</time>
      </trkpt>
      <trkpt lat="43.15825" lon="2.57003">
        <ele>317.37</ele>
        <time>2020-02-09T13:01:59Z</time>
      </trkpt>
      <trkpt lat="43.15823" lon="2.57007">
        <ele>317.37</ele>
        <time>2020-02-09T13:02:00Z</time>
      </trkpt>
      <trkpt lat="43.15812" lon="2.57025">
        <ele>315.93</ele>
        <time>2020-02-09T13:02:04Z</time>
      </trkpt>
      <trkpt lat="43.15809" lon="2.57029">
        <ele>315.45</ele>
        <time>2020-02-09T13:02:05Z</time>
      </trkpt>
      <trkpt lat="43.15804" lon="2.57033">
        <ele>314.49</ele>
        <time>2020-02-09T13:02:06Z</time>
      </trkpt>
      <trkpt lat="43.158" lon="2.57036">
        <ele>314.49</ele>
        <time>2020-02-09T13:02:07Z</time>
      </trkpt>
      <trkpt lat="43.15794" lon="2.57038">
        <ele>314.01</ele>
        <time>2020-02-09T13:02:08Z</time>
      </trkpt>
      <trkpt lat="43.15788" lon="2.57039">
        <ele>314.01</ele>
        <time>2020-02-09T13:02:09Z</time>
      </trkpt>
      <trkpt lat="43.15782" lon="2.5704">
        <ele>313.05</ele>
        <time>2020-02-09T13:02:10Z</time>
      </trkpt>
      <trkpt lat="43.15776" lon="2.57042">
        <ele>313.05</ele>
        <time>2020-02-09T13:02:11Z</time>
      </trkpt>
      <trkpt lat="43.15771" lon="2.57045">
        <ele>313.05</ele>
        <time>2020-02-09T13:02:12Z</time>
      </trkpt>
      <trkpt lat="43.15767" lon="2.57048">
        <ele>312.57</ele>
        <time>2020-02-09T13:02:13Z</time>
      </trkpt>
      <trkpt lat="43.1576" lon="2.57054">
        <ele>311.6</ele>
        <time>2020-02-09T13:02:15Z</time>
      </trkpt>
      <trkpt lat="43.15747" lon="2.57068">
        <ele>308.72</ele>
        <time>2020-02-09T13:02:20Z</time>
      </trkpt>
      <trkpt lat="43.15746" lon="2.57072">
        <ele>308.72</ele>
        <time>2020-02-09T13:02:21Z</time>
      </trkpt>
      <trkpt lat="43.15748" lon="2.57075">
        <ele>308.72</ele>
        <time>2020-02-09T13:02:22Z</time>
      </trkpt>
      <trkpt lat="43.1575" lon="2.57078">
        <ele>308.24</ele>
        <time>2020-02-09T13:02:23Z</time>
      </trkpt>
      <trkpt lat="43.15752" lon="2.57082">
        <ele>308.72</ele>
        <time>2020-02-09T13:02:24Z</time>
      </trkpt>
      <trkpt lat="43.15754" lon="2.57085">
        <ele>308.72</ele>
        <time>2020-02-09T13:02:25Z</time>
      </trkpt>
      <trkpt lat="43.15756" lon="2.57088">
        <ele>308.72</ele>
        <time>2020-02-09T13:02:26Z</time>
      </trkpt>
      <trkpt lat="43.15758" lon="2.57092">
        <ele>309.2</ele>
        <time>2020-02-09T13:02:27Z</time>
      </trkpt>
      <trkpt lat="43.15761" lon="2.57095">
        <ele>309.2</ele>
        <time>2020-02-09T13:02:28Z</time>
      </trkpt>
      <trkpt lat="43.15769" lon="2.57109">
        <ele>308.72</ele>
        <time>2020-02-09T13:02:31Z</time>
      </trkpt>
      <trkpt lat="43.15775" lon="2.57126">
        <ele>308.24</ele>
        <time>2020-02-09T13:02:34Z</time>
      </trkpt>
      <trkpt lat="43.15777" lon="2.57132">
        <ele>307.76</ele>
        <time>2020-02-09T13:02:35Z</time>
      </trkpt>
      <trkpt lat="43.15777" lon="2.57139">
        <ele>307.76</ele>
        <time>2020-02-09T13:02:36Z</time>
      </trkpt>
      <trkpt lat="43.15777" lon="2.57146">
        <ele>307.76</ele>
        <time>2020-02-09T13:02:37Z</time>
      </trkpt>
      <trkpt lat="43.15777" lon="2.57154">
        <ele>306.8</ele>
        <time>2020-02-09T13:02:38Z</time>
      </trkpt>
      <trkpt lat="43.15778" lon="2.57161">
        <ele>307.76</ele>
        <time>2020-02-09T13:02:39Z</time>
      </trkpt>
      <trkpt lat="43.15779" lon="2.57168">
        <ele>307.28</ele>
        <time>2020-02-09T13:02:40Z</time>
      </trkpt>
      <trkpt lat="43.1578" lon="2.57175">
        <ele>307.28</ele>
        <time>2020-02-09T13:02:41Z</time>
      </trkpt>
      <trkpt lat="43.15782" lon="2.57183">
        <ele>305.84</ele>
        <time>2020-02-09T13:02:42Z</time>
      </trkpt>
      <trkpt lat="43.15784" lon="2.5719">
        <ele>305.36</ele>
        <time>2020-02-09T13:02:43Z</time>
      </trkpt>
      <trkpt lat="43.15785" lon="2.57197">
        <ele>304.88</ele>
        <time>2020-02-09T13:02:44Z</time>
      </trkpt>
      <trkpt lat="43.15785" lon="2.57205">
        <ele>304.39</ele>
        <time>2020-02-09T13:02:45Z</time>
      </trkpt>
      <trkpt lat="43.15791" lon="2.5725">
        <ele>303.91</ele>
        <time>2020-02-09T13:02:51Z</time>
      </trkpt>
      <trkpt lat="43.15792" lon="2.57256">
        <ele>302.47</ele>
        <time>2020-02-09T13:02:52Z</time>
      </trkpt>
      <trkpt lat="43.15794" lon="2.57264">
        <ele>301.99</ele>
        <time>2020-02-09T13:02:53Z</time>
      </trkpt>
      <trkpt lat="43.15813" lon="2.57323">
        <ele>297.67</ele>
        <time>2020-02-09T13:03:00Z</time>
      </trkpt>
      <trkpt lat="43.15815" lon="2.57333">
        <ele>297.67</ele>
        <time>2020-02-09T13:03:01Z</time>
      </trkpt>
      <trkpt lat="43.15847" lon="2.57441">
        <ele>293.82</ele>
        <time>2020-02-09T13:03:12Z</time>
      </trkpt>
      <trkpt lat="43.15853" lon="2.57461">
        <ele>292.86</ele>
        <time>2020-02-09T13:03:14Z</time>
      </trkpt>
      <trkpt lat="43.15862" lon="2.57489">
        <ele>291.42</ele>
        <time>2020-02-09T13:03:17Z</time>
      </trkpt>
      <trkpt lat="43.15865" lon="2.57495">
        <ele>290.94</ele>
        <time>2020-02-09T13:03:18Z</time>
      </trkpt>
      <trkpt lat="43.15868" lon="2.57499">
        <ele>289.97</ele>
        <time>2020-02-09T13:03:19Z</time>
      </trkpt>
      <trkpt lat="43.15872" lon="2.57503">
        <ele>287.57</ele>
        <time>2020-02-09T13:03:20Z</time>
      </trkpt>
      <trkpt lat="43.15877" lon="2.57506">
        <ele>287.09</ele>
        <time>2020-02-09T13:03:21Z</time>
      </trkpt>
      <trkpt lat="43.15881" lon="2.5751">
        <ele>287.57</ele>
        <time>2020-02-09T13:03:22Z</time>
      </trkpt>
      <trkpt lat="43.15885" lon="2.57516">
        <ele>287.57</ele>
        <time>2020-02-09T13:03:23Z</time>
      </trkpt>
      <trkpt lat="43.15889" lon="2.57521">
        <ele>287.57</ele>
        <time>2020-02-09T13:03:24Z</time>
      </trkpt>
      <trkpt lat="43.15892" lon="2.57527">
        <ele>286.61</ele>
        <time>2020-02-09T13:03:25Z</time>
      </trkpt>
      <trkpt lat="43.15903" lon="2.57545">
        <ele>283.25</ele>
        <time>2020-02-09T13:03:29Z</time>
      </trkpt>
      <trkpt lat="43.15903" lon="2.57547">
        <ele>282.77</ele>
        <time>2020-02-09T13:03:31Z</time>
      </trkpt>
      <trkpt lat="43.15902" lon="2.57546">
        <ele>282.28</ele>
        <time>2020-02-09T13:03:52Z</time>
      </trkpt>
      <trkpt lat="43.15902" lon="2.57547">
        <ele>282.77</ele>
        <time>2020-02-09T13:05:01Z</time>
      </trkpt>
      <trkpt lat="43.15909" lon="2.57556">
        <ele>283.25</ele>
        <time>2020-02-09T13:05:30Z</time>
      </trkpt>
      <trkpt lat="43.15917" lon="2.57569">
        <ele>282.28</ele>
        <time>2020-02-09T13:05:33Z</time>
      </trkpt>
      <trkpt lat="43.1592" lon="2.57574">
        <ele>281.8</ele>
        <time>2020-02-09T13:05:34Z</time>
      </trkpt>
      <trkpt lat="43.15923" lon="2.5758">
        <ele>282.77</ele>
        <time>2020-02-09T13:05:35Z</time>
      </trkpt>
      <trkpt lat="43.15925" lon="2.57588">
        <ele>282.77</ele>
        <time>2020-02-09T13:05:36Z</time>
      </trkpt>
      <trkpt lat="43.15926" lon="2.57596">
        <ele>282.77</ele>
        <time>2020-02-09T13:05:37Z</time>
      </trkpt>
      <trkpt lat="43.15925" lon="2.57604">
        <ele>281.8</ele>
        <time>2020-02-09T13:05:38Z</time>
      </trkpt>
      <trkpt lat="43.15923" lon="2.57612">
        <ele>280.84</ele>
        <time>2020-02-09T13:05:39Z</time>
      </trkpt>
      <trkpt lat="43.1592" lon="2.57621">
        <ele>280.36</ele>
        <time>2020-02-09T13:05:40Z</time>
      </trkpt>
      <trkpt lat="43.15917" lon="2.57629">
        <ele>279.4</ele>
        <time>2020-02-09T13:05:41Z</time>
      </trkpt>
      <trkpt lat="43.15913" lon="2.57637">
        <ele>279.4</ele>
        <time>2020-02-09T13:05:42Z</time>
      </trkpt>
      <trkpt lat="43.1591" lon="2.57647">
        <ele>279.4</ele>
        <time>2020-02-09T13:05:43Z</time>
      </trkpt>
      <trkpt lat="43.15909" lon="2.57656">
        <ele>279.88</ele>
        <time>2020-02-09T13:05:44Z</time>
      </trkpt>
      <trkpt lat="43.15909" lon="2.57666">
        <ele>279.4</ele>
        <time>2020-02-09T13:05:45Z</time>
      </trkpt>
      <trkpt lat="43.15911" lon="2.57675">
        <ele>280.84</ele>
        <time>2020-02-09T13:05:46Z</time>
      </trkpt>
      <trkpt lat="43.15913" lon="2.57683">
        <ele>279.88</ele>
        <time>2020-02-09T13:05:47Z</time>
      </trkpt>
      <trkpt lat="43.15916" lon="2.57692">
        <ele>278.92</ele>
        <time>2020-02-09T13:05:48Z</time>
      </trkpt>
      <trkpt lat="43.15925" lon="2.57725">
        <ele>277.96</ele>
        <time>2020-02-09T13:05:52Z</time>
      </trkpt>
      <trkpt lat="43.15937" lon="2.5776">
        <ele>275.07</ele>
        <time>2020-02-09T13:05:56Z</time>
      </trkpt>
      <trkpt lat="43.15945" lon="2.57782">
        <ele>273.63</ele>
        <time>2020-02-09T13:05:58Z</time>
      </trkpt>
      <trkpt lat="43.15962" lon="2.57829">
        <ele>269.79</ele>
        <time>2020-02-09T13:06:02Z</time>
      </trkpt>
      <trkpt lat="43.15969" lon="2.57848">
        <ele>266.42</ele>
        <time>2020-02-09T13:06:04Z</time>
      </trkpt>
      <trkpt lat="43.15973" lon="2.57854">
        <ele>266.42</ele>
        <time>2020-02-09T13:06:05Z</time>
      </trkpt>
      <trkpt lat="43.15988" lon="2.5787">
        <ele>264.5</ele>
        <time>2020-02-09T13:06:08Z</time>
      </trkpt>
      <trkpt lat="43.16005" lon="2.57891">
        <ele>261.14</ele>
        <time>2020-02-09T13:06:11Z</time>
      </trkpt>
      <trkpt lat="43.16015" lon="2.57902">
        <ele>258.25</ele>
        <time>2020-02-09T13:06:13Z</time>
      </trkpt>
      <trkpt lat="43.16021" lon="2.5791">
        <ele>254.89</ele>
        <time>2020-02-09T13:06:15Z</time>
      </trkpt>
      <trkpt lat="43.16021" lon="2.57913">
        <ele>254.89</ele>
        <time>2020-02-09T13:06:16Z</time>
      </trkpt>
      <trkpt lat="43.16019" lon="2.57917">
        <ele>254.41</ele>
        <time>2020-02-09T13:06:17Z</time>
      </trkpt>
      <trkpt lat="43.16017" lon="2.57919">
        <ele>254.41</ele>
        <time>2020-02-09T13:06:18Z</time>
      </trkpt>
      <trkpt lat="43.16015" lon="2.57921">
        <ele>254.41</ele>
        <time>2020-02-09T13:06:19Z</time>
      </trkpt>
      <trkpt lat="43.16012" lon="2.57922">
        <ele>254.89</ele>
        <time>2020-02-09T13:06:20Z</time>
      </trkpt>
      <trkpt lat="43.15994" lon="2.57943">
        <ele>258.25</ele>
        <time>2020-02-09T13:06:30Z</time>
      </trkpt>
      <trkpt lat="43.15993" lon="2.57945">
        <ele>258.25</ele>
        <time>2020-02-09T13:06:31Z</time>
      </trkpt>
      <trkpt lat="43.15964" lon="2.57958">
        <ele>261.62</ele>
        <time>2020-02-09T13:06:46Z</time>
      </trkpt>
      <trkpt lat="43.15937" lon="2.57959">
        <ele>264.98</ele>
        <time>2020-02-09T13:07:04Z</time>
      </trkpt>
      <trkpt lat="43.15906" lon="2.57945">
        <ele>268.35</ele>
        <time>2020-02-09T13:07:26Z</time>
      </trkpt>
      <trkpt lat="43.15905" lon="2.57944">
        <ele>268.83</ele>
        <time>2020-02-09T13:07:27Z</time>
      </trkpt>
      <trkpt lat="43.15876" lon="2.5792">
        <ele>271.71</ele>
        <time>2020-02-09T13:07:48Z</time>
      </trkpt>
      <trkpt lat="43.15829" lon="2.5791">
        <ele>275.07</ele>
        <time>2020-02-09T13:08:12Z</time>
      </trkpt>
      <trkpt lat="43.15795" lon="2.57925">
        <ele>277.96</ele>
        <time>2020-02-09T13:08:34Z</time>
      </trkpt>
      <trkpt lat="43.15773" lon="2.57949">
        <ele>281.32</ele>
        <time>2020-02-09T13:08:51Z</time>
      </trkpt>
      <trkpt lat="43.15739" lon="2.57976">
        <ele>284.69</ele>
        <time>2020-02-09T13:09:13Z</time>
      </trkpt>
      <trkpt lat="43.15702" lon="2.57989">
        <ele>288.05</ele>
        <time>2020-02-09T13:09:34Z</time>
      </trkpt>
      <trkpt lat="43.15676" lon="2.57994">
        <ele>291.42</ele>
        <time>2020-02-09T13:09:48Z</time>
      </trkpt>
      <trkpt lat="43.15651" lon="2.58014">
        <ele>294.3</ele>
        <time>2020-02-09T13:10:05Z</time>
      </trkpt>
      <trkpt lat="43.15634" lon="2.58037">
        <ele>297.67</ele>
        <time>2020-02-09T13:10:20Z</time>
      </trkpt>
      <trkpt lat="43.15623" lon="2.58088">
        <ele>298.15</ele>
        <time>2020-02-09T13:10:39Z</time>
      </trkpt>
      <trkpt lat="43.15625" lon="2.58137">
        <ele>298.63</ele>
        <time>2020-02-09T13:10:52Z</time>
      </trkpt>
      <trkpt lat="43.15625" lon="2.58176">
        <ele>301.03</ele>
        <time>2020-02-09T13:11:05Z</time>
      </trkpt>
      <trkpt lat="43.15609" lon="2.58187">
        <ele>302.95</ele>
        <time>2020-02-09T13:11:16Z</time>
      </trkpt>
      <trkpt lat="43.15588" lon="2.58193">
        <ele>306.32</ele>
        <time>2020-02-09T13:11:31Z</time>
      </trkpt>
      <trkpt lat="43.15573" lon="2.58196">
        <ele>309.68</ele>
        <time>2020-02-09T13:11:42Z</time>
      </trkpt>
      <trkpt lat="43.15564" lon="2.58198">
        <ele>310.16</ele>
        <time>2020-02-09T13:12:01Z</time>
      </trkpt>
      <trkpt lat="43.15562" lon="2.58199">
        <ele>310.64</ele>
        <time>2020-02-09T13:12:24Z</time>
      </trkpt>
      <trkpt lat="43.1556" lon="2.58198">
        <ele>309.68</ele>
        <time>2020-02-09T13:12:25Z</time>
      </trkpt>
      <trkpt lat="43.15559" lon="2.58197">
        <ele>309.68</ele>
        <time>2020-02-09T13:12:26Z</time>
      </trkpt>
      <trkpt lat="43.15558" lon="2.58195">
        <ele>309.68</ele>
        <time>2020-02-09T13:12:27Z</time>
      </trkpt>
      <trkpt lat="43.15557" lon="2.58194">
        <ele>310.16</ele>
        <time>2020-02-09T13:12:28Z</time>
      </trkpt>
      <trkpt lat="43.15519" lon="2.58147">
        <ele>312.09</ele>
        <time>2020-02-09T13:12:47Z</time>
      </trkpt>
      <trkpt lat="43.1547" lon="2.5809">
        <ele>314.97</ele>
        <time>2020-02-09T13:13:10Z</time>
      </trkpt>
      <trkpt lat="43.15433" lon="2.58029">
        <ele>317.37</ele>
        <time>2020-02-09T13:13:30Z</time>
      </trkpt>
      <trkpt lat="43.15389" lon="2.57991">
        <ele>319.78</ele>
        <time>2020-02-09T13:13:50Z</time>
      </trkpt>
      <trkpt lat="43.15324" lon="2.57954">
        <ele>323.14</ele>
        <time>2020-02-09T13:14:15Z</time>
      </trkpt>
      <trkpt lat="43.15275" lon="2.57936">
        <ele>321.7</ele>
        <time>2020-02-09T13:14:30Z</time>
      </trkpt>
      <trkpt lat="43.15271" lon="2.57934">
        <ele>321.22</ele>
        <time>2020-02-09T13:14:31Z</time>
      </trkpt>
      <trkpt lat="43.15262" lon="2.57932">
        <ele>320.74</ele>
        <time>2020-02-09T13:14:33Z</time>
      </trkpt>
      <trkpt lat="43.15242" lon="2.57932">
        <ele>319.78</ele>
        <time>2020-02-09T13:14:37Z</time>
      </trkpt>
      <trkpt lat="43.15231" lon="2.57931">
        <ele>318.81</ele>
        <time>2020-02-09T13:14:39Z</time>
      </trkpt>
      <trkpt lat="43.15227" lon="2.57928">
        <ele>317.85</ele>
        <time>2020-02-09T13:14:40Z</time>
      </trkpt>
      <trkpt lat="43.15191" lon="2.57896">
        <ele>314.49</ele>
        <time>2020-02-09T13:14:48Z</time>
      </trkpt>
      <trkpt lat="43.15176" lon="2.57878">
        <ele>313.05</ele>
        <time>2020-02-09T13:14:51Z</time>
      </trkpt>
      <trkpt lat="43.1516" lon="2.57849">
        <ele>311.6</ele>
        <time>2020-02-09T13:14:55Z</time>
      </trkpt>
      <trkpt lat="43.15159" lon="2.57841">
        <ele>311.6</ele>
        <time>2020-02-09T13:14:56Z</time>
      </trkpt>
      <trkpt lat="43.1516" lon="2.57833">
        <ele>311.12</ele>
        <time>2020-02-09T13:14:57Z</time>
      </trkpt>
      <trkpt lat="43.15162" lon="2.57816">
        <ele>310.16</ele>
        <time>2020-02-09T13:14:59Z</time>
      </trkpt>
      <trkpt lat="43.15162" lon="2.57807">
        <ele>310.16</ele>
        <time>2020-02-09T13:15:00Z</time>
      </trkpt>
      <trkpt lat="43.15159" lon="2.57789">
        <ele>309.2</ele>
        <time>2020-02-09T13:15:02Z</time>
      </trkpt>
      <trkpt lat="43.15155" lon="2.57782">
        <ele>309.2</ele>
        <time>2020-02-09T13:15:03Z</time>
      </trkpt>
      <trkpt lat="43.15149" lon="2.57777">
        <ele>309.2</ele>
        <time>2020-02-09T13:15:04Z</time>
      </trkpt>
      <trkpt lat="43.15142" lon="2.57774">
        <ele>309.2</ele>
        <time>2020-02-09T13:15:05Z</time>
      </trkpt>
      <trkpt lat="43.15135" lon="2.57774">
        <ele>308.72</ele>
        <time>2020-02-09T13:15:06Z</time>
      </trkpt>
      <trkpt lat="43.15129" lon="2.57775">
        <ele>306.8</ele>
        <time>2020-02-09T13:15:07Z</time>
      </trkpt>
      <trkpt lat="43.15124" lon="2.57776">
        <ele>305.84</ele>
        <time>2020-02-09T13:15:08Z</time>
      </trkpt>
      <trkpt lat="43.1512" lon="2.5778">
        <ele>304.88</ele>
        <time>2020-02-09T13:15:09Z</time>
      </trkpt>
      <trkpt lat="43.15118" lon="2.57785">
        <ele>304.39</ele>
        <time>2020-02-09T13:15:10Z</time>
      </trkpt>
      <trkpt lat="43.15115" lon="2.57791">
        <ele>304.39</ele>
        <time>2020-02-09T13:15:11Z</time>
      </trkpt>
      <trkpt lat="43.15103" lon="2.5783">
        <ele>303.43</ele>
        <time>2020-02-09T13:15:17Z</time>
      </trkpt>
      <trkpt lat="43.151" lon="2.57836">
        <ele>302.47</ele>
        <time>2020-02-09T13:15:18Z</time>
      </trkpt>
      <trkpt lat="43.15093" lon="2.57848">
        <ele>301.03</ele>
        <time>2020-02-09T13:15:29Z</time>
      </trkpt>
      <trkpt lat="43.1508" lon="2.57874">
        <ele>300.55</ele>
        <time>2020-02-09T13:15:44Z</time>
      </trkpt>
      <trkpt lat="43.15074" lon="2.57887">
        <ele>298.15</ele>
        <time>2020-02-09T13:15:49Z</time>
      </trkpt>
      <trkpt lat="43.15056" lon="2.57915">
        <ele>296.7</ele>
        <time>2020-02-09T13:16:05Z</time>
      </trkpt>
      <trkpt lat="43.15052" lon="2.57915">
        <ele>296.7</ele>
        <time>2020-02-09T13:16:06Z</time>
      </trkpt>
      <trkpt lat="43.15047" lon="2.57915">
        <ele>296.22</ele>
        <time>2020-02-09T13:16:07Z</time>
      </trkpt>
      <trkpt lat="43.15006" lon="2.57901">
        <ele>293.82</ele>
        <time>2020-02-09T13:16:15Z</time>
      </trkpt>
      <trkpt lat="43.14952" lon="2.57897">
        <ele>290.94</ele>
        <time>2020-02-09T13:16:24Z</time>
      </trkpt>
      <trkpt lat="43.14944" lon="2.57896">
        <ele>289.97</ele>
        <time>2020-02-09T13:16:25Z</time>
      </trkpt>
      <trkpt lat="43.14937" lon="2.57896">
        <ele>289.97</ele>
        <time>2020-02-09T13:16:26Z</time>
      </trkpt>
      <trkpt lat="43.14929" lon="2.57897">
        <ele>289.01</ele>
        <time>2020-02-09T13:16:27Z</time>
      </trkpt>
      <trkpt lat="43.14915" lon="2.57901">
        <ele>289.01</ele>
        <time>2020-02-09T13:16:29Z</time>
      </trkpt>
      <trkpt lat="43.14907" lon="2.57901">
        <ele>288.05</ele>
        <time>2020-02-09T13:16:30Z</time>
      </trkpt>
      <trkpt lat="43.14851" lon="2.57891">
        <ele>285.17</ele>
        <time>2020-02-09T13:16:37Z</time>
      </trkpt>
      <trkpt lat="43.14843" lon="2.57889">
        <ele>284.21</ele>
        <time>2020-02-09T13:16:38Z</time>
      </trkpt>
      <trkpt lat="43.14788" lon="2.57873">
        <ele>280.84</ele>
        <time>2020-02-09T13:16:45Z</time>
      </trkpt>
      <trkpt lat="43.14781" lon="2.57874">
        <ele>279.4</ele>
        <time>2020-02-09T13:16:46Z</time>
      </trkpt>
      <trkpt lat="43.14774" lon="2.57876">
        <ele>279.88</ele>
        <time>2020-02-09T13:16:47Z</time>
      </trkpt>
      <trkpt lat="43.14769" lon="2.5788">
        <ele>279.4</ele>
        <time>2020-02-09T13:16:48Z</time>
      </trkpt>
      <trkpt lat="43.14766" lon="2.57886">
        <ele>278.92</ele>
        <time>2020-02-09T13:16:49Z</time>
      </trkpt>
      <trkpt lat="43.14763" lon="2.57892">
        <ele>278.44</ele>
        <time>2020-02-09T13:16:50Z</time>
      </trkpt>
      <trkpt lat="43.1476" lon="2.57899">
        <ele>277.48</ele>
        <time>2020-02-09T13:16:51Z</time>
      </trkpt>
      <trkpt lat="43.14758" lon="2.57906">
        <ele>277</ele>
        <time>2020-02-09T13:16:52Z</time>
      </trkpt>
      <trkpt lat="43.14749" lon="2.57931">
        <ele>276.04</ele>
        <time>2020-02-09T13:16:56Z</time>
      </trkpt>
      <trkpt lat="43.14745" lon="2.57936">
        <ele>275.56</ele>
        <time>2020-02-09T13:16:57Z</time>
      </trkpt>
      <trkpt lat="43.14741" lon="2.5794">
        <ele>275.07</ele>
        <time>2020-02-09T13:16:58Z</time>
      </trkpt>
      <trkpt lat="43.14735" lon="2.57942">
        <ele>274.11</ele>
        <time>2020-02-09T13:16:59Z</time>
      </trkpt>
      <trkpt lat="43.1473" lon="2.5794">
        <ele>273.63</ele>
        <time>2020-02-09T13:17:00Z</time>
      </trkpt>
      <trkpt lat="43.14724" lon="2.57937">
        <ele>272.67</ele>
        <time>2020-02-09T13:17:01Z</time>
      </trkpt>
      <trkpt lat="43.14719" lon="2.57934">
        <ele>272.19</ele>
        <time>2020-02-09T13:17:02Z</time>
      </trkpt>
      <trkpt lat="43.14709" lon="2.57926">
        <ele>271.71</ele>
        <time>2020-02-09T13:17:04Z</time>
      </trkpt>
      <trkpt lat="43.14703" lon="2.57924">
        <ele>271.23</ele>
        <time>2020-02-09T13:17:05Z</time>
      </trkpt>
      <trkpt lat="43.14697" lon="2.57924">
        <ele>271.23</ele>
        <time>2020-02-09T13:17:06Z</time>
      </trkpt>
      <trkpt lat="43.14691" lon="2.57925">
        <ele>270.75</ele>
        <time>2020-02-09T13:17:07Z</time>
      </trkpt>
      <trkpt lat="43.14684" lon="2.57927">
        <ele>270.27</ele>
        <time>2020-02-09T13:17:08Z</time>
      </trkpt>
      <trkpt lat="43.14678" lon="2.57927">
        <ele>269.79</ele>
        <time>2020-02-09T13:17:09Z</time>
      </trkpt>
      <trkpt lat="43.14671" lon="2.57924">
        <ele>268.83</ele>
        <time>2020-02-09T13:17:10Z</time>
      </trkpt>
      <trkpt lat="43.14665" lon="2.5792">
        <ele>268.83</ele>
        <time>2020-02-09T13:17:11Z</time>
      </trkpt>
      <trkpt lat="43.14659" lon="2.57916">
        <ele>268.83</ele>
        <time>2020-02-09T13:17:12Z</time>
      </trkpt>
      <trkpt lat="43.14646" lon="2.5791">
        <ele>267.38</ele>
        <time>2020-02-09T13:17:14Z</time>
      </trkpt>
      <trkpt lat="43.14639" lon="2.5791">
        <ele>267.38</ele>
        <time>2020-02-09T13:17:15Z</time>
      </trkpt>
      <trkpt lat="43.14632" lon="2.5791">
        <ele>267.38</ele>
        <time>2020-02-09T13:17:16Z</time>
      </trkpt>
      <trkpt lat="43.14602" lon="2.57913">
        <ele>264.98</ele>
        <time>2020-02-09T13:17:20Z</time>
      </trkpt>
      <trkpt lat="43.14595" lon="2.57914">
        <ele>264.5</ele>
        <time>2020-02-09T13:17:21Z</time>
      </trkpt>
      <trkpt lat="43.14588" lon="2.57917">
        <ele>264.5</ele>
        <time>2020-02-09T13:17:22Z</time>
      </trkpt>
      <trkpt lat="43.14581" lon="2.57921">
        <ele>264.02</ele>
        <time>2020-02-09T13:17:23Z</time>
      </trkpt>
      <trkpt lat="43.14574" lon="2.57926">
        <ele>263.06</ele>
        <time>2020-02-09T13:17:24Z</time>
      </trkpt>
      <trkpt lat="43.14567" lon="2.57931">
        <ele>262.58</ele>
        <time>2020-02-09T13:17:25Z</time>
      </trkpt>
      <trkpt lat="43.14548" lon="2.57948">
        <ele>262.1</ele>
        <time>2020-02-09T13:17:28Z</time>
      </trkpt>
      <trkpt lat="43.14525" lon="2.5797">
        <ele>259.21</ele>
        <time>2020-02-09T13:17:32Z</time>
      </trkpt>
      <trkpt lat="43.14519" lon="2.57971">
        <ele>259.69</ele>
        <time>2020-02-09T13:17:33Z</time>
      </trkpt>
      <trkpt lat="43.14513" lon="2.57968">
        <ele>259.21</ele>
        <time>2020-02-09T13:17:34Z</time>
      </trkpt>
      <trkpt lat="43.14509" lon="2.57963">
        <ele>259.21</ele>
        <time>2020-02-09T13:17:35Z</time>
      </trkpt>
      <trkpt lat="43.14507" lon="2.57958">
        <ele>257.29</ele>
        <time>2020-02-09T13:17:36Z</time>
      </trkpt>
      <trkpt lat="43.14506" lon="2.57955">
        <ele>256.33</ele>
        <time>2020-02-09T13:17:37Z</time>
      </trkpt>
      <trkpt lat="43.14507" lon="2.57955">
        <ele>256.33</ele>
        <time>2020-02-09T13:18:26Z</time>
      </trkpt>
      <trkpt lat="43.14505" lon="2.57952">
        <ele>256.81</ele>
        <time>2020-02-09T13:19:09Z</time>
      </trkpt>
      <trkpt lat="43.14506" lon="2.57953">
        <ele>255.85</ele>
        <time>2020-02-09T13:19:44Z</time>
      </trkpt>
      <trkpt lat="43.14506" lon="2.57952">
        <ele>255.85</ele>
        <time>2020-02-09T13:20:18Z</time>
      </trkpt>
      <trkpt lat="43.14507" lon="2.57953">
        <ele>255.85</ele>
        <time>2020-02-09T13:20:53Z</time>
      </trkpt>
      <trkpt lat="43.14508" lon="2.57951">
        <ele>255.85</ele>
        <time>2020-02-09T13:20:54Z</time>
      </trkpt>
      <trkpt lat="43.14508" lon="2.57947">
        <ele>255.85</ele>
        <time>2020-02-09T13:20:55Z</time>
      </trkpt>
      <trkpt lat="43.14514" lon="2.57927">
        <ele>255.37</ele>
        <time>2020-02-09T13:20:59Z</time>
      </trkpt>
      <trkpt lat="43.14516" lon="2.57922">
        <ele>254.89</ele>
        <time>2020-02-09T13:21:00Z</time>
      </trkpt>
      <trkpt lat="43.14518" lon="2.57916">
        <ele>254.89</ele>
        <time>2020-02-09T13:21:01Z</time>
      </trkpt>
      <trkpt lat="43.14532" lon="2.57873">
        <ele>252.48</ele>
        <time>2020-02-09T13:21:07Z</time>
      </trkpt>
      <trkpt lat="43.14536" lon="2.57855">
        <ele>251.52</ele>
        <time>2020-02-09T13:21:09Z</time>
      </trkpt>
      <trkpt lat="43.14546" lon="2.57804">
        <ele>249.12</ele>
        <time>2020-02-09T13:21:14Z</time>
      </trkpt>
      <trkpt lat="43.14562" lon="2.57739">
        <ele>245.75</ele>
        <time>2020-02-09T13:21:20Z</time>
      </trkpt>
      <trkpt lat="43.14565" lon="2.57726">
        <ele>245.75</ele>
        <time>2020-02-09T13:21:21Z</time>
      </trkpt>
      <trkpt lat="43.14574" lon="2.57701">
        <ele>244.31</ele>
        <time>2020-02-09T13:21:23Z</time>
      </trkpt>
      <trkpt lat="43.14579" lon="2.57681">
        <ele>241.43</ele>
        <time>2020-02-09T13:21:25Z</time>
      </trkpt>
      <trkpt lat="43.14578" lon="2.57673">
        <ele>240.47</ele>
        <time>2020-02-09T13:21:26Z</time>
      </trkpt>
      <trkpt lat="43.14576" lon="2.57665">
        <ele>240.47</ele>
        <time>2020-02-09T13:21:27Z</time>
      </trkpt>
      <trkpt lat="43.14572" lon="2.57658">
        <ele>239.99</ele>
        <time>2020-02-09T13:21:28Z</time>
      </trkpt>
      <trkpt lat="43.14566" lon="2.57651">
        <ele>239.02</ele>
        <time>2020-02-09T13:21:29Z</time>
      </trkpt>
      <trkpt lat="43.14561" lon="2.57644">
        <ele>239.02</ele>
        <time>2020-02-09T13:21:30Z</time>
      </trkpt>
      <trkpt lat="43.14555" lon="2.57636">
        <ele>238.54</ele>
        <time>2020-02-09T13:21:31Z</time>
      </trkpt>
      <trkpt lat="43.14511" lon="2.5758">
        <ele>234.22</ele>
        <time>2020-02-09T13:21:38Z</time>
      </trkpt>
      <trkpt lat="43.14505" lon="2.57571">
        <ele>234.22</ele>
        <time>2020-02-09T13:21:39Z</time>
      </trkpt>
      <trkpt lat="43.14482" lon="2.57545">
        <ele>232.3</ele>
        <time>2020-02-09T13:21:42Z</time>
      </trkpt>
      <trkpt lat="43.14437" lon="2.57505">
        <ele>228.93</ele>
        <time>2020-02-09T13:21:47Z</time>
      </trkpt>
      <trkpt lat="43.14416" lon="2.57488">
        <ele>225.57</ele>
        <time>2020-02-09T13:21:49Z</time>
      </trkpt>
      <trkpt lat="43.14374" lon="2.57452">
        <ele>222.2</ele>
        <time>2020-02-09T13:21:53Z</time>
      </trkpt>
      <trkpt lat="43.14354" lon="2.57434">
        <ele>221.24</ele>
        <time>2020-02-09T13:21:55Z</time>
      </trkpt>
      <trkpt lat="43.14298" lon="2.57381">
        <ele>217.4</ele>
        <time>2020-02-09T13:22:01Z</time>
      </trkpt>
      <trkpt lat="43.1428" lon="2.57365">
        <ele>216.43</ele>
        <time>2020-02-09T13:22:03Z</time>
      </trkpt>
      <trkpt lat="43.14237" lon="2.57332">
        <ele>214.51</ele>
        <time>2020-02-09T13:22:08Z</time>
      </trkpt>
      <trkpt lat="43.14204" lon="2.57309">
        <ele>212.11</ele>
        <time>2020-02-09T13:22:12Z</time>
      </trkpt>
      <trkpt lat="43.1416" lon="2.5728">
        <ele>208.74</ele>
        <time>2020-02-09T13:22:17Z</time>
      </trkpt>
      <trkpt lat="43.14083" lon="2.57216">
        <ele>204.9</ele>
        <time>2020-02-09T13:22:27Z</time>
      </trkpt>
      <trkpt lat="43.1398" lon="2.5712">
        <ele>202.01</ele>
        <time>2020-02-09T13:22:43Z</time>
      </trkpt>
      <trkpt lat="43.13912" lon="2.57045">
        <ele>198.65</ele>
        <time>2020-02-09T13:22:54Z</time>
      </trkpt>
      <trkpt lat="43.13831" lon="2.5695">
        <ele>195.77</ele>
        <time>2020-02-09T13:23:07Z</time>
      </trkpt>
      <trkpt lat="43.13762" lon="2.56883">
        <ele>194.32</ele>
        <time>2020-02-09T13:23:18Z</time>
      </trkpt>
      <trkpt lat="43.13758" lon="2.56876">
        <ele>194.32</ele>
        <time>2020-02-09T13:23:19Z</time>
      </trkpt>
      <trkpt lat="43.13755" lon="2.56867">
        <ele>193.84</ele>
        <time>2020-02-09T13:23:20Z</time>
      </trkpt>
      <trkpt lat="43.13753" lon="2.56859">
        <ele>193.84</ele>
        <time>2020-02-09T13:23:21Z</time>
      </trkpt>
      <trkpt lat="43.13752" lon="2.56849">
        <ele>194.32</ele>
        <time>2020-02-09T13:23:22Z</time>
      </trkpt>
      <trkpt lat="43.1375" lon="2.5684">
        <ele>193.84</ele>
        <time>2020-02-09T13:23:23Z</time>
      </trkpt>
      <trkpt lat="43.13747" lon="2.56822">
        <ele>194.32</ele>
        <time>2020-02-09T13:23:25Z</time>
      </trkpt>
      <trkpt lat="43.13744" lon="2.56814">
        <ele>194.8</ele>
        <time>2020-02-09T13:23:26Z</time>
      </trkpt>
      <trkpt lat="43.1374" lon="2.56807">
        <ele>194.32</ele>
        <time>2020-02-09T13:23:27Z</time>
      </trkpt>
      <trkpt lat="43.13736" lon="2.568">
        <ele>195.28</ele>
        <time>2020-02-09T13:23:28Z</time>
      </trkpt>
      <trkpt lat="43.13731" lon="2.56794">
        <ele>194.8</ele>
        <time>2020-02-09T13:23:29Z</time>
      </trkpt>
      <trkpt lat="43.13625" lon="2.56691">
        <ele>197.21</ele>
        <time>2020-02-09T13:23:52Z</time>
      </trkpt>
      <trkpt lat="43.13511" lon="2.56593">
        <ele>197.21</ele>
        <time>2020-02-09T13:24:17Z</time>
      </trkpt>
      <trkpt lat="43.13506" lon="2.56588">
        <ele>197.21</ele>
        <time>2020-02-09T13:24:18Z</time>
      </trkpt>
      <trkpt lat="43.13404" lon="2.56469">
        <ele>197.69</ele>
        <time>2020-02-09T13:24:40Z</time>
      </trkpt>
      <trkpt lat="43.13348" lon="2.56335">
        <ele>197.69</ele>
        <time>2020-02-09T13:25:00Z</time>
      </trkpt>
      <trkpt lat="43.1326" lon="2.56181">
        <ele>201.53</ele>
        <time>2020-02-09T13:31:01Z</time>
      </trkpt>
      <trkpt lat="43.1321" lon="2.56131">
        <ele>200.09</ele>
        <time>2020-02-09T13:31:14Z</time>
      </trkpt>
      <trkpt lat="43.13206" lon="2.56129">
        <ele>200.09</ele>
        <time>2020-02-09T13:31:15Z</time>
      </trkpt>
      <trkpt lat="43.13188" lon="2.5612">
        <ele>200.57</ele>
        <time>2020-02-09T13:31:19Z</time>
      </trkpt>
      <trkpt lat="43.13143" lon="2.561">
        <ele>200.57</ele>
        <time>2020-02-09T13:31:29Z</time>
      </trkpt>
      <trkpt lat="43.13128" lon="2.56085">
        <ele>199.61</ele>
        <time>2020-02-09T13:31:33Z</time>
      </trkpt>
      <trkpt lat="43.13125" lon="2.56081">
        <ele>200.09</ele>
        <time>2020-02-09T13:31:34Z</time>
      </trkpt>
      <trkpt lat="43.13122" lon="2.56077">
        <ele>200.09</ele>
        <time>2020-02-09T13:31:35Z</time>
      </trkpt>
      <trkpt lat="43.13069" lon="2.55997">
        <ele>199.61</ele>
        <time>2020-02-09T13:31:55Z</time>
      </trkpt>
      <trkpt lat="43.13044" lon="2.55967">
        <ele>201.05</ele>
        <time>2020-02-09T13:32:07Z</time>
      </trkpt>
      <trkpt lat="43.12993" lon="2.55909">
        <ele>202.01</ele>
        <time>2020-02-09T13:32:30Z</time>
      </trkpt>
      <trkpt lat="43.12932" lon="2.55858">
        <ele>202.49</ele>
        <time>2020-02-09T13:32:49Z</time>
      </trkpt>
      <trkpt lat="43.12903" lon="2.55838">
        <ele>202.01</ele>
        <time>2020-02-09T13:33:05Z</time>
      </trkpt>
      <trkpt lat="43.12898" lon="2.55838">
        <ele>202.98</ele>
        <time>2020-02-09T13:33:36Z</time>
      </trkpt>
      <trkpt lat="43.12896" lon="2.55838">
        <ele>203.46</ele>
        <time>2020-02-09T13:33:37Z</time>
      </trkpt>
      <trkpt lat="43.12894" lon="2.55837">
        <ele>202.98</ele>
        <time>2020-02-09T13:33:38Z</time>
      </trkpt>
      <trkpt lat="43.12892" lon="2.55835">
        <ele>202.98</ele>
        <time>2020-02-09T13:33:39Z</time>
      </trkpt>
      <trkpt lat="43.12889" lon="2.55832">
        <ele>202.98</ele>
        <time>2020-02-09T13:33:40Z</time>
      </trkpt>
      <trkpt lat="43.12833" lon="2.55779">
        <ele>202.49</ele>
        <time>2020-02-09T13:34:00Z</time>
      </trkpt>
      <trkpt lat="43.12794" lon="2.5573">
        <ele>202.01</ele>
        <time>2020-02-09T13:34:14Z</time>
      </trkpt>
      <trkpt lat="43.12755" lon="2.55615">
        <ele>203.46</ele>
        <time>2020-02-09T13:34:38Z</time>
      </trkpt>
      <trkpt lat="43.12715" lon="2.55513">
        <ele>204.9</ele>
        <time>2020-02-09T13:34:59Z</time>
      </trkpt>
      <trkpt lat="43.12675" lon="2.55403">
        <ele>205.86</ele>
        <time>2020-02-09T13:35:23Z</time>
      </trkpt>
      <trkpt lat="43.12653" lon="2.5531">
        <ele>206.82</ele>
        <time>2020-02-09T13:35:41Z</time>
      </trkpt>
      <trkpt lat="43.12629" lon="2.55137">
        <ele>208.26</ele>
        <time>2020-02-09T13:36:08Z</time>
      </trkpt>
      <trkpt lat="43.12622" lon="2.54983">
        <ele>209.22</ele>
        <time>2020-02-09T13:36:32Z</time>
      </trkpt>
      <trkpt lat="43.12624" lon="2.5494">
        <ele>208.74</ele>
        <time>2020-02-09T13:36:40Z</time>
      </trkpt>
      <trkpt lat="43.12626" lon="2.54935">
        <ele>209.22</ele>
        <time>2020-02-09T13:36:41Z</time>
      </trkpt>
      <trkpt lat="43.12628" lon="2.54931">
        <ele>209.22</ele>
        <time>2020-02-09T13:36:42Z</time>
      </trkpt>
      <trkpt lat="43.12669" lon="2.54918">
        <ele>212.59</ele>
        <time>2020-02-09T13:36:55Z</time>
      </trkpt>
      <trkpt lat="43.12713" lon="2.54955">
        <ele>214.51</ele>
        <time>2020-02-09T13:37:12Z</time>
      </trkpt>
      <trkpt lat="43.12748" lon="2.54947">
        <ele>217.88</ele>
        <time>2020-02-09T13:37:28Z</time>
      </trkpt>
      <trkpt lat="43.12759" lon="2.54951">
        <ele>219.32</ele>
        <time>2020-02-09T13:37:34Z</time>
      </trkpt>
      <trkpt lat="43.12761" lon="2.54949">
        <ele>218.84</ele>
        <time>2020-02-09T13:37:35Z</time>
      </trkpt>
      <trkpt lat="43.12761" lon="2.54947">
        <ele>218.84</ele>
        <time>2020-02-09T13:37:36Z</time>
      </trkpt>
      <trkpt lat="43.12761" lon="2.54944">
        <ele>218.36</ele>
        <time>2020-02-09T13:37:37Z</time>
      </trkpt>
      <trkpt lat="43.1276" lon="2.54942">
        <ele>218.84</ele>
        <time>2020-02-09T13:37:38Z</time>
      </trkpt>
      <trkpt lat="43.12759" lon="2.5494">
        <ele>218.84</ele>
        <time>2020-02-09T13:37:39Z</time>
      </trkpt>
      <trkpt lat="43.12758" lon="2.54938">
        <ele>219.32</ele>
        <time>2020-02-09T13:37:40Z</time>
      </trkpt>
      <trkpt lat="43.12757" lon="2.54936">
        <ele>219.32</ele>
        <time>2020-02-09T13:37:41Z</time>
      </trkpt>
      <trkpt lat="43.12757" lon="2.54933">
        <ele>219.32</ele>
        <time>2020-02-09T13:37:42Z</time>
      </trkpt>
      <trkpt lat="43.12757" lon="2.54931">
        <ele>219.8</ele>
        <time>2020-02-09T13:37:43Z</time>
      </trkpt>
      <trkpt lat="43.12756" lon="2.54928">
        <ele>219.8</ele>
        <time>2020-02-09T13:37:44Z</time>
      </trkpt>
      <trkpt lat="43.12755" lon="2.54925">
        <ele>219.8</ele>
        <time>2020-02-09T13:37:45Z</time>
      </trkpt>
      <trkpt lat="43.12765" lon="2.54875">
        <ele>222.2</ele>
        <time>2020-02-09T13:38:02Z</time>
      </trkpt>
      <trkpt lat="43.12765" lon="2.54866">
        <ele>222.2</ele>
        <time>2020-02-09T13:38:05Z</time>
      </trkpt>
      <trkpt lat="43.12766" lon="2.54862">
        <ele>222.2</ele>
        <time>2020-02-09T13:38:06Z</time>
      </trkpt>
      <trkpt lat="43.12767" lon="2.5486">
        <ele>222.68</ele>
        <time>2020-02-09T13:38:07Z</time>
      </trkpt>
      <trkpt lat="43.12768" lon="2.54857">
        <ele>222.2</ele>
        <time>2020-02-09T13:38:08Z</time>
      </trkpt>
      <trkpt lat="43.12769" lon="2.54854">
        <ele>222.68</ele>
        <time>2020-02-09T13:38:09Z</time>
      </trkpt>
      <trkpt lat="43.1279" lon="2.54798">
        <ele>225.09</ele>
        <time>2020-02-09T13:38:29Z</time>
      </trkpt>
      <trkpt lat="43.12813" lon="2.54761">
        <ele>226.05</ele>
        <time>2020-02-09T13:38:47Z</time>
      </trkpt>
      <trkpt lat="43.12832" lon="2.54725">
        <ele>229.41</ele>
        <time>2020-02-09T13:39:05Z</time>
      </trkpt>
      <trkpt lat="43.1283" lon="2.54668">
        <ele>229.41</ele>
        <time>2020-02-09T13:39:23Z</time>
      </trkpt>
      <trkpt lat="43.12833" lon="2.54629">
        <ele>232.78</ele>
        <time>2020-02-09T13:39:37Z</time>
      </trkpt>
      <trkpt lat="43.12835" lon="2.54628">
        <ele>232.78</ele>
        <time>2020-02-09T13:39:38Z</time>
      </trkpt>
      <trkpt lat="43.12874" lon="2.54601">
        <ele>229.89</ele>
        <time>2020-02-09T13:39:53Z</time>
      </trkpt>
      <trkpt lat="43.12934" lon="2.5457">
        <ele>228.93</ele>
        <time>2020-02-09T13:40:14Z</time>
      </trkpt>
      <trkpt lat="43.12966" lon="2.5453">
        <ele>229.89</ele>
        <time>2020-02-09T13:40:31Z</time>
      </trkpt>
      <trkpt lat="43.12967" lon="2.54518">
        <ele>229.89</ele>
        <time>2020-02-09T13:40:35Z</time>
      </trkpt>
      <trkpt lat="43.12966" lon="2.54515">
        <ele>229.89</ele>
        <time>2020-02-09T13:40:36Z</time>
      </trkpt>
      <trkpt lat="43.12964" lon="2.54511">
        <ele>229.89</ele>
        <time>2020-02-09T13:40:37Z</time>
      </trkpt>
      <trkpt lat="43.12963" lon="2.54508">
        <ele>229.89</ele>
        <time>2020-02-09T13:40:38Z</time>
      </trkpt>
      <trkpt lat="43.12962" lon="2.54505">
        <ele>229.89</ele>
        <time>2020-02-09T13:40:39Z</time>
      </trkpt>
      <trkpt lat="43.12961" lon="2.54501">
        <ele>229.89</ele>
        <time>2020-02-09T13:40:40Z</time>
      </trkpt>
      <trkpt lat="43.12934" lon="2.54474">
        <ele>228.93</ele>
        <time>2020-02-09T13:40:50Z</time>
      </trkpt>
      <trkpt lat="43.12929" lon="2.54472">
        <ele>229.41</ele>
        <time>2020-02-09T13:40:51Z</time>
      </trkpt>
      <trkpt lat="43.12907" lon="2.54463">
        <ele>227.49</ele>
        <time>2020-02-09T13:40:55Z</time>
      </trkpt>
      <trkpt lat="43.12881" lon="2.54447">
        <ele>226.53</ele>
        <time>2020-02-09T13:40:59Z</time>
      </trkpt>
      <trkpt lat="43.12875" lon="2.54443">
        <ele>226.05</ele>
        <time>2020-02-09T13:41:00Z</time>
      </trkpt>
      <trkpt lat="43.12868" lon="2.54438">
        <ele>226.05</ele>
        <time>2020-02-09T13:41:01Z</time>
      </trkpt>
      <trkpt lat="43.12863" lon="2.54433">
        <ele>224.61</ele>
        <time>2020-02-09T13:41:02Z</time>
      </trkpt>
      <trkpt lat="43.1286" lon="2.54427">
        <ele>223.64</ele>
        <time>2020-02-09T13:41:03Z</time>
      </trkpt>
      <trkpt lat="43.12858" lon="2.54423">
        <ele>223.64</ele>
        <time>2020-02-09T13:41:04Z</time>
      </trkpt>
      <trkpt lat="43.12856" lon="2.54419">
        <ele>223.64</ele>
        <time>2020-02-09T13:41:05Z</time>
      </trkpt>
      <trkpt lat="43.12838" lon="2.54375">
        <ele>226.53</ele>
        <time>2020-02-09T13:41:22Z</time>
      </trkpt>
      <trkpt lat="43.12806" lon="2.54347">
        <ele>227.49</ele>
        <time>2020-02-09T13:41:41Z</time>
      </trkpt>
      <trkpt lat="43.12798" lon="2.54365">
        <ele>227.01</ele>
        <time>2020-02-09T13:41:47Z</time>
      </trkpt>
      <trkpt lat="43.12792" lon="2.54384">
        <ele>226.05</ele>
        <time>2020-02-09T13:41:52Z</time>
      </trkpt>
      <trkpt lat="43.12781" lon="2.54387">
        <ele>225.09</ele>
        <time>2020-02-09T13:41:56Z</time>
      </trkpt>
      <trkpt lat="43.12766" lon="2.54383">
        <ele>225.57</ele>
        <time>2020-02-09T13:42:01Z</time>
      </trkpt>
      <trkpt lat="43.12758" lon="2.54379">
        <ele>223.64</ele>
        <time>2020-02-09T13:42:15Z</time>
      </trkpt>
      <trkpt lat="43.12758" lon="2.54381">
        <ele>223.16</ele>
        <time>2020-02-09T13:43:10Z</time>
      </trkpt>
      <trkpt lat="43.12761" lon="2.54381">
        <ele>224.12</ele>
        <time>2020-02-09T13:43:32Z</time>
      </trkpt>
      <trkpt lat="43.12755" lon="2.54369">
        <ele>224.61</ele>
        <time>2020-02-09T13:43:38Z</time>
      </trkpt>
      <trkpt lat="43.12753" lon="2.54364">
        <ele>224.61</ele>
        <time>2020-02-09T13:43:40Z</time>
      </trkpt>
      <trkpt lat="43.12714" lon="2.54352">
        <ele>226.05</ele>
        <time>2020-02-09T13:43:59Z</time>
      </trkpt>
      <trkpt lat="43.12712" lon="2.54351">
        <ele>226.05</ele>
        <time>2020-02-09T13:44:00Z</time>
      </trkpt>
      <trkpt lat="43.1271" lon="2.54349">
        <ele>226.53</ele>
        <time>2020-02-09T13:44:01Z</time>
      </trkpt>
      <trkpt lat="43.12709" lon="2.54347">
        <ele>226.53</ele>
        <time>2020-02-09T13:44:02Z</time>
      </trkpt>
      <trkpt lat="43.12708" lon="2.54345">
        <ele>226.53</ele>
        <time>2020-02-09T13:44:03Z</time>
      </trkpt>
      <trkpt lat="43.12709" lon="2.54342">
        <ele>226.53</ele>
        <time>2020-02-09T13:44:04Z</time>
      </trkpt>
      <trkpt lat="43.12709" lon="2.54339">
        <ele>226.53</ele>
        <time>2020-02-09T13:44:05Z</time>
      </trkpt>
      <trkpt lat="43.12709" lon="2.54336">
        <ele>226.53</ele>
        <time>2020-02-09T13:44:06Z</time>
      </trkpt>
      <trkpt lat="43.12726" lon="2.54269">
        <ele>229.41</ele>
        <time>2020-02-09T13:44:28Z</time>
      </trkpt>
      <trkpt lat="43.1275" lon="2.54231">
        <ele>232.78</ele>
        <time>2020-02-09T13:44:43Z</time>
      </trkpt>
      <trkpt lat="43.12775" lon="2.54184">
        <ele>235.66</ele>
        <time>2020-02-09T13:45:01Z</time>
      </trkpt>
      <trkpt lat="43.1281" lon="2.5411">
        <ele>239.02</ele>
        <time>2020-02-09T13:45:26Z</time>
      </trkpt>
      <trkpt lat="43.12833" lon="2.54058">
        <ele>241.43</ele>
        <time>2020-02-09T13:45:44Z</time>
      </trkpt>
      <trkpt lat="43.12839" lon="2.5399">
        <ele>243.83</ele>
        <time>2020-02-09T13:46:04Z</time>
      </trkpt>
      <trkpt lat="43.12842" lon="2.53905">
        <ele>246.72</ele>
        <time>2020-02-09T13:46:27Z</time>
      </trkpt>
      <trkpt lat="43.12852" lon="2.53888">
        <ele>248.16</ele>
        <time>2020-02-09T13:46:35Z</time>
      </trkpt>
      <trkpt lat="43.12854" lon="2.53887">
        <ele>248.16</ele>
        <time>2020-02-09T13:46:36Z</time>
      </trkpt>
      <trkpt lat="43.12855" lon="2.53887">
        <ele>248.16</ele>
        <time>2020-02-09T13:46:37Z</time>
      </trkpt>
      <trkpt lat="43.12857" lon="2.53887">
        <ele>248.16</ele>
        <time>2020-02-09T13:46:38Z</time>
      </trkpt>
      <trkpt lat="43.12859" lon="2.53887">
        <ele>248.16</ele>
        <time>2020-02-09T13:46:39Z</time>
      </trkpt>
      <trkpt lat="43.12887" lon="2.53875">
        <ele>250.56</ele>
        <time>2020-02-09T13:46:57Z</time>
      </trkpt>
      <trkpt lat="43.12898" lon="2.53835">
        <ele>253.44</ele>
        <time>2020-02-09T13:47:15Z</time>
      </trkpt>
      <trkpt lat="43.12906" lon="2.53826">
        <ele>254.89</ele>
        <time>2020-02-09T13:47:22Z</time>
      </trkpt>
      <trkpt lat="43.12908" lon="2.53824">
        <ele>254.89</ele>
        <time>2020-02-09T13:47:23Z</time>
      </trkpt>
      <trkpt lat="43.12939" lon="2.53779">
        <ele>256.81</ele>
        <time>2020-02-09T13:47:46Z</time>
      </trkpt>
      <trkpt lat="43.12951" lon="2.53756">
        <ele>259.69</ele>
        <time>2020-02-09T13:47:58Z</time>
      </trkpt>
      <trkpt lat="43.12973" lon="2.53736">
        <ele>261.62</ele>
        <time>2020-02-09T13:48:16Z</time>
      </trkpt>
      <trkpt lat="43.13022" lon="2.53699">
        <ele>260.65</ele>
        <time>2020-02-09T13:48:40Z</time>
      </trkpt>
      <trkpt lat="43.1307" lon="2.53672">
        <ele>261.62</ele>
        <time>2020-02-09T13:49:01Z</time>
      </trkpt>
      <trkpt lat="43.13088" lon="2.53667">
        <ele>261.62</ele>
        <time>2020-02-09T13:49:17Z</time>
      </trkpt>
      <trkpt lat="43.1311" lon="2.53652">
        <ele>261.62</ele>
        <time>2020-02-09T13:49:33Z</time>
      </trkpt>
      <trkpt lat="43.13172" lon="2.53617">
        <ele>263.06</ele>
        <time>2020-02-09T13:49:59Z</time>
      </trkpt>
      <trkpt lat="43.13198" lon="2.53601">
        <ele>263.54</ele>
        <time>2020-02-09T13:50:11Z</time>
      </trkpt>
      <trkpt lat="43.13197" lon="2.53598">
        <ele>264.5</ele>
        <time>2020-02-09T13:50:12Z</time>
      </trkpt>
      <trkpt lat="43.1318" lon="2.53556">
        <ele>264.5</ele>
        <time>2020-02-09T13:50:25Z</time>
      </trkpt>
      <trkpt lat="43.13182" lon="2.53553">
        <ele>264.02</ele>
        <time>2020-02-09T13:50:26Z</time>
      </trkpt>
      <trkpt lat="43.13184" lon="2.5355">
        <ele>264.5</ele>
        <time>2020-02-09T13:50:27Z</time>
      </trkpt>
      <trkpt lat="43.13187" lon="2.5355">
        <ele>264.02</ele>
        <time>2020-02-09T13:50:28Z</time>
      </trkpt>
      <trkpt lat="43.1319" lon="2.5355">
        <ele>264.5</ele>
        <time>2020-02-09T13:50:29Z</time>
      </trkpt>
      <trkpt lat="43.13192" lon="2.53551">
        <ele>264.98</ele>
        <time>2020-02-09T13:50:30Z</time>
      </trkpt>
      <trkpt lat="43.13195" lon="2.53553">
        <ele>265.46</ele>
        <time>2020-02-09T13:50:31Z</time>
      </trkpt>
      <trkpt lat="43.13197" lon="2.53554">
        <ele>265.94</ele>
        <time>2020-02-09T13:50:32Z</time>
      </trkpt>
      <trkpt lat="43.132" lon="2.53554">
        <ele>264.98</ele>
        <time>2020-02-09T13:50:33Z</time>
      </trkpt>
      <trkpt lat="43.13235" lon="2.53558">
        <ele>268.83</ele>
        <time>2020-02-09T13:50:49Z</time>
      </trkpt>
      <trkpt lat="43.13239" lon="2.53568">
        <ele>270.27</ele>
        <time>2020-02-09T13:50:55Z</time>
      </trkpt>
      <trkpt lat="43.1324" lon="2.53569">
        <ele>269.31</ele>
        <time>2020-02-09T13:50:56Z</time>
      </trkpt>
      <trkpt lat="43.13264" lon="2.53583">
        <ele>272.67</ele>
        <time>2020-02-09T13:51:14Z</time>
      </trkpt>
      <trkpt lat="43.13285" lon="2.5359">
        <ele>275.56</ele>
        <time>2020-02-09T13:51:30Z</time>
      </trkpt>
      <trkpt lat="43.13287" lon="2.5359">
        <ele>275.56</ele>
        <time>2020-02-09T13:51:32Z</time>
      </trkpt>
      <trkpt lat="43.13288" lon="2.53591">
        <ele>275.56</ele>
        <time>2020-02-09T13:51:33Z</time>
      </trkpt>
      <trkpt lat="43.13289" lon="2.53591">
        <ele>276.04</ele>
        <time>2020-02-09T13:51:34Z</time>
      </trkpt>
      <trkpt lat="43.1329" lon="2.53592">
        <ele>276.04</ele>
        <time>2020-02-09T13:51:35Z</time>
      </trkpt>
      <trkpt lat="43.13292" lon="2.53592">
        <ele>276.04</ele>
        <time>2020-02-09T13:51:36Z</time>
      </trkpt>
      <trkpt lat="43.13293" lon="2.53593">
        <ele>276.52</ele>
        <time>2020-02-09T13:51:37Z</time>
      </trkpt>
      <trkpt lat="43.13294" lon="2.53593">
        <ele>276.04</ele>
        <time>2020-02-09T13:51:38Z</time>
      </trkpt>
      <trkpt lat="43.13296" lon="2.53593">
        <ele>276.52</ele>
        <time>2020-02-09T13:51:39Z</time>
      </trkpt>
      <trkpt lat="43.13297" lon="2.53593">
        <ele>276.52</ele>
        <time>2020-02-09T13:51:40Z</time>
      </trkpt>
      <trkpt lat="43.13298" lon="2.53594">
        <ele>276.52</ele>
        <time>2020-02-09T13:51:41Z</time>
      </trkpt>
      <trkpt lat="43.133" lon="2.53593">
        <ele>277</ele>
        <time>2020-02-09T13:51:42Z</time>
      </trkpt>
      <trkpt lat="43.13301" lon="2.53593">
        <ele>277.48</ele>
        <time>2020-02-09T13:51:43Z</time>
      </trkpt>
      <trkpt lat="43.13303" lon="2.53593">
        <ele>277.48</ele>
        <time>2020-02-09T13:51:44Z</time>
      </trkpt>
      <trkpt lat="43.13304" lon="2.53594">
        <ele>277.48</ele>
        <time>2020-02-09T13:51:45Z</time>
      </trkpt>
      <trkpt lat="43.13306" lon="2.53594">
        <ele>277.48</ele>
        <time>2020-02-09T13:51:46Z</time>
      </trkpt>
      <trkpt lat="43.13308" lon="2.53594">
        <ele>277</ele>
        <time>2020-02-09T13:51:47Z</time>
      </trkpt>
      <trkpt lat="43.1331" lon="2.53595">
        <ele>277.48</ele>
        <time>2020-02-09T13:51:48Z</time>
      </trkpt>
      <trkpt lat="43.13357" lon="2.53594">
        <ele>278.92</ele>
        <time>2020-02-09T13:52:11Z</time>
      </trkpt>
      <trkpt lat="43.13391" lon="2.53595">
        <ele>280.84</ele>
        <time>2020-02-09T13:52:29Z</time>
      </trkpt>
      <trkpt lat="43.13417" lon="2.53594">
        <ele>282.28</ele>
        <time>2020-02-09T13:52:40Z</time>
      </trkpt>
      <trkpt lat="43.13464" lon="2.53593">
        <ele>283.73</ele>
        <time>2020-02-09T13:53:00Z</time>
      </trkpt>
      <trkpt lat="43.13487" lon="2.53607">
        <ele>284.69</ele>
        <time>2020-02-09T13:53:16Z</time>
      </trkpt>
      <trkpt lat="43.13493" lon="2.5362">
        <ele>283.73</ele>
        <time>2020-02-09T13:53:20Z</time>
      </trkpt>
      <trkpt lat="43.13536" lon="2.5368">
        <ele>281.32</ele>
        <time>2020-02-09T13:53:38Z</time>
      </trkpt>
      <trkpt lat="43.13539" lon="2.53683">
        <ele>280.36</ele>
        <time>2020-02-09T13:53:39Z</time>
      </trkpt>
      <trkpt lat="43.13543" lon="2.53686">
        <ele>280.36</ele>
        <time>2020-02-09T13:53:40Z</time>
      </trkpt>
      <trkpt lat="43.13548" lon="2.53688">
        <ele>279.88</ele>
        <time>2020-02-09T13:53:41Z</time>
      </trkpt>
      <trkpt lat="43.13552" lon="2.53689">
        <ele>279.88</ele>
        <time>2020-02-09T13:53:42Z</time>
      </trkpt>
      <trkpt lat="43.13557" lon="2.53689">
        <ele>279.88</ele>
        <time>2020-02-09T13:53:43Z</time>
      </trkpt>
      <trkpt lat="43.13561" lon="2.53689">
        <ele>278.92</ele>
        <time>2020-02-09T13:53:44Z</time>
      </trkpt>
      <trkpt lat="43.13566" lon="2.5369">
        <ele>279.4</ele>
        <time>2020-02-09T13:53:45Z</time>
      </trkpt>
      <trkpt lat="43.1357" lon="2.5369">
        <ele>279.88</ele>
        <time>2020-02-09T13:53:46Z</time>
      </trkpt>
      <trkpt lat="43.13579" lon="2.53691">
        <ele>279.4</ele>
        <time>2020-02-09T13:53:48Z</time>
      </trkpt>
      <trkpt lat="43.13583" lon="2.53692">
        <ele>279.4</ele>
        <time>2020-02-09T13:53:49Z</time>
      </trkpt>
      <trkpt lat="43.13587" lon="2.53692">
        <ele>278.92</ele>
        <time>2020-02-09T13:53:50Z</time>
      </trkpt>
      <trkpt lat="43.13592" lon="2.5369">
        <ele>278.92</ele>
        <time>2020-02-09T13:53:51Z</time>
      </trkpt>
      <trkpt lat="43.13597" lon="2.53688">
        <ele>278.92</ele>
        <time>2020-02-09T13:53:52Z</time>
      </trkpt>
      <trkpt lat="43.13601" lon="2.53685">
        <ele>278.92</ele>
        <time>2020-02-09T13:53:53Z</time>
      </trkpt>
      <trkpt lat="43.1362" lon="2.53673">
        <ele>278.92</ele>
        <time>2020-02-09T13:53:57Z</time>
      </trkpt>
      <trkpt lat="43.13624" lon="2.53671">
        <ele>278.44</ele>
        <time>2020-02-09T13:53:58Z</time>
      </trkpt>
      <trkpt lat="43.13633" lon="2.53668">
        <ele>278.92</ele>
        <time>2020-02-09T13:54:00Z</time>
      </trkpt>
      <trkpt lat="43.13637" lon="2.53667">
        <ele>279.4</ele>
        <time>2020-02-09T13:54:01Z</time>
      </trkpt>
      <trkpt lat="43.13642" lon="2.53667">
        <ele>278.92</ele>
        <time>2020-02-09T13:54:02Z</time>
      </trkpt>
      <trkpt lat="43.13646" lon="2.53666">
        <ele>278.92</ele>
        <time>2020-02-09T13:54:03Z</time>
      </trkpt>
      <trkpt lat="43.13649" lon="2.53664">
        <ele>278.44</ele>
        <time>2020-02-09T13:54:04Z</time>
      </trkpt>
      <trkpt lat="43.13653" lon="2.53662">
        <ele>279.4</ele>
        <time>2020-02-09T13:54:05Z</time>
      </trkpt>
      <trkpt lat="43.13664" lon="2.53656">
        <ele>278.92</ele>
        <time>2020-02-09T13:54:08Z</time>
      </trkpt>
      <trkpt lat="43.13669" lon="2.53654">
        <ele>278.44</ele>
        <time>2020-02-09T13:54:09Z</time>
      </trkpt>
      <trkpt lat="43.13673" lon="2.53654">
        <ele>278.92</ele>
        <time>2020-02-09T13:54:10Z</time>
      </trkpt>
      <trkpt lat="43.13676" lon="2.53654">
        <ele>278.92</ele>
        <time>2020-02-09T13:54:11Z</time>
      </trkpt>
      <trkpt lat="43.13679" lon="2.53655">
        <ele>278.44</ele>
        <time>2020-02-09T13:54:12Z</time>
      </trkpt>
      <trkpt lat="43.13683" lon="2.53657">
        <ele>277.96</ele>
        <time>2020-02-09T13:54:13Z</time>
      </trkpt>
      <trkpt lat="43.13687" lon="2.5366">
        <ele>277.48</ele>
        <time>2020-02-09T13:54:14Z</time>
      </trkpt>
      <trkpt lat="43.13691" lon="2.53663">
        <ele>276.04</ele>
        <time>2020-02-09T13:54:15Z</time>
      </trkpt>
      <trkpt lat="43.137" lon="2.5367">
        <ele>273.63</ele>
        <time>2020-02-09T13:54:17Z</time>
      </trkpt>
      <trkpt lat="43.13705" lon="2.53675">
        <ele>273.15</ele>
        <time>2020-02-09T13:54:18Z</time>
      </trkpt>
      <trkpt lat="43.13708" lon="2.53682">
        <ele>273.15</ele>
        <time>2020-02-09T13:54:19Z</time>
      </trkpt>
      <trkpt lat="43.13711" lon="2.53688">
        <ele>273.15</ele>
        <time>2020-02-09T13:54:20Z</time>
      </trkpt>
      <trkpt lat="43.13717" lon="2.53699">
        <ele>273.15</ele>
        <time>2020-02-09T13:54:22Z</time>
      </trkpt>
      <trkpt lat="43.1372" lon="2.53703">
        <ele>272.67</ele>
        <time>2020-02-09T13:54:23Z</time>
      </trkpt>
      <trkpt lat="43.13723" lon="2.53705">
        <ele>273.15</ele>
        <time>2020-02-09T13:54:24Z</time>
      </trkpt>
      <trkpt lat="43.13739" lon="2.53719">
        <ele>274.11</ele>
        <time>2020-02-09T13:54:30Z</time>
      </trkpt>
      <trkpt lat="43.13739" lon="2.53723">
        <ele>273.15</ele>
        <time>2020-02-09T13:54:31Z</time>
      </trkpt>
      <trkpt lat="43.1374" lon="2.53728">
        <ele>272.19</ele>
        <time>2020-02-09T13:54:32Z</time>
      </trkpt>
      <trkpt lat="43.13741" lon="2.53731">
        <ele>271.23</ele>
        <time>2020-02-09T13:54:33Z</time>
      </trkpt>
      <trkpt lat="43.13743" lon="2.53733">
        <ele>269.79</ele>
        <time>2020-02-09T13:54:34Z</time>
      </trkpt>
      <trkpt lat="43.13746" lon="2.53733">
        <ele>270.27</ele>
        <time>2020-02-09T13:54:35Z</time>
      </trkpt>
      <trkpt lat="43.1375" lon="2.53732">
        <ele>270.27</ele>
        <time>2020-02-09T13:54:36Z</time>
      </trkpt>
      <trkpt lat="43.13753" lon="2.53731">
        <ele>270.75</ele>
        <time>2020-02-09T13:54:37Z</time>
      </trkpt>
      <trkpt lat="43.13757" lon="2.5373">
        <ele>270.27</ele>
        <time>2020-02-09T13:54:38Z</time>
      </trkpt>
      <trkpt lat="43.1376" lon="2.53727">
        <ele>270.27</ele>
        <time>2020-02-09T13:54:39Z</time>
      </trkpt>
      <trkpt lat="43.13771" lon="2.53718">
        <ele>269.79</ele>
        <time>2020-02-09T13:54:42Z</time>
      </trkpt>
      <trkpt lat="43.13779" lon="2.53709">
        <ele>269.31</ele>
        <time>2020-02-09T13:54:44Z</time>
      </trkpt>
      <trkpt lat="43.13782" lon="2.53704">
        <ele>269.79</ele>
        <time>2020-02-09T13:54:45Z</time>
      </trkpt>
      <trkpt lat="43.13785" lon="2.53699">
        <ele>269.31</ele>
        <time>2020-02-09T13:54:46Z</time>
      </trkpt>
      <trkpt lat="43.13786" lon="2.53693">
        <ele>268.35</ele>
        <time>2020-02-09T13:54:47Z</time>
      </trkpt>
      <trkpt lat="43.13787" lon="2.53687">
        <ele>268.35</ele>
        <time>2020-02-09T13:54:48Z</time>
      </trkpt>
      <trkpt lat="43.13789" lon="2.53681">
        <ele>268.35</ele>
        <time>2020-02-09T13:54:49Z</time>
      </trkpt>
      <trkpt lat="43.13804" lon="2.53647">
        <ele>266.9</ele>
        <time>2020-02-09T13:54:55Z</time>
      </trkpt>
      <trkpt lat="43.13808" lon="2.53643">
        <ele>265.94</ele>
        <time>2020-02-09T13:54:56Z</time>
      </trkpt>
      <trkpt lat="43.13813" lon="2.53641">
        <ele>265.46</ele>
        <time>2020-02-09T13:54:57Z</time>
      </trkpt>
      <trkpt lat="43.13819" lon="2.53642">
        <ele>266.42</ele>
        <time>2020-02-09T13:54:58Z</time>
      </trkpt>
      <trkpt lat="43.13824" lon="2.53644">
        <ele>266.42</ele>
        <time>2020-02-09T13:54:59Z</time>
      </trkpt>
      <trkpt lat="43.13833" lon="2.53647">
        <ele>265.94</ele>
        <time>2020-02-09T13:55:01Z</time>
      </trkpt>
      <trkpt lat="43.13838" lon="2.53647">
        <ele>266.42</ele>
        <time>2020-02-09T13:55:02Z</time>
      </trkpt>
      <trkpt lat="43.13861" lon="2.53654">
        <ele>267.38</ele>
        <time>2020-02-09T13:55:08Z</time>
      </trkpt>
      <trkpt lat="43.1387" lon="2.53658">
        <ele>267.38</ele>
        <time>2020-02-09T13:55:10Z</time>
      </trkpt>
      <trkpt lat="43.13884" lon="2.53671">
        <ele>264.02</ele>
        <time>2020-02-09T13:55:14Z</time>
      </trkpt>
      <trkpt lat="43.13887" lon="2.53673">
        <ele>263.54</ele>
        <time>2020-02-09T13:55:15Z</time>
      </trkpt>
      <trkpt lat="43.1389" lon="2.53673">
        <ele>262.58</ele>
        <time>2020-02-09T13:55:16Z</time>
      </trkpt>
      <trkpt lat="43.13893" lon="2.53672">
        <ele>262.1</ele>
        <time>2020-02-09T13:55:17Z</time>
      </trkpt>
      <trkpt lat="43.13897" lon="2.53672">
        <ele>261.62</ele>
        <time>2020-02-09T13:55:18Z</time>
      </trkpt>
      <trkpt lat="43.139" lon="2.53673">
        <ele>260.65</ele>
        <time>2020-02-09T13:55:19Z</time>
      </trkpt>
      <trkpt lat="43.13903" lon="2.53675">
        <ele>260.17</ele>
        <time>2020-02-09T13:55:20Z</time>
      </trkpt>
      <trkpt lat="43.13906" lon="2.53678">
        <ele>260.65</ele>
        <time>2020-02-09T13:55:21Z</time>
      </trkpt>
      <trkpt lat="43.1391" lon="2.53681">
        <ele>260.17</ele>
        <time>2020-02-09T13:55:22Z</time>
      </trkpt>
      <trkpt lat="43.13915" lon="2.53682">
        <ele>259.69</ele>
        <time>2020-02-09T13:55:23Z</time>
      </trkpt>
      <trkpt lat="43.1392" lon="2.53682">
        <ele>258.73</ele>
        <time>2020-02-09T13:55:24Z</time>
      </trkpt>
      <trkpt lat="43.13926" lon="2.53682">
        <ele>259.21</ele>
        <time>2020-02-09T13:55:25Z</time>
      </trkpt>
      <trkpt lat="43.13931" lon="2.53682">
        <ele>258.73</ele>
        <time>2020-02-09T13:55:26Z</time>
      </trkpt>
      <trkpt lat="43.13948" lon="2.53679">
        <ele>258.73</ele>
        <time>2020-02-09T13:55:29Z</time>
      </trkpt>
      <trkpt lat="43.13954" lon="2.53677">
        <ele>258.73</ele>
        <time>2020-02-09T13:55:30Z</time>
      </trkpt>
      <trkpt lat="43.13959" lon="2.53675">
        <ele>258.25</ele>
        <time>2020-02-09T13:55:31Z</time>
      </trkpt>
      <trkpt lat="43.13964" lon="2.53672">
        <ele>258.73</ele>
        <time>2020-02-09T13:55:32Z</time>
      </trkpt>
      <trkpt lat="43.1397" lon="2.53669">
        <ele>257.77</ele>
        <time>2020-02-09T13:55:33Z</time>
      </trkpt>
      <trkpt lat="43.13976" lon="2.53667">
        <ele>257.29</ele>
        <time>2020-02-09T13:55:34Z</time>
      </trkpt>
      <trkpt lat="43.13982" lon="2.53665">
        <ele>256.81</ele>
        <time>2020-02-09T13:55:35Z</time>
      </trkpt>
      <trkpt lat="43.13988" lon="2.53664">
        <ele>256.33</ele>
        <time>2020-02-09T13:55:36Z</time>
      </trkpt>
      <trkpt lat="43.13995" lon="2.53665">
        <ele>255.85</ele>
        <time>2020-02-09T13:55:37Z</time>
      </trkpt>
      <trkpt lat="43.14023" lon="2.53669">
        <ele>255.37</ele>
        <time>2020-02-09T13:55:41Z</time>
      </trkpt>
      <trkpt lat="43.14029" lon="2.53671">
        <ele>255.37</ele>
        <time>2020-02-09T13:55:42Z</time>
      </trkpt>
      <trkpt lat="43.1404" lon="2.53675">
        <ele>254.41</ele>
        <time>2020-02-09T13:55:44Z</time>
      </trkpt>
      <trkpt lat="43.14056" lon="2.53677">
        <ele>253.93</ele>
        <time>2020-02-09T13:55:47Z</time>
      </trkpt>
      <trkpt lat="43.14065" lon="2.53676">
        <ele>254.41</ele>
        <time>2020-02-09T13:55:49Z</time>
      </trkpt>
      <trkpt lat="43.14069" lon="2.53677">
        <ele>255.37</ele>
        <time>2020-02-09T13:55:50Z</time>
      </trkpt>
      <trkpt lat="43.14073" lon="2.53679">
        <ele>254.41</ele>
        <time>2020-02-09T13:55:51Z</time>
      </trkpt>
      <trkpt lat="43.14076" lon="2.53682">
        <ele>254.89</ele>
        <time>2020-02-09T13:55:52Z</time>
      </trkpt>
      <trkpt lat="43.1408" lon="2.53685">
        <ele>256.33</ele>
        <time>2020-02-09T13:55:53Z</time>
      </trkpt>
      <trkpt lat="43.14083" lon="2.53688">
        <ele>256.33</ele>
        <time>2020-02-09T13:55:54Z</time>
      </trkpt>
      <trkpt lat="43.14096" lon="2.53705">
        <ele>257.77</ele>
        <time>2020-02-09T13:55:59Z</time>
      </trkpt>
      <trkpt lat="43.14097" lon="2.53711">
        <ele>257.29</ele>
        <time>2020-02-09T13:56:00Z</time>
      </trkpt>
      <trkpt lat="43.14097" lon="2.53717">
        <ele>257.29</ele>
        <time>2020-02-09T13:56:01Z</time>
      </trkpt>
      <trkpt lat="43.14097" lon="2.53724">
        <ele>257.29</ele>
        <time>2020-02-09T13:56:02Z</time>
      </trkpt>
      <trkpt lat="43.14098" lon="2.53731">
        <ele>256.33</ele>
        <time>2020-02-09T13:56:03Z</time>
      </trkpt>
      <trkpt lat="43.14099" lon="2.53737">
        <ele>256.33</ele>
        <time>2020-02-09T13:56:04Z</time>
      </trkpt>
      <trkpt lat="43.14101" lon="2.53742">
        <ele>255.85</ele>
        <time>2020-02-09T13:56:05Z</time>
      </trkpt>
      <trkpt lat="43.14103" lon="2.53748">
        <ele>255.85</ele>
        <time>2020-02-09T13:56:06Z</time>
      </trkpt>
      <trkpt lat="43.1411" lon="2.5376">
        <ele>255.37</ele>
        <time>2020-02-09T13:56:09Z</time>
      </trkpt>
      <trkpt lat="43.14112" lon="2.53761">
        <ele>254.89</ele>
        <time>2020-02-09T13:56:10Z</time>
      </trkpt>
      <trkpt lat="43.14114" lon="2.53758">
        <ele>254.89</ele>
        <time>2020-02-09T13:56:11Z</time>
      </trkpt>
      <trkpt lat="43.14116" lon="2.53755">
        <ele>255.37</ele>
        <time>2020-02-09T13:56:12Z</time>
      </trkpt>
      <trkpt lat="43.14119" lon="2.53751">
        <ele>255.37</ele>
        <time>2020-02-09T13:56:13Z</time>
      </trkpt>
      <trkpt lat="43.14122" lon="2.53747">
        <ele>254.89</ele>
        <time>2020-02-09T13:56:14Z</time>
      </trkpt>
      <trkpt lat="43.14124" lon="2.53741">
        <ele>255.37</ele>
        <time>2020-02-09T13:56:15Z</time>
      </trkpt>
      <trkpt lat="43.14145" lon="2.53692">
        <ele>252</ele>
        <time>2020-02-09T13:56:22Z</time>
      </trkpt>
      <trkpt lat="43.14164" lon="2.53642">
        <ele>249.6</ele>
        <time>2020-02-09T13:56:27Z</time>
      </trkpt>
      <trkpt lat="43.14176" lon="2.53611">
        <ele>248.16</ele>
        <time>2020-02-09T13:56:30Z</time>
      </trkpt>
      <trkpt lat="43.1418" lon="2.53604">
        <ele>247.68</ele>
        <time>2020-02-09T13:56:31Z</time>
      </trkpt>
      <trkpt lat="43.14186" lon="2.536">
        <ele>246.72</ele>
        <time>2020-02-09T13:56:32Z</time>
      </trkpt>
      <trkpt lat="43.14192" lon="2.53598">
        <ele>246.72</ele>
        <time>2020-02-09T13:56:33Z</time>
      </trkpt>
      <trkpt lat="43.14198" lon="2.53596">
        <ele>246.72</ele>
        <time>2020-02-09T13:56:34Z</time>
      </trkpt>
      <trkpt lat="43.14204" lon="2.53592">
        <ele>247.2</ele>
        <time>2020-02-09T13:56:35Z</time>
      </trkpt>
      <trkpt lat="43.14208" lon="2.53586">
        <ele>246.72</ele>
        <time>2020-02-09T13:56:36Z</time>
      </trkpt>
      <trkpt lat="43.14211" lon="2.53579">
        <ele>247.2</ele>
        <time>2020-02-09T13:56:37Z</time>
      </trkpt>
      <trkpt lat="43.14213" lon="2.5357">
        <ele>247.2</ele>
        <time>2020-02-09T13:56:38Z</time>
      </trkpt>
      <trkpt lat="43.14215" lon="2.53561">
        <ele>246.72</ele>
        <time>2020-02-09T13:56:39Z</time>
      </trkpt>
      <trkpt lat="43.14216" lon="2.53552">
        <ele>246.23</ele>
        <time>2020-02-09T13:56:40Z</time>
      </trkpt>
      <trkpt lat="43.14224" lon="2.53502">
        <ele>244.79</ele>
        <time>2020-02-09T13:56:45Z</time>
      </trkpt>
      <trkpt lat="43.14225" lon="2.5349">
        <ele>244.79</ele>
        <time>2020-02-09T13:56:46Z</time>
      </trkpt>
      <trkpt lat="43.14225" lon="2.53478">
        <ele>244.79</ele>
        <time>2020-02-09T13:56:47Z</time>
      </trkpt>
      <trkpt lat="43.14225" lon="2.53453">
        <ele>243.35</ele>
        <time>2020-02-09T13:56:49Z</time>
      </trkpt>
      <trkpt lat="43.14223" lon="2.534">
        <ele>241.91</ele>
        <time>2020-02-09T13:56:53Z</time>
      </trkpt>
      <trkpt lat="43.14221" lon="2.53389">
        <ele>240.47</ele>
        <time>2020-02-09T13:56:54Z</time>
      </trkpt>
      <trkpt lat="43.14218" lon="2.5338">
        <ele>239.51</ele>
        <time>2020-02-09T13:56:55Z</time>
      </trkpt>
      <trkpt lat="43.14216" lon="2.53372">
        <ele>238.06</ele>
        <time>2020-02-09T13:56:56Z</time>
      </trkpt>
      <trkpt lat="43.14213" lon="2.53365">
        <ele>237.58</ele>
        <time>2020-02-09T13:56:57Z</time>
      </trkpt>
      <trkpt lat="43.14211" lon="2.53356">
        <ele>237.58</ele>
        <time>2020-02-09T13:56:58Z</time>
      </trkpt>
      <trkpt lat="43.14211" lon="2.53346">
        <ele>236.62</ele>
        <time>2020-02-09T13:56:59Z</time>
      </trkpt>
      <trkpt lat="43.14212" lon="2.53336">
        <ele>236.14</ele>
        <time>2020-02-09T13:57:00Z</time>
      </trkpt>
      <trkpt lat="43.14213" lon="2.53326">
        <ele>236.14</ele>
        <time>2020-02-09T13:57:01Z</time>
      </trkpt>
      <trkpt lat="43.14215" lon="2.53317">
        <ele>236.62</ele>
        <time>2020-02-09T13:57:02Z</time>
      </trkpt>
      <trkpt lat="43.14219" lon="2.53301">
        <ele>236.62</ele>
        <time>2020-02-09T13:57:04Z</time>
      </trkpt>
      <trkpt lat="43.1422" lon="2.53292">
        <ele>236.14</ele>
        <time>2020-02-09T13:57:05Z</time>
      </trkpt>
      <trkpt lat="43.1422" lon="2.53283">
        <ele>236.14</ele>
        <time>2020-02-09T13:57:06Z</time>
      </trkpt>
      <trkpt lat="43.14219" lon="2.53273">
        <ele>236.14</ele>
        <time>2020-02-09T13:57:07Z</time>
      </trkpt>
      <trkpt lat="43.14217" lon="2.53264">
        <ele>236.14</ele>
        <time>2020-02-09T13:57:08Z</time>
      </trkpt>
      <trkpt lat="43.14214" lon="2.53255">
        <ele>235.18</ele>
        <time>2020-02-09T13:57:09Z</time>
      </trkpt>
      <trkpt lat="43.14212" lon="2.53245">
        <ele>234.7</ele>
        <time>2020-02-09T13:57:10Z</time>
      </trkpt>
      <trkpt lat="43.14209" lon="2.53235">
        <ele>234.7</ele>
        <time>2020-02-09T13:57:11Z</time>
      </trkpt>
      <trkpt lat="43.14208" lon="2.53224">
        <ele>234.22</ele>
        <time>2020-02-09T13:57:12Z</time>
      </trkpt>
      <trkpt lat="43.14208" lon="2.53212">
        <ele>233.74</ele>
        <time>2020-02-09T13:57:13Z</time>
      </trkpt>
      <trkpt lat="43.14209" lon="2.53201">
        <ele>233.26</ele>
        <time>2020-02-09T13:57:14Z</time>
      </trkpt>
      <trkpt lat="43.14209" lon="2.53106">
        <ele>230.85</ele>
        <time>2020-02-09T13:57:25Z</time>
      </trkpt>
      <trkpt lat="43.14211" lon="2.53104">
        <ele>230.85</ele>
        <time>2020-02-09T13:57:26Z</time>
      </trkpt>
      <trkpt lat="43.14214" lon="2.53103">
        <ele>231.33</ele>
        <time>2020-02-09T13:57:27Z</time>
      </trkpt>
      <trkpt lat="43.14216" lon="2.53103">
        <ele>231.33</ele>
        <time>2020-02-09T13:57:28Z</time>
      </trkpt>
      <trkpt lat="43.14218" lon="2.53105">
        <ele>232.3</ele>
        <time>2020-02-09T13:57:29Z</time>
      </trkpt>
      <trkpt lat="43.1422" lon="2.53108">
        <ele>232.78</ele>
        <time>2020-02-09T13:57:30Z</time>
      </trkpt>
      <trkpt lat="43.14222" lon="2.53111">
        <ele>232.78</ele>
        <time>2020-02-09T13:57:31Z</time>
      </trkpt>
      <trkpt lat="43.14232" lon="2.53124">
        <ele>235.18</ele>
        <time>2020-02-09T13:57:36Z</time>
      </trkpt>
      <trkpt lat="43.14247" lon="2.53147">
        <ele>238.54</ele>
        <time>2020-02-09T13:57:44Z</time>
      </trkpt>
      <trkpt lat="43.14255" lon="2.53164">
        <ele>240.95</ele>
        <time>2020-02-09T13:57:50Z</time>
      </trkpt>
      <trkpt lat="43.14256" lon="2.53169">
        <ele>242.39</ele>
        <time>2020-02-09T13:57:52Z</time>
      </trkpt>
      <trkpt lat="43.14264" lon="2.53221">
        <ele>245.27</ele>
        <time>2020-02-09T13:58:12Z</time>
      </trkpt>
      <trkpt lat="43.14271" lon="2.53258">
        <ele>248.64</ele>
        <time>2020-02-09T13:58:28Z</time>
      </trkpt>
      <trkpt lat="43.14289" lon="2.53297">
        <ele>252</ele>
        <time>2020-02-09T13:58:47Z</time>
      </trkpt>
      <trkpt lat="43.1429" lon="2.53299">
        <ele>252</ele>
        <time>2020-02-09T13:58:48Z</time>
      </trkpt>
      <trkpt lat="43.14293" lon="2.53331">
        <ele>255.37</ele>
        <time>2020-02-09T13:59:04Z</time>
      </trkpt>
      <trkpt lat="43.14318" lon="2.53359">
        <ele>258.25</ele>
        <time>2020-02-09T13:59:26Z</time>
      </trkpt>
      <trkpt lat="43.14345" lon="2.53369">
        <ele>261.14</ele>
        <time>2020-02-09T13:59:44Z</time>
      </trkpt>
      <trkpt lat="43.14364" lon="2.53385">
        <ele>264.5</ele>
        <time>2020-02-09T13:59:58Z</time>
      </trkpt>
      <trkpt lat="43.14393" lon="2.5341">
        <ele>267.38</ele>
        <time>2020-02-09T14:00:19Z</time>
      </trkpt>
      <trkpt lat="43.14406" lon="2.53411">
        <ele>268.35</ele>
        <time>2020-02-09T14:00:27Z</time>
      </trkpt>
      <trkpt lat="43.14407" lon="2.5341">
        <ele>268.83</ele>
        <time>2020-02-09T14:00:28Z</time>
      </trkpt>
      <trkpt lat="43.14408" lon="2.5341">
        <ele>269.31</ele>
        <time>2020-02-09T14:00:29Z</time>
      </trkpt>
      <trkpt lat="43.14449" lon="2.53392">
        <ele>272.67</ele>
        <time>2020-02-09T14:00:51Z</time>
      </trkpt>
      <trkpt lat="43.14491" lon="2.53406">
        <ele>275.56</ele>
        <time>2020-02-09T14:01:13Z</time>
      </trkpt>
      <trkpt lat="43.1452" lon="2.53428">
        <ele>278.92</ele>
        <time>2020-02-09T14:01:30Z</time>
      </trkpt>
      <trkpt lat="43.14536" lon="2.5344">
        <ele>280.84</ele>
        <time>2020-02-09T14:01:38Z</time>
      </trkpt>
      <trkpt lat="43.14586" lon="2.5349">
        <ele>278.92</ele>
        <time>2020-02-09T14:01:58Z</time>
      </trkpt>
      <trkpt lat="43.14633" lon="2.53547">
        <ele>278.44</ele>
        <time>2020-02-09T14:02:17Z</time>
      </trkpt>
      <trkpt lat="43.14662" lon="2.53579">
        <ele>279.4</ele>
        <time>2020-02-09T14:02:34Z</time>
      </trkpt>
      <trkpt lat="43.14667" lon="2.53586">
        <ele>278.44</ele>
        <time>2020-02-09T14:02:53Z</time>
      </trkpt>
      <trkpt lat="43.14668" lon="2.53585">
        <ele>279.4</ele>
        <time>2020-02-09T14:03:30Z</time>
      </trkpt>
      <trkpt lat="43.14667" lon="2.53583">
        <ele>279.4</ele>
        <time>2020-02-09T14:03:31Z</time>
      </trkpt>
      <trkpt lat="43.14666" lon="2.53582">
        <ele>279.4</ele>
        <time>2020-02-09T14:03:32Z</time>
      </trkpt>
      <trkpt lat="43.14636" lon="2.53549">
        <ele>279.4</ele>
        <time>2020-02-09T14:03:47Z</time>
      </trkpt>
      <trkpt lat="43.14636" lon="2.53552">
        <ele>278.92</ele>
        <time>2020-02-09T14:04:04Z</time>
      </trkpt>
      <trkpt lat="43.14635" lon="2.53553">
        <ele>279.4</ele>
        <time>2020-02-09T14:04:36Z</time>
      </trkpt>
      <trkpt lat="43.14637" lon="2.53553">
        <ele>279.4</ele>
        <time>2020-02-09T14:04:38Z</time>
      </trkpt>
      <trkpt lat="43.14638" lon="2.53555">
        <ele>279.88</ele>
        <time>2020-02-09T14:04:39Z</time>
      </trkpt>
      <trkpt lat="43.1464" lon="2.53556">
        <ele>279.88</ele>
        <time>2020-02-09T14:04:40Z</time>
      </trkpt>
      <trkpt lat="43.14688" lon="2.53609">
        <ele>279.88</ele>
        <time>2020-02-09T14:04:57Z</time>
      </trkpt>
      <trkpt lat="43.14717" lon="2.53662">
        <ele>280.36</ele>
        <time>2020-02-09T14:05:09Z</time>
      </trkpt>
      <trkpt lat="43.14733" lon="2.53687">
        <ele>280.84</ele>
        <time>2020-02-09T14:05:15Z</time>
      </trkpt>
      <trkpt lat="43.14737" lon="2.5369">
        <ele>280.84</ele>
        <time>2020-02-09T14:05:16Z</time>
      </trkpt>
      <trkpt lat="43.14762" lon="2.53718">
        <ele>279.88</ele>
        <time>2020-02-09T14:05:23Z</time>
      </trkpt>
      <trkpt lat="43.14807" lon="2.53755">
        <ele>278.44</ele>
        <time>2020-02-09T14:05:33Z</time>
      </trkpt>
      <trkpt lat="43.14812" lon="2.53757">
        <ele>278.92</ele>
        <time>2020-02-09T14:05:34Z</time>
      </trkpt>
      <trkpt lat="43.14817" lon="2.53759">
        <ele>278.44</ele>
        <time>2020-02-09T14:05:35Z</time>
      </trkpt>
      <trkpt lat="43.14823" lon="2.53759">
        <ele>278.44</ele>
        <time>2020-02-09T14:05:36Z</time>
      </trkpt>
      <trkpt lat="43.14828" lon="2.53759">
        <ele>277.96</ele>
        <time>2020-02-09T14:05:37Z</time>
      </trkpt>
      <trkpt lat="43.14833" lon="2.53758">
        <ele>277.96</ele>
        <time>2020-02-09T14:05:38Z</time>
      </trkpt>
      <trkpt lat="43.14838" lon="2.53757">
        <ele>277.48</ele>
        <time>2020-02-09T14:05:39Z</time>
      </trkpt>
      <trkpt lat="43.14844" lon="2.53756">
        <ele>277</ele>
        <time>2020-02-09T14:05:40Z</time>
      </trkpt>
      <trkpt lat="43.14855" lon="2.53756">
        <ele>276.52</ele>
        <time>2020-02-09T14:05:42Z</time>
      </trkpt>
      <trkpt lat="43.14861" lon="2.53757">
        <ele>276.52</ele>
        <time>2020-02-09T14:05:43Z</time>
      </trkpt>
      <trkpt lat="43.14866" lon="2.5376">
        <ele>276.04</ele>
        <time>2020-02-09T14:05:44Z</time>
      </trkpt>
      <trkpt lat="43.14872" lon="2.53764">
        <ele>275.56</ele>
        <time>2020-02-09T14:05:45Z</time>
      </trkpt>
      <trkpt lat="43.14877" lon="2.53768">
        <ele>276.04</ele>
        <time>2020-02-09T14:05:46Z</time>
      </trkpt>
      <trkpt lat="43.14882" lon="2.53773">
        <ele>274.59</ele>
        <time>2020-02-09T14:05:47Z</time>
      </trkpt>
      <trkpt lat="43.14887" lon="2.53779">
        <ele>274.59</ele>
        <time>2020-02-09T14:05:48Z</time>
      </trkpt>
      <trkpt lat="43.14891" lon="2.53785">
        <ele>274.59</ele>
        <time>2020-02-09T14:05:49Z</time>
      </trkpt>
      <trkpt lat="43.14895" lon="2.53793">
        <ele>274.11</ele>
        <time>2020-02-09T14:05:50Z</time>
      </trkpt>
      <trkpt lat="43.14898" lon="2.538">
        <ele>274.11</ele>
        <time>2020-02-09T14:05:51Z</time>
      </trkpt>
      <trkpt lat="43.14904" lon="2.53817">
        <ele>273.63</ele>
        <time>2020-02-09T14:05:53Z</time>
      </trkpt>
      <trkpt lat="43.14908" lon="2.53824">
        <ele>273.15</ele>
        <time>2020-02-09T14:05:54Z</time>
      </trkpt>
      <trkpt lat="43.14914" lon="2.5383">
        <ele>271.23</ele>
        <time>2020-02-09T14:05:55Z</time>
      </trkpt>
      <trkpt lat="43.1492" lon="2.53834">
        <ele>271.23</ele>
        <time>2020-02-09T14:05:56Z</time>
      </trkpt>
      <trkpt lat="43.14926" lon="2.53837">
        <ele>271.23</ele>
        <time>2020-02-09T14:05:57Z</time>
      </trkpt>
      <trkpt lat="43.14932" lon="2.53839">
        <ele>271.23</ele>
        <time>2020-02-09T14:05:58Z</time>
      </trkpt>
      <trkpt lat="43.14939" lon="2.5384">
        <ele>270.75</ele>
        <time>2020-02-09T14:05:59Z</time>
      </trkpt>
      <trkpt lat="43.14946" lon="2.5384">
        <ele>270.27</ele>
        <time>2020-02-09T14:06:00Z</time>
      </trkpt>
      <trkpt lat="43.14952" lon="2.53841">
        <ele>269.79</ele>
        <time>2020-02-09T14:06:01Z</time>
      </trkpt>
      <trkpt lat="43.15006" lon="2.53857">
        <ele>267.86</ele>
        <time>2020-02-09T14:06:09Z</time>
      </trkpt>
      <trkpt lat="43.15013" lon="2.53858">
        <ele>266.9</ele>
        <time>2020-02-09T14:06:10Z</time>
      </trkpt>
      <trkpt lat="43.15019" lon="2.53858">
        <ele>265.94</ele>
        <time>2020-02-09T14:06:11Z</time>
      </trkpt>
      <trkpt lat="43.15039" lon="2.53856">
        <ele>264.98</ele>
        <time>2020-02-09T14:06:14Z</time>
      </trkpt>
      <trkpt lat="43.15046" lon="2.53856">
        <ele>264.5</ele>
        <time>2020-02-09T14:06:15Z</time>
      </trkpt>
      <trkpt lat="43.15053" lon="2.53858">
        <ele>264.5</ele>
        <time>2020-02-09T14:06:16Z</time>
      </trkpt>
      <trkpt lat="43.15059" lon="2.53861">
        <ele>264.5</ele>
        <time>2020-02-09T14:06:17Z</time>
      </trkpt>
      <trkpt lat="43.15065" lon="2.53865">
        <ele>264.98</ele>
        <time>2020-02-09T14:06:18Z</time>
      </trkpt>
      <trkpt lat="43.15071" lon="2.5387">
        <ele>264.02</ele>
        <time>2020-02-09T14:06:19Z</time>
      </trkpt>
      <trkpt lat="43.1509" lon="2.53886">
        <ele>263.06</ele>
        <time>2020-02-09T14:06:22Z</time>
      </trkpt>
      <trkpt lat="43.15097" lon="2.53889">
        <ele>262.1</ele>
        <time>2020-02-09T14:06:23Z</time>
      </trkpt>
      <trkpt lat="43.15104" lon="2.53892">
        <ele>261.62</ele>
        <time>2020-02-09T14:06:24Z</time>
      </trkpt>
      <trkpt lat="43.15127" lon="2.53875">
        <ele>263.06</ele>
        <time>2020-02-09T14:08:21Z</time>
      </trkpt>
      <trkpt lat="43.15134" lon="2.53863">
        <ele>265.94</ele>
        <time>2020-02-09T14:08:30Z</time>
      </trkpt>
      <trkpt lat="43.15135" lon="2.53862">
        <ele>265.94</ele>
        <time>2020-02-09T14:08:31Z</time>
      </trkpt>
      <trkpt lat="43.15146" lon="2.53848">
        <ele>268.83</ele>
        <time>2020-02-09T14:08:44Z</time>
      </trkpt>
      <trkpt lat="43.15165" lon="2.53821">
        <ele>271.71</ele>
        <time>2020-02-09T14:09:05Z</time>
      </trkpt>
      <trkpt lat="43.15172" lon="2.53815">
        <ele>272.19</ele>
        <time>2020-02-09T14:09:12Z</time>
      </trkpt>
      <trkpt lat="43.15173" lon="2.53814">
        <ele>272.67</ele>
        <time>2020-02-09T14:09:13Z</time>
      </trkpt>
      <trkpt lat="43.15174" lon="2.53814">
        <ele>273.15</ele>
        <time>2020-02-09T14:09:14Z</time>
      </trkpt>
      <trkpt lat="43.15178" lon="2.53811">
        <ele>273.63</ele>
        <time>2020-02-09T14:09:19Z</time>
      </trkpt>
      <trkpt lat="43.1518" lon="2.53809">
        <ele>275.07</ele>
        <time>2020-02-09T14:09:20Z</time>
      </trkpt>
      <trkpt lat="43.15181" lon="2.53808">
        <ele>275.07</ele>
        <time>2020-02-09T14:09:21Z</time>
      </trkpt>
      <trkpt lat="43.15193" lon="2.538">
        <ele>277.96</ele>
        <time>2020-02-09T14:09:32Z</time>
      </trkpt>
      <trkpt lat="43.15202" lon="2.5379">
        <ele>278.92</ele>
        <time>2020-02-09T14:09:40Z</time>
      </trkpt>
      <trkpt lat="43.15227" lon="2.53786">
        <ele>279.4</ele>
        <time>2020-02-09T14:09:55Z</time>
      </trkpt>
      <trkpt lat="43.15229" lon="2.53787">
        <ele>279.88</ele>
        <time>2020-02-09T14:09:56Z</time>
      </trkpt>
      <trkpt lat="43.1523" lon="2.53788">
        <ele>279.4</ele>
        <time>2020-02-09T14:09:57Z</time>
      </trkpt>
      <trkpt lat="43.15232" lon="2.53788">
        <ele>279.4</ele>
        <time>2020-02-09T14:09:58Z</time>
      </trkpt>
      <trkpt lat="43.15234" lon="2.53788">
        <ele>279.88</ele>
        <time>2020-02-09T14:10:00Z</time>
      </trkpt>
      <trkpt lat="43.15235" lon="2.53787">
        <ele>280.84</ele>
        <time>2020-02-09T14:10:01Z</time>
      </trkpt>
      <trkpt lat="43.15237" lon="2.53787">
        <ele>280.36</ele>
        <time>2020-02-09T14:10:02Z</time>
      </trkpt>
      <trkpt lat="43.15254" lon="2.53783">
        <ele>283.25</ele>
        <time>2020-02-09T14:10:14Z</time>
      </trkpt>
      <trkpt lat="43.15278" lon="2.53778">
        <ele>285.65</ele>
        <time>2020-02-09T14:10:28Z</time>
      </trkpt>
      <trkpt lat="43.15282" lon="2.53779">
        <ele>285.65</ele>
        <time>2020-02-09T14:10:31Z</time>
      </trkpt>
      <trkpt lat="43.15284" lon="2.5378">
        <ele>285.17</ele>
        <time>2020-02-09T14:10:32Z</time>
      </trkpt>
      <trkpt lat="43.15285" lon="2.5378">
        <ele>285.65</ele>
        <time>2020-02-09T14:10:33Z</time>
      </trkpt>
      <trkpt lat="43.15298" lon="2.53777">
        <ele>287.57</ele>
        <time>2020-02-09T14:10:44Z</time>
      </trkpt>
      <trkpt lat="43.153" lon="2.53777">
        <ele>287.57</ele>
        <time>2020-02-09T14:10:45Z</time>
      </trkpt>
      <trkpt lat="43.15302" lon="2.53775">
        <ele>287.57</ele>
        <time>2020-02-09T14:10:47Z</time>
      </trkpt>
      <trkpt lat="43.15308" lon="2.53771">
        <ele>289.01</ele>
        <time>2020-02-09T14:10:53Z</time>
      </trkpt>
      <trkpt lat="43.15309" lon="2.5377">
        <ele>289.01</ele>
        <time>2020-02-09T14:10:54Z</time>
      </trkpt>
      <trkpt lat="43.1531" lon="2.53769">
        <ele>289.01</ele>
        <time>2020-02-09T14:10:55Z</time>
      </trkpt>
      <trkpt lat="43.15311" lon="2.53767">
        <ele>289.01</ele>
        <time>2020-02-09T14:10:56Z</time>
      </trkpt>
      <trkpt lat="43.15312" lon="2.53765">
        <ele>289.01</ele>
        <time>2020-02-09T14:10:57Z</time>
      </trkpt>
      <trkpt lat="43.15313" lon="2.53764">
        <ele>289.01</ele>
        <time>2020-02-09T14:10:58Z</time>
      </trkpt>
      <trkpt lat="43.15315" lon="2.53763">
        <ele>289.49</ele>
        <time>2020-02-09T14:10:59Z</time>
      </trkpt>
      <trkpt lat="43.15323" lon="2.53757">
        <ele>290.46</ele>
        <time>2020-02-09T14:11:08Z</time>
      </trkpt>
      <trkpt lat="43.15327" lon="2.53756">
        <ele>291.42</ele>
        <time>2020-02-09T14:11:11Z</time>
      </trkpt>
      <trkpt lat="43.15328" lon="2.53757">
        <ele>290.94</ele>
        <time>2020-02-09T14:11:12Z</time>
      </trkpt>
      <trkpt lat="43.1533" lon="2.53757">
        <ele>291.42</ele>
        <time>2020-02-09T14:11:13Z</time>
      </trkpt>
      <trkpt lat="43.15337" lon="2.5376">
        <ele>292.86</ele>
        <time>2020-02-09T14:11:19Z</time>
      </trkpt>
      <trkpt lat="43.15339" lon="2.53761">
        <ele>292.86</ele>
        <time>2020-02-09T14:11:20Z</time>
      </trkpt>
      <trkpt lat="43.1534" lon="2.53761">
        <ele>293.34</ele>
        <time>2020-02-09T14:11:21Z</time>
      </trkpt>
      <trkpt lat="43.15356" lon="2.53767">
        <ele>294.3</ele>
        <time>2020-02-09T14:11:38Z</time>
      </trkpt>
      <trkpt lat="43.15358" lon="2.53767">
        <ele>294.78</ele>
        <time>2020-02-09T14:11:40Z</time>
      </trkpt>
      <trkpt lat="43.15365" lon="2.53769">
        <ele>295.26</ele>
        <time>2020-02-09T14:11:46Z</time>
      </trkpt>
      <trkpt lat="43.1537" lon="2.5377">
        <ele>295.74</ele>
        <time>2020-02-09T14:11:51Z</time>
      </trkpt>
      <trkpt lat="43.15375" lon="2.53771">
        <ele>296.22</ele>
        <time>2020-02-09T14:11:55Z</time>
      </trkpt>
      <trkpt lat="43.1539" lon="2.53772">
        <ele>298.15</ele>
        <time>2020-02-09T14:12:13Z</time>
      </trkpt>
      <trkpt lat="43.15392" lon="2.53773">
        <ele>298.15</ele>
        <time>2020-02-09T14:12:14Z</time>
      </trkpt>
      <trkpt lat="43.15393" lon="2.53773">
        <ele>298.15</ele>
        <time>2020-02-09T14:12:15Z</time>
      </trkpt>
      <trkpt lat="43.15395" lon="2.53773">
        <ele>298.63</ele>
        <time>2020-02-09T14:12:16Z</time>
      </trkpt>
      <trkpt lat="43.15396" lon="2.53774">
        <ele>298.63</ele>
        <time>2020-02-09T14:12:17Z</time>
      </trkpt>
      <trkpt lat="43.15398" lon="2.53775">
        <ele>298.63</ele>
        <time>2020-02-09T14:12:18Z</time>
      </trkpt>
      <trkpt lat="43.15399" lon="2.53776">
        <ele>298.63</ele>
        <time>2020-02-09T14:12:19Z</time>
      </trkpt>
      <trkpt lat="43.15401" lon="2.53776">
        <ele>299.11</ele>
        <time>2020-02-09T14:12:20Z</time>
      </trkpt>
      <trkpt lat="43.15402" lon="2.53777">
        <ele>299.59</ele>
        <time>2020-02-09T14:12:21Z</time>
      </trkpt>
      <trkpt lat="43.15404" lon="2.53777">
        <ele>299.11</ele>
        <time>2020-02-09T14:12:22Z</time>
      </trkpt>
      <trkpt lat="43.15405" lon="2.53778">
        <ele>299.11</ele>
        <time>2020-02-09T14:12:23Z</time>
      </trkpt>
      <trkpt lat="43.15407" lon="2.53778">
        <ele>299.59</ele>
        <time>2020-02-09T14:12:24Z</time>
      </trkpt>
      <trkpt lat="43.15408" lon="2.53779">
        <ele>300.07</ele>
        <time>2020-02-09T14:12:25Z</time>
      </trkpt>
      <trkpt lat="43.15409" lon="2.53778">
        <ele>300.07</ele>
        <time>2020-02-09T14:12:26Z</time>
      </trkpt>
      <trkpt lat="43.1541" lon="2.53779">
        <ele>300.07</ele>
        <time>2020-02-09T14:12:27Z</time>
      </trkpt>
      <trkpt lat="43.15411" lon="2.53779">
        <ele>300.07</ele>
        <time>2020-02-09T14:12:28Z</time>
      </trkpt>
      <trkpt lat="43.15413" lon="2.53779">
        <ele>300.55</ele>
        <time>2020-02-09T14:12:29Z</time>
      </trkpt>
      <trkpt lat="43.15414" lon="2.53779">
        <ele>301.51</ele>
        <time>2020-02-09T14:12:30Z</time>
      </trkpt>
      <trkpt lat="43.15416" lon="2.53779">
        <ele>301.03</ele>
        <time>2020-02-09T14:12:31Z</time>
      </trkpt>
      <trkpt lat="43.15418" lon="2.53779">
        <ele>301.03</ele>
        <time>2020-02-09T14:12:32Z</time>
      </trkpt>
      <trkpt lat="43.15419" lon="2.53778">
        <ele>301.51</ele>
        <time>2020-02-09T14:12:33Z</time>
      </trkpt>
      <trkpt lat="43.15421" lon="2.53778">
        <ele>301.99</ele>
        <time>2020-02-09T14:12:34Z</time>
      </trkpt>
      <trkpt lat="43.15423" lon="2.53777">
        <ele>301.51</ele>
        <time>2020-02-09T14:12:35Z</time>
      </trkpt>
      <trkpt lat="43.15424" lon="2.53776">
        <ele>301.99</ele>
        <time>2020-02-09T14:12:36Z</time>
      </trkpt>
      <trkpt lat="43.15435" lon="2.5377">
        <ele>303.43</ele>
        <time>2020-02-09T14:12:43Z</time>
      </trkpt>
      <trkpt lat="43.15439" lon="2.53767">
        <ele>303.43</ele>
        <time>2020-02-09T14:12:46Z</time>
      </trkpt>
      <trkpt lat="43.15459" lon="2.53741">
        <ele>306.8</ele>
        <time>2020-02-09T14:13:06Z</time>
      </trkpt>
      <trkpt lat="43.15461" lon="2.53738">
        <ele>307.76</ele>
        <time>2020-02-09T14:13:08Z</time>
      </trkpt>
      <trkpt lat="43.15475" lon="2.53717">
        <ele>309.2</ele>
        <time>2020-02-09T14:13:22Z</time>
      </trkpt>
      <trkpt lat="43.15476" lon="2.53715">
        <ele>309.2</ele>
        <time>2020-02-09T14:13:23Z</time>
      </trkpt>
      <trkpt lat="43.15477" lon="2.53714">
        <ele>309.68</ele>
        <time>2020-02-09T14:13:24Z</time>
      </trkpt>
      <trkpt lat="43.15478" lon="2.53712">
        <ele>310.16</ele>
        <time>2020-02-09T14:13:25Z</time>
      </trkpt>
      <trkpt lat="43.15479" lon="2.53711">
        <ele>310.16</ele>
        <time>2020-02-09T14:13:26Z</time>
      </trkpt>
      <trkpt lat="43.15483" lon="2.53704">
        <ele>311.12</ele>
        <time>2020-02-09T14:13:31Z</time>
      </trkpt>
      <trkpt lat="43.1549" lon="2.53692">
        <ele>311.12</ele>
        <time>2020-02-09T14:13:39Z</time>
      </trkpt>
      <trkpt lat="43.15491" lon="2.5369">
        <ele>311.6</ele>
        <time>2020-02-09T14:13:40Z</time>
      </trkpt>
      <trkpt lat="43.15497" lon="2.53667">
        <ele>313.05</ele>
        <time>2020-02-09T14:13:53Z</time>
      </trkpt>
      <trkpt lat="43.15499" lon="2.53626">
        <ele>315.93</ele>
        <time>2020-02-09T14:14:14Z</time>
      </trkpt>
      <trkpt lat="43.155" lon="2.53624">
        <ele>315.93</ele>
        <time>2020-02-09T14:14:15Z</time>
      </trkpt>
      <trkpt lat="43.155" lon="2.53622">
        <ele>315.93</ele>
        <time>2020-02-09T14:14:16Z</time>
      </trkpt>
      <trkpt lat="43.155" lon="2.5362">
        <ele>316.41</ele>
        <time>2020-02-09T14:14:17Z</time>
      </trkpt>
      <trkpt lat="43.155" lon="2.53619">
        <ele>316.41</ele>
        <time>2020-02-09T14:14:18Z</time>
      </trkpt>
      <trkpt lat="43.15501" lon="2.53617">
        <ele>316.41</ele>
        <time>2020-02-09T14:14:19Z</time>
      </trkpt>
      <trkpt lat="43.15521" lon="2.53583">
        <ele>319.3</ele>
        <time>2020-02-09T14:14:42Z</time>
      </trkpt>
      <trkpt lat="43.15527" lon="2.53584">
        <ele>319.78</ele>
        <time>2020-02-09T14:14:46Z</time>
      </trkpt>
      <trkpt lat="43.15529" lon="2.53585">
        <ele>320.26</ele>
        <time>2020-02-09T14:14:47Z</time>
      </trkpt>
      <trkpt lat="43.1553" lon="2.53586">
        <ele>320.74</ele>
        <time>2020-02-09T14:14:48Z</time>
      </trkpt>
      <trkpt lat="43.15532" lon="2.53586">
        <ele>320.74</ele>
        <time>2020-02-09T14:14:49Z</time>
      </trkpt>
      <trkpt lat="43.15533" lon="2.53587">
        <ele>320.74</ele>
        <time>2020-02-09T14:14:50Z</time>
      </trkpt>
      <trkpt lat="43.15534" lon="2.53587">
        <ele>320.74</ele>
        <time>2020-02-09T14:14:51Z</time>
      </trkpt>
      <trkpt lat="43.15536" lon="2.53587">
        <ele>320.74</ele>
        <time>2020-02-09T14:14:52Z</time>
      </trkpt>
      <trkpt lat="43.15541" lon="2.53589">
        <ele>321.7</ele>
        <time>2020-02-09T14:14:56Z</time>
      </trkpt>
      <trkpt lat="43.15543" lon="2.53589">
        <ele>321.22</ele>
        <time>2020-02-09T14:14:57Z</time>
      </trkpt>
      <trkpt lat="43.15544" lon="2.53588">
        <ele>321.22</ele>
        <time>2020-02-09T14:14:58Z</time>
      </trkpt>
      <trkpt lat="43.15566" lon="2.53573">
        <ele>324.1</ele>
        <time>2020-02-09T14:15:15Z</time>
      </trkpt>
      <trkpt lat="43.15566" lon="2.53571">
        <ele>324.1</ele>
        <time>2020-02-09T14:15:16Z</time>
      </trkpt>
      <trkpt lat="43.15567" lon="2.53569">
        <ele>324.58</ele>
        <time>2020-02-09T14:15:17Z</time>
      </trkpt>
      <trkpt lat="43.15568" lon="2.53568">
        <ele>324.58</ele>
        <time>2020-02-09T14:15:18Z</time>
      </trkpt>
      <trkpt lat="43.1557" lon="2.53568">
        <ele>324.58</ele>
        <time>2020-02-09T14:15:19Z</time>
      </trkpt>
      <trkpt lat="43.15571" lon="2.53567">
        <ele>325.06</ele>
        <time>2020-02-09T14:15:20Z</time>
      </trkpt>
      <trkpt lat="43.15572" lon="2.53566">
        <ele>325.54</ele>
        <time>2020-02-09T14:15:21Z</time>
      </trkpt>
      <trkpt lat="43.15573" lon="2.53565">
        <ele>325.06</ele>
        <time>2020-02-09T14:15:22Z</time>
      </trkpt>
      <trkpt lat="43.15594" lon="2.5354">
        <ele>326.99</ele>
        <time>2020-02-09T14:15:42Z</time>
      </trkpt>
      <trkpt lat="43.1561" lon="2.53524">
        <ele>328.91</ele>
        <time>2020-02-09T14:15:55Z</time>
      </trkpt>
      <trkpt lat="43.15611" lon="2.53523">
        <ele>328.91</ele>
        <time>2020-02-09T14:15:56Z</time>
      </trkpt>
      <trkpt lat="43.15612" lon="2.53522">
        <ele>329.39</ele>
        <time>2020-02-09T14:15:57Z</time>
      </trkpt>
      <trkpt lat="43.15613" lon="2.53521">
        <ele>329.87</ele>
        <time>2020-02-09T14:15:58Z</time>
      </trkpt>
      <trkpt lat="43.15614" lon="2.53519">
        <ele>329.87</ele>
        <time>2020-02-09T14:15:59Z</time>
      </trkpt>
      <trkpt lat="43.15634" lon="2.53497">
        <ele>331.79</ele>
        <time>2020-02-09T14:16:15Z</time>
      </trkpt>
      <trkpt lat="43.15634" lon="2.53494">
        <ele>332.27</ele>
        <time>2020-02-09T14:16:16Z</time>
      </trkpt>
      <trkpt lat="43.15626" lon="2.53452">
        <ele>333.23</ele>
        <time>2020-02-09T14:16:39Z</time>
      </trkpt>
      <trkpt lat="43.15622" lon="2.53441">
        <ele>334.68</ele>
        <time>2020-02-09T14:17:00Z</time>
      </trkpt>
      <trkpt lat="43.15619" lon="2.53431">
        <ele>333.71</ele>
        <time>2020-02-09T14:17:20Z</time>
      </trkpt>
      <trkpt lat="43.15618" lon="2.53434">
        <ele>333.71</ele>
        <time>2020-02-09T14:18:25Z</time>
      </trkpt>
      <trkpt lat="43.15619" lon="2.53433">
        <ele>334.2</ele>
        <time>2020-02-09T14:19:35Z</time>
      </trkpt>
      <trkpt lat="43.15616" lon="2.53429">
        <ele>334.68</ele>
        <time>2020-02-09T14:19:45Z</time>
      </trkpt>
      <trkpt lat="43.15598" lon="2.53396">
        <ele>338.04</ele>
        <time>2020-02-09T14:20:05Z</time>
      </trkpt>
      <trkpt lat="43.15582" lon="2.53361">
        <ele>340.92</ele>
        <time>2020-02-09T14:20:25Z</time>
      </trkpt>
      <trkpt lat="43.15581" lon="2.5336">
        <ele>340.92</ele>
        <time>2020-02-09T14:20:26Z</time>
      </trkpt>
      <trkpt lat="43.1558" lon="2.53358">
        <ele>340.44</ele>
        <time>2020-02-09T14:20:27Z</time>
      </trkpt>
      <trkpt lat="43.15565" lon="2.53328">
        <ele>343.33</ele>
        <time>2020-02-09T14:20:47Z</time>
      </trkpt>
      <trkpt lat="43.15565" lon="2.53327">
        <ele>343.33</ele>
        <time>2020-02-09T14:20:48Z</time>
      </trkpt>
      <trkpt lat="43.15564" lon="2.53325">
        <ele>343.33</ele>
        <time>2020-02-09T14:20:49Z</time>
      </trkpt>
      <trkpt lat="43.15563" lon="2.53324">
        <ele>343.33</ele>
        <time>2020-02-09T14:20:50Z</time>
      </trkpt>
      <trkpt lat="43.15562" lon="2.53323">
        <ele>343.81</ele>
        <time>2020-02-09T14:20:51Z</time>
      </trkpt>
      <trkpt lat="43.15561" lon="2.53322">
        <ele>344.29</ele>
        <time>2020-02-09T14:20:52Z</time>
      </trkpt>
      <trkpt lat="43.1556" lon="2.5332">
        <ele>343.81</ele>
        <time>2020-02-09T14:20:53Z</time>
      </trkpt>
      <trkpt lat="43.15551" lon="2.53307">
        <ele>345.25</ele>
        <time>2020-02-09T14:21:04Z</time>
      </trkpt>
      <trkpt lat="43.15551" lon="2.53306">
        <ele>346.21</ele>
        <time>2020-02-09T14:21:05Z</time>
      </trkpt>
      <trkpt lat="43.15541" lon="2.53292">
        <ele>348.13</ele>
        <time>2020-02-09T14:21:24Z</time>
      </trkpt>
      <trkpt lat="43.1553" lon="2.53281">
        <ele>349.58</ele>
        <time>2020-02-09T14:21:40Z</time>
      </trkpt>
      <trkpt lat="43.15524" lon="2.53278">
        <ele>350.54</ele>
        <time>2020-02-09T14:21:46Z</time>
      </trkpt>
      <trkpt lat="43.15524" lon="2.53276">
        <ele>350.06</ele>
        <time>2020-02-09T14:21:47Z</time>
      </trkpt>
      <trkpt lat="43.15523" lon="2.53275">
        <ele>350.54</ele>
        <time>2020-02-09T14:21:48Z</time>
      </trkpt>
      <trkpt lat="43.15522" lon="2.53274">
        <ele>350.54</ele>
        <time>2020-02-09T14:21:49Z</time>
      </trkpt>
      <trkpt lat="43.15521" lon="2.53273">
        <ele>350.54</ele>
        <time>2020-02-09T14:21:50Z</time>
      </trkpt>
      <trkpt lat="43.15519" lon="2.53273">
        <ele>351.02</ele>
        <time>2020-02-09T14:21:51Z</time>
      </trkpt>
      <trkpt lat="43.15518" lon="2.53273">
        <ele>351.02</ele>
        <time>2020-02-09T14:21:52Z</time>
      </trkpt>
      <trkpt lat="43.15517" lon="2.53273">
        <ele>350.54</ele>
        <time>2020-02-09T14:21:53Z</time>
      </trkpt>
      <trkpt lat="43.15516" lon="2.53272">
        <ele>351.02</ele>
        <time>2020-02-09T14:21:54Z</time>
      </trkpt>
      <trkpt lat="43.15515" lon="2.53272">
        <ele>351.98</ele>
        <time>2020-02-09T14:21:55Z</time>
      </trkpt>
      <trkpt lat="43.15513" lon="2.53272">
        <ele>351.98</ele>
        <time>2020-02-09T14:21:56Z</time>
      </trkpt>
      <trkpt lat="43.15512" lon="2.53271">
        <ele>352.46</ele>
        <time>2020-02-09T14:21:57Z</time>
      </trkpt>
      <trkpt lat="43.15498" lon="2.53263">
        <ele>353.9</ele>
        <time>2020-02-09T14:22:10Z</time>
      </trkpt>
      <trkpt lat="43.15497" lon="2.53262">
        <ele>353.9</ele>
        <time>2020-02-09T14:22:11Z</time>
      </trkpt>
      <trkpt lat="43.15496" lon="2.5326">
        <ele>354.38</ele>
        <time>2020-02-09T14:22:12Z</time>
      </trkpt>
      <trkpt lat="43.15495" lon="2.53259">
        <ele>353.9</ele>
        <time>2020-02-09T14:22:13Z</time>
      </trkpt>
      <trkpt lat="43.15494" lon="2.53259">
        <ele>353.9</ele>
        <time>2020-02-09T14:22:14Z</time>
      </trkpt>
      <trkpt lat="43.15493" lon="2.53258">
        <ele>354.86</ele>
        <time>2020-02-09T14:22:15Z</time>
      </trkpt>
      <trkpt lat="43.15491" lon="2.53258">
        <ele>354.86</ele>
        <time>2020-02-09T14:22:16Z</time>
      </trkpt>
      <trkpt lat="43.1549" lon="2.53258">
        <ele>354.86</ele>
        <time>2020-02-09T14:22:17Z</time>
      </trkpt>
      <trkpt lat="43.15485" lon="2.53257">
        <ele>355.83</ele>
        <time>2020-02-09T14:22:21Z</time>
      </trkpt>
      <trkpt lat="43.15484" lon="2.53257">
        <ele>355.83</ele>
        <time>2020-02-09T14:22:22Z</time>
      </trkpt>
      <trkpt lat="43.15457" lon="2.53259">
        <ele>358.23</ele>
        <time>2020-02-09T14:22:44Z</time>
      </trkpt>
      <trkpt lat="43.15452" lon="2.53259">
        <ele>359.19</ele>
        <time>2020-02-09T14:22:49Z</time>
      </trkpt>
      <trkpt lat="43.15451" lon="2.53259">
        <ele>359.19</ele>
        <time>2020-02-09T14:22:50Z</time>
      </trkpt>
      <trkpt lat="43.1545" lon="2.53259">
        <ele>359.67</ele>
        <time>2020-02-09T14:22:51Z</time>
      </trkpt>
      <trkpt lat="43.15449" lon="2.5326">
        <ele>360.15</ele>
        <time>2020-02-09T14:22:52Z</time>
      </trkpt>
      <trkpt lat="43.15448" lon="2.5326">
        <ele>359.19</ele>
        <time>2020-02-09T14:22:53Z</time>
      </trkpt>
      <trkpt lat="43.15427" lon="2.53266">
        <ele>362.55</ele>
        <time>2020-02-09T14:23:11Z</time>
      </trkpt>
      <trkpt lat="43.15393" lon="2.53271">
        <ele>365.44</ele>
        <time>2020-02-09T14:23:34Z</time>
      </trkpt>
      <trkpt lat="43.15352" lon="2.53247">
        <ele>363.04</ele>
        <time>2020-02-09T14:23:51Z</time>
      </trkpt>
      <trkpt lat="43.15324" lon="2.53194">
        <ele>363.04</ele>
        <time>2020-02-09T14:24:09Z</time>
      </trkpt>
      <trkpt lat="43.15285" lon="2.53183">
        <ele>365.44</ele>
        <time>2020-02-09T14:24:26Z</time>
      </trkpt>
      <trkpt lat="43.1528" lon="2.5318">
        <ele>364.96</ele>
        <time>2020-02-09T14:24:29Z</time>
      </trkpt>
      <trkpt lat="43.15278" lon="2.53178">
        <ele>364.96</ele>
        <time>2020-02-09T14:24:30Z</time>
      </trkpt>
      <trkpt lat="43.15277" lon="2.53176">
        <ele>364.96</ele>
        <time>2020-02-09T14:24:31Z</time>
      </trkpt>
      <trkpt lat="43.15276" lon="2.53173">
        <ele>364.96</ele>
        <time>2020-02-09T14:24:32Z</time>
      </trkpt>
      <trkpt lat="43.15276" lon="2.53169">
        <ele>365.44</ele>
        <time>2020-02-09T14:24:33Z</time>
      </trkpt>
      <trkpt lat="43.15276" lon="2.53166">
        <ele>365.44</ele>
        <time>2020-02-09T14:24:34Z</time>
      </trkpt>
      <trkpt lat="43.15277" lon="2.53162">
        <ele>365.44</ele>
        <time>2020-02-09T14:24:35Z</time>
      </trkpt>
      <trkpt lat="43.15278" lon="2.53159">
        <ele>365.92</ele>
        <time>2020-02-09T14:24:36Z</time>
      </trkpt>
      <trkpt lat="43.15279" lon="2.53157">
        <ele>365.92</ele>
        <time>2020-02-09T14:24:37Z</time>
      </trkpt>
      <trkpt lat="43.15279" lon="2.53154">
        <ele>366.4</ele>
        <time>2020-02-09T14:24:38Z</time>
      </trkpt>
      <trkpt lat="43.1528" lon="2.53151">
        <ele>366.4</ele>
        <time>2020-02-09T14:24:39Z</time>
      </trkpt>
      <trkpt lat="43.15282" lon="2.53101">
        <ele>367.84</ele>
        <time>2020-02-09T14:24:57Z</time>
      </trkpt>
      <trkpt lat="43.15305" lon="2.53079">
        <ele>370.73</ele>
        <time>2020-02-09T14:25:15Z</time>
      </trkpt>
      <trkpt lat="43.15315" lon="2.53078">
        <ele>371.69</ele>
        <time>2020-02-09T14:25:22Z</time>
      </trkpt>
      <trkpt lat="43.15335" lon="2.5308">
        <ele>374.57</ele>
        <time>2020-02-09T14:25:37Z</time>
      </trkpt>
      <trkpt lat="43.15372" lon="2.53086">
        <ele>376.01</ele>
        <time>2020-02-09T14:26:01Z</time>
      </trkpt>
      <trkpt lat="43.15418" lon="2.53062">
        <ele>374.57</ele>
        <time>2020-02-09T14:26:22Z</time>
      </trkpt>
      <trkpt lat="43.15445" lon="2.53043">
        <ele>376.01</ele>
        <time>2020-02-09T14:26:36Z</time>
      </trkpt>
      <trkpt lat="43.15461" lon="2.53034">
        <ele>376.97</ele>
        <time>2020-02-09T14:26:47Z</time>
      </trkpt>
      <trkpt lat="43.15462" lon="2.53034">
        <ele>376.97</ele>
        <time>2020-02-09T14:26:48Z</time>
      </trkpt>
      <trkpt lat="43.15464" lon="2.53033">
        <ele>377.94</ele>
        <time>2020-02-09T14:26:49Z</time>
      </trkpt>
      <trkpt lat="43.15465" lon="2.53033">
        <ele>377.45</ele>
        <time>2020-02-09T14:26:50Z</time>
      </trkpt>
      <trkpt lat="43.15466" lon="2.53032">
        <ele>377.45</ele>
        <time>2020-02-09T14:26:51Z</time>
      </trkpt>
      <trkpt lat="43.15468" lon="2.53032">
        <ele>377.45</ele>
        <time>2020-02-09T14:26:52Z</time>
      </trkpt>
      <trkpt lat="43.15469" lon="2.53031">
        <ele>377.94</ele>
        <time>2020-02-09T14:26:53Z</time>
      </trkpt>
      <trkpt lat="43.15486" lon="2.53021">
        <ele>379.86</ele>
        <time>2020-02-09T14:27:06Z</time>
      </trkpt>
      <trkpt lat="43.15488" lon="2.5302">
        <ele>380.34</ele>
        <time>2020-02-09T14:27:07Z</time>
      </trkpt>
      <trkpt lat="43.15489" lon="2.53019">
        <ele>379.86</ele>
        <time>2020-02-09T14:27:08Z</time>
      </trkpt>
      <trkpt lat="43.1549" lon="2.53018">
        <ele>380.34</ele>
        <time>2020-02-09T14:27:09Z</time>
      </trkpt>
      <trkpt lat="43.15491" lon="2.53017">
        <ele>380.34</ele>
        <time>2020-02-09T14:27:10Z</time>
      </trkpt>
      <trkpt lat="43.15492" lon="2.53016">
        <ele>380.34</ele>
        <time>2020-02-09T14:27:11Z</time>
      </trkpt>
      <trkpt lat="43.15494" lon="2.53016">
        <ele>380.82</ele>
        <time>2020-02-09T14:27:12Z</time>
      </trkpt>
      <trkpt lat="43.1551" lon="2.53001">
        <ele>383.22</ele>
        <time>2020-02-09T14:27:27Z</time>
      </trkpt>
      <trkpt lat="43.15521" lon="2.52957">
        <ele>385.63</ele>
        <time>2020-02-09T14:27:50Z</time>
      </trkpt>
      <trkpt lat="43.15534" lon="2.52908">
        <ele>388.03</ele>
        <time>2020-02-09T14:28:15Z</time>
      </trkpt>
      <trkpt lat="43.15544" lon="2.52865">
        <ele>390.91</ele>
        <time>2020-02-09T14:28:37Z</time>
      </trkpt>
      <trkpt lat="43.1557" lon="2.52827">
        <ele>392.36</ele>
        <time>2020-02-09T14:29:01Z</time>
      </trkpt>
      <trkpt lat="43.1559" lon="2.52805">
        <ele>395.24</ele>
        <time>2020-02-09T14:29:18Z</time>
      </trkpt>
      <trkpt lat="43.15591" lon="2.52804">
        <ele>395.24</ele>
        <time>2020-02-09T14:29:19Z</time>
      </trkpt>
      <trkpt lat="43.15592" lon="2.52803">
        <ele>395.24</ele>
        <time>2020-02-09T14:29:20Z</time>
      </trkpt>
      <trkpt lat="43.15597" lon="2.52801">
        <ele>395.72</ele>
        <time>2020-02-09T14:29:24Z</time>
      </trkpt>
      <trkpt lat="43.15623" lon="2.52775">
        <ele>398.12</ele>
        <time>2020-02-09T14:29:46Z</time>
      </trkpt>
      <trkpt lat="43.15653" lon="2.52755">
        <ele>400.05</ele>
        <time>2020-02-09T14:30:10Z</time>
      </trkpt>
      <trkpt lat="43.15658" lon="2.52757">
        <ele>400.53</ele>
        <time>2020-02-09T14:30:14Z</time>
      </trkpt>
      <trkpt lat="43.1566" lon="2.52756">
        <ele>400.05</ele>
        <time>2020-02-09T14:30:15Z</time>
      </trkpt>
      <trkpt lat="43.15689" lon="2.52752">
        <ele>402.93</ele>
        <time>2020-02-09T14:30:37Z</time>
      </trkpt>
      <trkpt lat="43.15724" lon="2.52717">
        <ele>403.89</ele>
        <time>2020-02-09T14:31:00Z</time>
      </trkpt>
      <trkpt lat="43.15743" lon="2.52659">
        <ele>402.45</ele>
        <time>2020-02-09T14:31:19Z</time>
      </trkpt>
      <trkpt lat="43.15754" lon="2.52638">
        <ele>402.93</ele>
        <time>2020-02-09T14:31:35Z</time>
      </trkpt>
      <trkpt lat="43.15753" lon="2.52637">
        <ele>403.41</ele>
        <time>2020-02-09T14:32:00Z</time>
      </trkpt>
      <trkpt lat="43.15754" lon="2.52636">
        <ele>403.89</ele>
        <time>2020-02-09T14:32:32Z</time>
      </trkpt>
      <trkpt lat="43.15754" lon="2.52635">
        <ele>402.93</ele>
        <time>2020-02-09T14:33:15Z</time>
      </trkpt>
      <trkpt lat="43.15767" lon="2.5259">
        <ele>403.41</ele>
        <time>2020-02-09T14:33:32Z</time>
      </trkpt>
      <trkpt lat="43.15797" lon="2.52517">
        <ele>403.89</ele>
        <time>2020-02-09T14:33:55Z</time>
      </trkpt>
      <trkpt lat="43.15829" lon="2.52464">
        <ele>406.29</ele>
        <time>2020-02-09T14:34:18Z</time>
      </trkpt>
      <trkpt lat="43.15845" lon="2.52428">
        <ele>409.66</ele>
        <time>2020-02-09T14:34:36Z</time>
      </trkpt>
      <trkpt lat="43.15876" lon="2.52411">
        <ele>413.02</ele>
        <time>2020-02-09T14:34:56Z</time>
      </trkpt>
      <trkpt lat="43.15878" lon="2.5241">
        <ele>413.02</ele>
        <time>2020-02-09T14:34:58Z</time>
      </trkpt>
      <trkpt lat="43.1588" lon="2.52409">
        <ele>413.5</ele>
        <time>2020-02-09T14:34:59Z</time>
      </trkpt>
      <trkpt lat="43.15888" lon="2.524">
        <ele>414.95</ele>
        <time>2020-02-09T14:35:07Z</time>
      </trkpt>
      <trkpt lat="43.15889" lon="2.52362">
        <ele>417.83</ele>
        <time>2020-02-09T14:35:26Z</time>
      </trkpt>
      <trkpt lat="43.1589" lon="2.52322">
        <ele>421.19</ele>
        <time>2020-02-09T14:35:47Z</time>
      </trkpt>
      <trkpt lat="43.15891" lon="2.52278">
        <ele>423.6</ele>
        <time>2020-02-09T14:36:08Z</time>
      </trkpt>
      <trkpt lat="43.15893" lon="2.52201">
        <ele>425.52</ele>
        <time>2020-02-09T14:36:35Z</time>
      </trkpt>
      <trkpt lat="43.15897" lon="2.52121">
        <ele>428.4</ele>
        <time>2020-02-09T14:37:00Z</time>
      </trkpt>
      <trkpt lat="43.15884" lon="2.52063">
        <ele>427.92</ele>
        <time>2020-02-09T14:37:15Z</time>
      </trkpt>
      <trkpt lat="43.15876" lon="2.52023">
        <ele>427.44</ele>
        <time>2020-02-09T14:37:22Z</time>
      </trkpt>
      <trkpt lat="43.15879" lon="2.51916">
        <ele>426.48</ele>
        <time>2020-02-09T14:37:44Z</time>
      </trkpt>
      <trkpt lat="43.15894" lon="2.5187">
        <ele>429.37</ele>
        <time>2020-02-09T14:38:03Z</time>
      </trkpt>
      <trkpt lat="43.15895" lon="2.51865">
        <ele>430.33</ele>
        <time>2020-02-09T14:38:05Z</time>
      </trkpt>
      <trkpt lat="43.15896" lon="2.51863">
        <ele>430.33</ele>
        <time>2020-02-09T14:38:06Z</time>
      </trkpt>
      <trkpt lat="43.15896" lon="2.51861">
        <ele>430.33</ele>
        <time>2020-02-09T14:38:07Z</time>
      </trkpt>
      <trkpt lat="43.15908" lon="2.51824">
        <ele>432.25</ele>
        <time>2020-02-09T14:38:25Z</time>
      </trkpt>
      <trkpt lat="43.15916" lon="2.51805">
        <ele>433.69</ele>
        <time>2020-02-09T14:38:35Z</time>
      </trkpt>
      <trkpt lat="43.15917" lon="2.51802">
        <ele>433.21</ele>
        <time>2020-02-09T14:38:36Z</time>
      </trkpt>
      <trkpt lat="43.15917" lon="2.51801">
        <ele>433.69</ele>
        <time>2020-02-09T14:38:37Z</time>
      </trkpt>
      <trkpt lat="43.15918" lon="2.51799">
        <ele>434.17</ele>
        <time>2020-02-09T14:38:38Z</time>
      </trkpt>
      <trkpt lat="43.15918" lon="2.51797">
        <ele>434.17</ele>
        <time>2020-02-09T14:38:39Z</time>
      </trkpt>
      <trkpt lat="43.15919" lon="2.51795">
        <ele>434.17</ele>
        <time>2020-02-09T14:38:40Z</time>
      </trkpt>
      <trkpt lat="43.15919" lon="2.51793">
        <ele>434.17</ele>
        <time>2020-02-09T14:38:41Z</time>
      </trkpt>
      <trkpt lat="43.1592" lon="2.51791">
        <ele>434.65</ele>
        <time>2020-02-09T14:38:42Z</time>
      </trkpt>
      <trkpt lat="43.15921" lon="2.5179">
        <ele>434.17</ele>
        <time>2020-02-09T14:38:43Z</time>
      </trkpt>
      <trkpt lat="43.15922" lon="2.51788">
        <ele>434.17</ele>
        <time>2020-02-09T14:38:44Z</time>
      </trkpt>
      <trkpt lat="43.15923" lon="2.51787">
        <ele>434.17</ele>
        <time>2020-02-09T14:38:45Z</time>
      </trkpt>
      <trkpt lat="43.15924" lon="2.51786">
        <ele>434.17</ele>
        <time>2020-02-09T14:38:46Z</time>
      </trkpt>
      <trkpt lat="43.15925" lon="2.51784">
        <ele>434.65</ele>
        <time>2020-02-09T14:38:47Z</time>
      </trkpt>
      <trkpt lat="43.15926" lon="2.51783">
        <ele>434.65</ele>
        <time>2020-02-09T14:38:48Z</time>
      </trkpt>
      <trkpt lat="43.15927" lon="2.51781">
        <ele>434.65</ele>
        <time>2020-02-09T14:38:49Z</time>
      </trkpt>
      <trkpt lat="43.15942" lon="2.51754">
        <ele>436.58</ele>
        <time>2020-02-09T14:39:06Z</time>
      </trkpt>
      <trkpt lat="43.15929" lon="2.5171">
        <ele>437.54</ele>
        <time>2020-02-09T14:39:24Z</time>
      </trkpt>
      <trkpt lat="43.15931" lon="2.51684">
        <ele>438.98</ele>
        <time>2020-02-09T14:39:35Z</time>
      </trkpt>
      <trkpt lat="43.15932" lon="2.51682">
        <ele>439.94</ele>
        <time>2020-02-09T14:39:36Z</time>
      </trkpt>
      <trkpt lat="43.15932" lon="2.5168">
        <ele>439.94</ele>
        <time>2020-02-09T14:39:37Z</time>
      </trkpt>
      <trkpt lat="43.1595" lon="2.51656">
        <ele>441.86</ele>
        <time>2020-02-09T14:39:53Z</time>
      </trkpt>
      <trkpt lat="43.15963" lon="2.51643">
        <ele>442.82</ele>
        <time>2020-02-09T14:40:04Z</time>
      </trkpt>
      <trkpt lat="43.1597" lon="2.51643">
        <ele>442.82</ele>
        <time>2020-02-09T14:40:09Z</time>
      </trkpt>
      <trkpt lat="43.15971" lon="2.51644">
        <ele>442.82</ele>
        <time>2020-02-09T14:40:10Z</time>
      </trkpt>
      <trkpt lat="43.15973" lon="2.51645">
        <ele>443.31</ele>
        <time>2020-02-09T14:40:11Z</time>
      </trkpt>
      <trkpt lat="43.15974" lon="2.51646">
        <ele>443.31</ele>
        <time>2020-02-09T14:40:12Z</time>
      </trkpt>
      <trkpt lat="43.15976" lon="2.51646">
        <ele>443.31</ele>
        <time>2020-02-09T14:40:13Z</time>
      </trkpt>
      <trkpt lat="43.15977" lon="2.51646">
        <ele>443.79</ele>
        <time>2020-02-09T14:40:14Z</time>
      </trkpt>
      <trkpt lat="43.15981" lon="2.51647">
        <ele>443.79</ele>
        <time>2020-02-09T14:40:16Z</time>
      </trkpt>
      <trkpt lat="43.16012" lon="2.51645">
        <ele>444.75</ele>
        <time>2020-02-09T14:40:35Z</time>
      </trkpt>
      <trkpt lat="43.16013" lon="2.51643">
        <ele>444.75</ele>
        <time>2020-02-09T14:40:48Z</time>
      </trkpt>
      <trkpt lat="43.16012" lon="2.51648">
        <ele>444.75</ele>
        <time>2020-02-09T14:41:24Z</time>
      </trkpt>
      <trkpt lat="43.16012" lon="2.5164">
        <ele>444.75</ele>
        <time>2020-02-09T14:42:01Z</time>
      </trkpt>
      <trkpt lat="43.16012" lon="2.51638">
        <ele>444.75</ele>
        <time>2020-02-09T14:42:02Z</time>
      </trkpt>
      <trkpt lat="43.16014" lon="2.51643">
        <ele>444.75</ele>
        <time>2020-02-09T14:42:24Z</time>
      </trkpt>
      <trkpt lat="43.16015" lon="2.51641">
        <ele>443.31</ele>
        <time>2020-02-09T14:43:10Z</time>
      </trkpt>
      <trkpt lat="43.16014" lon="2.51643">
        <ele>443.31</ele>
        <time>2020-02-09T14:43:51Z</time>
      </trkpt>
      <trkpt lat="43.16016" lon="2.51641">
        <ele>444.27</ele>
        <time>2020-02-09T14:44:07Z</time>
      </trkpt>
      <trkpt lat="43.16017" lon="2.51641">
        <ele>444.75</ele>
        <time>2020-02-09T14:44:08Z</time>
      </trkpt>
      <trkpt lat="43.16018" lon="2.51639">
        <ele>444.75</ele>
        <time>2020-02-09T14:44:09Z</time>
      </trkpt>
      <trkpt lat="43.16032" lon="2.51622">
        <ele>445.23</ele>
        <time>2020-02-09T14:44:26Z</time>
      </trkpt>
      <trkpt lat="43.16042" lon="2.51599">
        <ele>446.67</ele>
        <time>2020-02-09T14:44:39Z</time>
      </trkpt>
      <trkpt lat="43.16042" lon="2.51597">
        <ele>447.15</ele>
        <time>2020-02-09T14:44:40Z</time>
      </trkpt>
      <trkpt lat="43.16042" lon="2.51594">
        <ele>447.63</ele>
        <time>2020-02-09T14:44:41Z</time>
      </trkpt>
      <trkpt lat="43.16042" lon="2.51592">
        <ele>447.63</ele>
        <time>2020-02-09T14:44:42Z</time>
      </trkpt>
      <trkpt lat="43.16042" lon="2.5159">
        <ele>447.15</ele>
        <time>2020-02-09T14:44:43Z</time>
      </trkpt>
      <trkpt lat="43.16042" lon="2.51588">
        <ele>447.15</ele>
        <time>2020-02-09T14:44:44Z</time>
      </trkpt>
      <trkpt lat="43.16042" lon="2.51586">
        <ele>446.67</ele>
        <time>2020-02-09T14:44:45Z</time>
      </trkpt>
      <trkpt lat="43.16041" lon="2.51584">
        <ele>447.15</ele>
        <time>2020-02-09T14:44:46Z</time>
      </trkpt>
      <trkpt lat="43.16037" lon="2.51516">
        <ele>448.11</ele>
        <time>2020-02-09T14:45:07Z</time>
      </trkpt>
      <trkpt lat="43.16024" lon="2.51455">
        <ele>449.07</ele>
        <time>2020-02-09T14:45:24Z</time>
      </trkpt>
      <trkpt lat="43.16022" lon="2.51351">
        <ele>449.07</ele>
        <time>2020-02-09T14:45:49Z</time>
      </trkpt>
      <trkpt lat="43.16057" lon="2.51287">
        <ele>449.07</ele>
        <time>2020-02-09T14:46:08Z</time>
      </trkpt>
      <trkpt lat="43.16087" lon="2.51269">
        <ele>451</ele>
        <time>2020-02-09T14:46:21Z</time>
      </trkpt>
      <trkpt lat="43.16088" lon="2.51266">
        <ele>451</ele>
        <time>2020-02-09T14:46:22Z</time>
      </trkpt>
      <trkpt lat="43.16089" lon="2.51262">
        <ele>451</ele>
        <time>2020-02-09T14:46:23Z</time>
      </trkpt>
      <trkpt lat="43.16088" lon="2.51259">
        <ele>451</ele>
        <time>2020-02-09T14:46:24Z</time>
      </trkpt>
      <trkpt lat="43.16087" lon="2.51256">
        <ele>451.48</ele>
        <time>2020-02-09T14:46:25Z</time>
      </trkpt>
      <trkpt lat="43.16086" lon="2.51253">
        <ele>451.48</ele>
        <time>2020-02-09T14:46:26Z</time>
      </trkpt>
      <trkpt lat="43.16085" lon="2.51251">
        <ele>451</ele>
        <time>2020-02-09T14:46:27Z</time>
      </trkpt>
      <trkpt lat="43.16084" lon="2.51247">
        <ele>451</ele>
        <time>2020-02-09T14:46:28Z</time>
      </trkpt>
      <trkpt lat="43.16083" lon="2.51244">
        <ele>451.48</ele>
        <time>2020-02-09T14:46:29Z</time>
      </trkpt>
      <trkpt lat="43.16082" lon="2.5124">
        <ele>451</ele>
        <time>2020-02-09T14:46:30Z</time>
      </trkpt>
      <trkpt lat="43.16082" lon="2.51237">
        <ele>451</ele>
        <time>2020-02-09T14:46:31Z</time>
      </trkpt>
      <trkpt lat="43.16087" lon="2.51179">
        <ele>451.48</ele>
        <time>2020-02-09T14:46:49Z</time>
      </trkpt>
      <trkpt lat="43.16107" lon="2.5116">
        <ele>451.96</ele>
        <time>2020-02-09T14:47:07Z</time>
      </trkpt>
      <trkpt lat="43.16105" lon="2.51161">
        <ele>451.96</ele>
        <time>2020-02-09T14:47:39Z</time>
      </trkpt>
      <trkpt lat="43.16107" lon="2.5116">
        <ele>452.44</ele>
        <time>2020-02-09T14:48:23Z</time>
      </trkpt>
      <trkpt lat="43.16107" lon="2.51156">
        <ele>452.44</ele>
        <time>2020-02-09T14:49:04Z</time>
      </trkpt>
      <trkpt lat="43.16108" lon="2.51156">
        <ele>451.96</ele>
        <time>2020-02-09T14:49:51Z</time>
      </trkpt>
      <trkpt lat="43.16113" lon="2.51152">
        <ele>452.44</ele>
        <time>2020-02-09T14:50:12Z</time>
      </trkpt>
      <trkpt lat="43.16114" lon="2.5115">
        <ele>451.96</ele>
        <time>2020-02-09T14:50:13Z</time>
      </trkpt>
      <trkpt lat="43.16115" lon="2.51148">
        <ele>451.96</ele>
        <time>2020-02-09T14:50:14Z</time>
      </trkpt>
      <trkpt lat="43.16116" lon="2.51146">
        <ele>452.44</ele>
        <time>2020-02-09T14:50:15Z</time>
      </trkpt>
      <trkpt lat="43.16117" lon="2.51144">
        <ele>452.44</ele>
        <time>2020-02-09T14:50:16Z</time>
      </trkpt>
      <trkpt lat="43.16119" lon="2.51141">
        <ele>452.92</ele>
        <time>2020-02-09T14:50:17Z</time>
      </trkpt>
      <trkpt lat="43.1612" lon="2.51139">
        <ele>453.4</ele>
        <time>2020-02-09T14:50:18Z</time>
      </trkpt>
      <trkpt lat="43.16154" lon="2.51089">
        <ele>453.4</ele>
        <time>2020-02-09T14:50:35Z</time>
      </trkpt>
      <trkpt lat="43.16148" lon="2.51026">
        <ele>452.92</ele>
        <time>2020-02-09T14:50:51Z</time>
      </trkpt>
      <trkpt lat="43.16157" lon="2.51023">
        <ele>454.84</ele>
        <time>2020-02-09T14:50:55Z</time>
      </trkpt>
      <trkpt lat="43.16219" lon="2.51005">
        <ele>456.28</ele>
        <time>2020-02-09T14:51:17Z</time>
      </trkpt>
      <trkpt lat="43.1625" lon="2.50953">
        <ele>455.8</ele>
        <time>2020-02-09T14:51:35Z</time>
      </trkpt>
      <trkpt lat="43.16264" lon="2.50926">
        <ele>456.28</ele>
        <time>2020-02-09T14:51:44Z</time>
      </trkpt>
      <trkpt lat="43.16265" lon="2.50923">
        <ele>455.8</ele>
        <time>2020-02-09T14:51:45Z</time>
      </trkpt>
      <trkpt lat="43.16245" lon="2.50866">
        <ele>457.72</ele>
        <time>2020-02-09T14:52:00Z</time>
      </trkpt>
      <trkpt lat="43.16236" lon="2.50804">
        <ele>457.72</ele>
        <time>2020-02-09T14:52:14Z</time>
      </trkpt>
      <trkpt lat="43.16243" lon="2.50716">
        <ele>457.72</ele>
        <time>2020-02-09T14:52:31Z</time>
      </trkpt>
      <trkpt lat="43.16247" lon="2.50658">
        <ele>458.69</ele>
        <time>2020-02-09T14:52:45Z</time>
      </trkpt>
      <trkpt lat="43.16243" lon="2.50656">
        <ele>458.69</ele>
        <time>2020-02-09T14:52:46Z</time>
      </trkpt>
      <trkpt lat="43.16231" lon="2.50648">
        <ele>457.72</ele>
        <time>2020-02-09T14:52:49Z</time>
      </trkpt>
      <trkpt lat="43.16227" lon="2.50644">
        <ele>457.72</ele>
        <time>2020-02-09T14:52:50Z</time>
      </trkpt>
      <trkpt lat="43.16223" lon="2.5064">
        <ele>457.72</ele>
        <time>2020-02-09T14:52:51Z</time>
      </trkpt>
      <trkpt lat="43.1622" lon="2.50634">
        <ele>457.24</ele>
        <time>2020-02-09T14:52:52Z</time>
      </trkpt>
      <trkpt lat="43.16217" lon="2.50628">
        <ele>456.76</ele>
        <time>2020-02-09T14:52:53Z</time>
      </trkpt>
      <trkpt lat="43.16201" lon="2.50595">
        <ele>453.4</ele>
        <time>2020-02-09T14:52:58Z</time>
      </trkpt>
      <trkpt lat="43.16198" lon="2.50588">
        <ele>452.92</ele>
        <time>2020-02-09T14:52:59Z</time>
      </trkpt>
      <trkpt lat="43.16196" lon="2.50582">
        <ele>452.44</ele>
        <time>2020-02-09T14:53:00Z</time>
      </trkpt>
      <trkpt lat="43.16193" lon="2.50576">
        <ele>451.48</ele>
        <time>2020-02-09T14:53:01Z</time>
      </trkpt>
      <trkpt lat="43.1619" lon="2.50569">
        <ele>451</ele>
        <time>2020-02-09T14:53:02Z</time>
      </trkpt>
      <trkpt lat="43.16189" lon="2.50563">
        <ele>451</ele>
        <time>2020-02-09T14:53:03Z</time>
      </trkpt>
      <trkpt lat="43.16187" lon="2.50558">
        <ele>451</ele>
        <time>2020-02-09T14:53:04Z</time>
      </trkpt>
      <trkpt lat="43.16186" lon="2.50552">
        <ele>449.55</ele>
        <time>2020-02-09T14:53:05Z</time>
      </trkpt>
      <trkpt lat="43.16185" lon="2.50546">
        <ele>450.03</ele>
        <time>2020-02-09T14:53:06Z</time>
      </trkpt>
      <trkpt lat="43.16184" lon="2.50504">
        <ele>446.67</ele>
        <time>2020-02-09T14:53:12Z</time>
      </trkpt>
      <trkpt lat="43.16178" lon="2.50461">
        <ele>443.31</ele>
        <time>2020-02-09T14:53:21Z</time>
      </trkpt>
      <trkpt lat="43.16176" lon="2.50455">
        <ele>442.82</ele>
        <time>2020-02-09T14:53:22Z</time>
      </trkpt>
      <trkpt lat="43.16175" lon="2.50449">
        <ele>442.34</ele>
        <time>2020-02-09T14:53:23Z</time>
      </trkpt>
      <trkpt lat="43.16173" lon="2.50441">
        <ele>441.86</ele>
        <time>2020-02-09T14:53:24Z</time>
      </trkpt>
      <trkpt lat="43.16171" lon="2.50432">
        <ele>442.34</ele>
        <time>2020-02-09T14:53:25Z</time>
      </trkpt>
      <trkpt lat="43.16168" lon="2.50417">
        <ele>440.42</ele>
        <time>2020-02-09T14:53:27Z</time>
      </trkpt>
      <trkpt lat="43.16167" lon="2.5041">
        <ele>440.42</ele>
        <time>2020-02-09T14:53:28Z</time>
      </trkpt>
      <trkpt lat="43.16165" lon="2.50385">
        <ele>438.5</ele>
        <time>2020-02-09T14:53:31Z</time>
      </trkpt>
      <trkpt lat="43.16165" lon="2.50327">
        <ele>434.65</ele>
        <time>2020-02-09T14:53:37Z</time>
      </trkpt>
      <trkpt lat="43.16165" lon="2.50319">
        <ele>434.17</ele>
        <time>2020-02-09T14:53:38Z</time>
      </trkpt>
      <trkpt lat="43.16164" lon="2.50313">
        <ele>433.21</ele>
        <time>2020-02-09T14:53:39Z</time>
      </trkpt>
      <trkpt lat="43.16161" lon="2.50299">
        <ele>431.29</ele>
        <time>2020-02-09T14:53:41Z</time>
      </trkpt>
      <trkpt lat="43.16159" lon="2.50293">
        <ele>430.81</ele>
        <time>2020-02-09T14:53:42Z</time>
      </trkpt>
      <trkpt lat="43.16151" lon="2.50266">
        <ele>428.4</ele>
        <time>2020-02-09T14:53:46Z</time>
      </trkpt>
      <trkpt lat="43.16149" lon="2.50261">
        <ele>427.92</ele>
        <time>2020-02-09T14:53:47Z</time>
      </trkpt>
      <trkpt lat="43.16146" lon="2.50258">
        <ele>427.44</ele>
        <time>2020-02-09T14:53:48Z</time>
      </trkpt>
      <trkpt lat="43.16142" lon="2.50256">
        <ele>426.96</ele>
        <time>2020-02-09T14:53:49Z</time>
      </trkpt>
      <trkpt lat="43.16139" lon="2.50255">
        <ele>426.96</ele>
        <time>2020-02-09T14:53:50Z</time>
      </trkpt>
      <trkpt lat="43.16135" lon="2.50257">
        <ele>426.96</ele>
        <time>2020-02-09T14:53:51Z</time>
      </trkpt>
      <trkpt lat="43.16132" lon="2.5026">
        <ele>426.48</ele>
        <time>2020-02-09T14:53:52Z</time>
      </trkpt>
      <trkpt lat="43.1613" lon="2.50263">
        <ele>426</ele>
        <time>2020-02-09T14:53:53Z</time>
      </trkpt>
      <trkpt lat="43.16127" lon="2.50267">
        <ele>426</ele>
        <time>2020-02-09T14:53:54Z</time>
      </trkpt>
      <trkpt lat="43.16125" lon="2.50272">
        <ele>425.52</ele>
        <time>2020-02-09T14:53:55Z</time>
      </trkpt>
      <trkpt lat="43.16122" lon="2.50276">
        <ele>426.48</ele>
        <time>2020-02-09T14:53:56Z</time>
      </trkpt>
      <trkpt lat="43.16119" lon="2.50281">
        <ele>426.48</ele>
        <time>2020-02-09T14:53:57Z</time>
      </trkpt>
      <trkpt lat="43.16109" lon="2.50295">
        <ele>426.48</ele>
        <time>2020-02-09T14:54:00Z</time>
      </trkpt>
      <trkpt lat="43.16105" lon="2.50299">
        <ele>425.52</ele>
        <time>2020-02-09T14:54:01Z</time>
      </trkpt>
      <trkpt lat="43.16101" lon="2.50303">
        <ele>425.04</ele>
        <time>2020-02-09T14:54:02Z</time>
      </trkpt>
      <trkpt lat="43.16098" lon="2.50308">
        <ele>424.56</ele>
        <time>2020-02-09T14:54:03Z</time>
      </trkpt>
      <trkpt lat="43.16095" lon="2.50313">
        <ele>424.56</ele>
        <time>2020-02-09T14:54:04Z</time>
      </trkpt>
      <trkpt lat="43.16093" lon="2.50319">
        <ele>423.12</ele>
        <time>2020-02-09T14:54:05Z</time>
      </trkpt>
      <trkpt lat="43.16084" lon="2.50345">
        <ele>422.64</ele>
        <time>2020-02-09T14:54:09Z</time>
      </trkpt>
      <trkpt lat="43.16082" lon="2.50353">
        <ele>422.16</ele>
        <time>2020-02-09T14:54:10Z</time>
      </trkpt>
      <trkpt lat="43.1608" lon="2.50367">
        <ele>421.19</ele>
        <time>2020-02-09T14:54:12Z</time>
      </trkpt>
      <trkpt lat="43.16077" lon="2.50373">
        <ele>420.23</ele>
        <time>2020-02-09T14:54:13Z</time>
      </trkpt>
      <trkpt lat="43.16075" lon="2.50378">
        <ele>420.23</ele>
        <time>2020-02-09T14:54:14Z</time>
      </trkpt>
      <trkpt lat="43.16072" lon="2.50382">
        <ele>420.23</ele>
        <time>2020-02-09T14:54:15Z</time>
      </trkpt>
      <trkpt lat="43.16069" lon="2.50385">
        <ele>419.75</ele>
        <time>2020-02-09T14:54:16Z</time>
      </trkpt>
      <trkpt lat="43.16066" lon="2.50386">
        <ele>418.79</ele>
        <time>2020-02-09T14:54:17Z</time>
      </trkpt>
      <trkpt lat="43.16062" lon="2.50387">
        <ele>417.35</ele>
        <time>2020-02-09T14:54:18Z</time>
      </trkpt>
      <trkpt lat="43.16059" lon="2.50385">
        <ele>416.87</ele>
        <time>2020-02-09T14:54:19Z</time>
      </trkpt>
      <trkpt lat="43.16057" lon="2.50382">
        <ele>415.91</ele>
        <time>2020-02-09T14:54:20Z</time>
      </trkpt>
      <trkpt lat="43.16056" lon="2.50378">
        <ele>415.91</ele>
        <time>2020-02-09T14:54:21Z</time>
      </trkpt>
      <trkpt lat="43.16055" lon="2.50373">
        <ele>414.95</ele>
        <time>2020-02-09T14:54:22Z</time>
      </trkpt>
      <trkpt lat="43.16054" lon="2.50368">
        <ele>414.95</ele>
        <time>2020-02-09T14:54:23Z</time>
      </trkpt>
      <trkpt lat="43.16052" lon="2.50357">
        <ele>414.47</ele>
        <time>2020-02-09T14:54:25Z</time>
      </trkpt>
      <trkpt lat="43.1605" lon="2.50351">
        <ele>414.47</ele>
        <time>2020-02-09T14:54:26Z</time>
      </trkpt>
      <trkpt lat="43.16047" lon="2.50345">
        <ele>413.98</ele>
        <time>2020-02-09T14:54:27Z</time>
      </trkpt>
      <trkpt lat="43.16032" lon="2.503">
        <ele>411.58</ele>
        <time>2020-02-09T14:54:33Z</time>
      </trkpt>
      <trkpt lat="43.16027" lon="2.50276">
        <ele>410.14</ele>
        <time>2020-02-09T14:54:36Z</time>
      </trkpt>
      <trkpt lat="43.16026" lon="2.50269">
        <ele>408.7</ele>
        <time>2020-02-09T14:54:37Z</time>
      </trkpt>
      <trkpt lat="43.16025" lon="2.50261">
        <ele>408.7</ele>
        <time>2020-02-09T14:54:38Z</time>
      </trkpt>
      <trkpt lat="43.16024" lon="2.50237">
        <ele>406.77</ele>
        <time>2020-02-09T14:54:41Z</time>
      </trkpt>
      <trkpt lat="43.16017" lon="2.50187">
        <ele>403.41</ele>
        <time>2020-02-09T14:54:46Z</time>
      </trkpt>
      <trkpt lat="43.16013" lon="2.50169">
        <ele>401.49</ele>
        <time>2020-02-09T14:54:48Z</time>
      </trkpt>
      <trkpt lat="43.16003" lon="2.50124">
        <ele>398.6</ele>
        <time>2020-02-09T14:54:53Z</time>
      </trkpt>
      <trkpt lat="43.16" lon="2.50113">
        <ele>397.64</ele>
        <time>2020-02-09T14:54:54Z</time>
      </trkpt>
      <trkpt lat="43.15997" lon="2.50103">
        <ele>397.16</ele>
        <time>2020-02-09T14:54:55Z</time>
      </trkpt>
      <trkpt lat="43.15979" lon="2.50045">
        <ele>393.32</ele>
        <time>2020-02-09T14:55:00Z</time>
      </trkpt>
      <trkpt lat="43.15973" lon="2.50015">
        <ele>389.47</ele>
        <time>2020-02-09T14:55:03Z</time>
      </trkpt>
      <trkpt lat="43.15971" lon="2.50005">
        <ele>389.47</ele>
        <time>2020-02-09T14:55:04Z</time>
      </trkpt>
      <trkpt lat="43.15967" lon="2.49948">
        <ele>386.11</ele>
        <time>2020-02-09T14:55:09Z</time>
      </trkpt>
      <trkpt lat="43.15964" lon="2.49887">
        <ele>382.26</ele>
        <time>2020-02-09T14:55:14Z</time>
      </trkpt>
      <trkpt lat="43.15962" lon="2.49848">
        <ele>379.86</ele>
        <time>2020-02-09T14:55:17Z</time>
      </trkpt>
      <trkpt lat="43.15958" lon="2.498">
        <ele>376.01</ele>
        <time>2020-02-09T14:55:21Z</time>
      </trkpt>
      <trkpt lat="43.15952" lon="2.49771">
        <ele>372.65</ele>
        <time>2020-02-09T14:55:24Z</time>
      </trkpt>
      <trkpt lat="43.15945" lon="2.4974">
        <ele>371.21</ele>
        <time>2020-02-09T14:55:27Z</time>
      </trkpt>
      <trkpt lat="43.15936" lon="2.49714">
        <ele>367.84</ele>
        <time>2020-02-09T14:55:31Z</time>
      </trkpt>
      <trkpt lat="43.15934" lon="2.49708">
        <ele>367.36</ele>
        <time>2020-02-09T14:55:32Z</time>
      </trkpt>
      <trkpt lat="43.15932" lon="2.49702">
        <ele>367.36</ele>
        <time>2020-02-09T14:55:33Z</time>
      </trkpt>
      <trkpt lat="43.1593" lon="2.49698">
        <ele>366.4</ele>
        <time>2020-02-09T14:55:34Z</time>
      </trkpt>
      <trkpt lat="43.15926" lon="2.49695">
        <ele>366.4</ele>
        <time>2020-02-09T14:55:35Z</time>
      </trkpt>
      <trkpt lat="43.15923" lon="2.49693">
        <ele>365.92</ele>
        <time>2020-02-09T14:55:36Z</time>
      </trkpt>
      <trkpt lat="43.15921" lon="2.4969">
        <ele>365.92</ele>
        <time>2020-02-09T14:55:37Z</time>
      </trkpt>
      <trkpt lat="43.15919" lon="2.49688">
        <ele>365.92</ele>
        <time>2020-02-09T14:55:38Z</time>
      </trkpt>
      <trkpt lat="43.15917" lon="2.49687">
        <ele>365.44</ele>
        <time>2020-02-09T14:55:53Z</time>
      </trkpt>
      <trkpt lat="43.15918" lon="2.49685">
        <ele>365.92</ele>
        <time>2020-02-09T14:56:30Z</time>
      </trkpt>
      <trkpt lat="43.15925" lon="2.4963">
        <ele>364.96</ele>
        <time>2020-02-09T14:56:43Z</time>
      </trkpt>
      <trkpt lat="43.15927" lon="2.49627">
        <ele>364.48</ele>
        <time>2020-02-09T14:56:44Z</time>
      </trkpt>
      <trkpt lat="43.15929" lon="2.49623">
        <ele>364.48</ele>
        <time>2020-02-09T14:56:45Z</time>
      </trkpt>
      <trkpt lat="43.15931" lon="2.4962">
        <ele>364.48</ele>
        <time>2020-02-09T14:56:46Z</time>
      </trkpt>
      <trkpt lat="43.15931" lon="2.49615">
        <ele>364.96</ele>
        <time>2020-02-09T14:56:47Z</time>
      </trkpt>
      <trkpt lat="43.15932" lon="2.49611">
        <ele>365.44</ele>
        <time>2020-02-09T14:56:48Z</time>
      </trkpt>
      <trkpt lat="43.15932" lon="2.49606">
        <ele>365.92</ele>
        <time>2020-02-09T14:56:49Z</time>
      </trkpt>
      <trkpt lat="43.15932" lon="2.49601">
        <ele>364.96</ele>
        <time>2020-02-09T14:56:50Z</time>
      </trkpt>
      <trkpt lat="43.15933" lon="2.49596">
        <ele>364.96</ele>
        <time>2020-02-09T14:56:51Z</time>
      </trkpt>
      <trkpt lat="43.15934" lon="2.49591">
        <ele>365.44</ele>
        <time>2020-02-09T14:56:52Z</time>
      </trkpt>
      <trkpt lat="43.15942" lon="2.49494">
        <ele>365.92</ele>
        <time>2020-02-09T14:57:13Z</time>
      </trkpt>
      <trkpt lat="43.15941" lon="2.49489">
        <ele>365.44</ele>
        <time>2020-02-09T14:57:14Z</time>
      </trkpt>
      <trkpt lat="43.15942" lon="2.49484">
        <ele>365.44</ele>
        <time>2020-02-09T14:57:15Z</time>
      </trkpt>
      <trkpt lat="43.15944" lon="2.49479">
        <ele>365.92</ele>
        <time>2020-02-09T14:57:16Z</time>
      </trkpt>
      <trkpt lat="43.15947" lon="2.49475">
        <ele>365.92</ele>
        <time>2020-02-09T14:57:17Z</time>
      </trkpt>
      <trkpt lat="43.15949" lon="2.49472">
        <ele>366.4</ele>
        <time>2020-02-09T14:57:18Z</time>
      </trkpt>
      <trkpt lat="43.16001" lon="2.49405">
        <ele>367.36</ele>
        <time>2020-02-09T14:57:36Z</time>
      </trkpt>
      <trkpt lat="43.16004" lon="2.494">
        <ele>367.84</ele>
        <time>2020-02-09T14:57:37Z</time>
      </trkpt>
      <trkpt lat="43.16006" lon="2.49396">
        <ele>367.36</ele>
        <time>2020-02-09T14:57:38Z</time>
      </trkpt>
      <trkpt lat="43.16031" lon="2.4934">
        <ele>368.32</ele>
        <time>2020-02-09T14:57:49Z</time>
      </trkpt>
      <trkpt lat="43.16032" lon="2.49334">
        <ele>368.32</ele>
        <time>2020-02-09T14:57:50Z</time>
      </trkpt>
      <trkpt lat="43.16032" lon="2.49329">
        <ele>368.32</ele>
        <time>2020-02-09T14:57:51Z</time>
      </trkpt>
      <trkpt lat="43.16032" lon="2.49324">
        <ele>368.8</ele>
        <time>2020-02-09T14:57:52Z</time>
      </trkpt>
      <trkpt lat="43.16032" lon="2.49319">
        <ele>368.8</ele>
        <time>2020-02-09T14:57:53Z</time>
      </trkpt>
      <trkpt lat="43.16031" lon="2.49313">
        <ele>369.28</ele>
        <time>2020-02-09T14:57:54Z</time>
      </trkpt>
      <trkpt lat="43.1603" lon="2.49308">
        <ele>369.28</ele>
        <time>2020-02-09T14:57:55Z</time>
      </trkpt>
      <trkpt lat="43.16029" lon="2.49303">
        <ele>369.76</ele>
        <time>2020-02-09T14:57:56Z</time>
      </trkpt>
      <trkpt lat="43.16027" lon="2.49298">
        <ele>368.8</ele>
        <time>2020-02-09T14:57:57Z</time>
      </trkpt>
      <trkpt lat="43.16024" lon="2.49293">
        <ele>368.8</ele>
        <time>2020-02-09T14:57:58Z</time>
      </trkpt>
      <trkpt lat="43.16009" lon="2.49253">
        <ele>366.4</ele>
        <time>2020-02-09T14:58:04Z</time>
      </trkpt>
      <trkpt lat="43.16001" lon="2.49228">
        <ele>363.52</ele>
        <time>2020-02-09T14:58:09Z</time>
      </trkpt>
      <trkpt lat="43.15987" lon="2.49199">
        <ele>360.63</ele>
        <time>2020-02-09T14:58:19Z</time>
      </trkpt>
      <trkpt lat="43.15949" lon="2.49139">
        <ele>356.31</ele>
        <time>2020-02-09T14:58:27Z</time>
      </trkpt>
      <trkpt lat="43.15926" lon="2.49107">
        <ele>353.9</ele>
        <time>2020-02-09T14:58:30Z</time>
      </trkpt>
      <trkpt lat="43.15905" lon="2.49071">
        <ele>349.1</ele>
        <time>2020-02-09T14:58:33Z</time>
      </trkpt>
      <trkpt lat="43.159" lon="2.49057">
        <ele>347.17</ele>
        <time>2020-02-09T14:58:34Z</time>
      </trkpt>
      <trkpt lat="43.15897" lon="2.49042">
        <ele>346.21</ele>
        <time>2020-02-09T14:58:35Z</time>
      </trkpt>
      <trkpt lat="43.15896" lon="2.49026">
        <ele>345.73</ele>
        <time>2020-02-09T14:58:36Z</time>
      </trkpt>
      <trkpt lat="43.15895" lon="2.49009">
        <ele>343.33</ele>
        <time>2020-02-09T14:58:37Z</time>
      </trkpt>
      <trkpt lat="43.15893" lon="2.48973">
        <ele>339.96</ele>
        <time>2020-02-09T14:58:39Z</time>
      </trkpt>
      <trkpt lat="43.15891" lon="2.48956">
        <ele>340.44</ele>
        <time>2020-02-09T14:58:40Z</time>
      </trkpt>
      <trkpt lat="43.15885" lon="2.48878">
        <ele>338.52</ele>
        <time>2020-02-09T14:58:45Z</time>
      </trkpt>
      <trkpt lat="43.15885" lon="2.48864">
        <ele>337.08</ele>
        <time>2020-02-09T14:58:46Z</time>
      </trkpt>
      <trkpt lat="43.15886" lon="2.48851">
        <ele>336.6</ele>
        <time>2020-02-09T14:58:47Z</time>
      </trkpt>
      <trkpt lat="43.15889" lon="2.48827">
        <ele>335.64</ele>
        <time>2020-02-09T14:58:49Z</time>
      </trkpt>
      <trkpt lat="43.15887" lon="2.48816">
        <ele>333.71</ele>
        <time>2020-02-09T14:58:50Z</time>
      </trkpt>
      <trkpt lat="43.15884" lon="2.48803">
        <ele>332.27</ele>
        <time>2020-02-09T14:58:51Z</time>
      </trkpt>
      <trkpt lat="43.15879" lon="2.48791">
        <ele>331.79</ele>
        <time>2020-02-09T14:58:52Z</time>
      </trkpt>
      <trkpt lat="43.15874" lon="2.48778">
        <ele>332.27</ele>
        <time>2020-02-09T14:58:53Z</time>
      </trkpt>
      <trkpt lat="43.15867" lon="2.48766">
        <ele>330.35</ele>
        <time>2020-02-09T14:58:54Z</time>
      </trkpt>
      <trkpt lat="43.15859" lon="2.48754">
        <ele>329.87</ele>
        <time>2020-02-09T14:58:55Z</time>
      </trkpt>
      <trkpt lat="43.15842" lon="2.48729">
        <ele>327.95</ele>
        <time>2020-02-09T14:58:57Z</time>
      </trkpt>
      <trkpt lat="43.15816" lon="2.4869">
        <ele>323.62</ele>
        <time>2020-02-09T14:59:00Z</time>
      </trkpt>
      <trkpt lat="43.15789" lon="2.48651">
        <ele>316.41</ele>
        <time>2020-02-09T14:59:03Z</time>
      </trkpt>
      <trkpt lat="43.1578" lon="2.4864">
        <ele>317.85</ele>
        <time>2020-02-09T14:59:04Z</time>
      </trkpt>
      <trkpt lat="43.15771" lon="2.48629">
        <ele>313.53</ele>
        <time>2020-02-09T14:59:05Z</time>
      </trkpt>
      <trkpt lat="43.15757" lon="2.48609">
        <ele>308.72</ele>
        <time>2020-02-09T14:59:07Z</time>
      </trkpt>
      <trkpt lat="43.15752" lon="2.48598">
        <ele>307.28</ele>
        <time>2020-02-09T14:59:08Z</time>
      </trkpt>
      <trkpt lat="43.15748" lon="2.48585">
        <ele>305.36</ele>
        <time>2020-02-09T14:59:09Z</time>
      </trkpt>
      <trkpt lat="43.15746" lon="2.48571">
        <ele>304.88</ele>
        <time>2020-02-09T14:59:10Z</time>
      </trkpt>
      <trkpt lat="43.15745" lon="2.48556">
        <ele>303.43</ele>
        <time>2020-02-09T14:59:11Z</time>
      </trkpt>
      <trkpt lat="43.15744" lon="2.48541">
        <ele>303.91</ele>
        <time>2020-02-09T14:59:12Z</time>
      </trkpt>
      <trkpt lat="43.15741" lon="2.48495">
        <ele>301.51</ele>
        <time>2020-02-09T14:59:15Z</time>
      </trkpt>
      <trkpt lat="43.15737" lon="2.4842">
        <ele>299.11</ele>
        <time>2020-02-09T14:59:20Z</time>
      </trkpt>
      <trkpt lat="43.15734" lon="2.48404">
        <ele>299.59</ele>
        <time>2020-02-09T14:59:21Z</time>
      </trkpt>
      <trkpt lat="43.15722" lon="2.48358">
        <ele>295.74</ele>
        <time>2020-02-09T14:59:24Z</time>
      </trkpt>
      <trkpt lat="43.15719" lon="2.48342">
        <ele>293.34</ele>
        <time>2020-02-09T14:59:25Z</time>
      </trkpt>
      <trkpt lat="43.15718" lon="2.48326">
        <ele>292.38</ele>
        <time>2020-02-09T14:59:26Z</time>
      </trkpt>
      <trkpt lat="43.15719" lon="2.48309">
        <ele>291.42</ele>
        <time>2020-02-09T14:59:27Z</time>
      </trkpt>
      <trkpt lat="43.15725" lon="2.48263">
        <ele>289.97</ele>
        <time>2020-02-09T14:59:30Z</time>
      </trkpt>
      <trkpt lat="43.15735" lon="2.48146">
        <ele>289.01</ele>
        <time>2020-02-09T14:59:39Z</time>
      </trkpt>
      <trkpt lat="43.15737" lon="2.48104">
        <ele>285.65</ele>
        <time>2020-02-09T14:59:42Z</time>
      </trkpt>
      <trkpt lat="43.15733" lon="2.47959">
        <ele>283.73</ele>
        <time>2020-02-09T14:59:54Z</time>
      </trkpt>
      <trkpt lat="43.15731" lon="2.47884">
        <ele>279.88</ele>
        <time>2020-02-09T15:00:00Z</time>
      </trkpt>
      <trkpt lat="43.1572" lon="2.47755">
        <ele>276.52</ele>
        <time>2020-02-09T15:00:10Z</time>
      </trkpt>
      <trkpt lat="43.1572" lon="2.47742">
        <ele>276.04</ele>
        <time>2020-02-09T15:00:11Z</time>
      </trkpt>
      <trkpt lat="43.15722" lon="2.47729">
        <ele>275.56</ele>
        <time>2020-02-09T15:00:12Z</time>
      </trkpt>
      <trkpt lat="43.15744" lon="2.47571">
        <ele>275.07</ele>
        <time>2020-02-09T15:00:28Z</time>
      </trkpt>
      <trkpt lat="43.15747" lon="2.47564">
        <ele>274.11</ele>
        <time>2020-02-09T15:00:30Z</time>
      </trkpt>
      <trkpt lat="43.15751" lon="2.47558">
        <ele>274.59</ele>
        <time>2020-02-09T15:00:47Z</time>
      </trkpt>
      <trkpt lat="43.15752" lon="2.4756">
        <ele>274.59</ele>
        <time>2020-02-09T15:00:56Z</time>
      </trkpt>
      <trkpt lat="43.15753" lon="2.47562">
        <ele>275.07</ele>
        <time>2020-02-09T15:00:57Z</time>
      </trkpt>
      <trkpt lat="43.15753" lon="2.47564">
        <ele>275.56</ele>
        <time>2020-02-09T15:00:58Z</time>
      </trkpt>
      <trkpt lat="43.15754" lon="2.47566">
        <ele>275.07</ele>
        <time>2020-02-09T15:00:59Z</time>
      </trkpt>
      <trkpt lat="43.15754" lon="2.47569">
        <ele>276.04</ele>
        <time>2020-02-09T15:01:00Z</time>
      </trkpt>
      <trkpt lat="43.15754" lon="2.47571">
        <ele>276.04</ele>
        <time>2020-02-09T15:01:01Z</time>
      </trkpt>
      <trkpt lat="43.15755" lon="2.47573">
        <ele>276.04</ele>
        <time>2020-02-09T15:01:02Z</time>
      </trkpt>
      <trkpt lat="43.15757" lon="2.47575">
        <ele>276.04</ele>
        <time>2020-02-09T15:01:03Z</time>
      </trkpt>
      <trkpt lat="43.15773" lon="2.47598">
        <ele>279.4</ele>
        <time>2020-02-09T15:01:19Z</time>
      </trkpt>
      <trkpt lat="43.15774" lon="2.476">
        <ele>279.4</ele>
        <time>2020-02-09T15:01:20Z</time>
      </trkpt>
      <trkpt lat="43.15778" lon="2.47605">
        <ele>279.88</ele>
        <time>2020-02-09T15:01:29Z</time>
      </trkpt>
      <trkpt lat="43.15776" lon="2.47603">
        <ele>278.92</ele>
        <time>2020-02-09T15:01:36Z</time>
      </trkpt>
      <trkpt lat="43.15779" lon="2.47563">
        <ele>277.48</ele>
        <time>2020-02-09T15:01:51Z</time>
      </trkpt>
      <trkpt lat="43.15783" lon="2.47562">
        <ele>277.48</ele>
        <time>2020-02-09T15:01:53Z</time>
      </trkpt>
      <trkpt lat="43.15796" lon="2.47579">
        <ele>279.4</ele>
        <time>2020-02-09T15:02:07Z</time>
      </trkpt>
      <trkpt lat="43.15803" lon="2.47594">
        <ele>281.32</ele>
        <time>2020-02-09T15:02:20Z</time>
      </trkpt>
      <trkpt lat="43.15814" lon="2.47628">
        <ele>284.69</ele>
        <time>2020-02-09T15:02:44Z</time>
      </trkpt>
      <trkpt lat="43.15833" lon="2.47649">
        <ele>288.05</ele>
        <time>2020-02-09T15:03:07Z</time>
      </trkpt>
      <trkpt lat="43.15841" lon="2.47659">
        <ele>288.05</ele>
        <time>2020-02-09T15:03:29Z</time>
      </trkpt>
      <trkpt lat="43.15843" lon="2.4766">
        <ele>289.01</ele>
        <time>2020-02-09T15:04:19Z</time>
      </trkpt>
      <trkpt lat="43.15859" lon="2.47676">
        <ele>292.38</ele>
        <time>2020-02-09T15:04:36Z</time>
      </trkpt>
      <trkpt lat="43.15876" lon="2.47695">
        <ele>295.74</ele>
        <time>2020-02-09T15:04:58Z</time>
      </trkpt>
      <trkpt lat="43.15889" lon="2.47706">
        <ele>298.63</ele>
        <time>2020-02-09T15:05:14Z</time>
      </trkpt>
      <trkpt lat="43.15903" lon="2.47711">
        <ele>300.55</ele>
        <time>2020-02-09T15:05:28Z</time>
      </trkpt>
      <trkpt lat="43.15907" lon="2.47724">
        <ele>302.47</ele>
        <time>2020-02-09T15:05:42Z</time>
      </trkpt>
      <trkpt lat="43.15911" lon="2.47731">
        <ele>302.95</ele>
        <time>2020-02-09T15:05:48Z</time>
      </trkpt>
      <trkpt lat="43.15911" lon="2.47732">
        <ele>302.47</ele>
        <time>2020-02-09T15:05:49Z</time>
      </trkpt>
      <trkpt lat="43.15912" lon="2.47734">
        <ele>301.99</ele>
        <time>2020-02-09T15:05:50Z</time>
      </trkpt>
      <trkpt lat="43.15927" lon="2.47748">
        <ele>305.36</ele>
        <time>2020-02-09T15:06:08Z</time>
      </trkpt>
      <trkpt lat="43.15931" lon="2.47753">
        <ele>305.84</ele>
        <time>2020-02-09T15:06:13Z</time>
      </trkpt>
      <trkpt lat="43.15935" lon="2.4776">
        <ele>306.8</ele>
        <time>2020-02-09T15:06:23Z</time>
      </trkpt>
      <trkpt lat="43.15935" lon="2.47762">
        <ele>306.32</ele>
        <time>2020-02-09T15:06:24Z</time>
      </trkpt>
      <trkpt lat="43.15936" lon="2.47763">
        <ele>306.32</ele>
        <time>2020-02-09T15:06:25Z</time>
      </trkpt>
      <trkpt lat="43.15937" lon="2.47765">
        <ele>306.32</ele>
        <time>2020-02-09T15:06:26Z</time>
      </trkpt>
      <trkpt lat="43.15937" lon="2.47767">
        <ele>307.28</ele>
        <time>2020-02-09T15:06:27Z</time>
      </trkpt>
      <trkpt lat="43.15938" lon="2.47768">
        <ele>307.28</ele>
        <time>2020-02-09T15:06:28Z</time>
      </trkpt>
      <trkpt lat="43.15939" lon="2.4777">
        <ele>308.24</ele>
        <time>2020-02-09T15:06:29Z</time>
      </trkpt>
      <trkpt lat="43.15959" lon="2.47803">
        <ele>311.6</ele>
        <time>2020-02-09T15:06:52Z</time>
      </trkpt>
      <trkpt lat="43.15975" lon="2.47828">
        <ele>314.01</ele>
        <time>2020-02-09T15:07:13Z</time>
      </trkpt>
      <trkpt lat="43.1599" lon="2.47855">
        <ele>317.37</ele>
        <time>2020-02-09T15:07:34Z</time>
      </trkpt>
      <trkpt lat="43.15997" lon="2.47869">
        <ele>318.81</ele>
        <time>2020-02-09T15:07:43Z</time>
      </trkpt>
      <trkpt lat="43.16015" lon="2.479">
        <ele>321.22</ele>
        <time>2020-02-09T15:08:09Z</time>
      </trkpt>
      <trkpt lat="43.16025" lon="2.47926">
        <ele>323.14</ele>
        <time>2020-02-09T15:08:25Z</time>
      </trkpt>
      <trkpt lat="43.16026" lon="2.47927">
        <ele>323.62</ele>
        <time>2020-02-09T15:08:26Z</time>
      </trkpt>
      <trkpt lat="43.16027" lon="2.47929">
        <ele>323.14</ele>
        <time>2020-02-09T15:08:27Z</time>
      </trkpt>
      <trkpt lat="43.16028" lon="2.47931">
        <ele>323.62</ele>
        <time>2020-02-09T15:08:28Z</time>
      </trkpt>
      <trkpt lat="43.16029" lon="2.47933">
        <ele>323.62</ele>
        <time>2020-02-09T15:08:29Z</time>
      </trkpt>
      <trkpt lat="43.1603" lon="2.47935">
        <ele>323.62</ele>
        <time>2020-02-09T15:08:30Z</time>
      </trkpt>
      <trkpt lat="43.16046" lon="2.47971">
        <ele>326.5</ele>
        <time>2020-02-09T15:08:52Z</time>
      </trkpt>
      <trkpt lat="43.16062" lon="2.48005">
        <ele>328.43</ele>
        <time>2020-02-09T15:09:13Z</time>
      </trkpt>
      <trkpt lat="43.16069" lon="2.48009">
        <ele>328.91</ele>
        <time>2020-02-09T15:09:18Z</time>
      </trkpt>
      <trkpt lat="43.16078" lon="2.48018">
        <ele>331.31</ele>
        <time>2020-02-09T15:09:27Z</time>
      </trkpt>
      <trkpt lat="43.16096" lon="2.4805">
        <ele>333.23</ele>
        <time>2020-02-09T15:09:47Z</time>
      </trkpt>
      <trkpt lat="43.16117" lon="2.48087">
        <ele>336.6</ele>
        <time>2020-02-09T15:10:08Z</time>
      </trkpt>
      <trkpt lat="43.1613" lon="2.481">
        <ele>338.04</ele>
        <time>2020-02-09T15:10:19Z</time>
      </trkpt>
      <trkpt lat="43.16132" lon="2.48101">
        <ele>338.52</ele>
        <time>2020-02-09T15:10:20Z</time>
      </trkpt>
      <trkpt lat="43.16133" lon="2.48102">
        <ele>338.52</ele>
        <time>2020-02-09T15:10:21Z</time>
      </trkpt>
      <trkpt lat="43.16134" lon="2.48102">
        <ele>339</ele>
        <time>2020-02-09T15:10:22Z</time>
      </trkpt>
      <trkpt lat="43.16136" lon="2.48103">
        <ele>338.52</ele>
        <time>2020-02-09T15:10:23Z</time>
      </trkpt>
      <trkpt lat="43.16156" lon="2.48125">
        <ele>341.41</ele>
        <time>2020-02-09T15:10:40Z</time>
      </trkpt>
      <trkpt lat="43.1618" lon="2.48152">
        <ele>343.33</ele>
        <time>2020-02-09T15:11:01Z</time>
      </trkpt>
      <trkpt lat="43.16204" lon="2.48182">
        <ele>346.69</ele>
        <time>2020-02-09T15:11:23Z</time>
      </trkpt>
      <trkpt lat="43.16232" lon="2.48213">
        <ele>349.58</ele>
        <time>2020-02-09T15:11:47Z</time>
      </trkpt>
      <trkpt lat="43.16244" lon="2.48215">
        <ele>350.54</ele>
        <time>2020-02-09T15:11:55Z</time>
      </trkpt>
      <trkpt lat="43.16245" lon="2.48216">
        <ele>349.58</ele>
        <time>2020-02-09T15:11:56Z</time>
      </trkpt>
      <trkpt lat="43.16256" lon="2.48232">
        <ele>351.5</ele>
        <time>2020-02-09T15:12:17Z</time>
      </trkpt>
      <trkpt lat="43.16259" lon="2.48236">
        <ele>351.98</ele>
        <time>2020-02-09T15:12:28Z</time>
      </trkpt>
      <trkpt lat="43.1626" lon="2.48238">
        <ele>351.98</ele>
        <time>2020-02-09T15:12:29Z</time>
      </trkpt>
      <trkpt lat="43.16261" lon="2.48239">
        <ele>352.46</ele>
        <time>2020-02-09T15:12:30Z</time>
      </trkpt>
      <trkpt lat="43.16262" lon="2.48242">
        <ele>351.98</ele>
        <time>2020-02-09T15:12:32Z</time>
      </trkpt>
      <trkpt lat="43.16263" lon="2.48244">
        <ele>351.98</ele>
        <time>2020-02-09T15:12:33Z</time>
      </trkpt>
      <trkpt lat="43.16265" lon="2.48245">
        <ele>352.46</ele>
        <time>2020-02-09T15:12:34Z</time>
      </trkpt>
      <trkpt lat="43.16269" lon="2.48249">
        <ele>353.42</ele>
        <time>2020-02-09T15:12:37Z</time>
      </trkpt>
      <trkpt lat="43.16284" lon="2.48268">
        <ele>355.83</ele>
        <time>2020-02-09T15:12:50Z</time>
      </trkpt>
      <trkpt lat="43.16285" lon="2.48268">
        <ele>355.34</ele>
        <time>2020-02-09T15:12:51Z</time>
      </trkpt>
      <trkpt lat="43.16287" lon="2.4827">
        <ele>355.34</ele>
        <time>2020-02-09T15:12:52Z</time>
      </trkpt>
      <trkpt lat="43.16287" lon="2.48271">
        <ele>355.83</ele>
        <time>2020-02-09T15:12:53Z</time>
      </trkpt>
      <trkpt lat="43.16288" lon="2.48273">
        <ele>355.83</ele>
        <time>2020-02-09T15:12:54Z</time>
      </trkpt>
      <trkpt lat="43.16289" lon="2.48274">
        <ele>356.31</ele>
        <time>2020-02-09T15:12:55Z</time>
      </trkpt>
      <trkpt lat="43.1629" lon="2.48275">
        <ele>355.83</ele>
        <time>2020-02-09T15:12:56Z</time>
      </trkpt>
      <trkpt lat="43.16292" lon="2.48277">
        <ele>355.34</ele>
        <time>2020-02-09T15:12:57Z</time>
      </trkpt>
      <trkpt lat="43.16293" lon="2.48278">
        <ele>356.31</ele>
        <time>2020-02-09T15:12:58Z</time>
      </trkpt>
      <trkpt lat="43.16297" lon="2.48285">
        <ele>356.79</ele>
        <time>2020-02-09T15:13:02Z</time>
      </trkpt>
      <trkpt lat="43.16301" lon="2.48294">
        <ele>357.27</ele>
        <time>2020-02-09T15:13:07Z</time>
      </trkpt>
      <trkpt lat="43.16326" lon="2.48313">
        <ele>360.63</ele>
        <time>2020-02-09T15:13:26Z</time>
      </trkpt>
      <trkpt lat="43.1634" lon="2.48348">
        <ele>363.04</ele>
        <time>2020-02-09T15:13:46Z</time>
      </trkpt>
      <trkpt lat="43.16353" lon="2.48381">
        <ele>366.88</ele>
        <time>2020-02-09T15:14:05Z</time>
      </trkpt>
      <trkpt lat="43.16368" lon="2.48423">
        <ele>369.28</ele>
        <time>2020-02-09T15:14:29Z</time>
      </trkpt>
      <trkpt lat="43.16369" lon="2.48425">
        <ele>368.8</ele>
        <time>2020-02-09T15:14:30Z</time>
      </trkpt>
      <trkpt lat="43.16369" lon="2.48427">
        <ele>369.76</ele>
        <time>2020-02-09T15:14:31Z</time>
      </trkpt>
      <trkpt lat="43.1637" lon="2.48428">
        <ele>369.28</ele>
        <time>2020-02-09T15:14:32Z</time>
      </trkpt>
      <trkpt lat="43.16371" lon="2.4843">
        <ele>369.76</ele>
        <time>2020-02-09T15:14:33Z</time>
      </trkpt>
      <trkpt lat="43.16372" lon="2.48431">
        <ele>370.24</ele>
        <time>2020-02-09T15:14:34Z</time>
      </trkpt>
      <trkpt lat="43.16373" lon="2.48432">
        <ele>369.76</ele>
        <time>2020-02-09T15:14:35Z</time>
      </trkpt>
      <trkpt lat="43.16374" lon="2.48434">
        <ele>370.24</ele>
        <time>2020-02-09T15:14:36Z</time>
      </trkpt>
      <trkpt lat="43.16375" lon="2.48435">
        <ele>369.76</ele>
        <time>2020-02-09T15:14:37Z</time>
      </trkpt>
      <trkpt lat="43.16375" lon="2.48436">
        <ele>369.76</ele>
        <time>2020-02-09T15:14:38Z</time>
      </trkpt>
      <trkpt lat="43.16393" lon="2.48454">
        <ele>372.17</ele>
        <time>2020-02-09T15:14:53Z</time>
      </trkpt>
      <trkpt lat="43.16393" lon="2.48456">
        <ele>371.21</ele>
        <time>2020-02-09T15:14:54Z</time>
      </trkpt>
      <trkpt lat="43.16394" lon="2.48458">
        <ele>371.69</ele>
        <time>2020-02-09T15:14:55Z</time>
      </trkpt>
      <trkpt lat="43.16396" lon="2.48462">
        <ele>371.69</ele>
        <time>2020-02-09T15:14:58Z</time>
      </trkpt>
      <trkpt lat="43.16397" lon="2.48463">
        <ele>372.65</ele>
        <time>2020-02-09T15:14:59Z</time>
      </trkpt>
      <trkpt lat="43.16401" lon="2.48465">
        <ele>373.13</ele>
        <time>2020-02-09T15:15:02Z</time>
      </trkpt>
      <trkpt lat="43.16402" lon="2.48466">
        <ele>373.13</ele>
        <time>2020-02-09T15:15:03Z</time>
      </trkpt>
      <trkpt lat="43.16403" lon="2.48468">
        <ele>373.13</ele>
        <time>2020-02-09T15:15:04Z</time>
      </trkpt>
      <trkpt lat="43.16401" lon="2.48478">
        <ele>373.13</ele>
        <time>2020-02-09T15:15:10Z</time>
      </trkpt>
      <trkpt lat="43.164" lon="2.48483">
        <ele>374.09</ele>
        <time>2020-02-09T15:15:13Z</time>
      </trkpt>
      <trkpt lat="43.16403" lon="2.48491">
        <ele>374.57</ele>
        <time>2020-02-09T15:15:17Z</time>
      </trkpt>
      <trkpt lat="43.16413" lon="2.48517">
        <ele>376.01</ele>
        <time>2020-02-09T15:15:33Z</time>
      </trkpt>
      <trkpt lat="43.16416" lon="2.48524">
        <ele>376.49</ele>
        <time>2020-02-09T15:15:37Z</time>
      </trkpt>
      <trkpt lat="43.16419" lon="2.48536">
        <ele>377.94</ele>
        <time>2020-02-09T15:15:44Z</time>
      </trkpt>
      <trkpt lat="43.16435" lon="2.48569">
        <ele>380.34</ele>
        <time>2020-02-09T15:16:06Z</time>
      </trkpt>
      <trkpt lat="43.16435" lon="2.48573">
        <ele>380.34</ele>
        <time>2020-02-09T15:16:08Z</time>
      </trkpt>
      <trkpt lat="43.16449" lon="2.48608">
        <ele>381.78</ele>
        <time>2020-02-09T15:16:31Z</time>
      </trkpt>
      <trkpt lat="43.16454" lon="2.48624">
        <ele>382.74</ele>
        <time>2020-02-09T15:16:40Z</time>
      </trkpt>
      <trkpt lat="43.16468" lon="2.4866">
        <ele>384.66</ele>
        <time>2020-02-09T15:17:01Z</time>
      </trkpt>
      <trkpt lat="43.16472" lon="2.4867">
        <ele>385.63</ele>
        <time>2020-02-09T15:17:07Z</time>
      </trkpt>
      <trkpt lat="43.16476" lon="2.48683">
        <ele>385.63</ele>
        <time>2020-02-09T15:17:13Z</time>
      </trkpt>
      <trkpt lat="43.1649" lon="2.48706">
        <ele>386.59</ele>
        <time>2020-02-09T15:17:26Z</time>
      </trkpt>
      <trkpt lat="43.16487" lon="2.48729">
        <ele>387.55</ele>
        <time>2020-02-09T15:17:41Z</time>
      </trkpt>
      <trkpt lat="43.16486" lon="2.48736">
        <ele>388.03</ele>
        <time>2020-02-09T15:17:45Z</time>
      </trkpt>
      <trkpt lat="43.16485" lon="2.48745">
        <ele>388.03</ele>
        <time>2020-02-09T15:17:57Z</time>
      </trkpt>
      <trkpt lat="43.165" lon="2.48776">
        <ele>388.51</ele>
        <time>2020-02-09T15:18:16Z</time>
      </trkpt>
      <trkpt lat="43.16501" lon="2.48778">
        <ele>388.03</ele>
        <time>2020-02-09T15:18:17Z</time>
      </trkpt>
      <trkpt lat="43.16502" lon="2.48786">
        <ele>388.99</ele>
        <time>2020-02-09T15:18:21Z</time>
      </trkpt>
      <trkpt lat="43.16505" lon="2.48795">
        <ele>388.99</ele>
        <time>2020-02-09T15:18:27Z</time>
      </trkpt>
      <trkpt lat="43.1651" lon="2.48809">
        <ele>388.99</ele>
        <time>2020-02-09T15:18:37Z</time>
      </trkpt>
      <trkpt lat="43.16511" lon="2.48814">
        <ele>388.99</ele>
        <time>2020-02-09T15:18:40Z</time>
      </trkpt>
      <trkpt lat="43.16511" lon="2.4882">
        <ele>388.99</ele>
        <time>2020-02-09T15:18:43Z</time>
      </trkpt>
      <trkpt lat="43.16516" lon="2.48831">
        <ele>389.47</ele>
        <time>2020-02-09T15:18:50Z</time>
      </trkpt>
      <trkpt lat="43.16529" lon="2.48855">
        <ele>389.95</ele>
        <time>2020-02-09T15:19:09Z</time>
      </trkpt>
      <trkpt lat="43.16532" lon="2.48861">
        <ele>389.95</ele>
        <time>2020-02-09T15:19:15Z</time>
      </trkpt>
      <trkpt lat="43.1653" lon="2.48866">
        <ele>390.43</ele>
        <time>2020-02-09T15:19:19Z</time>
      </trkpt>
      <trkpt lat="43.16534" lon="2.4889">
        <ele>390.43</ele>
        <time>2020-02-09T15:19:40Z</time>
      </trkpt>
      <trkpt lat="43.16542" lon="2.48911">
        <ele>390.43</ele>
        <time>2020-02-09T15:19:58Z</time>
      </trkpt>
      <trkpt lat="43.16546" lon="2.48922">
        <ele>390.43</ele>
        <time>2020-02-09T15:20:03Z</time>
      </trkpt>
      <trkpt lat="43.16548" lon="2.48937">
        <ele>390.43</ele>
        <time>2020-02-09T15:20:09Z</time>
      </trkpt>
      <trkpt lat="43.16554" lon="2.48968">
        <ele>390.43</ele>
        <time>2020-02-09T15:20:24Z</time>
      </trkpt>
      <trkpt lat="43.16557" lon="2.48988">
        <ele>390.91</ele>
        <time>2020-02-09T15:20:33Z</time>
      </trkpt>
      <trkpt lat="43.16568" lon="2.49">
        <ele>390.43</ele>
        <time>2020-02-09T15:20:43Z</time>
      </trkpt>
      <trkpt lat="43.16567" lon="2.49012">
        <ele>388.99</ele>
        <time>2020-02-09T15:21:00Z</time>
      </trkpt>
      <trkpt lat="43.1657" lon="2.49012">
        <ele>389.47</ele>
        <time>2020-02-09T15:21:46Z</time>
      </trkpt>
      <trkpt lat="43.16566" lon="2.49011">
        <ele>389.47</ele>
        <time>2020-02-09T15:22:04Z</time>
      </trkpt>
      <trkpt lat="43.16567" lon="2.49012">
        <ele>389.47</ele>
        <time>2020-02-09T15:22:08Z</time>
      </trkpt>
      <trkpt lat="43.16568" lon="2.49009">
        <ele>389.95</ele>
        <time>2020-02-09T15:22:11Z</time>
      </trkpt>
      <trkpt lat="43.16568" lon="2.48999">
        <ele>390.43</ele>
        <time>2020-02-09T15:22:24Z</time>
      </trkpt>
      <trkpt lat="43.16567" lon="2.49012">
        <ele>389.95</ele>
        <time>2020-02-09T15:22:31Z</time>
      </trkpt>
      <trkpt lat="43.16569" lon="2.49021">
        <ele>389.47</ele>
        <time>2020-02-09T15:22:56Z</time>
      </trkpt>
      <trkpt lat="43.16568" lon="2.49016">
        <ele>389.47</ele>
        <time>2020-02-09T15:23:00Z</time>
      </trkpt>
      <trkpt lat="43.16568" lon="2.49003">
        <ele>389.47</ele>
        <time>2020-02-09T15:23:08Z</time>
      </trkpt>
      <trkpt lat="43.16568" lon="2.49">
        <ele>388.99</ele>
        <time>2020-02-09T15:23:19Z</time>
      </trkpt>
      <trkpt lat="43.16567" lon="2.49016">
        <ele>389.47</ele>
        <time>2020-02-09T15:23:29Z</time>
      </trkpt>
      <trkpt lat="43.1657" lon="2.49026">
        <ele>389.47</ele>
        <time>2020-02-09T15:23:52Z</time>
      </trkpt>
      <trkpt lat="43.16572" lon="2.49026">
        <ele>389.47</ele>
        <time>2020-02-09T15:24:19Z</time>
      </trkpt>
      <trkpt lat="43.16574" lon="2.49026">
        <ele>388.51</ele>
        <time>2020-02-09T15:25:02Z</time>
      </trkpt>
      <trkpt lat="43.16573" lon="2.49031">
        <ele>388.51</ele>
        <time>2020-02-09T15:25:10Z</time>
      </trkpt>
      <trkpt lat="43.16578" lon="2.49038">
        <ele>387.55</ele>
        <time>2020-02-09T15:25:16Z</time>
      </trkpt>
      <trkpt lat="43.1658" lon="2.49052">
        <ele>387.07</ele>
        <time>2020-02-09T15:25:28Z</time>
      </trkpt>
      <trkpt lat="43.16597" lon="2.49056">
        <ele>383.7</ele>
        <time>2020-02-09T15:25:37Z</time>
      </trkpt>
      <trkpt lat="43.1661" lon="2.49062">
        <ele>381.3</ele>
        <time>2020-02-09T15:25:44Z</time>
      </trkpt>
      <trkpt lat="43.16625" lon="2.49063">
        <ele>377.45</ele>
        <time>2020-02-09T15:25:57Z</time>
      </trkpt>
      <trkpt lat="43.16638" lon="2.49063">
        <ele>374.09</ele>
        <time>2020-02-09T15:26:12Z</time>
      </trkpt>
      <trkpt lat="43.16639" lon="2.49069">
        <ele>373.13</ele>
        <time>2020-02-09T15:26:30Z</time>
      </trkpt>
      <trkpt lat="43.16644" lon="2.49072">
        <ele>373.13</ele>
        <time>2020-02-09T15:27:12Z</time>
      </trkpt>
      <trkpt lat="43.16652" lon="2.49075">
        <ele>370.24</ele>
        <time>2020-02-09T15:27:42Z</time>
      </trkpt>
      <trkpt lat="43.16658" lon="2.49089">
        <ele>367.36</ele>
        <time>2020-02-09T15:28:00Z</time>
      </trkpt>
      <trkpt lat="43.16662" lon="2.49093">
        <ele>365.44</ele>
        <time>2020-02-09T15:28:05Z</time>
      </trkpt>
      <trkpt lat="43.16666" lon="2.49105">
        <ele>361.59</ele>
        <time>2020-02-09T15:28:19Z</time>
      </trkpt>
      <trkpt lat="43.16669" lon="2.4911">
        <ele>360.63</ele>
        <time>2020-02-09T15:28:28Z</time>
      </trkpt>
      <trkpt lat="43.16676" lon="2.49113">
        <ele>358.23</ele>
        <time>2020-02-09T15:28:34Z</time>
      </trkpt>
      <trkpt lat="43.16684" lon="2.49117">
        <ele>354.86</ele>
        <time>2020-02-09T15:28:51Z</time>
      </trkpt>
      <trkpt lat="43.16683" lon="2.49117">
        <ele>353.9</ele>
        <time>2020-02-09T15:28:53Z</time>
      </trkpt>
      <trkpt lat="43.16692" lon="2.49121">
        <ele>351.02</ele>
        <time>2020-02-09T15:29:10Z</time>
      </trkpt>
      <trkpt lat="43.16694" lon="2.49122">
        <ele>351.02</ele>
        <time>2020-02-09T15:29:12Z</time>
      </trkpt>
      <trkpt lat="43.16695" lon="2.49126">
        <ele>350.06</ele>
        <time>2020-02-09T15:29:15Z</time>
      </trkpt>
      <trkpt lat="43.16695" lon="2.49145">
        <ele>347.65</ele>
        <time>2020-02-09T15:29:29Z</time>
      </trkpt>
      <trkpt lat="43.16694" lon="2.49163">
        <ele>345.25</ele>
        <time>2020-02-09T15:29:44Z</time>
      </trkpt>
      <trkpt lat="43.1669" lon="2.4918">
        <ele>343.33</ele>
        <time>2020-02-09T15:30:03Z</time>
      </trkpt>
      <trkpt lat="43.16686" lon="2.49193">
        <ele>341.41</ele>
        <time>2020-02-09T15:30:19Z</time>
      </trkpt>
      <trkpt lat="43.16683" lon="2.49204">
        <ele>339</ele>
        <time>2020-02-09T15:30:33Z</time>
      </trkpt>
      <trkpt lat="43.16677" lon="2.49216">
        <ele>336.6</ele>
        <time>2020-02-09T15:30:38Z</time>
      </trkpt>
      <trkpt lat="43.16674" lon="2.49218">
        <ele>335.64</ele>
        <time>2020-02-09T15:30:41Z</time>
      </trkpt>
      <trkpt lat="43.16672" lon="2.49224">
        <ele>333.71</ele>
        <time>2020-02-09T15:30:45Z</time>
      </trkpt>
      <trkpt lat="43.16669" lon="2.49243">
        <ele>330.83</ele>
        <time>2020-02-09T15:31:02Z</time>
      </trkpt>
      <trkpt lat="43.16667" lon="2.49252">
        <ele>328.91</ele>
        <time>2020-02-09T15:31:14Z</time>
      </trkpt>
      <trkpt lat="43.16666" lon="2.49259">
        <ele>326.99</ele>
        <time>2020-02-09T15:31:17Z</time>
      </trkpt>
      <trkpt lat="43.16668" lon="2.4926">
        <ele>326.5</ele>
        <time>2020-02-09T15:31:32Z</time>
      </trkpt>
      <trkpt lat="43.16699" lon="2.49234">
        <ele>326.02</ele>
        <time>2020-02-09T15:31:50Z</time>
      </trkpt>
      <trkpt lat="43.16711" lon="2.49225">
        <ele>324.1</ele>
        <time>2020-02-09T15:31:56Z</time>
      </trkpt>
      <trkpt lat="43.16719" lon="2.49224">
        <ele>322.18</ele>
        <time>2020-02-09T15:31:59Z</time>
      </trkpt>
      <trkpt lat="43.16722" lon="2.49223">
        <ele>321.7</ele>
        <time>2020-02-09T15:32:00Z</time>
      </trkpt>
      <trkpt lat="43.16723" lon="2.49222">
        <ele>320.26</ele>
        <time>2020-02-09T15:32:01Z</time>
      </trkpt>
      <trkpt lat="43.16727" lon="2.49221">
        <ele>320.26</ele>
        <time>2020-02-09T15:32:02Z</time>
      </trkpt>
      <trkpt lat="43.16743" lon="2.49214">
        <ele>317.37</ele>
        <time>2020-02-09T15:32:07Z</time>
      </trkpt>
      <trkpt lat="43.16757" lon="2.49209">
        <ele>314.01</ele>
        <time>2020-02-09T15:32:13Z</time>
      </trkpt>
      <trkpt lat="43.16762" lon="2.49207">
        <ele>312.57</ele>
        <time>2020-02-09T15:32:16Z</time>
      </trkpt>
      <trkpt lat="43.16763" lon="2.49206">
        <ele>312.57</ele>
        <time>2020-02-09T15:32:17Z</time>
      </trkpt>
      <trkpt lat="43.16766" lon="2.49205">
        <ele>311.6</ele>
        <time>2020-02-09T15:32:18Z</time>
      </trkpt>
      <trkpt lat="43.16775" lon="2.492">
        <ele>310.64</ele>
        <time>2020-02-09T15:32:22Z</time>
      </trkpt>
      <trkpt lat="43.16776" lon="2.49199">
        <ele>309.68</ele>
        <time>2020-02-09T15:32:23Z</time>
      </trkpt>
      <trkpt lat="43.16787" lon="2.49197">
        <ele>307.76</ele>
        <time>2020-02-09T15:32:32Z</time>
      </trkpt>
      <trkpt lat="43.1679" lon="2.49197">
        <ele>306.8</ele>
        <time>2020-02-09T15:32:33Z</time>
      </trkpt>
      <trkpt lat="43.16792" lon="2.49196">
        <ele>306.8</ele>
        <time>2020-02-09T15:32:34Z</time>
      </trkpt>
      <trkpt lat="43.16795" lon="2.49194">
        <ele>306.8</ele>
        <time>2020-02-09T15:32:35Z</time>
      </trkpt>
      <trkpt lat="43.16797" lon="2.49192">
        <ele>306.32</ele>
        <time>2020-02-09T15:32:36Z</time>
      </trkpt>
      <trkpt lat="43.16799" lon="2.4919">
        <ele>306.32</ele>
        <time>2020-02-09T15:32:37Z</time>
      </trkpt>
      <trkpt lat="43.16802" lon="2.49188">
        <ele>306.32</ele>
        <time>2020-02-09T15:32:38Z</time>
      </trkpt>
      <trkpt lat="43.16809" lon="2.49178">
        <ele>306.32</ele>
        <time>2020-02-09T15:32:42Z</time>
      </trkpt>
      <trkpt lat="43.1681" lon="2.49175">
        <ele>305.84</ele>
        <time>2020-02-09T15:32:43Z</time>
      </trkpt>
      <trkpt lat="43.16812" lon="2.49173">
        <ele>306.32</ele>
        <time>2020-02-09T15:32:44Z</time>
      </trkpt>
      <trkpt lat="43.16813" lon="2.49171">
        <ele>306.32</ele>
        <time>2020-02-09T15:32:45Z</time>
      </trkpt>
      <trkpt lat="43.16815" lon="2.49168">
        <ele>306.32</ele>
        <time>2020-02-09T15:32:46Z</time>
      </trkpt>
      <trkpt lat="43.16818" lon="2.49166">
        <ele>305.84</ele>
        <time>2020-02-09T15:32:47Z</time>
      </trkpt>
      <trkpt lat="43.1682" lon="2.49163">
        <ele>305.84</ele>
        <time>2020-02-09T15:32:48Z</time>
      </trkpt>
      <trkpt lat="43.16851" lon="2.49125">
        <ele>304.39</ele>
        <time>2020-02-09T15:33:03Z</time>
      </trkpt>
      <trkpt lat="43.16852" lon="2.49123">
        <ele>304.39</ele>
        <time>2020-02-09T15:33:04Z</time>
      </trkpt>
      <trkpt lat="43.16853" lon="2.49121">
        <ele>303.91</ele>
        <time>2020-02-09T15:33:05Z</time>
      </trkpt>
      <trkpt lat="43.16855" lon="2.49118">
        <ele>304.39</ele>
        <time>2020-02-09T15:33:06Z</time>
      </trkpt>
      <trkpt lat="43.16856" lon="2.49116">
        <ele>304.39</ele>
        <time>2020-02-09T15:33:07Z</time>
      </trkpt>
      <trkpt lat="43.16858" lon="2.49114">
        <ele>303.91</ele>
        <time>2020-02-09T15:33:08Z</time>
      </trkpt>
      <trkpt lat="43.1686" lon="2.49111">
        <ele>303.43</ele>
        <time>2020-02-09T15:33:09Z</time>
      </trkpt>
      <trkpt lat="43.16863" lon="2.49108">
        <ele>303.91</ele>
        <time>2020-02-09T15:33:10Z</time>
      </trkpt>
      <trkpt lat="43.16865" lon="2.49105">
        <ele>302.95</ele>
        <time>2020-02-09T15:33:11Z</time>
      </trkpt>
      <trkpt lat="43.16867" lon="2.49103">
        <ele>302.95</ele>
        <time>2020-02-09T15:33:12Z</time>
      </trkpt>
      <trkpt lat="43.16869" lon="2.49101">
        <ele>302.95</ele>
        <time>2020-02-09T15:33:13Z</time>
      </trkpt>
      <trkpt lat="43.16871" lon="2.49098">
        <ele>302.95</ele>
        <time>2020-02-09T15:33:14Z</time>
      </trkpt>
      <trkpt lat="43.16872" lon="2.49096">
        <ele>301.99</ele>
        <time>2020-02-09T15:33:15Z</time>
      </trkpt>
      <trkpt lat="43.16874" lon="2.49094">
        <ele>301.99</ele>
        <time>2020-02-09T15:33:16Z</time>
      </trkpt>
      <trkpt lat="43.16876" lon="2.49092">
        <ele>301.99</ele>
        <time>2020-02-09T15:33:17Z</time>
      </trkpt>
      <trkpt lat="43.16894" lon="2.49073">
        <ele>298.63</ele>
        <time>2020-02-09T15:33:26Z</time>
      </trkpt>
      <trkpt lat="43.1691" lon="2.49049">
        <ele>295.74</ele>
        <time>2020-02-09T15:33:35Z</time>
      </trkpt>
      <trkpt lat="43.16931" lon="2.49014">
        <ele>292.38</ele>
        <time>2020-02-09T15:33:44Z</time>
      </trkpt>
      <trkpt lat="43.16933" lon="2.4901">
        <ele>292.38</ele>
        <time>2020-02-09T15:33:45Z</time>
      </trkpt>
      <trkpt lat="43.16952" lon="2.48957">
        <ele>289.01</ele>
        <time>2020-02-09T15:33:57Z</time>
      </trkpt>
      <trkpt lat="43.16979" lon="2.4889">
        <ele>285.65</ele>
        <time>2020-02-09T15:34:12Z</time>
      </trkpt>
      <trkpt lat="43.17004" lon="2.48851">
        <ele>284.69</ele>
        <time>2020-02-09T15:34:28Z</time>
      </trkpt>
      <trkpt lat="43.17008" lon="2.48847">
        <ele>284.69</ele>
        <time>2020-02-09T15:35:01Z</time>
      </trkpt>
      <trkpt lat="43.17009" lon="2.48847">
        <ele>284.21</ele>
        <time>2020-02-09T15:35:35Z</time>
      </trkpt>
      <trkpt lat="43.17007" lon="2.48849">
        <ele>284.21</ele>
        <time>2020-02-09T15:37:01Z</time>
      </trkpt>
      <trkpt lat="43.17009" lon="2.48846">
        <ele>284.21</ele>
        <time>2020-02-09T15:37:24Z</time>
      </trkpt>
      <trkpt lat="43.17008" lon="2.48843">
        <ele>284.21</ele>
        <time>2020-02-09T15:37:26Z</time>
      </trkpt>
      <trkpt lat="43.17008" lon="2.4884">
        <ele>284.21</ele>
        <time>2020-02-09T15:37:27Z</time>
      </trkpt>
      <trkpt lat="43.17009" lon="2.48837">
        <ele>284.69</ele>
        <time>2020-02-09T15:37:28Z</time>
      </trkpt>
      <trkpt lat="43.1701" lon="2.48834">
        <ele>284.69</ele>
        <time>2020-02-09T15:37:29Z</time>
      </trkpt>
      <trkpt lat="43.1701" lon="2.48831">
        <ele>284.21</ele>
        <time>2020-02-09T15:37:30Z</time>
      </trkpt>
      <trkpt lat="43.17011" lon="2.48828">
        <ele>284.21</ele>
        <time>2020-02-09T15:37:31Z</time>
      </trkpt>
      <trkpt lat="43.17025" lon="2.48778">
        <ele>285.65</ele>
        <time>2020-02-09T15:37:48Z</time>
      </trkpt>
      <trkpt lat="43.1703" lon="2.48767">
        <ele>285.65</ele>
        <time>2020-02-09T15:37:52Z</time>
      </trkpt>
      <trkpt lat="43.17037" lon="2.48744">
        <ele>289.49</ele>
        <time>2020-02-09T15:38:02Z</time>
      </trkpt>
      <trkpt lat="43.17045" lon="2.48726">
        <ele>288.53</ele>
        <time>2020-02-09T15:38:11Z</time>
      </trkpt>
      <trkpt lat="43.17048" lon="2.48724">
        <ele>288.05</ele>
        <time>2020-02-09T15:38:12Z</time>
      </trkpt>
      <trkpt lat="43.1705" lon="2.48722">
        <ele>288.05</ele>
        <time>2020-02-09T15:38:13Z</time>
      </trkpt>
      <trkpt lat="43.17052" lon="2.4872">
        <ele>288.53</ele>
        <time>2020-02-09T15:38:14Z</time>
      </trkpt>
      <trkpt lat="43.17054" lon="2.48717">
        <ele>288.53</ele>
        <time>2020-02-09T15:38:15Z</time>
      </trkpt>
      <trkpt lat="43.17056" lon="2.48715">
        <ele>288.53</ele>
        <time>2020-02-09T15:38:16Z</time>
      </trkpt>
      <trkpt lat="43.17057" lon="2.48713">
        <ele>289.01</ele>
        <time>2020-02-09T15:38:17Z</time>
      </trkpt>
      <trkpt lat="43.17059" lon="2.48709">
        <ele>288.53</ele>
        <time>2020-02-09T15:38:18Z</time>
      </trkpt>
      <trkpt lat="43.1706" lon="2.48706">
        <ele>288.53</ele>
        <time>2020-02-09T15:38:19Z</time>
      </trkpt>
      <trkpt lat="43.17062" lon="2.48702">
        <ele>288.53</ele>
        <time>2020-02-09T15:38:20Z</time>
      </trkpt>
      <trkpt lat="43.17063" lon="2.48699">
        <ele>289.01</ele>
        <time>2020-02-09T15:38:21Z</time>
      </trkpt>
      <trkpt lat="43.17063" lon="2.48697">
        <ele>289.01</ele>
        <time>2020-02-09T15:38:22Z</time>
      </trkpt>
      <trkpt lat="43.17064" lon="2.48695">
        <ele>289.01</ele>
        <time>2020-02-09T15:38:23Z</time>
      </trkpt>
      <trkpt lat="43.17064" lon="2.48692">
        <ele>289.01</ele>
        <time>2020-02-09T15:38:24Z</time>
      </trkpt>
      <trkpt lat="43.17071" lon="2.48676">
        <ele>289.97</ele>
        <time>2020-02-09T15:38:32Z</time>
      </trkpt>
      <trkpt lat="43.17073" lon="2.48674">
        <ele>289.49</ele>
        <time>2020-02-09T15:38:33Z</time>
      </trkpt>
      <trkpt lat="43.17074" lon="2.48672">
        <ele>290.46</ele>
        <time>2020-02-09T15:38:34Z</time>
      </trkpt>
      <trkpt lat="43.17075" lon="2.4867">
        <ele>289.97</ele>
        <time>2020-02-09T15:38:35Z</time>
      </trkpt>
      <trkpt lat="43.17076" lon="2.48667">
        <ele>290.46</ele>
        <time>2020-02-09T15:38:36Z</time>
      </trkpt>
      <trkpt lat="43.17076" lon="2.48666">
        <ele>290.94</ele>
        <time>2020-02-09T15:38:37Z</time>
      </trkpt>
      <trkpt lat="43.17076" lon="2.48664">
        <ele>291.42</ele>
        <time>2020-02-09T15:38:38Z</time>
      </trkpt>
      <trkpt lat="43.17077" lon="2.48662">
        <ele>291.9</ele>
        <time>2020-02-09T15:38:39Z</time>
      </trkpt>
      <trkpt lat="43.17077" lon="2.4866">
        <ele>291.9</ele>
        <time>2020-02-09T15:38:40Z</time>
      </trkpt>
      <trkpt lat="43.17077" lon="2.48657">
        <ele>291.9</ele>
        <time>2020-02-09T15:38:42Z</time>
      </trkpt>
      <trkpt lat="43.17078" lon="2.48651">
        <ele>292.86</ele>
        <time>2020-02-09T15:38:45Z</time>
      </trkpt>
      <trkpt lat="43.17081" lon="2.48646">
        <ele>294.3</ele>
        <time>2020-02-09T15:38:48Z</time>
      </trkpt>
      <trkpt lat="43.17088" lon="2.4862">
        <ele>297.18</ele>
        <time>2020-02-09T15:39:02Z</time>
      </trkpt>
      <trkpt lat="43.17089" lon="2.48616">
        <ele>296.7</ele>
        <time>2020-02-09T15:39:04Z</time>
      </trkpt>
      <trkpt lat="43.17089" lon="2.48613">
        <ele>297.67</ele>
        <time>2020-02-09T15:39:05Z</time>
      </trkpt>
      <trkpt lat="43.17089" lon="2.48611">
        <ele>296.7</ele>
        <time>2020-02-09T15:39:06Z</time>
      </trkpt>
      <trkpt lat="43.17089" lon="2.4861">
        <ele>297.67</ele>
        <time>2020-02-09T15:39:07Z</time>
      </trkpt>
      <trkpt lat="43.17088" lon="2.48608">
        <ele>297.18</ele>
        <time>2020-02-09T15:39:08Z</time>
      </trkpt>
      <trkpt lat="43.17089" lon="2.48606">
        <ele>297.67</ele>
        <time>2020-02-09T15:39:09Z</time>
      </trkpt>
      <trkpt lat="43.17089" lon="2.48604">
        <ele>297.67</ele>
        <time>2020-02-09T15:39:10Z</time>
      </trkpt>
      <trkpt lat="43.17089" lon="2.48602">
        <ele>298.15</ele>
        <time>2020-02-09T15:39:11Z</time>
      </trkpt>
      <trkpt lat="43.1709" lon="2.48597">
        <ele>297.67</ele>
        <time>2020-02-09T15:39:13Z</time>
      </trkpt>
      <trkpt lat="43.17092" lon="2.48565">
        <ele>296.7</ele>
        <time>2020-02-09T15:39:26Z</time>
      </trkpt>
      <trkpt lat="43.17095" lon="2.4856">
        <ele>296.7</ele>
        <time>2020-02-09T15:40:05Z</time>
      </trkpt>
      <trkpt lat="43.17095" lon="2.48558">
        <ele>296.7</ele>
        <time>2020-02-09T15:40:47Z</time>
      </trkpt>
      <trkpt lat="43.17089" lon="2.48548">
        <ele>297.67</ele>
        <time>2020-02-09T15:41:26Z</time>
      </trkpt>
      <trkpt lat="43.17088" lon="2.48544">
        <ele>297.18</ele>
        <time>2020-02-09T15:41:28Z</time>
      </trkpt>
      <trkpt lat="43.17096" lon="2.48529">
        <ele>293.82</ele>
        <time>2020-02-09T15:41:34Z</time>
      </trkpt>
      <trkpt lat="43.17102" lon="2.48495">
        <ele>291.42</ele>
        <time>2020-02-09T15:41:47Z</time>
      </trkpt>
      <trkpt lat="43.17097" lon="2.48486">
        <ele>293.34</ele>
        <time>2020-02-09T15:42:03Z</time>
      </trkpt>
      <trkpt lat="43.17089" lon="2.48487">
        <ele>296.22</ele>
        <time>2020-02-09T15:42:18Z</time>
      </trkpt>
      <trkpt lat="43.1708" lon="2.48484">
        <ele>300.07</ele>
        <time>2020-02-09T15:42:30Z</time>
      </trkpt>
      <trkpt lat="43.17071" lon="2.48483">
        <ele>301.51</ele>
        <time>2020-02-09T15:42:44Z</time>
      </trkpt>
      <trkpt lat="43.17058" lon="2.48487">
        <ele>301.03</ele>
        <time>2020-02-09T15:43:02Z</time>
      </trkpt>
      <trkpt lat="43.17055" lon="2.48479">
        <ele>303.91</ele>
        <time>2020-02-09T15:43:18Z</time>
      </trkpt>
      <trkpt lat="43.17049" lon="2.48482">
        <ele>305.84</ele>
        <time>2020-02-09T15:43:36Z</time>
      </trkpt>
      <trkpt lat="43.17044" lon="2.485">
        <ele>308.24</ele>
        <time>2020-02-09T15:43:54Z</time>
      </trkpt>
      <trkpt lat="43.17045" lon="2.48517">
        <ele>309.68</ele>
        <time>2020-02-09T15:44:12Z</time>
      </trkpt>
      <trkpt lat="43.17044" lon="2.48529">
        <ele>312.09</ele>
        <time>2020-02-09T15:44:31Z</time>
      </trkpt>
      <trkpt lat="43.17042" lon="2.48537">
        <ele>314.49</ele>
        <time>2020-02-09T15:44:47Z</time>
      </trkpt>
      <trkpt lat="43.17039" lon="2.48551">
        <ele>317.85</ele>
        <time>2020-02-09T15:45:11Z</time>
      </trkpt>
      <trkpt lat="43.17042" lon="2.48563">
        <ele>319.78</ele>
        <time>2020-02-09T15:45:27Z</time>
      </trkpt>
      <trkpt lat="43.17039" lon="2.48572">
        <ele>320.74</ele>
        <time>2020-02-09T15:45:50Z</time>
      </trkpt>
      <trkpt lat="43.17039" lon="2.48574">
        <ele>322.18</ele>
        <time>2020-02-09T15:46:06Z</time>
      </trkpt>
      <trkpt lat="43.17034" lon="2.48574">
        <ele>325.06</ele>
        <time>2020-02-09T15:46:25Z</time>
      </trkpt>
      <trkpt lat="43.17034" lon="2.4857">
        <ele>326.02</ele>
        <time>2020-02-09T15:46:43Z</time>
      </trkpt>
      <trkpt lat="43.17031" lon="2.48568">
        <ele>326.02</ele>
        <time>2020-02-09T15:47:31Z</time>
      </trkpt>
      <trkpt lat="43.17032" lon="2.4857">
        <ele>326.5</ele>
        <time>2020-02-09T15:48:23Z</time>
      </trkpt>
      <trkpt lat="43.17032" lon="2.48569">
        <ele>327.95</ele>
        <time>2020-02-09T15:48:45Z</time>
      </trkpt>
      <trkpt lat="43.17027" lon="2.4857">
        <ele>331.31</ele>
        <time>2020-02-09T15:49:03Z</time>
      </trkpt>
      <trkpt lat="43.17022" lon="2.48572">
        <ele>332.75</ele>
        <time>2020-02-09T15:49:20Z</time>
      </trkpt>
      <trkpt lat="43.17022" lon="2.48576">
        <ele>333.23</ele>
        <time>2020-02-09T15:49:40Z</time>
      </trkpt>
      <trkpt lat="43.17024" lon="2.48577">
        <ele>333.71</ele>
        <time>2020-02-09T15:50:38Z</time>
      </trkpt>
      <trkpt lat="43.17022" lon="2.48576">
        <ele>336.12</ele>
        <time>2020-02-09T15:52:19Z</time>
      </trkpt>
      <trkpt lat="43.17014" lon="2.48579">
        <ele>339.48</ele>
        <time>2020-02-09T15:52:40Z</time>
      </trkpt>
      <trkpt lat="43.17005" lon="2.48581">
        <ele>340.92</ele>
        <time>2020-02-09T15:52:57Z</time>
      </trkpt>
      <trkpt lat="43.16992" lon="2.48587">
        <ele>343.33</ele>
        <time>2020-02-09T15:53:17Z</time>
      </trkpt>
      <trkpt lat="43.16986" lon="2.48582">
        <ele>343.81</ele>
        <time>2020-02-09T15:53:30Z</time>
      </trkpt>
      <trkpt lat="43.16981" lon="2.48572">
        <ele>343.81</ele>
        <time>2020-02-09T15:53:46Z</time>
      </trkpt>
      <trkpt lat="43.16971" lon="2.48568">
        <ele>344.77</ele>
        <time>2020-02-09T15:54:11Z</time>
      </trkpt>
      <trkpt lat="43.16963" lon="2.48575">
        <ele>345.73</ele>
        <time>2020-02-09T15:54:24Z</time>
      </trkpt>
      <trkpt lat="43.16945" lon="2.48577">
        <ele>348.62</ele>
        <time>2020-02-09T15:54:46Z</time>
      </trkpt>
      <trkpt lat="43.16932" lon="2.48566">
        <ele>350.54</ele>
        <time>2020-02-09T15:55:06Z</time>
      </trkpt>
      <trkpt lat="43.16932" lon="2.48565">
        <ele>351.02</ele>
        <time>2020-02-09T15:55:07Z</time>
      </trkpt>
      <trkpt lat="43.1693" lon="2.4856">
        <ele>350.54</ele>
        <time>2020-02-09T15:55:11Z</time>
      </trkpt>
      <trkpt lat="43.16925" lon="2.48547">
        <ele>351.5</ele>
        <time>2020-02-09T15:55:31Z</time>
      </trkpt>
      <trkpt lat="43.16924" lon="2.48547">
        <ele>350.54</ele>
        <time>2020-02-09T15:56:18Z</time>
      </trkpt>
      <trkpt lat="43.16925" lon="2.48545">
        <ele>350.54</ele>
        <time>2020-02-09T15:56:40Z</time>
      </trkpt>
      <trkpt lat="43.16923" lon="2.48531">
        <ele>351.02</ele>
        <time>2020-02-09T15:56:51Z</time>
      </trkpt>
      <trkpt lat="43.16909" lon="2.4853">
        <ele>352.46</ele>
        <time>2020-02-09T15:57:08Z</time>
      </trkpt>
      <trkpt lat="43.16893" lon="2.4851">
        <ele>355.34</ele>
        <time>2020-02-09T15:57:31Z</time>
      </trkpt>
      <trkpt lat="43.16888" lon="2.48497">
        <ele>356.31</ele>
        <time>2020-02-09T15:57:50Z</time>
      </trkpt>
      <trkpt lat="43.16888" lon="2.48494">
        <ele>356.31</ele>
        <time>2020-02-09T15:58:00Z</time>
      </trkpt>
      <trkpt lat="43.16881" lon="2.48477">
        <ele>356.31</ele>
        <time>2020-02-09T15:58:17Z</time>
      </trkpt>
      <trkpt lat="43.16868" lon="2.48459">
        <ele>357.75</ele>
        <time>2020-02-09T15:58:36Z</time>
      </trkpt>
      <trkpt lat="43.16862" lon="2.48452">
        <ele>358.71</ele>
        <time>2020-02-09T15:58:44Z</time>
      </trkpt>
      <trkpt lat="43.1685" lon="2.48445">
        <ele>359.67</ele>
        <time>2020-02-09T15:59:00Z</time>
      </trkpt>
      <trkpt lat="43.16848" lon="2.4844">
        <ele>359.67</ele>
        <time>2020-02-09T15:59:04Z</time>
      </trkpt>
      <trkpt lat="43.16836" lon="2.48438">
        <ele>361.11</ele>
        <time>2020-02-09T15:59:18Z</time>
      </trkpt>
      <trkpt lat="43.16825" lon="2.48448">
        <ele>362.07</ele>
        <time>2020-02-09T15:59:33Z</time>
      </trkpt>
      <trkpt lat="43.16811" lon="2.4844">
        <ele>363.04</ele>
        <time>2020-02-09T15:59:52Z</time>
      </trkpt>
      <trkpt lat="43.16802" lon="2.48434">
        <ele>364</ele>
        <time>2020-02-09T15:59:58Z</time>
      </trkpt>
      <trkpt lat="43.16794" lon="2.48422">
        <ele>364.9</ele>
      </trkpt>
      <trkpt lat="43.16778" lon="2.48421">
        <ele>365.44</ele>
        <time>2020-02-09T16:00:13Z</time>
      </trkpt>
      <trkpt lat="43.16777" lon="2.4842">
        <ele>365.44</ele>
        <time>2020-02-09T16:00:14Z</time>
      </trkpt>
      <trkpt lat="43.16776" lon="2.48418">
        <ele>364.96</ele>
        <time>2020-02-09T16:00:15Z</time>
      </trkpt>
      <trkpt lat="43.16771" lon="2.48404">
        <ele>364.48</ele>
        <time>2020-02-09T16:00:28Z</time>
      </trkpt>
      <trkpt lat="43.1677" lon="2.48403">
        <ele>364.96</ele>
        <time>2020-02-09T16:00:29Z</time>
      </trkpt>
      <trkpt lat="43.16764" lon="2.48402">
        <ele>364.96</ele>
        <time>2020-02-09T16:00:34Z</time>
      </trkpt>
      <trkpt lat="43.16755" lon="2.48397">
        <ele>365.44</ele>
        <time>2020-02-09T16:00:47Z</time>
      </trkpt>
      <trkpt lat="43.16755" lon="2.48392">
        <ele>364.96</ele>
        <time>2020-02-09T16:00:50Z</time>
      </trkpt>
      <trkpt lat="43.16754" lon="2.4839">
        <ele>364.48</ele>
        <time>2020-02-09T16:00:52Z</time>
      </trkpt>
      <trkpt lat="43.1674" lon="2.48382">
        <ele>364.96</ele>
        <time>2020-02-09T16:01:04Z</time>
      </trkpt>
      <trkpt lat="43.16733" lon="2.48381">
        <ele>365.44</ele>
        <time>2020-02-09T16:01:11Z</time>
      </trkpt>
      <trkpt lat="43.16732" lon="2.4838">
        <ele>365.44</ele>
        <time>2020-02-09T16:01:12Z</time>
      </trkpt>
      <trkpt lat="43.16731" lon="2.48378">
        <ele>365.92</ele>
        <time>2020-02-09T16:01:14Z</time>
      </trkpt>
      <trkpt lat="43.16729" lon="2.48372">
        <ele>365.92</ele>
        <time>2020-02-09T16:01:18Z</time>
      </trkpt>
      <trkpt lat="43.16729" lon="2.48371">
        <ele>365.92</ele>
        <time>2020-02-09T16:01:19Z</time>
      </trkpt>
      <trkpt lat="43.16729" lon="2.48369">
        <ele>365.44</ele>
        <time>2020-02-09T16:01:20Z</time>
      </trkpt>
      <trkpt lat="43.1672" lon="2.48357">
        <ele>365.44</ele>
        <time>2020-02-09T16:01:40Z</time>
      </trkpt>
      <trkpt lat="43.16718" lon="2.48344">
        <ele>364.96</ele>
        <time>2020-02-09T16:01:57Z</time>
      </trkpt>
      <trkpt lat="43.16717" lon="2.48339">
        <ele>364.48</ele>
        <time>2020-02-09T16:02:00Z</time>
      </trkpt>
      <trkpt lat="43.16713" lon="2.48335">
        <ele>364.96</ele>
        <time>2020-02-09T16:02:04Z</time>
      </trkpt>
      <trkpt lat="43.16713" lon="2.48326">
        <ele>364.48</ele>
        <time>2020-02-09T16:02:16Z</time>
      </trkpt>
      <trkpt lat="43.16716" lon="2.48312">
        <ele>364</ele>
        <time>2020-02-09T16:02:22Z</time>
      </trkpt>
      <trkpt lat="43.16718" lon="2.48311">
        <ele>364</ele>
        <time>2020-02-09T16:02:23Z</time>
      </trkpt>
      <trkpt lat="43.16719" lon="2.48312">
        <ele>363.52</ele>
        <time>2020-02-09T16:02:24Z</time>
      </trkpt>
      <trkpt lat="43.16721" lon="2.48312">
        <ele>364</ele>
        <time>2020-02-09T16:02:25Z</time>
      </trkpt>
      <trkpt lat="43.16723" lon="2.48313">
        <ele>364</ele>
        <time>2020-02-09T16:02:26Z</time>
      </trkpt>
      <trkpt lat="43.16725" lon="2.48313">
        <ele>363.52</ele>
        <time>2020-02-09T16:02:27Z</time>
      </trkpt>
      <trkpt lat="43.16727" lon="2.48313">
        <ele>363.04</ele>
        <time>2020-02-09T16:02:28Z</time>
      </trkpt>
      <trkpt lat="43.16729" lon="2.48312">
        <ele>364</ele>
        <time>2020-02-09T16:02:29Z</time>
      </trkpt>
      <trkpt lat="43.1673" lon="2.48311">
        <ele>363.04</ele>
        <time>2020-02-09T16:02:30Z</time>
      </trkpt>
      <trkpt lat="43.16734" lon="2.48305">
        <ele>363.52</ele>
        <time>2020-02-09T16:02:33Z</time>
      </trkpt>
      <trkpt lat="43.16735" lon="2.48303">
        <ele>363.04</ele>
        <time>2020-02-09T16:02:34Z</time>
      </trkpt>
      <trkpt lat="43.16738" lon="2.48297">
        <ele>362.07</ele>
        <time>2020-02-09T16:02:37Z</time>
      </trkpt>
      <trkpt lat="43.1674" lon="2.48297">
        <ele>362.07</ele>
        <time>2020-02-09T16:02:38Z</time>
      </trkpt>
      <trkpt lat="43.16743" lon="2.48297">
        <ele>362.55</ele>
        <time>2020-02-09T16:02:42Z</time>
      </trkpt>
      <trkpt lat="43.16745" lon="2.483">
        <ele>362.07</ele>
        <time>2020-02-09T16:02:45Z</time>
      </trkpt>
      <trkpt lat="43.16752" lon="2.483">
        <ele>362.07</ele>
        <time>2020-02-09T16:02:51Z</time>
      </trkpt>
      <trkpt lat="43.16756" lon="2.48299">
        <ele>361.59</ele>
        <time>2020-02-09T16:03:15Z</time>
      </trkpt>
      <trkpt lat="43.16761" lon="2.48292">
        <ele>361.11</ele>
        <time>2020-02-09T16:03:45Z</time>
      </trkpt>
      <trkpt lat="43.16761" lon="2.4829">
        <ele>360.63</ele>
        <time>2020-02-09T16:03:46Z</time>
      </trkpt>
      <trkpt lat="43.16761" lon="2.48288">
        <ele>360.63</ele>
        <time>2020-02-09T16:03:47Z</time>
      </trkpt>
      <trkpt lat="43.16765" lon="2.48279">
        <ele>360.15</ele>
        <time>2020-02-09T16:03:54Z</time>
      </trkpt>
      <trkpt lat="43.16766" lon="2.48275">
        <ele>359.19</ele>
        <time>2020-02-09T16:03:57Z</time>
      </trkpt>
      <trkpt lat="43.16765" lon="2.4827">
        <ele>359.67</ele>
        <time>2020-02-09T16:04:00Z</time>
      </trkpt>
      <trkpt lat="43.16766" lon="2.48268">
        <ele>359.19</ele>
        <time>2020-02-09T16:04:01Z</time>
      </trkpt>
      <trkpt lat="43.16771" lon="2.48249">
        <ele>357.75</ele>
        <time>2020-02-09T16:04:12Z</time>
      </trkpt>
      <trkpt lat="43.16781" lon="2.48226">
        <ele>356.79</ele>
        <time>2020-02-09T16:04:28Z</time>
      </trkpt>
      <trkpt lat="43.16783" lon="2.48183">
        <ele>354.38</ele>
        <time>2020-02-09T16:04:44Z</time>
      </trkpt>
      <trkpt lat="43.16771" lon="2.48168">
        <ele>354.86</ele>
        <time>2020-02-09T16:04:52Z</time>
      </trkpt>
      <trkpt lat="43.16771" lon="2.48166">
        <ele>354.38</ele>
        <time>2020-02-09T16:04:53Z</time>
      </trkpt>
      <trkpt lat="43.16769" lon="2.48128">
        <ele>351.98</ele>
        <time>2020-02-09T16:05:06Z</time>
      </trkpt>
      <trkpt lat="43.16767" lon="2.48125">
        <ele>351.5</ele>
        <time>2020-02-09T16:05:07Z</time>
      </trkpt>
      <trkpt lat="43.16766" lon="2.48122">
        <ele>351.98</ele>
        <time>2020-02-09T16:05:08Z</time>
      </trkpt>
      <trkpt lat="43.16765" lon="2.48119">
        <ele>352.46</ele>
        <time>2020-02-09T16:05:09Z</time>
      </trkpt>
      <trkpt lat="43.16763" lon="2.48116">
        <ele>351.02</ele>
        <time>2020-02-09T16:05:10Z</time>
      </trkpt>
      <trkpt lat="43.16762" lon="2.48114">
        <ele>351.5</ele>
        <time>2020-02-09T16:05:11Z</time>
      </trkpt>
      <trkpt lat="43.16758" lon="2.48104">
        <ele>351.98</ele>
        <time>2020-02-09T16:05:16Z</time>
      </trkpt>
      <trkpt lat="43.16746" lon="2.48101">
        <ele>352.46</ele>
        <time>2020-02-09T16:05:29Z</time>
      </trkpt>
      <trkpt lat="43.16731" lon="2.48089">
        <ele>353.9</ele>
        <time>2020-02-09T16:05:49Z</time>
      </trkpt>
      <trkpt lat="43.16731" lon="2.4808">
        <ele>352.94</ele>
        <time>2020-02-09T16:05:57Z</time>
      </trkpt>
      <trkpt lat="43.1673" lon="2.48071">
        <ele>352.94</ele>
        <time>2020-02-09T16:06:04Z</time>
      </trkpt>
      <trkpt lat="43.16727" lon="2.48056">
        <ele>352.46</ele>
        <time>2020-02-09T16:06:19Z</time>
      </trkpt>
      <trkpt lat="43.16727" lon="2.48054">
        <ele>352.46</ele>
        <time>2020-02-09T16:06:20Z</time>
      </trkpt>
      <trkpt lat="43.16727" lon="2.48051">
        <ele>352.94</ele>
        <time>2020-02-09T16:06:21Z</time>
      </trkpt>
      <trkpt lat="43.16726" lon="2.48049">
        <ele>352.94</ele>
        <time>2020-02-09T16:06:22Z</time>
      </trkpt>
      <trkpt lat="43.16725" lon="2.48047">
        <ele>352.46</ele>
        <time>2020-02-09T16:06:23Z</time>
      </trkpt>
      <trkpt lat="43.16724" lon="2.48045">
        <ele>352.46</ele>
        <time>2020-02-09T16:06:24Z</time>
      </trkpt>
      <trkpt lat="43.16714" lon="2.48035">
        <ele>352.46</ele>
        <time>2020-02-09T16:06:34Z</time>
      </trkpt>
      <trkpt lat="43.16714" lon="2.48033">
        <ele>352.46</ele>
        <time>2020-02-09T16:06:35Z</time>
      </trkpt>
      <trkpt lat="43.16714" lon="2.48031">
        <ele>351.98</ele>
        <time>2020-02-09T16:06:36Z</time>
      </trkpt>
      <trkpt lat="43.16713" lon="2.4803">
        <ele>352.94</ele>
        <time>2020-02-09T16:06:37Z</time>
      </trkpt>
      <trkpt lat="43.16713" lon="2.48028">
        <ele>352.94</ele>
        <time>2020-02-09T16:06:38Z</time>
      </trkpt>
      <trkpt lat="43.16713" lon="2.48025">
        <ele>352.94</ele>
        <time>2020-02-09T16:06:39Z</time>
      </trkpt>
      <trkpt lat="43.16714" lon="2.48022">
        <ele>352.94</ele>
        <time>2020-02-09T16:06:40Z</time>
      </trkpt>
      <trkpt lat="43.16715" lon="2.48019">
        <ele>352.46</ele>
        <time>2020-02-09T16:06:41Z</time>
      </trkpt>
      <trkpt lat="43.16712" lon="2.47995">
        <ele>351.98</ele>
        <time>2020-02-09T16:06:48Z</time>
      </trkpt>
      <trkpt lat="43.16712" lon="2.47992">
        <ele>351.5</ele>
        <time>2020-02-09T16:06:49Z</time>
      </trkpt>
      <trkpt lat="43.16712" lon="2.47988">
        <ele>351.5</ele>
        <time>2020-02-09T16:06:50Z</time>
      </trkpt>
      <trkpt lat="43.16712" lon="2.47985">
        <ele>351.5</ele>
        <time>2020-02-09T16:06:51Z</time>
      </trkpt>
      <trkpt lat="43.16712" lon="2.47982">
        <ele>351.02</ele>
        <time>2020-02-09T16:06:52Z</time>
      </trkpt>
      <trkpt lat="43.16711" lon="2.47979">
        <ele>351.5</ele>
        <time>2020-02-09T16:06:53Z</time>
      </trkpt>
      <trkpt lat="43.16702" lon="2.47953">
        <ele>351.02</ele>
        <time>2020-02-09T16:07:02Z</time>
      </trkpt>
      <trkpt lat="43.16701" lon="2.4795">
        <ele>351.02</ele>
        <time>2020-02-09T16:07:03Z</time>
      </trkpt>
      <trkpt lat="43.167" lon="2.47947">
        <ele>350.54</ele>
        <time>2020-02-09T16:07:04Z</time>
      </trkpt>
      <trkpt lat="43.1668" lon="2.47915">
        <ele>350.54</ele>
        <time>2020-02-09T16:07:23Z</time>
      </trkpt>
      <trkpt lat="43.16678" lon="2.47914">
        <ele>358.23</ele>
        <time>2020-02-09T16:09:00Z</time>
      </trkpt>
      <trkpt lat="43.16679" lon="2.47915">
        <ele>357.75</ele>
        <time>2020-02-09T16:09:17Z</time>
      </trkpt>
      <trkpt lat="43.16677" lon="2.47907">
        <ele>358.23</ele>
        <time>2020-02-09T16:09:21Z</time>
      </trkpt>
      <trkpt lat="43.16668" lon="2.47891">
        <ele>357.75</ele>
        <time>2020-02-09T16:09:28Z</time>
      </trkpt>
      <trkpt lat="43.16666" lon="2.47889">
        <ele>357.75</ele>
        <time>2020-02-09T16:09:29Z</time>
      </trkpt>
      <trkpt lat="43.16664" lon="2.47887">
        <ele>357.27</ele>
        <time>2020-02-09T16:09:30Z</time>
      </trkpt>
      <trkpt lat="43.16662" lon="2.47885">
        <ele>357.27</ele>
        <time>2020-02-09T16:09:31Z</time>
      </trkpt>
      <trkpt lat="43.16661" lon="2.47882">
        <ele>357.27</ele>
        <time>2020-02-09T16:09:32Z</time>
      </trkpt>
      <trkpt lat="43.16659" lon="2.47878">
        <ele>357.27</ele>
        <time>2020-02-09T16:09:33Z</time>
      </trkpt>
      <trkpt lat="43.16657" lon="2.47874">
        <ele>357.27</ele>
        <time>2020-02-09T16:09:34Z</time>
      </trkpt>
      <trkpt lat="43.16655" lon="2.47871">
        <ele>357.27</ele>
        <time>2020-02-09T16:09:35Z</time>
      </trkpt>
      <trkpt lat="43.16652" lon="2.47868">
        <ele>357.27</ele>
        <time>2020-02-09T16:09:36Z</time>
      </trkpt>
      <trkpt lat="43.16649" lon="2.47865">
        <ele>357.27</ele>
        <time>2020-02-09T16:09:37Z</time>
      </trkpt>
      <trkpt lat="43.16647" lon="2.47862">
        <ele>356.79</ele>
        <time>2020-02-09T16:09:38Z</time>
      </trkpt>
      <trkpt lat="43.16644" lon="2.47858">
        <ele>356.79</ele>
        <time>2020-02-09T16:09:39Z</time>
      </trkpt>
      <trkpt lat="43.16641" lon="2.47855">
        <ele>356.79</ele>
        <time>2020-02-09T16:09:40Z</time>
      </trkpt>
      <trkpt lat="43.16639" lon="2.4785">
        <ele>356.79</ele>
        <time>2020-02-09T16:09:41Z</time>
      </trkpt>
      <trkpt lat="43.16634" lon="2.47842">
        <ele>355.83</ele>
        <time>2020-02-09T16:09:43Z</time>
      </trkpt>
      <trkpt lat="43.16613" lon="2.47789">
        <ele>352.46</ele>
        <time>2020-02-09T16:09:55Z</time>
      </trkpt>
      <trkpt lat="43.16613" lon="2.47762">
        <ele>351.02</ele>
        <time>2020-02-09T16:10:00Z</time>
      </trkpt>
      <trkpt lat="43.16613" lon="2.47757">
        <ele>351.02</ele>
        <time>2020-02-09T16:10:01Z</time>
      </trkpt>
      <trkpt lat="43.16612" lon="2.47738">
        <ele>349.58</ele>
        <time>2020-02-09T16:10:04Z</time>
      </trkpt>
      <trkpt lat="43.16609" lon="2.47715">
        <ele>348.13</ele>
        <time>2020-02-09T16:10:07Z</time>
      </trkpt>
      <trkpt lat="43.16607" lon="2.47708">
        <ele>348.62</ele>
        <time>2020-02-09T16:10:08Z</time>
      </trkpt>
      <trkpt lat="43.16601" lon="2.47695">
        <ele>347.17</ele>
        <time>2020-02-09T16:10:10Z</time>
      </trkpt>
      <trkpt lat="43.166" lon="2.47688">
        <ele>346.69</ele>
        <time>2020-02-09T16:10:11Z</time>
      </trkpt>
      <trkpt lat="43.166" lon="2.47681">
        <ele>346.21</ele>
        <time>2020-02-09T16:10:12Z</time>
      </trkpt>
      <trkpt lat="43.16599" lon="2.47655">
        <ele>344.77</ele>
        <time>2020-02-09T16:10:15Z</time>
      </trkpt>
      <trkpt lat="43.16597" lon="2.47648">
        <ele>343.81</ele>
        <time>2020-02-09T16:10:16Z</time>
      </trkpt>
      <trkpt lat="43.16589" lon="2.47622">
        <ele>341.41</ele>
        <time>2020-02-09T16:10:20Z</time>
      </trkpt>
      <trkpt lat="43.16586" lon="2.47617">
        <ele>340.92</ele>
        <time>2020-02-09T16:10:21Z</time>
      </trkpt>
      <trkpt lat="43.16583" lon="2.47612">
        <ele>340.44</ele>
        <time>2020-02-09T16:10:22Z</time>
      </trkpt>
      <trkpt lat="43.16574" lon="2.47601">
        <ele>339.48</ele>
        <time>2020-02-09T16:10:24Z</time>
      </trkpt>
      <trkpt lat="43.1657" lon="2.47597">
        <ele>339.96</ele>
        <time>2020-02-09T16:10:25Z</time>
      </trkpt>
      <trkpt lat="43.16567" lon="2.47591">
        <ele>339.48</ele>
        <time>2020-02-09T16:10:26Z</time>
      </trkpt>
      <trkpt lat="43.16561" lon="2.47582">
        <ele>336.6</ele>
        <time>2020-02-09T16:10:28Z</time>
      </trkpt>
      <trkpt lat="43.16558" lon="2.47579">
        <ele>336.6</ele>
        <time>2020-02-09T16:10:29Z</time>
      </trkpt>
      <trkpt lat="43.16554" lon="2.47576">
        <ele>335.64</ele>
        <time>2020-02-09T16:10:30Z</time>
      </trkpt>
      <trkpt lat="43.16551" lon="2.47574">
        <ele>335.64</ele>
        <time>2020-02-09T16:10:31Z</time>
      </trkpt>
      <trkpt lat="43.16548" lon="2.47572">
        <ele>335.64</ele>
        <time>2020-02-09T16:10:32Z</time>
      </trkpt>
      <trkpt lat="43.16546" lon="2.47569">
        <ele>335.16</ele>
        <time>2020-02-09T16:10:33Z</time>
      </trkpt>
      <trkpt lat="43.16544" lon="2.47567">
        <ele>335.16</ele>
        <time>2020-02-09T16:10:34Z</time>
      </trkpt>
      <trkpt lat="43.16528" lon="2.4755">
        <ele>326.4</ele>
      </trkpt>
      <trkpt lat="43.1651" lon="2.47541">
        <ele>332.27</ele>
        <time>2020-02-09T16:10:47Z</time>
      </trkpt>
      <trkpt lat="43.16508" lon="2.47538">
        <ele>331.79</ele>
        <time>2020-02-09T16:10:48Z</time>
      </trkpt>
      <trkpt lat="43.165" lon="2.47524">
        <ele>330.35</ele>
        <time>2020-02-09T16:10:52Z</time>
      </trkpt>
      <trkpt lat="43.16482" lon="2.47506">
        <ele>328.43</ele>
        <time>2020-02-09T16:10:58Z</time>
      </trkpt>
      <trkpt lat="43.16479" lon="2.47502">
        <ele>328.43</ele>
        <time>2020-02-09T16:10:59Z</time>
      </trkpt>
      <trkpt lat="43.16477" lon="2.47497">
        <ele>327.95</ele>
        <time>2020-02-09T16:11:00Z</time>
      </trkpt>
      <trkpt lat="43.16471" lon="2.47477">
        <ele>326.02</ele>
        <time>2020-02-09T16:11:04Z</time>
      </trkpt>
      <trkpt lat="43.1647" lon="2.47471">
        <ele>324.58</ele>
        <time>2020-02-09T16:11:05Z</time>
      </trkpt>
      <trkpt lat="43.16467" lon="2.47444">
        <ele>322.66</ele>
        <time>2020-02-09T16:11:10Z</time>
      </trkpt>
      <trkpt lat="43.16466" lon="2.47425">
        <ele>313.4</ele>
      </trkpt>
      <trkpt lat="43.16461" lon="2.47409">
        <ele>320.26</ele>
        <time>2020-02-09T16:11:18Z</time>
      </trkpt>
      <trkpt lat="43.16459" lon="2.47403">
        <ele>319.3</ele>
        <time>2020-02-09T16:11:19Z</time>
      </trkpt>
      <trkpt lat="43.16457" lon="2.47397">
        <ele>319.3</ele>
        <time>2020-02-09T16:11:20Z</time>
      </trkpt>
      <trkpt lat="43.16457" lon="2.47391">
        <ele>318.33</ele>
        <time>2020-02-09T16:11:21Z</time>
      </trkpt>
      <trkpt lat="43.16456" lon="2.47385">
        <ele>318.33</ele>
        <time>2020-02-09T16:11:22Z</time>
      </trkpt>
      <trkpt lat="43.16454" lon="2.47379">
        <ele>316.89</ele>
        <time>2020-02-09T16:11:23Z</time>
      </trkpt>
      <trkpt lat="43.16452" lon="2.47374">
        <ele>316.89</ele>
        <time>2020-02-09T16:11:24Z</time>
      </trkpt>
      <trkpt lat="43.16449" lon="2.47369">
        <ele>315.93</ele>
        <time>2020-02-09T16:11:25Z</time>
      </trkpt>
      <trkpt lat="43.16446" lon="2.47364">
        <ele>315.93</ele>
        <time>2020-02-09T16:11:26Z</time>
      </trkpt>
      <trkpt lat="43.16443" lon="2.47359">
        <ele>315.45</ele>
        <time>2020-02-09T16:11:27Z</time>
      </trkpt>
      <trkpt lat="43.16439" lon="2.47356">
        <ele>315.45</ele>
        <time>2020-02-09T16:11:28Z</time>
      </trkpt>
      <trkpt lat="43.16435" lon="2.47352">
        <ele>314.97</ele>
        <time>2020-02-09T16:11:29Z</time>
      </trkpt>
      <trkpt lat="43.1643" lon="2.4735">
        <ele>314.49</ele>
        <time>2020-02-09T16:11:30Z</time>
      </trkpt>
      <trkpt lat="43.16426" lon="2.47348">
        <ele>314.49</ele>
        <time>2020-02-09T16:11:31Z</time>
      </trkpt>
      <trkpt lat="43.16422" lon="2.47347">
        <ele>314.49</ele>
        <time>2020-02-09T16:11:32Z</time>
      </trkpt>
      <trkpt lat="43.16418" lon="2.47347">
        <ele>314.97</ele>
        <time>2020-02-09T16:11:33Z</time>
      </trkpt>
      <trkpt lat="43.16414" lon="2.47347">
        <ele>314.01</ele>
        <time>2020-02-09T16:11:34Z</time>
      </trkpt>
      <trkpt lat="43.1641" lon="2.47347">
        <ele>313.53</ele>
        <time>2020-02-09T16:11:35Z</time>
      </trkpt>
      <trkpt lat="43.16405" lon="2.47346">
        <ele>313.53</ele>
        <time>2020-02-09T16:11:36Z</time>
      </trkpt>
      <trkpt lat="43.16402" lon="2.47343">
        <ele>313.05</ele>
        <time>2020-02-09T16:11:37Z</time>
      </trkpt>
      <trkpt lat="43.16379" lon="2.47327">
        <ele>309.68</ele>
        <time>2020-02-09T16:11:44Z</time>
      </trkpt>
      <trkpt lat="43.16364" lon="2.47295">
        <ele>306.32</ele>
        <time>2020-02-09T16:11:53Z</time>
      </trkpt>
      <trkpt lat="43.16341" lon="2.47265">
        <ele>303.91</ele>
        <time>2020-02-09T16:12:03Z</time>
      </trkpt>
      <trkpt lat="43.16326" lon="2.47253">
        <ele>301.99</ele>
        <time>2020-02-09T16:12:08Z</time>
      </trkpt>
      <trkpt lat="43.16318" lon="2.47245">
        <ele>300.55</ele>
        <time>2020-02-09T16:12:11Z</time>
      </trkpt>
      <trkpt lat="43.16287" lon="2.4723">
        <ele>297.18</ele>
        <time>2020-02-09T16:12:20Z</time>
      </trkpt>
      <trkpt lat="43.16272" lon="2.47218">
        <ele>288.5</ele>
      </trkpt>
      <trkpt lat="43.1627" lon="2.47199">
        <ele>294.3</ele>
        <time>2020-02-09T16:12:28Z</time>
      </trkpt>
      <trkpt lat="43.16271" lon="2.47193">
        <ele>294.3</ele>
        <time>2020-02-09T16:12:29Z</time>
      </trkpt>
      <trkpt lat="43.16273" lon="2.47187">
        <ele>293.82</ele>
        <time>2020-02-09T16:12:30Z</time>
      </trkpt>
      <trkpt lat="43.16273" lon="2.47181">
        <ele>294.3</ele>
        <time>2020-02-09T16:12:31Z</time>
      </trkpt>
      <trkpt lat="43.16273" lon="2.47175">
        <ele>293.82</ele>
        <time>2020-02-09T16:12:32Z</time>
      </trkpt>
      <trkpt lat="43.16273" lon="2.47169">
        <ele>293.34</ele>
        <time>2020-02-09T16:12:33Z</time>
      </trkpt>
      <trkpt lat="43.16275" lon="2.47163">
        <ele>292.38</ele>
        <time>2020-02-09T16:12:34Z</time>
      </trkpt>
      <trkpt lat="43.16276" lon="2.47157">
        <ele>292.38</ele>
        <time>2020-02-09T16:12:35Z</time>
      </trkpt>
      <trkpt lat="43.16278" lon="2.47151">
        <ele>291.42</ele>
        <time>2020-02-09T16:12:36Z</time>
      </trkpt>
      <trkpt lat="43.16279" lon="2.47145">
        <ele>290.94</ele>
        <time>2020-02-09T16:12:37Z</time>
      </trkpt>
      <trkpt lat="43.1628" lon="2.47133">
        <ele>289.49</ele>
        <time>2020-02-09T16:12:39Z</time>
      </trkpt>
      <trkpt lat="43.16281" lon="2.47122">
        <ele>288.53</ele>
        <time>2020-02-09T16:12:41Z</time>
      </trkpt>
      <trkpt lat="43.16281" lon="2.47093">
        <ele>285.65</ele>
        <time>2020-02-09T16:12:47Z</time>
      </trkpt>
      <trkpt lat="43.16279" lon="2.47085">
        <ele>284.21</ele>
        <time>2020-02-09T16:12:49Z</time>
      </trkpt>
      <trkpt lat="43.16278" lon="2.47074">
        <ele>282.77</ele>
        <time>2020-02-09T16:12:51Z</time>
      </trkpt>
      <trkpt lat="43.16274" lon="2.47043">
        <ele>279.88</ele>
        <time>2020-02-09T16:12:58Z</time>
      </trkpt>
      <trkpt lat="43.16272" lon="2.47039">
        <ele>278.92</ele>
        <time>2020-02-09T16:13:05Z</time>
      </trkpt>
      <trkpt lat="43.16272" lon="2.47029">
        <ele>278.92</ele>
        <time>2020-02-09T16:13:08Z</time>
      </trkpt>
      <trkpt lat="43.16273" lon="2.47026">
        <ele>277.48</ele>
        <time>2020-02-09T16:13:09Z</time>
      </trkpt>
      <trkpt lat="43.16277" lon="2.47021">
        <ele>276.52</ele>
        <time>2020-02-09T16:13:11Z</time>
      </trkpt>
      <trkpt lat="43.16278" lon="2.47017">
        <ele>277</ele>
        <time>2020-02-09T16:13:12Z</time>
      </trkpt>
      <trkpt lat="43.16279" lon="2.4701">
        <ele>275.56</ele>
        <time>2020-02-09T16:13:14Z</time>
      </trkpt>
      <trkpt lat="43.1628" lon="2.46982">
        <ele>272.67</ele>
        <time>2020-02-09T16:13:21Z</time>
      </trkpt>
      <trkpt lat="43.16282" lon="2.46964">
        <ele>270.75</ele>
        <time>2020-02-09T16:13:25Z</time>
      </trkpt>
      <trkpt lat="43.16281" lon="2.46937">
        <ele>267.86</ele>
        <time>2020-02-09T16:13:31Z</time>
      </trkpt>
      <trkpt lat="43.1628" lon="2.4692">
        <ele>266.42</ele>
        <time>2020-02-09T16:13:35Z</time>
      </trkpt>
      <trkpt lat="43.16283" lon="2.46883">
        <ele>262.58</ele>
        <time>2020-02-09T16:13:43Z</time>
      </trkpt>
      <trkpt lat="43.16286" lon="2.46845">
        <ele>259.21</ele>
        <time>2020-02-09T16:13:52Z</time>
      </trkpt>
      <trkpt lat="43.16281" lon="2.46804">
        <ele>256.33</ele>
        <time>2020-02-09T16:14:01Z</time>
      </trkpt>
      <trkpt lat="43.1628" lon="2.46799">
        <ele>256.33</ele>
        <time>2020-02-09T16:14:02Z</time>
      </trkpt>
      <trkpt lat="43.16279" lon="2.46793">
        <ele>255.85</ele>
        <time>2020-02-09T16:14:03Z</time>
      </trkpt>
      <trkpt lat="43.16279" lon="2.46787">
        <ele>255.37</ele>
        <time>2020-02-09T16:14:04Z</time>
      </trkpt>
      <trkpt lat="43.1628" lon="2.46779">
        <ele>253.93</ele>
        <time>2020-02-09T16:14:06Z</time>
      </trkpt>
      <trkpt lat="43.16279" lon="2.46762">
        <ele>251.52</ele>
        <time>2020-02-09T16:14:10Z</time>
      </trkpt>
      <trkpt lat="43.16283" lon="2.46729">
        <ele>248.16</ele>
        <time>2020-02-09T16:14:18Z</time>
      </trkpt>
      <trkpt lat="43.16282" lon="2.46718">
        <ele>247.2</ele>
        <time>2020-02-09T16:14:21Z</time>
      </trkpt>
      <trkpt lat="43.1628" lon="2.46715">
        <ele>247.2</ele>
        <time>2020-02-09T16:14:22Z</time>
      </trkpt>
      <trkpt lat="43.16279" lon="2.46711">
        <ele>246.72</ele>
        <time>2020-02-09T16:14:23Z</time>
      </trkpt>
      <trkpt lat="43.16279" lon="2.46708">
        <ele>246.23</ele>
        <time>2020-02-09T16:14:24Z</time>
      </trkpt>
      <trkpt lat="43.16279" lon="2.46705">
        <ele>245.27</ele>
        <time>2020-02-09T16:14:25Z</time>
      </trkpt>
      <trkpt lat="43.16278" lon="2.46703">
        <ele>245.75</ele>
        <time>2020-02-09T16:14:26Z</time>
      </trkpt>
      <trkpt lat="43.16277" lon="2.46697">
        <ele>245.27</ele>
        <time>2020-02-09T16:14:28Z</time>
      </trkpt>
      <trkpt lat="43.16275" lon="2.46658">
        <ele>241.91</ele>
        <time>2020-02-09T16:14:37Z</time>
      </trkpt>
      <trkpt lat="43.16268" lon="2.46632">
        <ele>238.06</ele>
        <time>2020-02-09T16:14:42Z</time>
      </trkpt>
      <trkpt lat="43.16263" lon="2.46617">
        <ele>237.58</ele>
        <time>2020-02-09T16:14:45Z</time>
      </trkpt>
      <trkpt lat="43.16262" lon="2.46611">
        <ele>237.58</ele>
        <time>2020-02-09T16:14:46Z</time>
      </trkpt>
      <trkpt lat="43.16262" lon="2.46605">
        <ele>237.1</ele>
        <time>2020-02-09T16:14:47Z</time>
      </trkpt>
      <trkpt lat="43.16262" lon="2.466">
        <ele>236.14</ele>
        <time>2020-02-09T16:14:48Z</time>
      </trkpt>
      <trkpt lat="43.16262" lon="2.46595">
        <ele>236.14</ele>
        <time>2020-02-09T16:14:49Z</time>
      </trkpt>
      <trkpt lat="43.16261" lon="2.4659">
        <ele>235.18</ele>
        <time>2020-02-09T16:14:50Z</time>
      </trkpt>
      <trkpt lat="43.16261" lon="2.46585">
        <ele>234.7</ele>
        <time>2020-02-09T16:14:51Z</time>
      </trkpt>
      <trkpt lat="43.16261" lon="2.46579">
        <ele>235.18</ele>
        <time>2020-02-09T16:14:52Z</time>
      </trkpt>
      <trkpt lat="43.16261" lon="2.46574">
        <ele>234.22</ele>
        <time>2020-02-09T16:14:53Z</time>
      </trkpt>
      <trkpt lat="43.16261" lon="2.46569">
        <ele>233.74</ele>
        <time>2020-02-09T16:14:54Z</time>
      </trkpt>
      <trkpt lat="43.16259" lon="2.46556">
        <ele>225.7</ele>
      </trkpt>
      <trkpt lat="43.16252" lon="2.46533">
        <ele>230.37</ele>
        <time>2020-02-09T16:15:02Z</time>
      </trkpt>
      <trkpt lat="43.16251" lon="2.46528">
        <ele>230.85</ele>
        <time>2020-02-09T16:15:03Z</time>
      </trkpt>
      <trkpt lat="43.16246" lon="2.46509">
        <ele>221.2</ele>
        <time>2020-02-09T16:15:07Z</time>
      </trkpt>
      <trkpt lat="43.1623" lon="2.46488">
        <ele>225.57</ele>
        <time>2020-02-09T16:15:14Z</time>
      </trkpt>
      <trkpt lat="43.16219" lon="2.46474">
        <ele>216.9</ele>
      </trkpt>
      <trkpt lat="43.16217" lon="2.46454">
        <ele>222.2</ele>
        <time>2020-02-09T16:15:25Z</time>
      </trkpt>
      <trkpt lat="43.1622" lon="2.46428">
        <ele>219.8</ele>
        <time>2020-02-09T16:15:32Z</time>
      </trkpt>
      <trkpt lat="43.16218" lon="2.46422">
        <ele>219.32</ele>
        <time>2020-02-09T16:15:34Z</time>
      </trkpt>
      <trkpt lat="43.16217" lon="2.46419">
        <ele>218.36</ele>
        <time>2020-02-09T16:15:35Z</time>
      </trkpt>
      <trkpt lat="43.16215" lon="2.46416">
        <ele>217.88</ele>
        <time>2020-02-09T16:15:36Z</time>
      </trkpt>
      <trkpt lat="43.16205" lon="2.46389">
        <ele>214.51</ele>
        <time>2020-02-09T16:15:44Z</time>
      </trkpt>
      <trkpt lat="43.16196" lon="2.46354">
        <ele>211.63</ele>
        <time>2020-02-09T16:15:53Z</time>
      </trkpt>
      <trkpt lat="43.16185" lon="2.4633">
        <ele>209.22</ele>
        <time>2020-02-09T16:15:59Z</time>
      </trkpt>
      <trkpt lat="43.16182" lon="2.46329">
        <ele>209.22</ele>
        <time>2020-02-09T16:16:00Z</time>
      </trkpt>
      <trkpt lat="43.16179" lon="2.46329">
        <ele>209.22</ele>
        <time>2020-02-09T16:16:01Z</time>
      </trkpt>
      <trkpt lat="43.16176" lon="2.46329">
        <ele>208.26</ele>
        <time>2020-02-09T16:16:02Z</time>
      </trkpt>
      <trkpt lat="43.16173" lon="2.46328">
        <ele>208.74</ele>
        <time>2020-02-09T16:16:03Z</time>
      </trkpt>
      <trkpt lat="43.16171" lon="2.46326">
        <ele>207.78</ele>
        <time>2020-02-09T16:16:04Z</time>
      </trkpt>
      <trkpt lat="43.16169" lon="2.46323">
        <ele>207.3</ele>
        <time>2020-02-09T16:16:05Z</time>
      </trkpt>
      <trkpt lat="43.16168" lon="2.46319">
        <ele>206.82</ele>
        <time>2020-02-09T16:16:06Z</time>
      </trkpt>
      <trkpt lat="43.16168" lon="2.46315">
        <ele>206.34</ele>
        <time>2020-02-09T16:16:07Z</time>
      </trkpt>
      <trkpt lat="43.16168" lon="2.4631">
        <ele>205.86</ele>
        <time>2020-02-09T16:16:08Z</time>
      </trkpt>
      <trkpt lat="43.16169" lon="2.46306">
        <ele>205.86</ele>
        <time>2020-02-09T16:16:09Z</time>
      </trkpt>
      <trkpt lat="43.16172" lon="2.46302">
        <ele>205.86</ele>
        <time>2020-02-09T16:16:10Z</time>
      </trkpt>
      <trkpt lat="43.16174" lon="2.463">
        <ele>205.86</ele>
        <time>2020-02-09T16:16:11Z</time>
      </trkpt>
      <trkpt lat="43.16177" lon="2.46297">
        <ele>205.86</ele>
        <time>2020-02-09T16:16:12Z</time>
      </trkpt>
      <trkpt lat="43.16179" lon="2.46294">
        <ele>205.38</ele>
        <time>2020-02-09T16:16:13Z</time>
      </trkpt>
      <trkpt lat="43.16182" lon="2.46292">
        <ele>205.86</ele>
        <time>2020-02-09T16:16:14Z</time>
      </trkpt>
      <trkpt lat="43.16184" lon="2.46289">
        <ele>205.86</ele>
        <time>2020-02-09T16:16:15Z</time>
      </trkpt>
      <trkpt lat="43.16186" lon="2.46287">
        <ele>205.86</ele>
        <time>2020-02-09T16:16:16Z</time>
      </trkpt>
      <trkpt lat="43.16188" lon="2.46284">
        <ele>205.86</ele>
        <time>2020-02-09T16:16:17Z</time>
      </trkpt>
      <trkpt lat="43.16193" lon="2.46273">
        <ele>199.4</ele>
      </trkpt>
      <trkpt lat="43.16204" lon="2.4627">
        <ele>199.8</ele>
      </trkpt>
      <trkpt lat="43.1622" lon="2.46281">
        <ele>208.74</ele>
        <time>2020-02-09T16:16:33Z</time>
      </trkpt>
      <trkpt lat="43.16228" lon="2.46285">
        <ele>208.26</ele>
        <time>2020-02-09T16:16:37Z</time>
      </trkpt>
      <trkpt lat="43.1623" lon="2.46285">
        <ele>208.74</ele>
        <time>2020-02-09T16:16:38Z</time>
      </trkpt>
      <trkpt lat="43.16251" lon="2.46252">
        <ele>206.34</ele>
        <time>2020-02-09T16:16:48Z</time>
      </trkpt>
      <trkpt lat="43.16255" lon="2.46247">
        <ele>206.34</ele>
        <time>2020-02-09T16:16:49Z</time>
      </trkpt>
      <trkpt lat="43.16258" lon="2.46242">
        <ele>205.86</ele>
        <time>2020-02-09T16:16:50Z</time>
      </trkpt>
      <trkpt lat="43.16261" lon="2.46236">
        <ele>204.9</ele>
        <time>2020-02-09T16:16:51Z</time>
      </trkpt>
      <trkpt lat="43.16263" lon="2.4623">
        <ele>204.42</ele>
        <time>2020-02-09T16:16:52Z</time>
      </trkpt>
      <trkpt lat="43.16264" lon="2.46225">
        <ele>203.94</ele>
        <time>2020-02-09T16:16:53Z</time>
      </trkpt>
      <trkpt lat="43.16264" lon="2.4622">
        <ele>203.46</ele>
        <time>2020-02-09T16:16:54Z</time>
      </trkpt>
      <trkpt lat="43.16262" lon="2.46216">
        <ele>202.98</ele>
        <time>2020-02-09T16:16:55Z</time>
      </trkpt>
      <trkpt lat="43.16259" lon="2.46214">
        <ele>202.98</ele>
        <time>2020-02-09T16:16:56Z</time>
      </trkpt>
      <trkpt lat="43.16255" lon="2.46211">
        <ele>202.01</ele>
        <time>2020-02-09T16:16:57Z</time>
      </trkpt>
      <trkpt lat="43.16251" lon="2.46209">
        <ele>202.01</ele>
        <time>2020-02-09T16:16:58Z</time>
      </trkpt>
      <trkpt lat="43.16247" lon="2.46205">
        <ele>201.53</ele>
        <time>2020-02-09T16:16:59Z</time>
      </trkpt>
      <trkpt lat="43.16243" lon="2.46201">
        <ele>201.05</ele>
        <time>2020-02-09T16:17:00Z</time>
      </trkpt>
      <trkpt lat="43.16239" lon="2.46198">
        <ele>200.09</ele>
        <time>2020-02-09T16:17:01Z</time>
      </trkpt>
      <trkpt lat="43.16236" lon="2.46195">
        <ele>200.09</ele>
        <time>2020-02-09T16:17:02Z</time>
      </trkpt>
      <trkpt lat="43.16233" lon="2.46191">
        <ele>199.61</ele>
        <time>2020-02-09T16:17:03Z</time>
      </trkpt>
      <trkpt lat="43.1623" lon="2.46187">
        <ele>199.13</ele>
        <time>2020-02-09T16:17:04Z</time>
      </trkpt>
      <trkpt lat="43.16228" lon="2.46182">
        <ele>199.13</ele>
        <time>2020-02-09T16:17:05Z</time>
      </trkpt>
      <trkpt lat="43.16226" lon="2.46178">
        <ele>198.17</ele>
        <time>2020-02-09T16:17:06Z</time>
      </trkpt>
      <trkpt lat="43.16212" lon="2.46152">
        <ele>195.77</ele>
        <time>2020-02-09T16:17:12Z</time>
      </trkpt>
      <trkpt lat="43.162" lon="2.46132">
        <ele>193.36</ele>
        <time>2020-02-09T16:17:17Z</time>
      </trkpt>
      <trkpt lat="43.16197" lon="2.46126">
        <ele>192.88</ele>
        <time>2020-02-09T16:17:18Z</time>
      </trkpt>
      <trkpt lat="43.16194" lon="2.4612">
        <ele>191.44</ele>
        <time>2020-02-09T16:17:19Z</time>
      </trkpt>
      <trkpt lat="43.16192" lon="2.46114">
        <ele>191.92</ele>
        <time>2020-02-09T16:17:20Z</time>
      </trkpt>
      <trkpt lat="43.16191" lon="2.46109">
        <ele>190.96</ele>
        <time>2020-02-09T16:17:21Z</time>
      </trkpt>
      <trkpt lat="43.16187" lon="2.46097">
        <ele>190</ele>
        <time>2020-02-09T16:17:23Z</time>
      </trkpt>
      <trkpt lat="43.16185" lon="2.46092">
        <ele>189.52</ele>
        <time>2020-02-09T16:17:24Z</time>
      </trkpt>
      <trkpt lat="43.16179" lon="2.46082">
        <ele>188.08</ele>
        <time>2020-02-09T16:17:26Z</time>
      </trkpt>
      <trkpt lat="43.16177" lon="2.46077">
        <ele>188.08</ele>
        <time>2020-02-09T16:17:27Z</time>
      </trkpt>
      <trkpt lat="43.16168" lon="2.46052">
        <ele>185.19</ele>
        <time>2020-02-09T16:17:31Z</time>
      </trkpt>
      <trkpt lat="43.16167" lon="2.46046">
        <ele>184.71</ele>
        <time>2020-02-09T16:17:32Z</time>
      </trkpt>
      <trkpt lat="43.16166" lon="2.4604">
        <ele>184.23</ele>
        <time>2020-02-09T16:17:33Z</time>
      </trkpt>
      <trkpt lat="43.16165" lon="2.46033">
        <ele>184.23</ele>
        <time>2020-02-09T16:17:34Z</time>
      </trkpt>
      <trkpt lat="43.16166" lon="2.46027">
        <ele>184.23</ele>
        <time>2020-02-09T16:17:35Z</time>
      </trkpt>
      <trkpt lat="43.16167" lon="2.46021">
        <ele>183.75</ele>
        <time>2020-02-09T16:17:36Z</time>
      </trkpt>
      <trkpt lat="43.16169" lon="2.46015">
        <ele>183.75</ele>
        <time>2020-02-09T16:17:37Z</time>
      </trkpt>
      <trkpt lat="43.16173" lon="2.45985">
        <ele>180.38</ele>
        <time>2020-02-09T16:17:43Z</time>
      </trkpt>
      <trkpt lat="43.16174" lon="2.45978">
        <ele>179.42</ele>
        <time>2020-02-09T16:17:45Z</time>
      </trkpt>
      <trkpt lat="43.16174" lon="2.45975">
        <ele>178.94</ele>
        <time>2020-02-09T16:17:46Z</time>
      </trkpt>
      <trkpt lat="43.16172" lon="2.45973">
        <ele>178.94</ele>
        <time>2020-02-09T16:17:47Z</time>
      </trkpt>
      <trkpt lat="43.16162" lon="2.45956">
        <ele>177.5</ele>
        <time>2020-02-09T16:17:52Z</time>
      </trkpt>
      <trkpt lat="43.16159" lon="2.45951">
        <ele>177.5</ele>
        <time>2020-02-09T16:17:53Z</time>
      </trkpt>
      <trkpt lat="43.16157" lon="2.45945">
        <ele>177.02</ele>
        <time>2020-02-09T16:17:54Z</time>
      </trkpt>
      <trkpt lat="43.16155" lon="2.4594">
        <ele>176.06</ele>
        <time>2020-02-09T16:17:55Z</time>
      </trkpt>
      <trkpt lat="43.16154" lon="2.45935">
        <ele>175.58</ele>
        <time>2020-02-09T16:17:56Z</time>
      </trkpt>
      <trkpt lat="43.16147" lon="2.45917">
        <ele>174.62</ele>
        <time>2020-02-09T16:18:00Z</time>
      </trkpt>
      <trkpt lat="43.16144" lon="2.45913">
        <ele>174.62</ele>
        <time>2020-02-09T16:18:01Z</time>
      </trkpt>
      <trkpt lat="43.16135" lon="2.45903">
        <ele>172.69</ele>
        <time>2020-02-09T16:18:04Z</time>
      </trkpt>
      <trkpt lat="43.16129" lon="2.45896">
        <ele>171.25</ele>
        <time>2020-02-09T16:18:06Z</time>
      </trkpt>
      <trkpt lat="43.16125" lon="2.45892">
        <ele>170.77</ele>
        <time>2020-02-09T16:18:07Z</time>
      </trkpt>
      <trkpt lat="43.16122" lon="2.45887">
        <ele>171.25</ele>
        <time>2020-02-09T16:18:08Z</time>
      </trkpt>
      <trkpt lat="43.16111" lon="2.45867">
        <ele>168.37</ele>
        <time>2020-02-09T16:18:12Z</time>
      </trkpt>
      <trkpt lat="43.1611" lon="2.45862">
        <ele>168.85</ele>
        <time>2020-02-09T16:18:13Z</time>
      </trkpt>
      <trkpt lat="43.16109" lon="2.45857">
        <ele>167.89</ele>
        <time>2020-02-09T16:18:14Z</time>
      </trkpt>
      <trkpt lat="43.16107" lon="2.45852">
        <ele>167.41</ele>
        <time>2020-02-09T16:18:15Z</time>
      </trkpt>
      <trkpt lat="43.16106" lon="2.45848">
        <ele>166.93</ele>
        <time>2020-02-09T16:18:16Z</time>
      </trkpt>
      <trkpt lat="43.16116" lon="2.45796">
        <ele>165.48</ele>
        <time>2020-02-09T16:18:28Z</time>
      </trkpt>
      <trkpt lat="43.16129" lon="2.45774">
        <ele>164.52</ele>
        <time>2020-02-09T16:18:34Z</time>
      </trkpt>
      <trkpt lat="43.16132" lon="2.45764">
        <ele>164.04</ele>
        <time>2020-02-09T16:18:36Z</time>
      </trkpt>
      <trkpt lat="43.16132" lon="2.45759">
        <ele>163.56</ele>
        <time>2020-02-09T16:18:37Z</time>
      </trkpt>
      <trkpt lat="43.16132" lon="2.45753">
        <ele>163.08</ele>
        <time>2020-02-09T16:18:38Z</time>
      </trkpt>
      <trkpt lat="43.16131" lon="2.45747">
        <ele>162.6</ele>
        <time>2020-02-09T16:18:39Z</time>
      </trkpt>
      <trkpt lat="43.1613" lon="2.4574">
        <ele>162.12</ele>
        <time>2020-02-09T16:18:40Z</time>
      </trkpt>
      <trkpt lat="43.16127" lon="2.45735">
        <ele>161.64</ele>
        <time>2020-02-09T16:18:41Z</time>
      </trkpt>
      <trkpt lat="43.16125" lon="2.45729">
        <ele>161.16</ele>
        <time>2020-02-09T16:18:42Z</time>
      </trkpt>
      <trkpt lat="43.16122" lon="2.45725">
        <ele>161.16</ele>
        <time>2020-02-09T16:18:43Z</time>
      </trkpt>
      <trkpt lat="43.16118" lon="2.4572">
        <ele>160.68</ele>
        <time>2020-02-09T16:18:44Z</time>
      </trkpt>
      <trkpt lat="43.16114" lon="2.45717">
        <ele>159.72</ele>
        <time>2020-02-09T16:18:45Z</time>
      </trkpt>
      <trkpt lat="43.1611" lon="2.45715">
        <ele>159.72</ele>
        <time>2020-02-09T16:18:46Z</time>
      </trkpt>
      <trkpt lat="43.16106" lon="2.45713">
        <ele>160.68</ele>
        <time>2020-02-09T16:18:47Z</time>
      </trkpt>
      <trkpt lat="43.16102" lon="2.45713">
        <ele>159.72</ele>
        <time>2020-02-09T16:18:48Z</time>
      </trkpt>
      <trkpt lat="43.16094" lon="2.45711">
        <ele>159.24</ele>
        <time>2020-02-09T16:18:50Z</time>
      </trkpt>
      <trkpt lat="43.1609" lon="2.45709">
        <ele>159.24</ele>
        <time>2020-02-09T16:18:51Z</time>
      </trkpt>
      <trkpt lat="43.16086" lon="2.45706">
        <ele>158.75</ele>
        <time>2020-02-09T16:18:52Z</time>
      </trkpt>
      <trkpt lat="43.16082" lon="2.45702">
        <ele>158.27</ele>
        <time>2020-02-09T16:18:53Z</time>
      </trkpt>
      <trkpt lat="43.16079" lon="2.45697">
        <ele>158.27</ele>
        <time>2020-02-09T16:18:54Z</time>
      </trkpt>
      <trkpt lat="43.16076" lon="2.45692">
        <ele>157.79</ele>
        <time>2020-02-09T16:18:55Z</time>
      </trkpt>
      <trkpt lat="43.16074" lon="2.45687">
        <ele>157.79</ele>
        <time>2020-02-09T16:18:56Z</time>
      </trkpt>
      <trkpt lat="43.16072" lon="2.45681">
        <ele>157.79</ele>
        <time>2020-02-09T16:18:57Z</time>
      </trkpt>
      <trkpt lat="43.16069" lon="2.4567">
        <ele>156.83</ele>
        <time>2020-02-09T16:18:59Z</time>
      </trkpt>
      <trkpt lat="43.16068" lon="2.45664">
        <ele>156.35</ele>
        <time>2020-02-09T16:19:00Z</time>
      </trkpt>
      <trkpt lat="43.16068" lon="2.45658">
        <ele>155.87</ele>
        <time>2020-02-09T16:19:01Z</time>
      </trkpt>
      <trkpt lat="43.16067" lon="2.45653">
        <ele>155.87</ele>
        <time>2020-02-09T16:19:02Z</time>
      </trkpt>
      <trkpt lat="43.16067" lon="2.45641">
        <ele>154.43</ele>
        <time>2020-02-09T16:19:04Z</time>
      </trkpt>
      <trkpt lat="43.16067" lon="2.45634">
        <ele>154.43</ele>
        <time>2020-02-09T16:19:05Z</time>
      </trkpt>
      <trkpt lat="43.16066" lon="2.45627">
        <ele>152.99</ele>
        <time>2020-02-09T16:19:06Z</time>
      </trkpt>
      <trkpt lat="43.16058" lon="2.45594">
        <ele>151.54</ele>
        <time>2020-02-09T16:19:11Z</time>
      </trkpt>
      <trkpt lat="43.16047" lon="2.45548">
        <ele>148.18</ele>
        <time>2020-02-09T16:19:17Z</time>
      </trkpt>
      <trkpt lat="43.16047" lon="2.45539">
        <ele>148.18</ele>
        <time>2020-02-09T16:19:18Z</time>
      </trkpt>
      <trkpt lat="43.16046" lon="2.45524">
        <ele>147.7</ele>
        <time>2020-02-09T16:19:20Z</time>
      </trkpt>
      <trkpt lat="43.16045" lon="2.45518">
        <ele>146.74</ele>
        <time>2020-02-09T16:19:21Z</time>
      </trkpt>
      <trkpt lat="43.16042" lon="2.45502">
        <ele>146.74</ele>
        <time>2020-02-09T16:19:25Z</time>
      </trkpt>
      <trkpt lat="43.1604" lon="2.45503">
        <ele>145.78</ele>
        <time>2020-02-09T16:19:42Z</time>
      </trkpt>
      <trkpt lat="43.16035" lon="2.45489">
        <ele>144.82</ele>
        <time>2020-02-09T16:20:54Z</time>
      </trkpt>
      <trkpt lat="43.16034" lon="2.4549">
        <ele>144.82</ele>
        <time>2020-02-09T16:20:55Z</time>
      </trkpt>
      <trkpt lat="43.16033" lon="2.45492">
        <ele>144.82</ele>
        <time>2020-02-09T16:20:56Z</time>
      </trkpt>
      <trkpt lat="43.16032" lon="2.45494">
        <ele>144.82</ele>
        <time>2020-02-09T16:20:57Z</time>
      </trkpt>
      <trkpt lat="43.16031" lon="2.45497">
        <ele>144.82</ele>
        <time>2020-02-09T16:20:58Z</time>
      </trkpt>
      <trkpt lat="43.15981" lon="2.45568">
        <ele>144.82</ele>
        <time>2020-02-09T16:21:18Z</time>
      </trkpt>
      <trkpt lat="43.15956" lon="2.45602">
        <ele>144.34</ele>
        <time>2020-02-09T16:21:33Z</time>
      </trkpt>
      <trkpt lat="43.15957" lon="2.45601">
        <ele>143.85</ele>
        <time>2020-02-09T16:21:35Z</time>
      </trkpt>
      <trkpt lat="43.15953" lon="2.45596">
        <ele>142.89</ele>
        <time>2020-02-09T16:21:38Z</time>
      </trkpt>
      <trkpt lat="43.15949" lon="2.45596">
        <ele>142.89</ele>
        <time>2020-02-09T16:21:39Z</time>
      </trkpt>
      <trkpt lat="43.15945" lon="2.45597">
        <ele>142.89</ele>
        <time>2020-02-09T16:21:40Z</time>
      </trkpt>
      <trkpt lat="43.15941" lon="2.45598">
        <ele>143.37</ele>
        <time>2020-02-09T16:21:41Z</time>
      </trkpt>
      <trkpt lat="43.1593" lon="2.45601">
        <ele>142.41</ele>
        <time>2020-02-09T16:21:43Z</time>
      </trkpt>
      <trkpt lat="43.15925" lon="2.45601">
        <ele>141.93</ele>
        <time>2020-02-09T16:21:44Z</time>
      </trkpt>
      <trkpt lat="43.15915" lon="2.45599">
        <ele>142.41</ele>
        <time>2020-02-09T16:21:46Z</time>
      </trkpt>
      <trkpt lat="43.15911" lon="2.45596">
        <ele>141.45</ele>
        <time>2020-02-09T16:21:47Z</time>
      </trkpt>
      <trkpt lat="43.15909" lon="2.45591">
        <ele>141.45</ele>
        <time>2020-02-09T16:21:48Z</time>
      </trkpt>
      <trkpt lat="43.15909" lon="2.45586">
        <ele>141.93</ele>
        <time>2020-02-09T16:21:49Z</time>
      </trkpt>
      <trkpt lat="43.1591" lon="2.45581">
        <ele>141.93</ele>
        <time>2020-02-09T16:21:50Z</time>
      </trkpt>
      <trkpt lat="43.15913" lon="2.45578">
        <ele>141.93</ele>
        <time>2020-02-09T16:21:51Z</time>
      </trkpt>
      <trkpt lat="43.15916" lon="2.45576">
        <ele>142.41</ele>
        <time>2020-02-09T16:21:52Z</time>
      </trkpt>
      <trkpt lat="43.15919" lon="2.45574">
        <ele>142.89</ele>
        <time>2020-02-09T16:21:53Z</time>
      </trkpt>
      <trkpt lat="43.15948" lon="2.45514">
        <ele>144.82</ele>
        <time>2020-02-09T16:22:10Z</time>
      </trkpt>
      <trkpt lat="43.16008" lon="2.45429">
        <ele>144.34</ele>
        <time>2020-02-09T16:22:33Z</time>
      </trkpt>
      <trkpt lat="43.16017" lon="2.45421">
        <ele>144.34</ele>
        <time>2020-02-09T16:22:35Z</time>
      </trkpt>
      <trkpt lat="43.16037" lon="2.45406">
        <ele>142.89</ele>
        <time>2020-02-09T16:22:39Z</time>
      </trkpt>
      <trkpt lat="43.16041" lon="2.45401">
        <ele>142.89</ele>
        <time>2020-02-09T16:22:40Z</time>
      </trkpt>
      <trkpt lat="43.1606" lon="2.45381">
        <ele>138.57</ele>
        <time>2020-02-09T16:22:46Z</time>
      </trkpt>
      <trkpt lat="43.1607" lon="2.45375">
        <ele>137.13</ele>
        <time>2020-02-09T16:22:49Z</time>
      </trkpt>
      <trkpt lat="43.16073" lon="2.45374">
        <ele>137.13</ele>
        <time>2020-02-09T16:22:50Z</time>
      </trkpt>
      <trkpt lat="43.16087" lon="2.45364">
        <ele>133.76</ele>
        <time>2020-02-09T16:22:54Z</time>
      </trkpt>
      <trkpt lat="43.161" lon="2.45354">
        <ele>131.84</ele>
        <time>2020-02-09T16:22:59Z</time>
      </trkpt>
      <trkpt lat="43.16112" lon="2.45315">
        <ele>131.36</ele>
        <time>2020-02-09T16:23:10Z</time>
      </trkpt>
      <trkpt lat="43.16115" lon="2.45306">
        <ele>132.8</ele>
        <time>2020-02-09T16:23:13Z</time>
      </trkpt>
      <trkpt lat="43.16137" lon="2.45204">
        <ele>135.68</ele>
        <time>2020-02-09T16:26:23Z</time>
      </trkpt>
      <trkpt lat="43.16144" lon="2.45184">
        <ele>137.61</ele>
        <time>2020-02-09T16:26:37Z</time>
      </trkpt>
      <trkpt lat="43.16149" lon="2.45184">
        <ele>138.09</ele>
        <time>2020-02-09T16:26:41Z</time>
      </trkpt>
      <trkpt lat="43.16151" lon="2.4518">
        <ele>139.53</ele>
        <time>2020-02-09T16:26:46Z</time>
      </trkpt>
      <trkpt lat="43.16151" lon="2.45174">
        <ele>139.53</ele>
        <time>2020-02-09T16:26:50Z</time>
      </trkpt>
      <trkpt lat="43.16154" lon="2.45171">
        <ele>140.49</ele>
        <time>2020-02-09T16:26:55Z</time>
      </trkpt>
      <trkpt lat="43.16167" lon="2.4516">
        <ele>142.89</ele>
        <time>2020-02-09T16:27:10Z</time>
      </trkpt>
      <trkpt lat="43.16167" lon="2.45157">
        <ele>143.85</ele>
        <time>2020-02-09T16:27:12Z</time>
      </trkpt>
      <trkpt lat="43.16163" lon="2.45142">
        <ele>145.3</ele>
        <time>2020-02-09T16:27:24Z</time>
      </trkpt>
      <trkpt lat="43.16165" lon="2.45119">
        <ele>149.14</ele>
        <time>2020-02-09T16:27:44Z</time>
      </trkpt>
      <trkpt lat="43.16173" lon="2.45109">
        <ele>152.03</ele>
        <time>2020-02-09T16:27:59Z</time>
      </trkpt>
      <trkpt lat="43.16178" lon="2.45094">
        <ele>155.39</ele>
        <time>2020-02-09T16:28:17Z</time>
      </trkpt>
      <trkpt lat="43.16182" lon="2.45076">
        <ele>158.27</ele>
        <time>2020-02-09T16:28:34Z</time>
      </trkpt>
      <trkpt lat="43.16183" lon="2.45062">
        <ele>159.72</ele>
        <time>2020-02-09T16:28:47Z</time>
      </trkpt>
      <trkpt lat="43.1619" lon="2.4504">
        <ele>163.56</ele>
        <time>2020-02-09T16:29:06Z</time>
      </trkpt>
      <trkpt lat="43.16189" lon="2.4504">
        <ele>163.56</ele>
        <time>2020-02-09T16:29:12Z</time>
      </trkpt>
      <trkpt lat="43.16185" lon="2.45033">
        <ele>165</ele>
        <time>2020-02-09T16:29:20Z</time>
      </trkpt>
      <trkpt lat="43.16181" lon="2.45017">
        <ele>167.89</ele>
        <time>2020-02-09T16:29:39Z</time>
      </trkpt>
      <trkpt lat="43.16185" lon="2.45019">
        <ele>168.85</ele>
        <time>2020-02-09T16:29:44Z</time>
      </trkpt>
      <trkpt lat="43.16195" lon="2.45014">
        <ele>172.21</ele>
        <time>2020-02-09T16:29:58Z</time>
      </trkpt>
      <trkpt lat="43.16197" lon="2.45003">
        <ele>175.1</ele>
        <time>2020-02-09T16:30:16Z</time>
      </trkpt>
      <trkpt lat="43.16201" lon="2.44996">
        <ele>178.46</ele>
        <time>2020-02-09T16:30:33Z</time>
      </trkpt>
      <trkpt lat="43.16209" lon="2.4498">
        <ele>181.35</ele>
        <time>2020-02-09T16:30:55Z</time>
      </trkpt>
      <trkpt lat="43.16215" lon="2.44963">
        <ele>184.71</ele>
        <time>2020-02-09T16:31:11Z</time>
      </trkpt>
      <trkpt lat="43.1622" lon="2.44953">
        <ele>188.08</ele>
        <time>2020-02-09T16:31:29Z</time>
      </trkpt>
      <trkpt lat="43.16221" lon="2.44939">
        <ele>190.48</ele>
        <time>2020-02-09T16:31:46Z</time>
      </trkpt>
      <trkpt lat="43.1622" lon="2.44934">
        <ele>191.92</ele>
        <time>2020-02-09T16:31:52Z</time>
      </trkpt>
      <trkpt lat="43.1621" lon="2.44914">
        <ele>192.88</ele>
        <time>2020-02-09T16:32:09Z</time>
      </trkpt>
      <trkpt lat="43.16217" lon="2.44883">
        <ele>199.61</ele>
        <time>2020-02-09T16:34:40Z</time>
      </trkpt>
      <trkpt lat="43.16231" lon="2.44896">
        <ele>199.61</ele>
        <time>2020-02-09T16:34:50Z</time>
      </trkpt>
      <trkpt lat="43.16262" lon="2.44922">
        <ele>202.49</ele>
        <time>2020-02-09T16:35:07Z</time>
      </trkpt>
      <trkpt lat="43.16298" lon="2.44949">
        <ele>202.98</ele>
        <time>2020-02-09T16:35:26Z</time>
      </trkpt>
      <trkpt lat="43.163" lon="2.44952">
        <ele>202.98</ele>
        <time>2020-02-09T16:35:27Z</time>
      </trkpt>
      <trkpt lat="43.16301" lon="2.44955">
        <ele>202.01</ele>
        <time>2020-02-09T16:35:28Z</time>
      </trkpt>
      <trkpt lat="43.16303" lon="2.44957">
        <ele>201.53</ele>
        <time>2020-02-09T16:35:29Z</time>
      </trkpt>
      <trkpt lat="43.16306" lon="2.4496">
        <ele>201.05</ele>
        <time>2020-02-09T16:35:30Z</time>
      </trkpt>
      <trkpt lat="43.16309" lon="2.44964">
        <ele>201.05</ele>
        <time>2020-02-09T16:35:31Z</time>
      </trkpt>
      <trkpt lat="43.16312" lon="2.44967">
        <ele>201.53</ele>
        <time>2020-02-09T16:35:32Z</time>
      </trkpt>
      <trkpt lat="43.16315" lon="2.4497">
        <ele>201.05</ele>
        <time>2020-02-09T16:35:33Z</time>
      </trkpt>
      <trkpt lat="43.16323" lon="2.44977">
        <ele>200.09</ele>
        <time>2020-02-09T16:35:35Z</time>
      </trkpt>
      <trkpt lat="43.16341" lon="2.44996">
        <ele>199.61</ele>
        <time>2020-02-09T16:35:41Z</time>
      </trkpt>
      <trkpt lat="43.16345" lon="2.45002">
        <ele>198.65</ele>
        <time>2020-02-09T16:35:43Z</time>
      </trkpt>
      <trkpt lat="43.16361" lon="2.45016">
        <ele>199.61</ele>
        <time>2020-02-09T16:35:59Z</time>
      </trkpt>
      <trkpt lat="43.16362" lon="2.45014">
        <ele>199.61</ele>
        <time>2020-02-09T16:36:39Z</time>
      </trkpt>
      <trkpt lat="43.16364" lon="2.45016">
        <ele>199.13</ele>
        <time>2020-02-09T16:37:24Z</time>
      </trkpt>
      <trkpt lat="43.16365" lon="2.45017">
        <ele>200.09</ele>
        <time>2020-02-09T16:38:01Z</time>
      </trkpt>
      <trkpt lat="43.16366" lon="2.45013">
        <ele>200.09</ele>
        <time>2020-02-09T16:38:35Z</time>
      </trkpt>
      <trkpt lat="43.16366" lon="2.45012">
        <ele>200.09</ele>
        <time>2020-02-09T16:38:36Z</time>
      </trkpt>
      <trkpt lat="43.16366" lon="2.4501">
        <ele>200.57</ele>
        <time>2020-02-09T16:38:37Z</time>
      </trkpt>
      <trkpt lat="43.16368" lon="2.45006">
        <ele>198.65</ele>
        <time>2020-02-09T16:38:39Z</time>
      </trkpt>
      <trkpt lat="43.1637" lon="2.45001">
        <ele>197.21</ele>
        <time>2020-02-09T16:38:41Z</time>
      </trkpt>
      <trkpt lat="43.16369" lon="2.44998">
        <ele>196.25</ele>
        <time>2020-02-09T16:38:42Z</time>
      </trkpt>
      <trkpt lat="43.16369" lon="2.44995">
        <ele>195.77</ele>
        <time>2020-02-09T16:38:43Z</time>
      </trkpt>
      <trkpt lat="43.16368" lon="2.44991">
        <ele>195.77</ele>
        <time>2020-02-09T16:38:44Z</time>
      </trkpt>
      <trkpt lat="43.16367" lon="2.44988">
        <ele>195.28</ele>
        <time>2020-02-09T16:38:45Z</time>
      </trkpt>
      <trkpt lat="43.16367" lon="2.44985">
        <ele>194.32</ele>
        <time>2020-02-09T16:38:46Z</time>
      </trkpt>
      <trkpt lat="43.16366" lon="2.44981">
        <ele>193.84</ele>
        <time>2020-02-09T16:38:47Z</time>
      </trkpt>
      <trkpt lat="43.16366" lon="2.44977">
        <ele>192.88</ele>
        <time>2020-02-09T16:38:48Z</time>
      </trkpt>
      <trkpt lat="43.16367" lon="2.44973">
        <ele>192.4</ele>
        <time>2020-02-09T16:38:49Z</time>
      </trkpt>
      <trkpt lat="43.16366" lon="2.44968">
        <ele>191.44</ele>
        <time>2020-02-09T16:38:50Z</time>
      </trkpt>
      <trkpt lat="43.16365" lon="2.44964">
        <ele>190.48</ele>
        <time>2020-02-09T16:38:51Z</time>
      </trkpt>
      <trkpt lat="43.16365" lon="2.44961">
        <ele>190</ele>
        <time>2020-02-09T16:38:52Z</time>
      </trkpt>
      <trkpt lat="43.16364" lon="2.44958">
        <ele>189.04</ele>
        <time>2020-02-09T16:38:53Z</time>
      </trkpt>
      <trkpt lat="43.16359" lon="2.44929">
        <ele>185.67</ele>
        <time>2020-02-09T16:39:02Z</time>
      </trkpt>
      <trkpt lat="43.16356" lon="2.44919">
        <ele>183.75</ele>
        <time>2020-02-09T16:39:05Z</time>
      </trkpt>
      <trkpt lat="43.16355" lon="2.44915">
        <ele>183.27</ele>
        <time>2020-02-09T16:39:06Z</time>
      </trkpt>
      <trkpt lat="43.16353" lon="2.44912">
        <ele>183.75</ele>
        <time>2020-02-09T16:39:07Z</time>
      </trkpt>
      <trkpt lat="43.16352" lon="2.44909">
        <ele>183.75</ele>
        <time>2020-02-09T16:39:08Z</time>
      </trkpt>
      <trkpt lat="43.1635" lon="2.44906">
        <ele>183.27</ele>
        <time>2020-02-09T16:39:09Z</time>
      </trkpt>
      <trkpt lat="43.16349" lon="2.44902">
        <ele>183.27</ele>
        <time>2020-02-09T16:39:10Z</time>
      </trkpt>
      <trkpt lat="43.16349" lon="2.44899">
        <ele>183.27</ele>
        <time>2020-02-09T16:39:11Z</time>
      </trkpt>
      <trkpt lat="43.16349" lon="2.44896">
        <ele>182.31</ele>
        <time>2020-02-09T16:39:12Z</time>
      </trkpt>
      <trkpt lat="43.16349" lon="2.44893">
        <ele>181.83</ele>
        <time>2020-02-09T16:39:13Z</time>
      </trkpt>
      <trkpt lat="43.1635" lon="2.44889">
        <ele>180.87</ele>
        <time>2020-02-09T16:39:14Z</time>
      </trkpt>
      <trkpt lat="43.16351" lon="2.44884">
        <ele>180.38</ele>
        <time>2020-02-09T16:39:15Z</time>
      </trkpt>
      <trkpt lat="43.16351" lon="2.4488">
        <ele>179.42</ele>
        <time>2020-02-09T16:39:16Z</time>
      </trkpt>
      <trkpt lat="43.16351" lon="2.44875">
        <ele>178.94</ele>
        <time>2020-02-09T16:39:17Z</time>
      </trkpt>
      <trkpt lat="43.1635" lon="2.44871">
        <ele>178.46</ele>
        <time>2020-02-09T16:39:18Z</time>
      </trkpt>
      <trkpt lat="43.16349" lon="2.44868">
        <ele>177.5</ele>
        <time>2020-02-09T16:39:19Z</time>
      </trkpt>
      <trkpt lat="43.16348" lon="2.44865">
        <ele>177.5</ele>
        <time>2020-02-09T16:39:20Z</time>
      </trkpt>
      <trkpt lat="43.16348" lon="2.44862">
        <ele>177.02</ele>
        <time>2020-02-09T16:39:21Z</time>
      </trkpt>
      <trkpt lat="43.16346" lon="2.44839">
        <ele>173.66</ele>
        <time>2020-02-09T16:39:28Z</time>
      </trkpt>
      <trkpt lat="43.16346" lon="2.44833">
        <ele>171.73</ele>
        <time>2020-02-09T16:39:30Z</time>
      </trkpt>
      <trkpt lat="43.16344" lon="2.44831">
        <ele>171.73</ele>
        <time>2020-02-09T16:39:31Z</time>
      </trkpt>
      <trkpt lat="43.16331" lon="2.44812">
        <ele>169.81</ele>
        <time>2020-02-09T16:39:39Z</time>
      </trkpt>
      <trkpt lat="43.16331" lon="2.4481">
        <ele>170.29</ele>
        <time>2020-02-09T16:39:40Z</time>
      </trkpt>
      <trkpt lat="43.16332" lon="2.44807">
        <ele>169.33</ele>
        <time>2020-02-09T16:39:43Z</time>
      </trkpt>
      <trkpt lat="43.16333" lon="2.44806">
        <ele>169.81</ele>
        <time>2020-02-09T16:39:44Z</time>
      </trkpt>
      <trkpt lat="43.16333" lon="2.44804">
        <ele>169.81</ele>
        <time>2020-02-09T16:39:45Z</time>
      </trkpt>
      <trkpt lat="43.16334" lon="2.44802">
        <ele>170.29</ele>
        <time>2020-02-09T16:39:46Z</time>
      </trkpt>
      <trkpt lat="43.16334" lon="2.448">
        <ele>169.81</ele>
        <time>2020-02-09T16:39:47Z</time>
      </trkpt>
      <trkpt lat="43.16337" lon="2.44788">
        <ele>170.29</ele>
        <time>2020-02-09T16:39:52Z</time>
      </trkpt>
      <trkpt lat="43.16337" lon="2.44785">
        <ele>170.77</ele>
        <time>2020-02-09T16:39:53Z</time>
      </trkpt>
      <trkpt lat="43.16338" lon="2.44783">
        <ele>170.29</ele>
        <time>2020-02-09T16:39:54Z</time>
      </trkpt>
      <trkpt lat="43.16339" lon="2.4478">
        <ele>170.29</ele>
        <time>2020-02-09T16:39:55Z</time>
      </trkpt>
      <trkpt lat="43.1634" lon="2.44769">
        <ele>172.21</ele>
        <time>2020-02-09T16:39:59Z</time>
      </trkpt>
      <trkpt lat="43.16349" lon="2.44748">
        <ele>173.17</ele>
        <time>2020-02-09T16:40:15Z</time>
      </trkpt>
      <trkpt lat="43.16352" lon="2.44734">
        <ele>176.54</ele>
        <time>2020-02-09T16:40:27Z</time>
      </trkpt>
      <trkpt lat="43.16363" lon="2.44711">
        <ele>179.42</ele>
        <time>2020-02-09T16:40:50Z</time>
      </trkpt>
      <trkpt lat="43.16366" lon="2.44707">
        <ele>179.42</ele>
        <time>2020-02-09T16:40:59Z</time>
      </trkpt>
      <trkpt lat="43.16386" lon="2.44689">
        <ele>181.83</ele>
        <time>2020-02-09T16:41:17Z</time>
      </trkpt>
      <trkpt lat="43.1639" lon="2.44682">
        <ele>181.35</ele>
        <time>2020-02-09T16:41:23Z</time>
      </trkpt>
      <trkpt lat="43.16395" lon="2.44683">
        <ele>183.27</ele>
        <time>2020-02-09T16:41:31Z</time>
      </trkpt>
      <trkpt lat="43.16398" lon="2.44685">
        <ele>183.27</ele>
        <time>2020-02-09T16:41:34Z</time>
      </trkpt>
      <trkpt lat="43.1643" lon="2.44694">
        <ele>182.31</ele>
        <time>2020-02-09T16:41:51Z</time>
      </trkpt>
      <trkpt lat="43.16431" lon="2.44658">
        <ele>183.27</ele>
        <time>2020-02-09T16:42:05Z</time>
      </trkpt>
      <trkpt lat="43.16438" lon="2.44646">
        <ele>183.75</ele>
        <time>2020-02-09T16:42:11Z</time>
      </trkpt>
      <trkpt lat="43.16441" lon="2.44607">
        <ele>185.67</ele>
        <time>2020-02-09T16:42:28Z</time>
      </trkpt>
      <trkpt lat="43.1645" lon="2.44569">
        <ele>187.59</ele>
        <time>2020-02-09T16:42:47Z</time>
      </trkpt>
      <trkpt lat="43.16461" lon="2.44536">
        <ele>189.52</ele>
        <time>2020-02-09T16:43:04Z</time>
      </trkpt>
      <trkpt lat="43.16476" lon="2.44539">
        <ele>191.44</ele>
        <time>2020-02-09T16:43:21Z</time>
      </trkpt>
      <trkpt lat="43.16482" lon="2.44541">
        <ele>190.96</ele>
        <time>2020-02-09T16:43:27Z</time>
      </trkpt>
      <trkpt lat="43.16489" lon="2.44544">
        <ele>191.92</ele>
        <time>2020-02-09T16:43:33Z</time>
      </trkpt>
      <trkpt lat="43.16496" lon="2.44551">
        <ele>192.4</ele>
        <time>2020-02-09T16:43:40Z</time>
      </trkpt>
      <trkpt lat="43.16499" lon="2.44553">
        <ele>191.92</ele>
        <time>2020-02-09T16:43:43Z</time>
      </trkpt>
      <trkpt lat="43.165" lon="2.44552">
        <ele>191.92</ele>
        <time>2020-02-09T16:43:48Z</time>
      </trkpt>
      <trkpt lat="43.1651" lon="2.44557">
        <ele>193.36</ele>
        <time>2020-02-09T16:43:56Z</time>
      </trkpt>
      <trkpt lat="43.16525" lon="2.44571">
        <ele>194.8</ele>
        <time>2020-02-09T16:44:13Z</time>
      </trkpt>
      <trkpt lat="43.16547" lon="2.44574">
        <ele>195.28</ele>
        <time>2020-02-09T16:44:33Z</time>
      </trkpt>
      <trkpt lat="43.16571" lon="2.44583">
        <ele>197.69</ele>
        <time>2020-02-09T16:44:56Z</time>
      </trkpt>
      <trkpt lat="43.1659" lon="2.44589">
        <ele>200.09</ele>
        <time>2020-02-09T16:45:15Z</time>
      </trkpt>
      <trkpt lat="43.16609" lon="2.44603">
        <ele>202.98</ele>
        <time>2020-02-09T16:45:38Z</time>
      </trkpt>
      <trkpt lat="43.16612" lon="2.44604">
        <ele>203.46</ele>
        <time>2020-02-09T16:45:42Z</time>
      </trkpt>
      <trkpt lat="43.16619" lon="2.44606">
        <ele>204.9</ele>
        <time>2020-02-09T16:45:53Z</time>
      </trkpt>
      <trkpt lat="43.16634" lon="2.44601">
        <ele>208.26</ele>
        <time>2020-02-09T16:46:11Z</time>
      </trkpt>
      <trkpt lat="43.16644" lon="2.44593">
        <ele>209.22</ele>
        <time>2020-02-09T16:46:23Z</time>
      </trkpt>
      <trkpt lat="43.16647" lon="2.44587">
        <ele>209.7</ele>
        <time>2020-02-09T16:46:27Z</time>
      </trkpt>
      <trkpt lat="43.16666" lon="2.44561">
        <ele>208.74</ele>
        <time>2020-02-09T16:46:49Z</time>
      </trkpt>
      <trkpt lat="43.16668" lon="2.44558">
        <ele>209.22</ele>
        <time>2020-02-09T16:47:26Z</time>
      </trkpt>
      <trkpt lat="43.16683" lon="2.44527">
        <ele>207.78</ele>
        <time>2020-02-09T16:47:35Z</time>
      </trkpt>
      <trkpt lat="43.16686" lon="2.44522">
        <ele>208.26</ele>
        <time>2020-02-09T16:47:36Z</time>
      </trkpt>
      <trkpt lat="43.16689" lon="2.44519">
        <ele>208.26</ele>
        <time>2020-02-09T16:47:37Z</time>
      </trkpt>
      <trkpt lat="43.16692" lon="2.44515">
        <ele>207.78</ele>
        <time>2020-02-09T16:47:38Z</time>
      </trkpt>
      <trkpt lat="43.16696" lon="2.44513">
        <ele>207.78</ele>
        <time>2020-02-09T16:47:39Z</time>
      </trkpt>
      <trkpt lat="43.167" lon="2.44511">
        <ele>207.3</ele>
        <time>2020-02-09T16:47:40Z</time>
      </trkpt>
      <trkpt lat="43.16704" lon="2.44509">
        <ele>206.82</ele>
        <time>2020-02-09T16:47:41Z</time>
      </trkpt>
      <trkpt lat="43.16729" lon="2.44498">
        <ele>206.34</ele>
        <time>2020-02-09T16:47:47Z</time>
      </trkpt>
      <trkpt lat="43.16734" lon="2.44497">
        <ele>205.38</ele>
        <time>2020-02-09T16:47:48Z</time>
      </trkpt>
      <trkpt lat="43.16771" lon="2.44497">
        <ele>203.46</ele>
        <time>2020-02-09T16:47:54Z</time>
      </trkpt>
      <trkpt lat="43.16812" lon="2.44503">
        <ele>201.05</ele>
        <time>2020-02-09T16:48:00Z</time>
      </trkpt>
      <trkpt lat="43.16832" lon="2.44502">
        <ele>200.09</ele>
        <time>2020-02-09T16:48:03Z</time>
      </trkpt>
      <trkpt lat="43.16837" lon="2.445">
        <ele>199.13</ele>
        <time>2020-02-09T16:48:04Z</time>
      </trkpt>
      <trkpt lat="43.16843" lon="2.44496">
        <ele>199.13</ele>
        <time>2020-02-09T16:48:05Z</time>
      </trkpt>
      <trkpt lat="43.16848" lon="2.4449">
        <ele>198.65</ele>
        <time>2020-02-09T16:48:06Z</time>
      </trkpt>
      <trkpt lat="43.16854" lon="2.44484">
        <ele>198.65</ele>
        <time>2020-02-09T16:48:07Z</time>
      </trkpt>
      <trkpt lat="43.16859" lon="2.44478">
        <ele>197.69</ele>
        <time>2020-02-09T16:48:08Z</time>
      </trkpt>
      <trkpt lat="43.16872" lon="2.44464">
        <ele>196.73</ele>
        <time>2020-02-09T16:48:10Z</time>
      </trkpt>
      <trkpt lat="43.16893" lon="2.44444">
        <ele>193.36</ele>
        <time>2020-02-09T16:48:13Z</time>
      </trkpt>
      <trkpt lat="43.16904" lon="2.44431">
        <ele>191.92</ele>
        <time>2020-02-09T16:48:15Z</time>
      </trkpt>
      <trkpt lat="43.16909" lon="2.44424">
        <ele>191.44</ele>
        <time>2020-02-09T16:48:16Z</time>
      </trkpt>
      <trkpt lat="43.16914" lon="2.44417">
        <ele>191.44</ele>
        <time>2020-02-09T16:48:17Z</time>
      </trkpt>
      <trkpt lat="43.16919" lon="2.44409">
        <ele>190.96</ele>
        <time>2020-02-09T16:48:18Z</time>
      </trkpt>
      <trkpt lat="43.16925" lon="2.44402">
        <ele>190.96</ele>
        <time>2020-02-09T16:48:19Z</time>
      </trkpt>
      <trkpt lat="43.1693" lon="2.44394">
        <ele>190.48</ele>
        <time>2020-02-09T16:48:20Z</time>
      </trkpt>
      <trkpt lat="43.16934" lon="2.44385">
        <ele>190</ele>
        <time>2020-02-09T16:48:21Z</time>
      </trkpt>
      <trkpt lat="43.16937" lon="2.44375">
        <ele>189.04</ele>
        <time>2020-02-09T16:48:22Z</time>
      </trkpt>
      <trkpt lat="43.16939" lon="2.44366">
        <ele>188.08</ele>
        <time>2020-02-09T16:48:23Z</time>
      </trkpt>
      <trkpt lat="43.1694" lon="2.44357">
        <ele>189.04</ele>
        <time>2020-02-09T16:48:24Z</time>
      </trkpt>
      <trkpt lat="43.1694" lon="2.44349">
        <ele>190</ele>
        <time>2020-02-09T16:48:25Z</time>
      </trkpt>
      <trkpt lat="43.16939" lon="2.44342">
        <ele>190</ele>
        <time>2020-02-09T16:48:26Z</time>
      </trkpt>
      <trkpt lat="43.16939" lon="2.44336">
        <ele>190.48</ele>
        <time>2020-02-09T16:48:27Z</time>
      </trkpt>
      <trkpt lat="43.16938" lon="2.44331">
        <ele>190.96</ele>
        <time>2020-02-09T16:48:28Z</time>
      </trkpt>
      <trkpt lat="43.16953" lon="2.44261">
        <ele>192.4</ele>
        <time>2020-02-09T16:48:44Z</time>
      </trkpt>
      <trkpt lat="43.16988" lon="2.44253">
        <ele>195.77</ele>
        <time>2020-02-09T16:48:59Z</time>
      </trkpt>
      <trkpt lat="43.17034" lon="2.44222">
        <ele>199.13</ele>
        <time>2020-02-09T16:49:26Z</time>
      </trkpt>
      <trkpt lat="43.1707" lon="2.44174">
        <ele>202.01</ele>
        <time>2020-02-09T16:49:50Z</time>
      </trkpt>
      <trkpt lat="43.17099" lon="2.4411">
        <ele>205.38</ele>
        <time>2020-02-09T16:50:15Z</time>
      </trkpt>
      <trkpt lat="43.17115" lon="2.44083">
        <ele>207.3</ele>
        <time>2020-02-09T16:50:27Z</time>
      </trkpt>
      <trkpt lat="43.17172" lon="2.44065">
        <ele>207.78</ele>
        <time>2020-02-09T16:50:49Z</time>
      </trkpt>
      <trkpt lat="43.17245" lon="2.44022">
        <ele>207.78</ele>
        <time>2020-02-09T16:51:08Z</time>
      </trkpt>
      <trkpt lat="43.17269" lon="2.43943">
        <ele>210.67</ele>
        <time>2020-02-09T16:51:27Z</time>
      </trkpt>
      <trkpt lat="43.17259" lon="2.43894">
        <ele>209.22</ele>
        <time>2020-02-09T16:51:36Z</time>
      </trkpt>
      <trkpt lat="43.17258" lon="2.43887">
        <ele>209.7</ele>
        <time>2020-02-09T16:51:37Z</time>
      </trkpt>
      <trkpt lat="43.17251" lon="2.43822">
        <ele>208.74</ele>
        <time>2020-02-09T16:51:46Z</time>
      </trkpt>
      <trkpt lat="43.17254" lon="2.43801">
        <ele>208.74</ele>
        <time>2020-02-09T16:51:49Z</time>
      </trkpt>
      <trkpt lat="43.17256" lon="2.43794">
        <ele>208.74</ele>
        <time>2020-02-09T16:51:50Z</time>
      </trkpt>
      <trkpt lat="43.17259" lon="2.43787">
        <ele>208.26</ele>
        <time>2020-02-09T16:51:51Z</time>
      </trkpt>
      <trkpt lat="43.17262" lon="2.4378">
        <ele>208.74</ele>
        <time>2020-02-09T16:51:52Z</time>
      </trkpt>
      <trkpt lat="43.17266" lon="2.43774">
        <ele>207.78</ele>
        <time>2020-02-09T16:51:53Z</time>
      </trkpt>
      <trkpt lat="43.17271" lon="2.43768">
        <ele>207.3</ele>
        <time>2020-02-09T16:51:54Z</time>
      </trkpt>
      <trkpt lat="43.17275" lon="2.43765">
        <ele>207.78</ele>
        <time>2020-02-09T16:51:55Z</time>
      </trkpt>
      <trkpt lat="43.17278" lon="2.43762">
        <ele>207.78</ele>
        <time>2020-02-09T16:51:56Z</time>
      </trkpt>
      <trkpt lat="43.17282" lon="2.43759">
        <ele>207.3</ele>
        <time>2020-02-09T16:51:57Z</time>
      </trkpt>
      <trkpt lat="43.173" lon="2.43749">
        <ele>205.38</ele>
        <time>2020-02-09T16:52:03Z</time>
      </trkpt>
      <trkpt lat="43.17304" lon="2.43745">
        <ele>205.38</ele>
        <time>2020-02-09T16:52:04Z</time>
      </trkpt>
      <trkpt lat="43.17308" lon="2.43739">
        <ele>204.42</ele>
        <time>2020-02-09T16:52:05Z</time>
      </trkpt>
      <trkpt lat="43.17312" lon="2.43732">
        <ele>203.94</ele>
        <time>2020-02-09T16:52:06Z</time>
      </trkpt>
      <trkpt lat="43.17316" lon="2.43724">
        <ele>203.46</ele>
        <time>2020-02-09T16:52:07Z</time>
      </trkpt>
      <trkpt lat="43.1732" lon="2.43715">
        <ele>202.98</ele>
        <time>2020-02-09T16:52:08Z</time>
      </trkpt>
      <trkpt lat="43.17323" lon="2.43705">
        <ele>201.53</ele>
        <time>2020-02-09T16:52:09Z</time>
      </trkpt>
      <trkpt lat="43.17333" lon="2.43671">
        <ele>198.17</ele>
        <time>2020-02-09T16:52:12Z</time>
      </trkpt>
      <trkpt lat="43.17341" lon="2.43635">
        <ele>193.84</ele>
        <time>2020-02-09T16:52:15Z</time>
      </trkpt>
      <trkpt lat="43.17343" lon="2.43622">
        <ele>192.4</ele>
        <time>2020-02-09T16:52:16Z</time>
      </trkpt>
      <trkpt lat="43.17346" lon="2.43609">
        <ele>191.92</ele>
        <time>2020-02-09T16:52:17Z</time>
      </trkpt>
      <trkpt lat="43.17354" lon="2.43584">
        <ele>189.04</ele>
        <time>2020-02-09T16:52:19Z</time>
      </trkpt>
      <trkpt lat="43.17356" lon="2.43573">
        <ele>187.11</ele>
        <time>2020-02-09T16:52:20Z</time>
      </trkpt>
      <trkpt lat="43.17356" lon="2.43562">
        <ele>187.11</ele>
        <time>2020-02-09T16:52:21Z</time>
      </trkpt>
      <trkpt lat="43.17357" lon="2.43551">
        <ele>185.67</ele>
        <time>2020-02-09T16:52:22Z</time>
      </trkpt>
      <trkpt lat="43.17357" lon="2.43539">
        <ele>185.19</ele>
        <time>2020-02-09T16:52:23Z</time>
      </trkpt>
      <trkpt lat="43.17359" lon="2.43526">
        <ele>184.71</ele>
        <time>2020-02-09T16:52:24Z</time>
      </trkpt>
      <trkpt lat="43.17362" lon="2.43513">
        <ele>182.31</ele>
        <time>2020-02-09T16:52:25Z</time>
      </trkpt>
      <trkpt lat="43.17366" lon="2.43501">
        <ele>181.83</ele>
        <time>2020-02-09T16:52:26Z</time>
      </trkpt>
      <trkpt lat="43.1737" lon="2.43489">
        <ele>180.38</ele>
        <time>2020-02-09T16:52:27Z</time>
      </trkpt>
      <trkpt lat="43.17372" lon="2.43477">
        <ele>179.9</ele>
        <time>2020-02-09T16:52:28Z</time>
      </trkpt>
      <trkpt lat="43.17374" lon="2.43465">
        <ele>178.94</ele>
        <time>2020-02-09T16:52:29Z</time>
      </trkpt>
      <trkpt lat="43.17374" lon="2.43405">
        <ele>175.1</ele>
        <time>2020-02-09T16:52:34Z</time>
      </trkpt>
      <trkpt lat="43.17375" lon="2.43395">
        <ele>175.58</ele>
        <time>2020-02-09T16:52:35Z</time>
      </trkpt>
      <trkpt lat="43.17378" lon="2.43386">
        <ele>174.62</ele>
        <time>2020-02-09T16:52:36Z</time>
      </trkpt>
      <trkpt lat="43.17382" lon="2.43378">
        <ele>174.62</ele>
        <time>2020-02-09T16:52:37Z</time>
      </trkpt>
      <trkpt lat="43.17386" lon="2.4337">
        <ele>174.62</ele>
        <time>2020-02-09T16:52:38Z</time>
      </trkpt>
      <trkpt lat="43.1739" lon="2.43364">
        <ele>175.1</ele>
        <time>2020-02-09T16:52:39Z</time>
      </trkpt>
      <trkpt lat="43.17394" lon="2.43358">
        <ele>175.1</ele>
        <time>2020-02-09T16:52:40Z</time>
      </trkpt>
      <trkpt lat="43.1742" lon="2.43326">
        <ele>177.02</ele>
        <time>2020-02-09T16:52:48Z</time>
      </trkpt>
      <trkpt lat="43.17424" lon="2.43286">
        <ele>180.38</ele>
        <time>2020-02-09T16:53:00Z</time>
      </trkpt>
      <trkpt lat="43.17428" lon="2.43242">
        <ele>183.27</ele>
        <time>2020-02-09T16:53:15Z</time>
      </trkpt>
      <trkpt lat="43.17467" lon="2.43173">
        <ele>184.71</ele>
        <time>2020-02-09T16:53:39Z</time>
      </trkpt>
      <trkpt lat="43.1752" lon="2.43101">
        <ele>186.15</ele>
        <time>2020-02-09T16:54:02Z</time>
      </trkpt>
      <trkpt lat="43.17557" lon="2.43064">
        <ele>185.19</ele>
        <time>2020-02-09T16:54:14Z</time>
      </trkpt>
      <trkpt lat="43.17564" lon="2.43051">
        <ele>184.71</ele>
        <time>2020-02-09T16:54:16Z</time>
      </trkpt>
      <trkpt lat="43.17566" lon="2.43043">
        <ele>183.75</ele>
        <time>2020-02-09T16:54:17Z</time>
      </trkpt>
      <trkpt lat="43.17568" lon="2.43035">
        <ele>184.23</ele>
        <time>2020-02-09T16:54:18Z</time>
      </trkpt>
      <trkpt lat="43.17569" lon="2.43026">
        <ele>183.27</ele>
        <time>2020-02-09T16:54:19Z</time>
      </trkpt>
      <trkpt lat="43.17569" lon="2.43016">
        <ele>183.27</ele>
        <time>2020-02-09T16:54:20Z</time>
      </trkpt>
      <trkpt lat="43.1757" lon="2.43007">
        <ele>182.79</ele>
        <time>2020-02-09T16:54:21Z</time>
      </trkpt>
      <trkpt lat="43.17575" lon="2.42936">
        <ele>180.38</ele>
        <time>2020-02-09T16:54:28Z</time>
      </trkpt>
      <trkpt lat="43.17578" lon="2.42927">
        <ele>178.94</ele>
        <time>2020-02-09T16:54:29Z</time>
      </trkpt>
      <trkpt lat="43.17581" lon="2.42918">
        <ele>179.9</ele>
        <time>2020-02-09T16:54:30Z</time>
      </trkpt>
      <trkpt lat="43.17586" lon="2.429">
        <ele>178.46</ele>
        <time>2020-02-09T16:54:32Z</time>
      </trkpt>
      <trkpt lat="43.17587" lon="2.4289">
        <ele>177.5</ele>
        <time>2020-02-09T16:54:33Z</time>
      </trkpt>
      <trkpt lat="43.17587" lon="2.4288">
        <ele>177.02</ele>
        <time>2020-02-09T16:54:34Z</time>
      </trkpt>
      <trkpt lat="43.17587" lon="2.4287">
        <ele>176.54</ele>
        <time>2020-02-09T16:54:35Z</time>
      </trkpt>
      <trkpt lat="43.17586" lon="2.4286">
        <ele>176.54</ele>
        <time>2020-02-09T16:54:36Z</time>
      </trkpt>
      <trkpt lat="43.17585" lon="2.42849">
        <ele>176.06</ele>
        <time>2020-02-09T16:54:37Z</time>
      </trkpt>
      <trkpt lat="43.17584" lon="2.4284">
        <ele>175.1</ele>
        <time>2020-02-09T16:54:38Z</time>
      </trkpt>
      <trkpt lat="43.17586" lon="2.42831">
        <ele>175.1</ele>
        <time>2020-02-09T16:54:39Z</time>
      </trkpt>
      <trkpt lat="43.17589" lon="2.42822">
        <ele>175.1</ele>
        <time>2020-02-09T16:54:40Z</time>
      </trkpt>
      <trkpt lat="43.17594" lon="2.42816">
        <ele>175.1</ele>
        <time>2020-02-09T16:54:41Z</time>
      </trkpt>
      <trkpt lat="43.176" lon="2.42811">
        <ele>174.62</ele>
        <time>2020-02-09T16:54:42Z</time>
      </trkpt>
      <trkpt lat="43.17607" lon="2.42807">
        <ele>173.66</ele>
        <time>2020-02-09T16:54:43Z</time>
      </trkpt>
      <trkpt lat="43.17613" lon="2.42804">
        <ele>173.17</ele>
        <time>2020-02-09T16:54:44Z</time>
      </trkpt>
      <trkpt lat="43.17618" lon="2.428">
        <ele>172.69</ele>
        <time>2020-02-09T16:54:45Z</time>
      </trkpt>
      <trkpt lat="43.17621" lon="2.42794">
        <ele>172.21</ele>
        <time>2020-02-09T16:54:46Z</time>
      </trkpt>
      <trkpt lat="43.17624" lon="2.42787">
        <ele>171.73</ele>
        <time>2020-02-09T16:54:47Z</time>
      </trkpt>
      <trkpt lat="43.17627" lon="2.42782">
        <ele>171.73</ele>
        <time>2020-02-09T16:54:48Z</time>
      </trkpt>
      <trkpt lat="43.17631" lon="2.42779">
        <ele>171.25</ele>
        <time>2020-02-09T16:54:49Z</time>
      </trkpt>
      <trkpt lat="43.17636" lon="2.42779">
        <ele>170.77</ele>
        <time>2020-02-09T16:54:50Z</time>
      </trkpt>
      <trkpt lat="43.17641" lon="2.42783">
        <ele>170.29</ele>
        <time>2020-02-09T16:54:51Z</time>
      </trkpt>
      <trkpt lat="43.17647" lon="2.42787">
        <ele>170.29</ele>
        <time>2020-02-09T16:54:52Z</time>
      </trkpt>
      <trkpt lat="43.17653" lon="2.42788">
        <ele>169.81</ele>
        <time>2020-02-09T16:54:53Z</time>
      </trkpt>
      <trkpt lat="43.17658" lon="2.42785">
        <ele>169.33</ele>
        <time>2020-02-09T16:54:54Z</time>
      </trkpt>
      <trkpt lat="43.17663" lon="2.4278">
        <ele>167.89</ele>
        <time>2020-02-09T16:54:55Z</time>
      </trkpt>
      <trkpt lat="43.17665" lon="2.42773">
        <ele>167.89</ele>
        <time>2020-02-09T16:54:56Z</time>
      </trkpt>
      <trkpt lat="43.17666" lon="2.42766">
        <ele>168.37</ele>
        <time>2020-02-09T16:54:57Z</time>
      </trkpt>
      <trkpt lat="43.17666" lon="2.42758">
        <ele>167.89</ele>
        <time>2020-02-09T16:54:58Z</time>
      </trkpt>
      <trkpt lat="43.17665" lon="2.42749">
        <ele>167.89</ele>
        <time>2020-02-09T16:54:59Z</time>
      </trkpt>
      <trkpt lat="43.17664" lon="2.42741">
        <ele>167.89</ele>
        <time>2020-02-09T16:55:00Z</time>
      </trkpt>
      <trkpt lat="43.17663" lon="2.42733">
        <ele>167.41</ele>
        <time>2020-02-09T16:55:01Z</time>
      </trkpt>
      <trkpt lat="43.17665" lon="2.42725">
        <ele>167.41</ele>
        <time>2020-02-09T16:55:02Z</time>
      </trkpt>
      <trkpt lat="43.17667" lon="2.42718">
        <ele>166.93</ele>
        <time>2020-02-09T16:55:03Z</time>
      </trkpt>
      <trkpt lat="43.17672" lon="2.42713">
        <ele>166.45</ele>
        <time>2020-02-09T16:55:04Z</time>
      </trkpt>
      <trkpt lat="43.17678" lon="2.42711">
        <ele>166.45</ele>
        <time>2020-02-09T16:55:05Z</time>
      </trkpt>
      <trkpt lat="43.17684" lon="2.42709">
        <ele>166.45</ele>
        <time>2020-02-09T16:55:06Z</time>
      </trkpt>
      <trkpt lat="43.1769" lon="2.42708">
        <ele>165.96</ele>
        <time>2020-02-09T16:55:07Z</time>
      </trkpt>
      <trkpt lat="43.17696" lon="2.42709">
        <ele>165.96</ele>
        <time>2020-02-09T16:55:08Z</time>
      </trkpt>
      <trkpt lat="43.17703" lon="2.42709">
        <ele>165.96</ele>
        <time>2020-02-09T16:55:09Z</time>
      </trkpt>
      <trkpt lat="43.17709" lon="2.4271">
        <ele>165.48</ele>
        <time>2020-02-09T16:55:10Z</time>
      </trkpt>
      <trkpt lat="43.17715" lon="2.4271">
        <ele>165.96</ele>
        <time>2020-02-09T16:55:11Z</time>
      </trkpt>
      <trkpt lat="43.17721" lon="2.4271">
        <ele>165</ele>
        <time>2020-02-09T16:55:12Z</time>
      </trkpt>
      <trkpt lat="43.17727" lon="2.42708">
        <ele>165</ele>
        <time>2020-02-09T16:55:13Z</time>
      </trkpt>
      <trkpt lat="43.17733" lon="2.42708">
        <ele>165.48</ele>
        <time>2020-02-09T16:55:14Z</time>
      </trkpt>
      <trkpt lat="43.17745" lon="2.42708">
        <ele>164.52</ele>
        <time>2020-02-09T16:55:16Z</time>
      </trkpt>
      <trkpt lat="43.17751" lon="2.42706">
        <ele>164.52</ele>
        <time>2020-02-09T16:55:17Z</time>
      </trkpt>
      <trkpt lat="43.17762" lon="2.42701">
        <ele>163.56</ele>
        <time>2020-02-09T16:55:19Z</time>
      </trkpt>
      <trkpt lat="43.17768" lon="2.42696">
        <ele>163.08</ele>
        <time>2020-02-09T16:55:20Z</time>
      </trkpt>
      <trkpt lat="43.17772" lon="2.4269">
        <ele>163.56</ele>
        <time>2020-02-09T16:55:21Z</time>
      </trkpt>
      <trkpt lat="43.17775" lon="2.42681">
        <ele>162.6</ele>
        <time>2020-02-09T16:55:22Z</time>
      </trkpt>
      <trkpt lat="43.17776" lon="2.42672">
        <ele>162.6</ele>
        <time>2020-02-09T16:55:23Z</time>
      </trkpt>
      <trkpt lat="43.17778" lon="2.42662">
        <ele>163.08</ele>
        <time>2020-02-09T16:55:24Z</time>
      </trkpt>
      <trkpt lat="43.17782" lon="2.42654">
        <ele>162.12</ele>
        <time>2020-02-09T16:55:25Z</time>
      </trkpt>
      <trkpt lat="43.17786" lon="2.42647">
        <ele>162.12</ele>
        <time>2020-02-09T16:55:26Z</time>
      </trkpt>
      <trkpt lat="43.17791" lon="2.4264">
        <ele>161.64</ele>
        <time>2020-02-09T16:55:27Z</time>
      </trkpt>
      <trkpt lat="43.17797" lon="2.42636">
        <ele>161.16</ele>
        <time>2020-02-09T16:55:28Z</time>
      </trkpt>
      <trkpt lat="43.17814" lon="2.42626">
        <ele>161.64</ele>
        <time>2020-02-09T16:55:31Z</time>
      </trkpt>
      <trkpt lat="43.1782" lon="2.42623">
        <ele>160.68</ele>
        <time>2020-02-09T16:55:32Z</time>
      </trkpt>
      <trkpt lat="43.17826" lon="2.4262">
        <ele>161.16</ele>
        <time>2020-02-09T16:55:33Z</time>
      </trkpt>
      <trkpt lat="43.17849" lon="2.42607">
        <ele>159.72</ele>
        <time>2020-02-09T16:55:37Z</time>
      </trkpt>
      <trkpt lat="43.17853" lon="2.42602">
        <ele>160.2</ele>
        <time>2020-02-09T16:55:38Z</time>
      </trkpt>
      <trkpt lat="43.17857" lon="2.42597">
        <ele>160.2</ele>
        <time>2020-02-09T16:55:39Z</time>
      </trkpt>
      <trkpt lat="43.1787" lon="2.42571">
        <ele>159.72</ele>
        <time>2020-02-09T16:55:43Z</time>
      </trkpt>
      <trkpt lat="43.17874" lon="2.42566">
        <ele>159.72</ele>
        <time>2020-02-09T16:55:44Z</time>
      </trkpt>
      <trkpt lat="43.17878" lon="2.42561">
        <ele>159.72</ele>
        <time>2020-02-09T16:55:45Z</time>
      </trkpt>
      <trkpt lat="43.17883" lon="2.42557">
        <ele>159.72</ele>
        <time>2020-02-09T16:55:46Z</time>
      </trkpt>
      <trkpt lat="43.17887" lon="2.42554">
        <ele>159.72</ele>
        <time>2020-02-09T16:55:47Z</time>
      </trkpt>
      <trkpt lat="43.1793" lon="2.42536">
        <ele>161.16</ele>
        <time>2020-02-09T16:55:57Z</time>
      </trkpt>
      <trkpt lat="43.17955" lon="2.42534">
        <ele>160.2</ele>
        <time>2020-02-09T16:56:03Z</time>
      </trkpt>
      <trkpt lat="43.17958" lon="2.42533">
        <ele>160.2</ele>
        <time>2020-02-09T16:56:04Z</time>
      </trkpt>
      <trkpt lat="43.17962" lon="2.4253">
        <ele>160.2</ele>
        <time>2020-02-09T16:56:05Z</time>
      </trkpt>
      <trkpt lat="43.17965" lon="2.42526">
        <ele>160.68</ele>
        <time>2020-02-09T16:56:06Z</time>
      </trkpt>
      <trkpt lat="43.17968" lon="2.42521">
        <ele>160.2</ele>
        <time>2020-02-09T16:56:07Z</time>
      </trkpt>
      <trkpt lat="43.1797" lon="2.42516">
        <ele>160.68</ele>
        <time>2020-02-09T16:56:08Z</time>
      </trkpt>
      <trkpt lat="43.17972" lon="2.42511">
        <ele>160.2</ele>
        <time>2020-02-09T16:56:09Z</time>
      </trkpt>
      <trkpt lat="43.17973" lon="2.42505">
        <ele>160.2</ele>
        <time>2020-02-09T16:56:10Z</time>
      </trkpt>
      <trkpt lat="43.17985" lon="2.42475">
        <ele>161.16</ele>
        <time>2020-02-09T16:56:16Z</time>
      </trkpt>
      <trkpt lat="43.18028" lon="2.42382">
        <ele>161.64</ele>
        <time>2020-02-09T16:56:36Z</time>
      </trkpt>
      <trkpt lat="43.18051" lon="2.42343">
        <ele>162.6</ele>
        <time>2020-02-09T16:56:46Z</time>
      </trkpt>
      <trkpt lat="43.18058" lon="2.42336">
        <ele>162.12</ele>
        <time>2020-02-09T16:56:48Z</time>
      </trkpt>
      <trkpt lat="43.18074" lon="2.42314">
        <ele>160.68</ele>
        <time>2020-02-09T16:56:52Z</time>
      </trkpt>
      <trkpt lat="43.18085" lon="2.42295">
        <ele>160.68</ele>
        <time>2020-02-09T16:56:55Z</time>
      </trkpt>
      <trkpt lat="43.18092" lon="2.42283">
        <ele>160.68</ele>
        <time>2020-02-09T16:56:57Z</time>
      </trkpt>
      <trkpt lat="43.181" lon="2.42271">
        <ele>161.16</ele>
        <time>2020-02-09T16:56:59Z</time>
      </trkpt>
      <trkpt lat="43.18104" lon="2.42265">
        <ele>160.2</ele>
        <time>2020-02-09T16:57:00Z</time>
      </trkpt>
      <trkpt lat="43.18107" lon="2.42259">
        <ele>160.2</ele>
        <time>2020-02-09T16:57:01Z</time>
      </trkpt>
      <trkpt lat="43.1811" lon="2.42254">
        <ele>160.2</ele>
        <time>2020-02-09T16:57:02Z</time>
      </trkpt>
      <trkpt lat="43.18112" lon="2.42248">
        <ele>159.72</ele>
        <time>2020-02-09T16:57:03Z</time>
      </trkpt>
      <trkpt lat="43.18135" lon="2.42206">
        <ele>157.79</ele>
        <time>2020-02-09T16:57:12Z</time>
      </trkpt>
      <trkpt lat="43.18139" lon="2.42205">
        <ele>158.27</ele>
        <time>2020-02-09T16:57:13Z</time>
      </trkpt>
      <trkpt lat="43.18143" lon="2.42206">
        <ele>157.79</ele>
        <time>2020-02-09T16:57:14Z</time>
      </trkpt>
      <trkpt lat="43.18147" lon="2.42205">
        <ele>157.79</ele>
        <time>2020-02-09T16:57:15Z</time>
      </trkpt>
      <trkpt lat="43.18151" lon="2.42202">
        <ele>157.31</ele>
        <time>2020-02-09T16:57:16Z</time>
      </trkpt>
      <trkpt lat="43.18154" lon="2.42197">
        <ele>157.31</ele>
        <time>2020-02-09T16:57:17Z</time>
      </trkpt>
      <trkpt lat="43.18155" lon="2.42191">
        <ele>156.83</ele>
        <time>2020-02-09T16:57:18Z</time>
      </trkpt>
      <trkpt lat="43.18157" lon="2.42186">
        <ele>157.31</ele>
        <time>2020-02-09T16:57:19Z</time>
      </trkpt>
      <trkpt lat="43.18163" lon="2.42157">
        <ele>153.47</ele>
        <time>2020-02-09T16:57:24Z</time>
      </trkpt>
      <trkpt lat="43.18167" lon="2.42143">
        <ele>155.39</ele>
        <time>2020-02-09T16:57:26Z</time>
      </trkpt>
      <trkpt lat="43.18169" lon="2.42137">
        <ele>154.91</ele>
        <time>2020-02-09T16:57:27Z</time>
      </trkpt>
      <trkpt lat="43.18171" lon="2.42132">
        <ele>154.91</ele>
        <time>2020-02-09T16:57:28Z</time>
      </trkpt>
      <trkpt lat="43.18174" lon="2.42127">
        <ele>154.91</ele>
        <time>2020-02-09T16:57:29Z</time>
      </trkpt>
      <trkpt lat="43.18177" lon="2.42123">
        <ele>154.91</ele>
        <time>2020-02-09T16:57:30Z</time>
      </trkpt>
      <trkpt lat="43.18181" lon="2.42118">
        <ele>153.95</ele>
        <time>2020-02-09T16:57:31Z</time>
      </trkpt>
      <trkpt lat="43.18186" lon="2.42114">
        <ele>153.95</ele>
        <time>2020-02-09T16:57:32Z</time>
      </trkpt>
      <trkpt lat="43.18191" lon="2.4211">
        <ele>153.47</ele>
        <time>2020-02-09T16:57:33Z</time>
      </trkpt>
      <trkpt lat="43.18195" lon="2.42108">
        <ele>152.51</ele>
        <time>2020-02-09T16:57:34Z</time>
      </trkpt>
      <trkpt lat="43.18211" lon="2.42102">
        <ele>149.62</ele>
        <time>2020-02-09T16:57:38Z</time>
      </trkpt>
      <trkpt lat="43.18216" lon="2.42095">
        <ele>149.14</ele>
        <time>2020-02-09T16:57:40Z</time>
      </trkpt>
      <trkpt lat="43.18216" lon="2.42092">
        <ele>149.62</ele>
        <time>2020-02-09T16:57:41Z</time>
      </trkpt>
      <trkpt lat="43.18215" lon="2.4209">
        <ele>150.1</ele>
        <time>2020-02-09T16:57:42Z</time>
      </trkpt>
      <trkpt lat="43.18213" lon="2.42089">
        <ele>150.1</ele>
        <time>2020-02-09T16:57:43Z</time>
      </trkpt>
      <trkpt lat="43.18209" lon="2.42088">
        <ele>150.1</ele>
        <time>2020-02-09T16:57:44Z</time>
      </trkpt>
      <trkpt lat="43.18205" lon="2.42089">
        <ele>149.14</ele>
        <time>2020-02-09T16:57:45Z</time>
      </trkpt>
      <trkpt lat="43.18201" lon="2.4209">
        <ele>149.14</ele>
        <time>2020-02-09T16:57:46Z</time>
      </trkpt>
      <trkpt lat="43.18174" lon="2.42094">
        <ele>146.26</ele>
        <time>2020-02-09T16:57:54Z</time>
      </trkpt>
      <trkpt lat="43.1817" lon="2.42096">
        <ele>146.26</ele>
        <time>2020-02-09T16:57:55Z</time>
      </trkpt>
      <trkpt lat="43.18167" lon="2.42099">
        <ele>146.26</ele>
        <time>2020-02-09T16:57:56Z</time>
      </trkpt>
      <trkpt lat="43.18164" lon="2.42101">
        <ele>145.78</ele>
        <time>2020-02-09T16:57:57Z</time>
      </trkpt>
      <trkpt lat="43.18162" lon="2.42102">
        <ele>145.78</ele>
        <time>2020-02-09T16:57:58Z</time>
      </trkpt>
      <trkpt lat="43.1816" lon="2.42101">
        <ele>145.78</ele>
        <time>2020-02-09T16:57:59Z</time>
      </trkpt>
      <trkpt lat="43.18158" lon="2.421">
        <ele>146.26</ele>
        <time>2020-02-09T16:58:00Z</time>
      </trkpt>
      <trkpt lat="43.18156" lon="2.42098">
        <ele>145.78</ele>
        <time>2020-02-09T16:58:01Z</time>
      </trkpt>
      <trkpt lat="43.18146" lon="2.42091">
        <ele>142.89</ele>
        <time>2020-02-09T16:58:05Z</time>
      </trkpt>
      <trkpt lat="43.18143" lon="2.4209">
        <ele>142.89</ele>
        <time>2020-02-09T16:58:06Z</time>
      </trkpt>
      <trkpt lat="43.18137" lon="2.42085">
        <ele>142.89</ele>
        <time>2020-02-09T16:58:09Z</time>
      </trkpt>
      <trkpt lat="43.18136" lon="2.42082">
        <ele>142.41</ele>
        <time>2020-02-09T16:58:10Z</time>
      </trkpt>
      <trkpt lat="43.18135" lon="2.4208">
        <ele>142.89</ele>
        <time>2020-02-09T16:58:11Z</time>
      </trkpt>
      <trkpt lat="43.18134" lon="2.42076">
        <ele>142.89</ele>
        <time>2020-02-09T16:58:12Z</time>
      </trkpt>
      <trkpt lat="43.18133" lon="2.42072">
        <ele>142.89</ele>
        <time>2020-02-09T16:58:13Z</time>
      </trkpt>
      <trkpt lat="43.18125" lon="2.42025">
        <ele>145.3</ele>
        <time>2020-02-09T16:58:30Z</time>
      </trkpt>
      <trkpt lat="43.18125" lon="2.42022">
        <ele>145.78</ele>
        <time>2020-02-09T16:58:32Z</time>
      </trkpt>
      <trkpt lat="43.18129" lon="2.42007">
        <ele>146.26</ele>
        <time>2020-02-09T16:58:38Z</time>
      </trkpt>
      <trkpt lat="43.18129" lon="2.42004">
        <ele>146.74</ele>
        <time>2020-02-09T16:58:39Z</time>
      </trkpt>
      <trkpt lat="43.1813" lon="2.42002">
        <ele>146.74</ele>
        <time>2020-02-09T16:58:40Z</time>
      </trkpt>
      <trkpt lat="43.18131" lon="2.42">
        <ele>146.74</ele>
        <time>2020-02-09T16:58:41Z</time>
      </trkpt>
      <trkpt lat="43.18132" lon="2.41998">
        <ele>146.74</ele>
        <time>2020-02-09T16:58:42Z</time>
      </trkpt>
      <trkpt lat="43.18134" lon="2.41993">
        <ele>147.7</ele>
        <time>2020-02-09T16:58:44Z</time>
      </trkpt>
      <trkpt lat="43.18141" lon="2.41944">
        <ele>147.22</ele>
        <time>2020-02-09T16:59:06Z</time>
      </trkpt>
      <trkpt lat="43.18148" lon="2.41908">
        <ele>144.34</ele>
        <time>2020-02-09T16:59:15Z</time>
      </trkpt>
      <trkpt lat="43.18157" lon="2.41841">
        <ele>144.34</ele>
        <time>2020-02-09T16:59:31Z</time>
      </trkpt>
      <trkpt lat="43.18129" lon="2.41794">
        <ele>147.22</ele>
        <time>2020-02-09T16:59:47Z</time>
      </trkpt>
      <trkpt lat="43.18126" lon="2.41792">
        <ele>146.74</ele>
        <time>2020-02-09T16:59:48Z</time>
      </trkpt>
      <trkpt lat="43.18123" lon="2.41792">
        <ele>147.22</ele>
        <time>2020-02-09T16:59:49Z</time>
      </trkpt>
      <trkpt lat="43.18077" lon="2.41751">
        <ele>145.78</ele>
        <time>2020-02-09T17:00:06Z</time>
      </trkpt>
      <trkpt lat="43.18073" lon="2.41748">
        <ele>145.3</ele>
        <time>2020-02-09T17:00:07Z</time>
      </trkpt>
      <trkpt lat="43.18069" lon="2.41746">
        <ele>145.3</ele>
        <time>2020-02-09T17:00:08Z</time>
      </trkpt>
      <trkpt lat="43.18063" lon="2.41746">
        <ele>145.78</ele>
        <time>2020-02-09T17:00:09Z</time>
      </trkpt>
      <trkpt lat="43.18057" lon="2.41747">
        <ele>144.82</ele>
        <time>2020-02-09T17:00:10Z</time>
      </trkpt>
      <trkpt lat="43.18052" lon="2.41749">
        <ele>144.34</ele>
        <time>2020-02-09T17:00:11Z</time>
      </trkpt>
      <trkpt lat="43.18047" lon="2.41752">
        <ele>144.34</ele>
        <time>2020-02-09T17:00:12Z</time>
      </trkpt>
      <trkpt lat="43.18044" lon="2.41755">
        <ele>143.85</ele>
        <time>2020-02-09T17:00:13Z</time>
      </trkpt>
      <trkpt lat="43.18041" lon="2.41759">
        <ele>144.34</ele>
        <time>2020-02-09T17:00:14Z</time>
      </trkpt>
      <trkpt lat="43.18038" lon="2.41764">
        <ele>143.85</ele>
        <time>2020-02-09T17:00:15Z</time>
      </trkpt>
      <trkpt lat="43.18034" lon="2.4177">
        <ele>143.85</ele>
        <time>2020-02-09T17:00:16Z</time>
      </trkpt>
      <trkpt lat="43.18031" lon="2.41776">
        <ele>142.89</ele>
        <time>2020-02-09T17:00:17Z</time>
      </trkpt>
      <trkpt lat="43.18027" lon="2.41782">
        <ele>142.89</ele>
        <time>2020-02-09T17:00:18Z</time>
      </trkpt>
      <trkpt lat="43.18023" lon="2.41787">
        <ele>142.41</ele>
        <time>2020-02-09T17:00:19Z</time>
      </trkpt>
      <trkpt lat="43.18019" lon="2.41791">
        <ele>142.41</ele>
        <time>2020-02-09T17:00:20Z</time>
      </trkpt>
      <trkpt lat="43.18016" lon="2.41794">
        <ele>143.37</ele>
        <time>2020-02-09T17:00:21Z</time>
      </trkpt>
      <trkpt lat="43.18012" lon="2.41797">
        <ele>142.89</ele>
        <time>2020-02-09T17:00:22Z</time>
      </trkpt>
      <trkpt lat="43.18005" lon="2.41803">
        <ele>143.37</ele>
        <time>2020-02-09T17:00:24Z</time>
      </trkpt>
      <trkpt lat="43.17961" lon="2.41836">
        <ele>145.78</ele>
        <time>2020-02-09T17:00:39Z</time>
      </trkpt>
      <trkpt lat="43.17934" lon="2.41857">
        <ele>148.66</ele>
        <time>2020-02-09T17:00:48Z</time>
      </trkpt>
      <trkpt lat="43.17904" lon="2.41875">
        <ele>148.18</ele>
        <time>2020-02-09T17:00:58Z</time>
      </trkpt>
      <trkpt lat="43.17893" lon="2.41874">
        <ele>147.7</ele>
        <time>2020-02-09T17:01:00Z</time>
      </trkpt>
      <trkpt lat="43.17886" lon="2.41872">
        <ele>146.74</ele>
        <time>2020-02-09T17:01:01Z</time>
      </trkpt>
      <trkpt lat="43.17868" lon="2.41865">
        <ele>145.3</ele>
        <time>2020-02-09T17:01:04Z</time>
      </trkpt>
      <trkpt lat="43.17863" lon="2.4186">
        <ele>144.82</ele>
        <time>2020-02-09T17:01:05Z</time>
      </trkpt>
      <trkpt lat="43.17859" lon="2.41854">
        <ele>145.3</ele>
        <time>2020-02-09T17:01:06Z</time>
      </trkpt>
      <trkpt lat="43.17822" lon="2.41789">
        <ele>142.89</ele>
        <time>2020-02-09T17:01:16Z</time>
      </trkpt>
      <trkpt lat="43.17821" lon="2.41783">
        <ele>143.37</ele>
        <time>2020-02-09T17:01:17Z</time>
      </trkpt>
      <trkpt lat="43.17822" lon="2.41778">
        <ele>143.37</ele>
        <time>2020-02-09T17:01:18Z</time>
      </trkpt>
      <trkpt lat="43.17824" lon="2.41775">
        <ele>142.89</ele>
        <time>2020-02-09T17:01:19Z</time>
      </trkpt>
      <trkpt lat="43.17827" lon="2.41772">
        <ele>142.89</ele>
        <time>2020-02-09T17:01:20Z</time>
      </trkpt>
      <trkpt lat="43.17831" lon="2.4177">
        <ele>143.85</ele>
        <time>2020-02-09T17:01:21Z</time>
      </trkpt>
      <trkpt lat="43.17834" lon="2.41768">
        <ele>143.37</ele>
        <time>2020-02-09T17:01:22Z</time>
      </trkpt>
      <trkpt lat="43.17837" lon="2.41767">
        <ele>143.85</ele>
        <time>2020-02-09T17:01:23Z</time>
      </trkpt>
      <trkpt lat="43.1784" lon="2.41767">
        <ele>143.37</ele>
        <time>2020-02-09T17:01:24Z</time>
      </trkpt>
      <trkpt lat="43.17844" lon="2.41767">
        <ele>143.37</ele>
        <time>2020-02-09T17:01:25Z</time>
      </trkpt>
      <trkpt lat="43.17909" lon="2.41777">
        <ele>143.37</ele>
        <time>2020-02-09T17:01:43Z</time>
      </trkpt>
      <trkpt lat="43.17915" lon="2.41778">
        <ele>142.89</ele>
        <time>2020-02-09T17:01:44Z</time>
      </trkpt>
      <trkpt lat="43.17921" lon="2.41777">
        <ele>143.37</ele>
        <time>2020-02-09T17:01:45Z</time>
      </trkpt>
      <trkpt lat="43.17927" lon="2.41774">
        <ele>143.37</ele>
        <time>2020-02-09T17:01:46Z</time>
      </trkpt>
      <trkpt lat="43.17933" lon="2.41771">
        <ele>143.37</ele>
        <time>2020-02-09T17:01:47Z</time>
      </trkpt>
      <trkpt lat="43.17938" lon="2.41766">
        <ele>143.37</ele>
        <time>2020-02-09T17:01:48Z</time>
      </trkpt>
      <trkpt lat="43.17947" lon="2.41757">
        <ele>143.37</ele>
        <time>2020-02-09T17:01:50Z</time>
      </trkpt>
      <trkpt lat="43.17951" lon="2.41752">
        <ele>143.37</ele>
        <time>2020-02-09T17:01:51Z</time>
      </trkpt>
      <trkpt lat="43.17954" lon="2.41746">
        <ele>142.89</ele>
        <time>2020-02-09T17:01:52Z</time>
      </trkpt>
      <trkpt lat="43.17963" lon="2.41728">
        <ele>143.37</ele>
        <time>2020-02-09T17:01:55Z</time>
      </trkpt>
      <trkpt lat="43.18016" lon="2.41633">
        <ele>142.41</ele>
        <time>2020-02-09T17:02:13Z</time>
      </trkpt>
      <trkpt lat="43.1802" lon="2.4163">
        <ele>142.41</ele>
        <time>2020-02-09T17:02:14Z</time>
      </trkpt>
      <trkpt lat="43.18023" lon="2.41627">
        <ele>142.41</ele>
        <time>2020-02-09T17:02:15Z</time>
      </trkpt>
      <trkpt lat="43.18096" lon="2.41586">
        <ele>142.89</ele>
        <time>2020-02-09T17:02:35Z</time>
      </trkpt>
      <trkpt lat="43.18099" lon="2.41583">
        <ele>142.89</ele>
        <time>2020-02-09T17:02:36Z</time>
      </trkpt>
      <trkpt lat="43.18106" lon="2.41574">
        <ele>142.41</ele>
        <time>2020-02-09T17:02:38Z</time>
      </trkpt>
      <trkpt lat="43.18117" lon="2.41561">
        <ele>142.41</ele>
        <time>2020-02-09T17:02:41Z</time>
      </trkpt>
      <trkpt lat="43.1812" lon="2.41557">
        <ele>142.41</ele>
        <time>2020-02-09T17:02:42Z</time>
      </trkpt>
      <trkpt lat="43.18128" lon="2.41552">
        <ele>142.41</ele>
        <time>2020-02-09T17:02:44Z</time>
      </trkpt>
      <trkpt lat="43.18132" lon="2.41549">
        <ele>142.41</ele>
        <time>2020-02-09T17:02:45Z</time>
      </trkpt>
      <trkpt lat="43.18144" lon="2.41541">
        <ele>142.41</ele>
        <time>2020-02-09T17:02:48Z</time>
      </trkpt>
      <trkpt lat="43.18148" lon="2.4154">
        <ele>142.89</ele>
        <time>2020-02-09T17:02:49Z</time>
      </trkpt>
      <trkpt lat="43.18151" lon="2.41539">
        <ele>142.41</ele>
        <time>2020-02-09T17:02:50Z</time>
      </trkpt>
      <trkpt lat="43.18155" lon="2.4154">
        <ele>143.37</ele>
        <time>2020-02-09T17:02:51Z</time>
      </trkpt>
      <trkpt lat="43.18158" lon="2.41543">
        <ele>143.85</ele>
        <time>2020-02-09T17:02:52Z</time>
      </trkpt>
      <trkpt lat="43.1816" lon="2.41546">
        <ele>144.82</ele>
        <time>2020-02-09T17:02:53Z</time>
      </trkpt>
      <trkpt lat="43.18162" lon="2.4155">
        <ele>143.85</ele>
        <time>2020-02-09T17:02:54Z</time>
      </trkpt>
      <trkpt lat="43.18164" lon="2.41555">
        <ele>143.85</ele>
        <time>2020-02-09T17:02:55Z</time>
      </trkpt>
      <trkpt lat="43.18179" lon="2.41587">
        <ele>146.26</ele>
        <time>2020-02-09T17:03:04Z</time>
      </trkpt>
      <trkpt lat="43.1821" lon="2.41633">
        <ele>148.18</ele>
        <time>2020-02-09T17:03:23Z</time>
      </trkpt>
      <trkpt lat="43.18234" lon="2.41622">
        <ele>151.06</ele>
        <time>2020-02-09T17:03:39Z</time>
      </trkpt>
      <trkpt lat="43.18236" lon="2.41571">
        <ele>152.51</ele>
        <time>2020-02-09T17:03:57Z</time>
      </trkpt>
      <trkpt lat="43.18229" lon="2.41532">
        <ele>153.95</ele>
        <time>2020-02-09T17:04:13Z</time>
      </trkpt>
      <trkpt lat="43.18252" lon="2.41491">
        <ele>155.87</ele>
        <time>2020-02-09T17:04:33Z</time>
      </trkpt>
      <trkpt lat="43.18259" lon="2.41472">
        <ele>157.79</ele>
        <time>2020-02-09T17:04:41Z</time>
      </trkpt>
      <trkpt lat="43.1826" lon="2.41471">
        <ele>157.79</ele>
        <time>2020-02-09T17:04:42Z</time>
      </trkpt>
      <trkpt lat="43.18262" lon="2.4147">
        <ele>157.79</ele>
        <time>2020-02-09T17:04:43Z</time>
      </trkpt>
      <trkpt lat="43.18263" lon="2.4147">
        <ele>158.27</ele>
        <time>2020-02-09T17:04:44Z</time>
      </trkpt>
      <trkpt lat="43.18265" lon="2.4147">
        <ele>157.79</ele>
        <time>2020-02-09T17:04:45Z</time>
      </trkpt>
      <trkpt lat="43.18268" lon="2.4147">
        <ele>158.27</ele>
        <time>2020-02-09T17:04:46Z</time>
      </trkpt>
      <trkpt lat="43.18281" lon="2.41465">
        <ele>158.75</ele>
        <time>2020-02-09T17:04:54Z</time>
      </trkpt>
      <trkpt lat="43.18296" lon="2.41487">
        <ele>160.2</ele>
        <time>2020-02-09T17:05:06Z</time>
      </trkpt>
      <trkpt lat="43.18302" lon="2.41491">
        <ele>160.68</ele>
        <time>2020-02-09T17:05:10Z</time>
      </trkpt>
      <trkpt lat="43.18303" lon="2.4149">
        <ele>160.68</ele>
        <time>2020-02-09T17:05:11Z</time>
      </trkpt>
      <trkpt lat="43.18305" lon="2.41488">
        <ele>160.68</ele>
        <time>2020-02-09T17:05:12Z</time>
      </trkpt>
      <trkpt lat="43.18306" lon="2.41486">
        <ele>160.68</ele>
        <time>2020-02-09T17:05:13Z</time>
      </trkpt>
      <trkpt lat="43.18307" lon="2.41485">
        <ele>161.64</ele>
        <time>2020-02-09T17:05:14Z</time>
      </trkpt>
      <trkpt lat="43.18309" lon="2.41484">
        <ele>161.64</ele>
        <time>2020-02-09T17:05:15Z</time>
      </trkpt>
      <trkpt lat="43.1831" lon="2.41484">
        <ele>161.16</ele>
        <time>2020-02-09T17:05:16Z</time>
      </trkpt>
      <trkpt lat="43.18312" lon="2.41486">
        <ele>161.16</ele>
        <time>2020-02-09T17:05:17Z</time>
      </trkpt>
      <trkpt lat="43.18313" lon="2.41488">
        <ele>161.16</ele>
        <time>2020-02-09T17:05:18Z</time>
      </trkpt>
      <trkpt lat="43.18315" lon="2.4149">
        <ele>161.16</ele>
        <time>2020-02-09T17:05:19Z</time>
      </trkpt>
      <trkpt lat="43.18316" lon="2.41492">
        <ele>161.16</ele>
        <time>2020-02-09T17:05:20Z</time>
      </trkpt>
      <trkpt lat="43.18318" lon="2.41495">
        <ele>161.64</ele>
        <time>2020-02-09T17:05:21Z</time>
      </trkpt>
      <trkpt lat="43.1832" lon="2.41497">
        <ele>161.64</ele>
        <time>2020-02-09T17:05:22Z</time>
      </trkpt>
      <trkpt lat="43.18321" lon="2.415">
        <ele>161.64</ele>
        <time>2020-02-09T17:05:23Z</time>
      </trkpt>
      <trkpt lat="43.18343" lon="2.41529">
        <ele>161.64</ele>
        <time>2020-02-09T17:05:35Z</time>
      </trkpt>
      <trkpt lat="43.18346" lon="2.4153">
        <ele>161.16</ele>
        <time>2020-02-09T17:05:36Z</time>
      </trkpt>
      <trkpt lat="43.18348" lon="2.41529">
        <ele>161.64</ele>
        <time>2020-02-09T17:05:37Z</time>
      </trkpt>
      <trkpt lat="43.1835" lon="2.41527">
        <ele>161.64</ele>
        <time>2020-02-09T17:05:38Z</time>
      </trkpt>
      <trkpt lat="43.18351" lon="2.41524">
        <ele>162.12</ele>
        <time>2020-02-09T17:05:39Z</time>
      </trkpt>
      <trkpt lat="43.18351" lon="2.41522">
        <ele>162.12</ele>
        <time>2020-02-09T17:05:40Z</time>
      </trkpt>
      <trkpt lat="43.18352" lon="2.41519">
        <ele>162.6</ele>
        <time>2020-02-09T17:05:41Z</time>
      </trkpt>
      <trkpt lat="43.18353" lon="2.41516">
        <ele>162.6</ele>
        <time>2020-02-09T17:05:42Z</time>
      </trkpt>
      <trkpt lat="43.18354" lon="2.41513">
        <ele>163.08</ele>
        <time>2020-02-09T17:05:43Z</time>
      </trkpt>
      <trkpt lat="43.18344" lon="2.41428">
        <ele>165.48</ele>
        <time>2020-02-09T17:06:09Z</time>
      </trkpt>
      <trkpt lat="43.1834" lon="2.41416">
        <ele>165.96</ele>
        <time>2020-02-09T17:06:13Z</time>
      </trkpt>
      <trkpt lat="43.18336" lon="2.414">
        <ele>165.96</ele>
        <time>2020-02-09T17:06:30Z</time>
      </trkpt>
      <trkpt lat="43.18338" lon="2.41401">
        <ele>165.96</ele>
        <time>2020-02-09T17:07:29Z</time>
      </trkpt>
      <trkpt lat="43.18336" lon="2.41401">
        <ele>165.96</ele>
        <time>2020-02-09T17:08:15Z</time>
      </trkpt>
      <trkpt lat="43.18335" lon="2.41398">
        <ele>165.96</ele>
        <time>2020-02-09T17:08:28Z</time>
      </trkpt>
      <trkpt lat="43.18333" lon="2.41397">
        <ele>165.96</ele>
        <time>2020-02-09T17:08:29Z</time>
      </trkpt>
      <trkpt lat="43.18332" lon="2.41396">
        <ele>166.45</ele>
        <time>2020-02-09T17:08:30Z</time>
      </trkpt>
      <trkpt lat="43.18331" lon="2.41393">
        <ele>165.96</ele>
        <time>2020-02-09T17:08:31Z</time>
      </trkpt>
      <trkpt lat="43.1833" lon="2.4139">
        <ele>165.96</ele>
        <time>2020-02-09T17:08:32Z</time>
      </trkpt>
      <trkpt lat="43.18331" lon="2.41388">
        <ele>165.96</ele>
        <time>2020-02-09T17:08:33Z</time>
      </trkpt>
      <trkpt lat="43.18331" lon="2.41385">
        <ele>166.45</ele>
        <time>2020-02-09T17:08:34Z</time>
      </trkpt>
      <trkpt lat="43.18331" lon="2.41382">
        <ele>165.96</ele>
        <time>2020-02-09T17:08:35Z</time>
      </trkpt>
      <trkpt lat="43.18331" lon="2.41378">
        <ele>166.45</ele>
        <time>2020-02-09T17:08:36Z</time>
      </trkpt>
    </trkseg>
  </trk>
</gpx>